<?xml version="1.0" encoding="UTF-8" standalone="no" ?>
<gpx xmlns="http://www.topografix.com/GPX/1/1" xmlns:xsi="http://www.w3.org/2001/XMLSchema-instance" xsi:schemaLocation="http://www.topografix.com/GPX/1/1 http://www.topografix.com/GPX/1/1/gpx.xsd" version="1.1" creator="VisuGPX - https://www.visugpx.com">
  <metadata>
    <name>sortie du dimanche 13 septembre 2015</name>
    <desc><![CDATA[Randonnée 30 kms du 13 septembre 2015 à Ecos 27630]]></desc>
  </metadata>
  <trk>
    <name><![CDATA[sortie du dimanche 13 septembre 2015_1]]></name>
    <trkseg>
      <trkpt lat="49.15738" lon="1.59828">
        <ele>112.93252563477</ele>
        <time>2015-09-13T06:49:50.000Z</time>
      </trkpt>
      <trkpt lat="49.15736" lon="1.59828">
        <ele>112.92317199707</ele>
        <time>2015-09-13T06:50:21.000Z</time>
      </trkpt>
      <trkpt lat="49.15737" lon="1.59829">
        <ele>112.91596221924</ele>
        <time>2015-09-13T06:50:33.000Z</time>
      </trkpt>
      <trkpt lat="49.15738" lon="1.5983">
        <ele>112.91104125977</ele>
        <time>2015-09-13T06:50:36.000Z</time>
      </trkpt>
      <trkpt lat="49.15739" lon="1.59834">
        <ele>112.90107727051</ele>
        <time>2015-09-13T06:50:38.000Z</time>
      </trkpt>
      <trkpt lat="49.15741" lon="1.59834">
        <ele>112.89095306396</ele>
        <time>2015-09-13T06:50:42.000Z</time>
      </trkpt>
      <trkpt lat="49.15746" lon="1.59829">
        <ele>112.9086151123</ele>
        <time>2015-09-13T06:50:44.000Z</time>
      </trkpt>
      <trkpt lat="49.15749" lon="1.59824">
        <ele>112.94882965088</ele>
        <time>2015-09-13T06:50:47.000Z</time>
      </trkpt>
      <trkpt lat="49.15755" lon="1.59814">
        <ele>113.04008483887</ele>
        <time>2015-09-13T06:50:49.000Z</time>
      </trkpt>
      <trkpt lat="49.15761" lon="1.59806">
        <ele>113.18745422363</ele>
        <time>2015-09-13T06:50:53.000Z</time>
      </trkpt>
      <trkpt lat="49.15764" lon="1.59806">
        <ele>113.34304046631</ele>
        <time>2015-09-13T06:50:54.000Z</time>
      </trkpt>
      <trkpt lat="49.15771" lon="1.59811">
        <ele>113.49729156494</ele>
        <time>2015-09-13T06:50:59.000Z</time>
      </trkpt>
      <trkpt lat="49.15776" lon="1.59818">
        <ele>113.63739013672</ele>
        <time>2015-09-13T06:50:59.000Z</time>
      </trkpt>
      <trkpt lat="49.15782" lon="1.5983">
        <ele>113.72592926025</ele>
        <time>2015-09-13T06:51:03.000Z</time>
      </trkpt>
      <trkpt lat="49.15788" lon="1.59844">
        <ele>113.75045013428</ele>
        <time>2015-09-13T06:51:05.000Z</time>
      </trkpt>
      <trkpt lat="49.15792" lon="1.59858">
        <ele>113.73447418213</ele>
        <time>2015-09-13T06:51:09.000Z</time>
      </trkpt>
      <trkpt lat="49.158" lon="1.59872">
        <ele>113.67121887207</ele>
        <time>2015-09-13T06:51:11.000Z</time>
      </trkpt>
      <trkpt lat="49.15807" lon="1.59891">
        <ele>113.55395507812</ele>
        <time>2015-09-13T06:51:15.000Z</time>
      </trkpt>
      <trkpt lat="49.15814" lon="1.59904">
        <ele>113.40348815918</ele>
        <time>2015-09-13T06:51:18.000Z</time>
      </trkpt>
      <trkpt lat="49.15818" lon="1.59913">
        <ele>113.23913574219</ele>
        <time>2015-09-13T06:51:20.000Z</time>
      </trkpt>
      <trkpt lat="49.1582" lon="1.59921">
        <ele>113.0884552002</ele>
        <time>2015-09-13T06:51:22.000Z</time>
      </trkpt>
      <trkpt lat="49.15824" lon="1.59932">
        <ele>112.96604919434</ele>
        <time>2015-09-13T06:51:25.000Z</time>
      </trkpt>
      <trkpt lat="49.15826" lon="1.59937">
        <ele>112.89788818359</ele>
        <time>2015-09-13T06:51:27.000Z</time>
      </trkpt>
      <trkpt lat="49.15829" lon="1.59939">
        <ele>112.87435150146</ele>
        <time>2015-09-13T06:51:29.000Z</time>
      </trkpt>
      <trkpt lat="49.15834" lon="1.59934">
        <ele>112.89807128906</ele>
        <time>2015-09-13T06:51:34.000Z</time>
      </trkpt>
      <trkpt lat="49.15837" lon="1.59928">
        <ele>112.95101165771</ele>
        <time>2015-09-13T06:51:34.000Z</time>
      </trkpt>
      <trkpt lat="49.15842" lon="1.59916">
        <ele>113.0271987915</ele>
        <time>2015-09-13T06:51:37.000Z</time>
      </trkpt>
      <trkpt lat="49.15848" lon="1.59906">
        <ele>113.17531585693</ele>
        <time>2015-09-13T06:51:40.000Z</time>
      </trkpt>
      <trkpt lat="49.15852" lon="1.59891">
        <ele>113.40592956543</ele>
        <time>2015-09-13T06:51:43.000Z</time>
      </trkpt>
      <trkpt lat="49.15856" lon="1.59877">
        <ele>113.70213317871</ele>
        <time>2015-09-13T06:51:46.000Z</time>
      </trkpt>
      <trkpt lat="49.15859" lon="1.59868">
        <ele>114.04168701172</ele>
        <time>2015-09-13T06:51:47.000Z</time>
      </trkpt>
      <trkpt lat="49.15863" lon="1.59856">
        <ele>114.42596435547</ele>
        <time>2015-09-13T06:51:51.000Z</time>
      </trkpt>
      <trkpt lat="49.15866" lon="1.59846">
        <ele>114.79895019531</ele>
        <time>2015-09-13T06:51:54.000Z</time>
      </trkpt>
      <trkpt lat="49.15868" lon="1.59837">
        <ele>115.13140869141</ele>
        <time>2015-09-13T06:51:56.000Z</time>
      </trkpt>
      <trkpt lat="49.15869" lon="1.5982">
        <ele>115.46138763428</ele>
        <time>2015-09-13T06:51:59.000Z</time>
      </trkpt>
      <trkpt lat="49.15868" lon="1.59805">
        <ele>115.7947769165</ele>
        <time>2015-09-13T06:52:01.000Z</time>
      </trkpt>
      <trkpt lat="49.15869" lon="1.59792">
        <ele>116.12113189697</ele>
        <time>2015-09-13T06:52:05.000Z</time>
      </trkpt>
      <trkpt lat="49.1587" lon="1.59781">
        <ele>116.43758392334</ele>
        <time>2015-09-13T06:52:08.000Z</time>
      </trkpt>
      <trkpt lat="49.15872" lon="1.59768">
        <ele>116.77933502197</ele>
        <time>2015-09-13T06:52:11.000Z</time>
      </trkpt>
      <trkpt lat="49.15874" lon="1.59757">
        <ele>117.10729980469</ele>
        <time>2015-09-13T06:52:13.000Z</time>
      </trkpt>
      <trkpt lat="49.15876" lon="1.59742">
        <ele>117.43530273438</ele>
        <time>2015-09-13T06:52:16.000Z</time>
      </trkpt>
      <trkpt lat="49.15878" lon="1.59733">
        <ele>117.72392272949</ele>
        <time>2015-09-13T06:52:18.000Z</time>
      </trkpt>
      <trkpt lat="49.15879" lon="1.59721">
        <ele>117.97636413574</ele>
        <time>2015-09-13T06:52:20.000Z</time>
      </trkpt>
      <trkpt lat="49.1588" lon="1.59712">
        <ele>118.17224121094</ele>
        <time>2015-09-13T06:52:23.000Z</time>
      </trkpt>
      <trkpt lat="49.15881" lon="1.597">
        <ele>118.31932067871</ele>
        <time>2015-09-13T06:52:26.000Z</time>
      </trkpt>
      <trkpt lat="49.15881" lon="1.59689">
        <ele>118.42350769043</ele>
        <time>2015-09-13T06:52:29.000Z</time>
      </trkpt>
      <trkpt lat="49.15882" lon="1.59682">
        <ele>118.51567077637</ele>
        <time>2015-09-13T06:52:31.000Z</time>
      </trkpt>
      <trkpt lat="49.15883" lon="1.59674">
        <ele>118.60426330566</ele>
        <time>2015-09-13T06:52:33.000Z</time>
      </trkpt>
      <trkpt lat="49.15884" lon="1.59661">
        <ele>118.68766021729</ele>
        <time>2015-09-13T06:52:35.000Z</time>
      </trkpt>
      <trkpt lat="49.15886" lon="1.5965">
        <ele>118.75793457031</ele>
        <time>2015-09-13T06:52:39.000Z</time>
      </trkpt>
      <trkpt lat="49.15887" lon="1.59641">
        <ele>118.81833648682</ele>
        <time>2015-09-13T06:52:41.000Z</time>
      </trkpt>
      <trkpt lat="49.15887" lon="1.59628">
        <ele>118.87136077881</ele>
        <time>2015-09-13T06:52:44.000Z</time>
      </trkpt>
      <trkpt lat="49.15889" lon="1.59619">
        <ele>118.916015625</ele>
        <time>2015-09-13T06:52:46.000Z</time>
      </trkpt>
      <trkpt lat="49.1589" lon="1.5961">
        <ele>118.9541015625</ele>
        <time>2015-09-13T06:52:48.000Z</time>
      </trkpt>
      <trkpt lat="49.15891" lon="1.59597">
        <ele>118.9892578125</ele>
        <time>2015-09-13T06:52:50.000Z</time>
      </trkpt>
      <trkpt lat="49.15892" lon="1.59583">
        <ele>119.02783203125</ele>
        <time>2015-09-13T06:52:54.000Z</time>
      </trkpt>
      <trkpt lat="49.15893" lon="1.59573">
        <ele>119.13024902344</ele>
        <time>2015-09-13T06:52:55.000Z</time>
      </trkpt>
      <trkpt lat="49.15893" lon="1.59564">
        <ele>119.28464508057</ele>
        <time>2015-09-13T06:52:58.000Z</time>
      </trkpt>
      <trkpt lat="49.15894" lon="1.59549">
        <ele>119.53733825684</ele>
        <time>2015-09-13T06:53:01.000Z</time>
      </trkpt>
      <trkpt lat="49.15894" lon="1.59534">
        <ele>119.88751220703</ele>
        <time>2015-09-13T06:53:04.000Z</time>
      </trkpt>
      <trkpt lat="49.15895" lon="1.59518">
        <ele>120.34144592285</ele>
        <time>2015-09-13T06:53:06.000Z</time>
      </trkpt>
      <trkpt lat="49.15895" lon="1.59507">
        <ele>120.80094909668</ele>
        <time>2015-09-13T06:53:09.000Z</time>
      </trkpt>
      <trkpt lat="49.15897" lon="1.59493">
        <ele>121.25749206543</ele>
        <time>2015-09-13T06:53:12.000Z</time>
      </trkpt>
      <trkpt lat="49.15898" lon="1.59483">
        <ele>121.61866760254</ele>
        <time>2015-09-13T06:53:14.000Z</time>
      </trkpt>
      <trkpt lat="49.15899" lon="1.59469">
        <ele>121.88333892822</ele>
        <time>2015-09-13T06:53:17.000Z</time>
      </trkpt>
      <trkpt lat="49.159" lon="1.59456">
        <ele>122.04377746582</ele>
        <time>2015-09-13T06:53:20.000Z</time>
      </trkpt>
      <trkpt lat="49.15901" lon="1.59447">
        <ele>122.140625</ele>
        <time>2015-09-13T06:53:22.000Z</time>
      </trkpt>
      <trkpt lat="49.15902" lon="1.59433">
        <ele>122.1953125</ele>
        <time>2015-09-13T06:53:24.000Z</time>
      </trkpt>
      <trkpt lat="49.15904" lon="1.59417">
        <ele>122.25</ele>
        <time>2015-09-13T06:53:28.000Z</time>
      </trkpt>
      <trkpt lat="49.15905" lon="1.59406">
        <ele>122.26704406738</ele>
        <time>2015-09-13T06:53:30.000Z</time>
      </trkpt>
      <trkpt lat="49.15908" lon="1.59391">
        <ele>122.23691558838</ele>
        <time>2015-09-13T06:53:33.000Z</time>
      </trkpt>
      <trkpt lat="49.15908" lon="1.59381">
        <ele>122.15594482422</ele>
        <time>2015-09-13T06:53:35.000Z</time>
      </trkpt>
      <trkpt lat="49.15909" lon="1.59362">
        <ele>121.98008728027</ele>
        <time>2015-09-13T06:53:38.000Z</time>
      </trkpt>
      <trkpt lat="49.15909" lon="1.59341">
        <ele>121.70278167725</ele>
        <time>2015-09-13T06:53:41.000Z</time>
      </trkpt>
      <trkpt lat="49.15911" lon="1.59321">
        <ele>121.31345367432</ele>
        <time>2015-09-13T06:53:44.000Z</time>
      </trkpt>
      <trkpt lat="49.15912" lon="1.59304">
        <ele>120.8140411377</ele>
        <time>2015-09-13T06:53:46.000Z</time>
      </trkpt>
      <trkpt lat="49.15914" lon="1.59286">
        <ele>120.18514251709</ele>
        <time>2015-09-13T06:53:48.000Z</time>
      </trkpt>
      <trkpt lat="49.15918" lon="1.5926">
        <ele>119.39739990234</ele>
        <time>2015-09-13T06:53:50.000Z</time>
      </trkpt>
      <trkpt lat="49.1592" lon="1.59233">
        <ele>118.50105285645</ele>
        <time>2015-09-13T06:53:54.000Z</time>
      </trkpt>
      <trkpt lat="49.15921" lon="1.59209">
        <ele>117.585105896</ele>
        <time>2015-09-13T06:53:56.000Z</time>
      </trkpt>
      <trkpt lat="49.15923" lon="1.59195">
        <ele>116.7208480835</ele>
        <time>2015-09-13T06:53:59.000Z</time>
      </trkpt>
      <trkpt lat="49.15923" lon="1.59169">
        <ele>115.84218597412</ele>
        <time>2015-09-13T06:54:02.000Z</time>
      </trkpt>
      <trkpt lat="49.15923" lon="1.59155">
        <ele>115.07834625244</ele>
        <time>2015-09-13T06:54:04.000Z</time>
      </trkpt>
      <trkpt lat="49.15923" lon="1.59133">
        <ele>114.30869293213</ele>
        <time>2015-09-13T06:54:07.000Z</time>
      </trkpt>
      <trkpt lat="49.15923" lon="1.59111">
        <ele>113.49938964844</ele>
        <time>2015-09-13T06:54:10.000Z</time>
      </trkpt>
      <trkpt lat="49.15923" lon="1.59091">
        <ele>112.59776306152</ele>
        <time>2015-09-13T06:54:12.000Z</time>
      </trkpt>
      <trkpt lat="49.15919" lon="1.59056">
        <ele>111.50325012207</ele>
        <time>2015-09-13T06:54:15.000Z</time>
      </trkpt>
      <trkpt lat="49.1591" lon="1.59029">
        <ele>110.1399307251</ele>
        <time>2015-09-13T06:54:17.000Z</time>
      </trkpt>
      <trkpt lat="49.15891" lon="1.58994">
        <ele>108.26702880859</ele>
        <time>2015-09-13T06:54:20.000Z</time>
      </trkpt>
      <trkpt lat="49.15877" lon="1.58971">
        <ele>106.15238952637</ele>
        <time>2015-09-13T06:54:22.000Z</time>
      </trkpt>
      <trkpt lat="49.15865" lon="1.58948">
        <ele>103.70257568359</ele>
        <time>2015-09-13T06:54:24.000Z</time>
      </trkpt>
      <trkpt lat="49.15849" lon="1.58912">
        <ele>100.75396728516</ele>
        <time>2015-09-13T06:54:27.000Z</time>
      </trkpt>
      <trkpt lat="49.15837" lon="1.5887">
        <ele>97.34415435791</ele>
        <time>2015-09-13T06:54:30.000Z</time>
      </trkpt>
      <trkpt lat="49.15829" lon="1.58835">
        <ele>94.001907348633</ele>
        <time>2015-09-13T06:54:33.000Z</time>
      </trkpt>
      <trkpt lat="49.15829" lon="1.58797">
        <ele>90.655982971191</ele>
        <time>2015-09-13T06:54:36.000Z</time>
      </trkpt>
      <trkpt lat="49.15829" lon="1.58777">
        <ele>87.602119445801</ele>
        <time>2015-09-13T06:54:38.000Z</time>
      </trkpt>
      <trkpt lat="49.15831" lon="1.5875">
        <ele>85.160362243652</ele>
        <time>2015-09-13T06:54:41.000Z</time>
      </trkpt>
      <trkpt lat="49.15839" lon="1.5872">
        <ele>83.420471191406</ele>
        <time>2015-09-13T06:54:44.000Z</time>
      </trkpt>
      <trkpt lat="49.15844" lon="1.58701">
        <ele>82.21028137207</ele>
        <time>2015-09-13T06:54:46.000Z</time>
      </trkpt>
      <trkpt lat="49.15851" lon="1.58686">
        <ele>81.36449432373</ele>
        <time>2015-09-13T06:54:48.000Z</time>
      </trkpt>
      <trkpt lat="49.15863" lon="1.58678">
        <ele>80.788223266602</ele>
        <time>2015-09-13T06:54:51.000Z</time>
      </trkpt>
      <trkpt lat="49.1587" lon="1.58684">
        <ele>80.659446716309</ele>
        <time>2015-09-13T06:54:53.000Z</time>
      </trkpt>
      <trkpt lat="49.15876" lon="1.5869">
        <ele>80.873893737793</ele>
        <time>2015-09-13T06:54:55.000Z</time>
      </trkpt>
      <trkpt lat="49.15889" lon="1.58697">
        <ele>81.53556060791</ele>
        <time>2015-09-13T06:54:58.000Z</time>
      </trkpt>
      <trkpt lat="49.15902" lon="1.58704">
        <ele>82.639091491699</ele>
        <time>2015-09-13T06:55:01.000Z</time>
      </trkpt>
      <trkpt lat="49.15914" lon="1.58708">
        <ele>84.012771606445</ele>
        <time>2015-09-13T06:55:04.000Z</time>
      </trkpt>
      <trkpt lat="49.15926" lon="1.58711">
        <ele>85.300216674805</ele>
        <time>2015-09-13T06:55:07.000Z</time>
      </trkpt>
      <trkpt lat="49.15941" lon="1.58713">
        <ele>86.415405273438</ele>
        <time>2015-09-13T06:55:10.000Z</time>
      </trkpt>
      <trkpt lat="49.15951" lon="1.58713">
        <ele>87.181167602539</ele>
        <time>2015-09-13T06:55:12.000Z</time>
      </trkpt>
      <trkpt lat="49.15967" lon="1.58714">
        <ele>87.572448730469</ele>
        <time>2015-09-13T06:55:15.000Z</time>
      </trkpt>
      <trkpt lat="49.15983" lon="1.58714">
        <ele>87.628051757812</ele>
        <time>2015-09-13T06:55:18.000Z</time>
      </trkpt>
      <trkpt lat="49.15995" lon="1.58715">
        <ele>87.579833984375</ele>
        <time>2015-09-13T06:55:20.000Z</time>
      </trkpt>
      <trkpt lat="49.16007" lon="1.58716">
        <ele>87.479942321777</ele>
        <time>2015-09-13T06:55:22.000Z</time>
      </trkpt>
      <trkpt lat="49.16023" lon="1.58715">
        <ele>87.315017700195</ele>
        <time>2015-09-13T06:55:25.000Z</time>
      </trkpt>
      <trkpt lat="49.16032" lon="1.58717">
        <ele>87.162979125977</ele>
        <time>2015-09-13T06:55:27.000Z</time>
      </trkpt>
      <trkpt lat="49.16043" lon="1.58719">
        <ele>87.02318572998</ele>
        <time>2015-09-13T06:55:29.000Z</time>
      </trkpt>
      <trkpt lat="49.16055" lon="1.5872">
        <ele>86.851860046387</ele>
        <time>2015-09-13T06:55:31.000Z</time>
      </trkpt>
      <trkpt lat="49.16071" lon="1.58719">
        <ele>86.605453491211</ele>
        <time>2015-09-13T06:55:34.000Z</time>
      </trkpt>
      <trkpt lat="49.1608" lon="1.58717">
        <ele>86.341537475586</ele>
        <time>2015-09-13T06:55:36.000Z</time>
      </trkpt>
      <trkpt lat="49.1609" lon="1.58714">
        <ele>86.044937133789</ele>
        <time>2015-09-13T06:55:38.000Z</time>
      </trkpt>
      <trkpt lat="49.16105" lon="1.58708">
        <ele>85.717651367188</ele>
        <time>2015-09-13T06:55:41.000Z</time>
      </trkpt>
      <trkpt lat="49.16114" lon="1.58704">
        <ele>85.392539978027</ele>
        <time>2015-09-13T06:55:43.000Z</time>
      </trkpt>
      <trkpt lat="49.16123" lon="1.587">
        <ele>85.116355895996</ele>
        <time>2015-09-13T06:55:45.000Z</time>
      </trkpt>
      <trkpt lat="49.16138" lon="1.58694">
        <ele>84.856895446777</ele>
        <time>2015-09-13T06:55:48.000Z</time>
      </trkpt>
      <trkpt lat="49.16146" lon="1.5869">
        <ele>84.586135864258</ele>
        <time>2015-09-13T06:55:50.000Z</time>
      </trkpt>
      <trkpt lat="49.1616" lon="1.58685">
        <ele>84.275909423828</ele>
        <time>2015-09-13T06:55:53.000Z</time>
      </trkpt>
      <trkpt lat="49.16172" lon="1.58681">
        <ele>83.916915893555</ele>
        <time>2015-09-13T06:55:56.000Z</time>
      </trkpt>
      <trkpt lat="49.16186" lon="1.58674">
        <ele>83.501319885254</ele>
        <time>2015-09-13T06:55:59.000Z</time>
      </trkpt>
      <trkpt lat="49.16195" lon="1.58667">
        <ele>82.997650146484</ele>
        <time>2015-09-13T06:56:01.000Z</time>
      </trkpt>
      <trkpt lat="49.16202" lon="1.58657">
        <ele>82.551414489746</ele>
        <time>2015-09-13T06:56:03.000Z</time>
      </trkpt>
      <trkpt lat="49.16209" lon="1.58647">
        <ele>82.190620422363</ele>
        <time>2015-09-13T06:56:05.000Z</time>
      </trkpt>
      <trkpt lat="49.16219" lon="1.5863">
        <ele>81.900917053223</ele>
        <time>2015-09-13T06:56:08.000Z</time>
      </trkpt>
      <trkpt lat="49.16225" lon="1.58619">
        <ele>81.705772399902</ele>
        <time>2015-09-13T06:56:10.000Z</time>
      </trkpt>
      <trkpt lat="49.1623" lon="1.58609">
        <ele>81.656112670898</ele>
        <time>2015-09-13T06:56:12.000Z</time>
      </trkpt>
      <trkpt lat="49.16235" lon="1.58597">
        <ele>81.560737609863</ele>
        <time>2015-09-13T06:56:14.000Z</time>
      </trkpt>
      <trkpt lat="49.16243" lon="1.58581">
        <ele>81.41690826416</ele>
        <time>2015-09-13T06:56:17.000Z</time>
      </trkpt>
      <trkpt lat="49.16247" lon="1.58573">
        <ele>81.32698059082</ele>
        <time>2015-09-13T06:56:19.000Z</time>
      </trkpt>
      <trkpt lat="49.16253" lon="1.5856">
        <ele>81.333724975586</ele>
        <time>2015-09-13T06:56:22.000Z</time>
      </trkpt>
      <trkpt lat="49.16258" lon="1.5855">
        <ele>81.445289611816</ele>
        <time>2015-09-13T06:56:24.000Z</time>
      </trkpt>
      <trkpt lat="49.16265" lon="1.58535">
        <ele>81.713706970215</ele>
        <time>2015-09-13T06:56:27.000Z</time>
      </trkpt>
      <trkpt lat="49.16272" lon="1.58522">
        <ele>82.140029907227</ele>
        <time>2015-09-13T06:56:30.000Z</time>
      </trkpt>
      <trkpt lat="49.16275" lon="1.58514">
        <ele>82.593391418457</ele>
        <time>2015-09-13T06:56:32.000Z</time>
      </trkpt>
      <trkpt lat="49.1628" lon="1.58502">
        <ele>83.076461791992</ele>
        <time>2015-09-13T06:56:35.000Z</time>
      </trkpt>
      <trkpt lat="49.16284" lon="1.58494">
        <ele>83.590103149414</ele>
        <time>2015-09-13T06:56:37.000Z</time>
      </trkpt>
      <trkpt lat="49.16287" lon="1.58486">
        <ele>84.09651184082</ele>
        <time>2015-09-13T06:56:39.000Z</time>
      </trkpt>
      <trkpt lat="49.16292" lon="1.58473">
        <ele>84.68586730957</ele>
        <time>2015-09-13T06:56:42.000Z</time>
      </trkpt>
      <trkpt lat="49.16294" lon="1.58465">
        <ele>85.31339263916</ele>
        <time>2015-09-13T06:56:44.000Z</time>
      </trkpt>
      <trkpt lat="49.16297" lon="1.58455">
        <ele>85.979309082031</ele>
        <time>2015-09-13T06:56:47.000Z</time>
      </trkpt>
      <trkpt lat="49.163" lon="1.58448">
        <ele>86.646697998047</ele>
        <time>2015-09-13T06:56:49.000Z</time>
      </trkpt>
      <trkpt lat="49.16303" lon="1.58435">
        <ele>87.378051757812</ele>
        <time>2015-09-13T06:56:52.000Z</time>
      </trkpt>
      <trkpt lat="49.16307" lon="1.58426">
        <ele>88.052368164062</ele>
        <time>2015-09-13T06:56:54.000Z</time>
      </trkpt>
      <trkpt lat="49.1631" lon="1.58418">
        <ele>88.740386962891</ele>
        <time>2015-09-13T06:56:56.000Z</time>
      </trkpt>
      <trkpt lat="49.16313" lon="1.58411">
        <ele>89.3603515625</ele>
        <time>2015-09-13T06:56:58.000Z</time>
      </trkpt>
      <trkpt lat="49.16316" lon="1.58405">
        <ele>89.939811706543</ele>
        <time>2015-09-13T06:57:00.000Z</time>
      </trkpt>
      <trkpt lat="49.1632" lon="1.58394">
        <ele>90.448768615723</ele>
        <time>2015-09-13T06:57:03.000Z</time>
      </trkpt>
      <trkpt lat="49.16323" lon="1.58386">
        <ele>90.903137207031</ele>
        <time>2015-09-13T06:57:05.000Z</time>
      </trkpt>
      <trkpt lat="49.16327" lon="1.58374">
        <ele>91.346527099609</ele>
        <time>2015-09-13T06:57:08.000Z</time>
      </trkpt>
      <trkpt lat="49.16329" lon="1.58368">
        <ele>91.777137756348</ele>
        <time>2015-09-13T06:57:10.000Z</time>
      </trkpt>
      <trkpt lat="49.16334" lon="1.58357">
        <ele>92.243881225586</ele>
        <time>2015-09-13T06:57:13.000Z</time>
      </trkpt>
      <trkpt lat="49.16338" lon="1.58347">
        <ele>92.682220458984</ele>
        <time>2015-09-13T06:57:16.000Z</time>
      </trkpt>
      <trkpt lat="49.1634" lon="1.58342">
        <ele>93.083198547363</ele>
        <time>2015-09-13T06:57:18.000Z</time>
      </trkpt>
      <trkpt lat="49.16345" lon="1.58333">
        <ele>93.451583862305</ele>
        <time>2015-09-13T06:57:21.000Z</time>
      </trkpt>
      <trkpt lat="49.16348" lon="1.58328">
        <ele>93.802062988281</ele>
        <time>2015-09-13T06:57:22.000Z</time>
      </trkpt>
      <trkpt lat="49.16352" lon="1.5832">
        <ele>94.110710144043</ele>
        <time>2015-09-13T06:57:26.000Z</time>
      </trkpt>
      <trkpt lat="49.16354" lon="1.58315">
        <ele>94.387084960938</ele>
        <time>2015-09-13T06:57:28.000Z</time>
      </trkpt>
      <trkpt lat="49.16359" lon="1.58306">
        <ele>94.693878173828</ele>
        <time>2015-09-13T06:57:30.000Z</time>
      </trkpt>
      <trkpt lat="49.16363" lon="1.58298">
        <ele>94.991516113281</ele>
        <time>2015-09-13T06:57:34.000Z</time>
      </trkpt>
      <trkpt lat="49.16365" lon="1.58291">
        <ele>95.296630859375</ele>
        <time>2015-09-13T06:57:36.000Z</time>
      </trkpt>
      <trkpt lat="49.16368" lon="1.58285">
        <ele>95.583190917969</ele>
        <time>2015-09-13T06:57:38.000Z</time>
      </trkpt>
      <trkpt lat="49.16371" lon="1.58279">
        <ele>95.880950927734</ele>
        <time>2015-09-13T06:57:40.000Z</time>
      </trkpt>
      <trkpt lat="49.16375" lon="1.5827">
        <ele>96.174255371094</ele>
        <time>2015-09-13T06:57:43.000Z</time>
      </trkpt>
      <trkpt lat="49.16376" lon="1.58264">
        <ele>96.445434570312</ele>
        <time>2015-09-13T06:57:45.000Z</time>
      </trkpt>
      <trkpt lat="49.16379" lon="1.58259">
        <ele>96.706573486328</ele>
        <time>2015-09-13T06:57:47.000Z</time>
      </trkpt>
      <trkpt lat="49.16383" lon="1.58251">
        <ele>96.994903564453</ele>
        <time>2015-09-13T06:57:50.000Z</time>
      </trkpt>
      <trkpt lat="49.16385" lon="1.58244">
        <ele>97.286643981934</ele>
        <time>2015-09-13T06:57:52.000Z</time>
      </trkpt>
      <trkpt lat="49.16389" lon="1.58235">
        <ele>97.593994140625</ele>
        <time>2015-09-13T06:57:55.000Z</time>
      </trkpt>
      <trkpt lat="49.16391" lon="1.5823">
        <ele>97.906776428223</ele>
        <time>2015-09-13T06:57:57.000Z</time>
      </trkpt>
      <trkpt lat="49.16394" lon="1.58222">
        <ele>98.245277404785</ele>
        <time>2015-09-13T06:58:00.000Z</time>
      </trkpt>
      <trkpt lat="49.16399" lon="1.58213">
        <ele>98.594009399414</ele>
        <time>2015-09-13T06:58:03.000Z</time>
      </trkpt>
      <trkpt lat="49.16402" lon="1.58206">
        <ele>98.940139770508</ele>
        <time>2015-09-13T06:58:05.000Z</time>
      </trkpt>
      <trkpt lat="49.16405" lon="1.58198">
        <ele>99.263328552246</ele>
        <time>2015-09-13T06:58:08.000Z</time>
      </trkpt>
      <trkpt lat="49.1641" lon="1.58188">
        <ele>99.603134155273</ele>
        <time>2015-09-13T06:58:11.000Z</time>
      </trkpt>
      <trkpt lat="49.16412" lon="1.58182">
        <ele>99.918487548828</ele>
        <time>2015-09-13T06:58:14.000Z</time>
      </trkpt>
      <trkpt lat="49.16415" lon="1.58171">
        <ele>100.22909545898</ele>
        <time>2015-09-13T06:58:17.000Z</time>
      </trkpt>
      <trkpt lat="49.16418" lon="1.58165">
        <ele>100.53456115723</ele>
        <time>2015-09-13T06:58:19.000Z</time>
      </trkpt>
      <trkpt lat="49.1642" lon="1.58158">
        <ele>100.87823486328</ele>
        <time>2015-09-13T06:58:22.000Z</time>
      </trkpt>
      <trkpt lat="49.16423" lon="1.58152">
        <ele>101.22648620605</ele>
        <time>2015-09-13T06:58:24.000Z</time>
      </trkpt>
      <trkpt lat="49.16425" lon="1.58148">
        <ele>101.59074401855</ele>
        <time>2015-09-13T06:58:26.000Z</time>
      </trkpt>
      <trkpt lat="49.16428" lon="1.5814">
        <ele>101.98390197754</ele>
        <time>2015-09-13T06:58:29.000Z</time>
      </trkpt>
      <trkpt lat="49.16431" lon="1.58133">
        <ele>102.41917419434</ele>
        <time>2015-09-13T06:58:32.000Z</time>
      </trkpt>
      <trkpt lat="49.16433" lon="1.58129">
        <ele>102.80505371094</ele>
        <time>2015-09-13T06:58:34.000Z</time>
      </trkpt>
      <trkpt lat="49.16436" lon="1.58122">
        <ele>103.19435882568</ele>
        <time>2015-09-13T06:58:36.000Z</time>
      </trkpt>
      <trkpt lat="49.16438" lon="1.58117">
        <ele>103.58235168457</ele>
        <time>2015-09-13T06:58:39.000Z</time>
      </trkpt>
      <trkpt lat="49.16441" lon="1.58108">
        <ele>103.98069763184</ele>
        <time>2015-09-13T06:58:42.000Z</time>
      </trkpt>
      <trkpt lat="49.16443" lon="1.58102">
        <ele>104.35105895996</ele>
        <time>2015-09-13T06:58:43.000Z</time>
      </trkpt>
      <trkpt lat="49.16446" lon="1.58093">
        <ele>104.7709197998</ele>
        <time>2015-09-13T06:58:47.000Z</time>
      </trkpt>
      <trkpt lat="49.16449" lon="1.58086">
        <ele>105.19277191162</ele>
        <time>2015-09-13T06:58:49.000Z</time>
      </trkpt>
      <trkpt lat="49.16452" lon="1.58075">
        <ele>105.69145202637</ele>
        <time>2015-09-13T06:58:52.000Z</time>
      </trkpt>
      <trkpt lat="49.16456" lon="1.58066">
        <ele>106.19416809082</ele>
        <time>2015-09-13T06:58:54.000Z</time>
      </trkpt>
      <trkpt lat="49.16459" lon="1.5806">
        <ele>106.69467926025</ele>
        <time>2015-09-13T06:58:57.000Z</time>
      </trkpt>
      <trkpt lat="49.16463" lon="1.58052">
        <ele>107.17327880859</ele>
        <time>2015-09-13T06:59:00.000Z</time>
      </trkpt>
      <trkpt lat="49.16465" lon="1.58047">
        <ele>107.61891174316</ele>
        <time>2015-09-13T06:59:02.000Z</time>
      </trkpt>
      <trkpt lat="49.1647" lon="1.58039">
        <ele>107.98970794678</ele>
        <time>2015-09-13T06:59:05.000Z</time>
      </trkpt>
      <trkpt lat="49.16475" lon="1.58031">
        <ele>108.29945373535</ele>
        <time>2015-09-13T06:59:07.000Z</time>
      </trkpt>
      <trkpt lat="49.1648" lon="1.58023">
        <ele>108.5807723999</ele>
        <time>2015-09-13T06:59:10.000Z</time>
      </trkpt>
      <trkpt lat="49.16484" lon="1.58018">
        <ele>108.80130767822</ele>
        <time>2015-09-13T06:59:13.000Z</time>
      </trkpt>
      <trkpt lat="49.16488" lon="1.58012">
        <ele>108.98948669434</ele>
        <time>2015-09-13T06:59:15.000Z</time>
      </trkpt>
      <trkpt lat="49.16494" lon="1.58004">
        <ele>109.11430358887</ele>
        <time>2015-09-13T06:59:17.000Z</time>
      </trkpt>
      <trkpt lat="49.16499" lon="1.57997">
        <ele>109.16905212402</ele>
        <time>2015-09-13T06:59:20.000Z</time>
      </trkpt>
      <trkpt lat="49.16504" lon="1.5799">
        <ele>109.19783782959</ele>
        <time>2015-09-13T06:59:24.000Z</time>
      </trkpt>
      <trkpt lat="49.16507" lon="1.57985">
        <ele>109.21840667725</ele>
        <time>2015-09-13T06:59:26.000Z</time>
      </trkpt>
      <trkpt lat="49.16512" lon="1.57976">
        <ele>109.25242614746</ele>
        <time>2015-09-13T06:59:29.000Z</time>
      </trkpt>
      <trkpt lat="49.16518" lon="1.57967">
        <ele>109.32264709473</ele>
        <time>2015-09-13T06:59:32.000Z</time>
      </trkpt>
      <trkpt lat="49.16523" lon="1.57959">
        <ele>109.438331604</ele>
        <time>2015-09-13T06:59:35.000Z</time>
      </trkpt>
      <trkpt lat="49.16528" lon="1.57951">
        <ele>109.60158538818</ele>
        <time>2015-09-13T06:59:38.000Z</time>
      </trkpt>
      <trkpt lat="49.16533" lon="1.57942">
        <ele>109.80975341797</ele>
        <time>2015-09-13T06:59:40.000Z</time>
      </trkpt>
      <trkpt lat="49.16538" lon="1.57934">
        <ele>110.05489349365</ele>
        <time>2015-09-13T06:59:44.000Z</time>
      </trkpt>
      <trkpt lat="49.16542" lon="1.57927">
        <ele>110.33162689209</ele>
        <time>2015-09-13T06:59:47.000Z</time>
      </trkpt>
      <trkpt lat="49.16546" lon="1.5792">
        <ele>110.62939453125</ele>
        <time>2015-09-13T06:59:49.000Z</time>
      </trkpt>
      <trkpt lat="49.16551" lon="1.57911">
        <ele>110.95965576172</ele>
        <time>2015-09-13T06:59:52.000Z</time>
      </trkpt>
      <trkpt lat="49.16556" lon="1.57902">
        <ele>111.32301330566</ele>
        <time>2015-09-13T06:59:55.000Z</time>
      </trkpt>
      <trkpt lat="49.16559" lon="1.57897">
        <ele>111.67602539062</ele>
        <time>2015-09-13T06:59:57.000Z</time>
      </trkpt>
      <trkpt lat="49.16562" lon="1.57891">
        <ele>112.02421569824</ele>
        <time>2015-09-13T06:59:59.000Z</time>
      </trkpt>
      <trkpt lat="49.16565" lon="1.57886">
        <ele>112.37449645996</ele>
        <time>2015-09-13T07:00:01.000Z</time>
      </trkpt>
      <trkpt lat="49.16571" lon="1.57878">
        <ele>112.71389007568</ele>
        <time>2015-09-13T07:00:04.000Z</time>
      </trkpt>
      <trkpt lat="49.16574" lon="1.57872">
        <ele>113.03096008301</ele>
        <time>2015-09-13T07:00:05.000Z</time>
      </trkpt>
      <trkpt lat="49.16578" lon="1.57866">
        <ele>113.36071777344</ele>
        <time>2015-09-13T07:00:08.000Z</time>
      </trkpt>
      <trkpt lat="49.16583" lon="1.57857">
        <ele>113.74391937256</ele>
        <time>2015-09-13T07:00:10.000Z</time>
      </trkpt>
      <trkpt lat="49.16589" lon="1.57846">
        <ele>114.12297058105</ele>
        <time>2015-09-13T07:00:14.000Z</time>
      </trkpt>
      <trkpt lat="49.16595" lon="1.57838">
        <ele>114.4521484375</ele>
        <time>2015-09-13T07:00:16.000Z</time>
      </trkpt>
      <trkpt lat="49.166" lon="1.57827">
        <ele>114.8091583252</ele>
        <time>2015-09-13T07:00:20.000Z</time>
      </trkpt>
      <trkpt lat="49.16605" lon="1.57818">
        <ele>115.19709777832</ele>
        <time>2015-09-13T07:00:23.000Z</time>
      </trkpt>
      <trkpt lat="49.16609" lon="1.57808">
        <ele>115.58815002441</ele>
        <time>2015-09-13T07:00:26.000Z</time>
      </trkpt>
      <trkpt lat="49.16613" lon="1.57799">
        <ele>116.03515625</ele>
        <time>2015-09-13T07:00:28.000Z</time>
      </trkpt>
      <trkpt lat="49.16616" lon="1.57793">
        <ele>116.50453948975</ele>
        <time>2015-09-13T07:00:31.000Z</time>
      </trkpt>
      <trkpt lat="49.16621" lon="1.57784">
        <ele>116.97800445557</ele>
        <time>2015-09-13T07:00:33.000Z</time>
      </trkpt>
      <trkpt lat="49.16626" lon="1.57775">
        <ele>117.44887542725</ele>
        <time>2015-09-13T07:00:37.000Z</time>
      </trkpt>
      <trkpt lat="49.1663" lon="1.57767">
        <ele>117.89626312256</ele>
        <time>2015-09-13T07:00:40.000Z</time>
      </trkpt>
      <trkpt lat="49.16633" lon="1.5776">
        <ele>118.31386566162</ele>
        <time>2015-09-13T07:00:42.000Z</time>
      </trkpt>
      <trkpt lat="49.16638" lon="1.5775">
        <ele>118.7915802002</ele>
        <time>2015-09-13T07:00:45.000Z</time>
      </trkpt>
      <trkpt lat="49.16643" lon="1.57739">
        <ele>119.21350097656</ele>
        <time>2015-09-13T07:00:48.000Z</time>
      </trkpt>
      <trkpt lat="49.16648" lon="1.5773">
        <ele>119.55895996094</ele>
        <time>2015-09-13T07:00:50.000Z</time>
      </trkpt>
      <trkpt lat="49.16652" lon="1.57725">
        <ele>119.82414245605</ele>
        <time>2015-09-13T07:00:53.000Z</time>
      </trkpt>
      <trkpt lat="49.16657" lon="1.57716">
        <ele>120.02124023438</ele>
        <time>2015-09-13T07:00:56.000Z</time>
      </trkpt>
      <trkpt lat="49.16663" lon="1.57707">
        <ele>120.12365722656</ele>
        <time>2015-09-13T07:00:59.000Z</time>
      </trkpt>
      <trkpt lat="49.16668" lon="1.57699">
        <ele>120.21279144287</ele>
        <time>2015-09-13T07:01:02.000Z</time>
      </trkpt>
      <trkpt lat="49.16671" lon="1.57695">
        <ele>120.30477142334</ele>
        <time>2015-09-13T07:01:04.000Z</time>
      </trkpt>
      <trkpt lat="49.16677" lon="1.57686">
        <ele>120.4275894165</ele>
        <time>2015-09-13T07:01:07.000Z</time>
      </trkpt>
      <trkpt lat="49.16683" lon="1.57675">
        <ele>120.59397888184</ele>
        <time>2015-09-13T07:01:10.000Z</time>
      </trkpt>
      <trkpt lat="49.16686" lon="1.57668">
        <ele>120.78782653809</ele>
        <time>2015-09-13T07:01:12.000Z</time>
      </trkpt>
      <trkpt lat="49.16692" lon="1.57656">
        <ele>120.96451568604</ele>
        <time>2015-09-13T07:01:14.000Z</time>
      </trkpt>
      <trkpt lat="49.16695" lon="1.57648">
        <ele>121.12699890137</ele>
        <time>2015-09-13T07:01:17.000Z</time>
      </trkpt>
      <trkpt lat="49.167" lon="1.57636">
        <ele>121.25424957275</ele>
        <time>2015-09-13T07:01:20.000Z</time>
      </trkpt>
      <trkpt lat="49.16705" lon="1.57628">
        <ele>121.31581878662</ele>
        <time>2015-09-13T07:01:22.000Z</time>
      </trkpt>
      <trkpt lat="49.16711" lon="1.57618">
        <ele>121.32057189941</ele>
        <time>2015-09-13T07:01:25.000Z</time>
      </trkpt>
      <trkpt lat="49.16715" lon="1.5761">
        <ele>121.30743408203</ele>
        <time>2015-09-13T07:01:28.000Z</time>
      </trkpt>
      <trkpt lat="49.1672" lon="1.576">
        <ele>121.27606201172</ele>
        <time>2015-09-13T07:01:30.000Z</time>
      </trkpt>
      <trkpt lat="49.16722" lon="1.57595">
        <ele>121.2282333374</ele>
        <time>2015-09-13T07:01:32.000Z</time>
      </trkpt>
      <trkpt lat="49.16727" lon="1.57588">
        <ele>121.17127990723</ele>
        <time>2015-09-13T07:01:35.000Z</time>
      </trkpt>
      <trkpt lat="49.16731" lon="1.57581">
        <ele>121.10807800293</ele>
        <time>2015-09-13T07:01:37.000Z</time>
      </trkpt>
      <trkpt lat="49.16735" lon="1.57573">
        <ele>121.04341125488</ele>
        <time>2015-09-13T07:01:40.000Z</time>
      </trkpt>
      <trkpt lat="49.16738" lon="1.57566">
        <ele>120.99035644531</ele>
        <time>2015-09-13T07:01:42.000Z</time>
      </trkpt>
      <trkpt lat="49.16742" lon="1.57556">
        <ele>120.95078277588</ele>
        <time>2015-09-13T07:01:45.000Z</time>
      </trkpt>
      <trkpt lat="49.16746" lon="1.57549">
        <ele>120.93620300293</ele>
        <time>2015-09-13T07:01:47.000Z</time>
      </trkpt>
      <trkpt lat="49.1675" lon="1.57539">
        <ele>120.96132659912</ele>
        <time>2015-09-13T07:01:50.000Z</time>
      </trkpt>
      <trkpt lat="49.16753" lon="1.57531">
        <ele>121.02256774902</ele>
        <time>2015-09-13T07:01:52.000Z</time>
      </trkpt>
      <trkpt lat="49.16759" lon="1.5752">
        <ele>121.12884521484</ele>
        <time>2015-09-13T07:01:55.000Z</time>
      </trkpt>
      <trkpt lat="49.16764" lon="1.57512">
        <ele>121.25604248047</ele>
        <time>2015-09-13T07:01:57.000Z</time>
      </trkpt>
      <trkpt lat="49.16769" lon="1.57504">
        <ele>121.40171813965</ele>
        <time>2015-09-13T07:02:00.000Z</time>
      </trkpt>
      <trkpt lat="49.16772" lon="1.57499">
        <ele>121.53910827637</ele>
        <time>2015-09-13T07:02:02.000Z</time>
      </trkpt>
      <trkpt lat="49.16778" lon="1.57488">
        <ele>121.65800476074</ele>
        <time>2015-09-13T07:02:05.000Z</time>
      </trkpt>
      <trkpt lat="49.16785" lon="1.57477">
        <ele>121.74153137207</ele>
        <time>2015-09-13T07:02:08.000Z</time>
      </trkpt>
      <trkpt lat="49.16789" lon="1.57469">
        <ele>121.80735015869</ele>
        <time>2015-09-13T07:02:10.000Z</time>
      </trkpt>
      <trkpt lat="49.16796" lon="1.57456">
        <ele>121.86264801025</ele>
        <time>2015-09-13T07:02:13.000Z</time>
      </trkpt>
      <trkpt lat="49.16799" lon="1.57448">
        <ele>121.91729736328</ele>
        <time>2015-09-13T07:02:15.000Z</time>
      </trkpt>
      <trkpt lat="49.16802" lon="1.57441">
        <ele>121.97129058838</ele>
        <time>2015-09-13T07:02:17.000Z</time>
      </trkpt>
      <trkpt lat="49.16807" lon="1.57431">
        <ele>122.02878570557</ele>
        <time>2015-09-13T07:02:20.000Z</time>
      </trkpt>
      <trkpt lat="49.16811" lon="1.57421">
        <ele>122.08945465088</ele>
        <time>2015-09-13T07:02:22.000Z</time>
      </trkpt>
      <trkpt lat="49.16818" lon="1.57407">
        <ele>122.14589691162</ele>
        <time>2015-09-13T07:02:25.000Z</time>
      </trkpt>
      <trkpt lat="49.16825" lon="1.57394">
        <ele>122.20345306396</ele>
        <time>2015-09-13T07:02:27.000Z</time>
      </trkpt>
      <trkpt lat="49.16832" lon="1.5738">
        <ele>122.27398681641</ele>
        <time>2015-09-13T07:02:31.000Z</time>
      </trkpt>
      <trkpt lat="49.16837" lon="1.5737">
        <ele>122.34914398193</ele>
        <time>2015-09-13T07:02:34.000Z</time>
      </trkpt>
      <trkpt lat="49.16843" lon="1.57358">
        <ele>122.42663574219</ele>
        <time>2015-09-13T07:02:37.000Z</time>
      </trkpt>
      <trkpt lat="49.16847" lon="1.57351">
        <ele>122.50095367432</ele>
        <time>2015-09-13T07:02:39.000Z</time>
      </trkpt>
      <trkpt lat="49.16851" lon="1.57342">
        <ele>122.57287597656</ele>
        <time>2015-09-13T07:02:41.000Z</time>
      </trkpt>
      <trkpt lat="49.16856" lon="1.57333">
        <ele>122.63222503662</ele>
        <time>2015-09-13T07:02:43.000Z</time>
      </trkpt>
      <trkpt lat="49.16862" lon="1.5732">
        <ele>122.6484375</ele>
        <time>2015-09-13T07:02:46.000Z</time>
      </trkpt>
      <trkpt lat="49.16867" lon="1.57311">
        <ele>122.63818359375</ele>
        <time>2015-09-13T07:02:48.000Z</time>
      </trkpt>
      <trkpt lat="49.16873" lon="1.57297">
        <ele>122.61268615723</ele>
        <time>2015-09-13T07:02:50.000Z</time>
      </trkpt>
      <trkpt lat="49.16878" lon="1.57287">
        <ele>122.57785797119</ele>
        <time>2015-09-13T07:02:53.000Z</time>
      </trkpt>
      <trkpt lat="49.16884" lon="1.57274">
        <ele>122.54051208496</ele>
        <time>2015-09-13T07:02:56.000Z</time>
      </trkpt>
      <trkpt lat="49.16888" lon="1.57266">
        <ele>122.53913879395</ele>
        <time>2015-09-13T07:02:58.000Z</time>
      </trkpt>
      <trkpt lat="49.16895" lon="1.57252">
        <ele>122.57706451416</ele>
        <time>2015-09-13T07:03:01.000Z</time>
      </trkpt>
      <trkpt lat="49.16899" lon="1.57244">
        <ele>122.63647460938</ele>
        <time>2015-09-13T07:03:03.000Z</time>
      </trkpt>
      <trkpt lat="49.16905" lon="1.57231">
        <ele>122.71425628662</ele>
        <time>2015-09-13T07:03:06.000Z</time>
      </trkpt>
      <trkpt lat="49.16911" lon="1.57218">
        <ele>122.79682922363</ele>
        <time>2015-09-13T07:03:09.000Z</time>
      </trkpt>
      <trkpt lat="49.16915" lon="1.57209">
        <ele>122.87586975098</ele>
        <time>2015-09-13T07:03:11.000Z</time>
      </trkpt>
      <trkpt lat="49.16919" lon="1.572">
        <ele>122.93284606934</ele>
        <time>2015-09-13T07:03:13.000Z</time>
      </trkpt>
      <trkpt lat="49.16924" lon="1.57191">
        <ele>122.98508453369</ele>
        <time>2015-09-13T07:03:15.000Z</time>
      </trkpt>
      <trkpt lat="49.16932" lon="1.57179">
        <ele>123.03670501709</ele>
        <time>2015-09-13T07:03:18.000Z</time>
      </trkpt>
      <trkpt lat="49.16937" lon="1.57166">
        <ele>123.09169006348</ele>
        <time>2015-09-13T07:03:21.000Z</time>
      </trkpt>
      <trkpt lat="49.16941" lon="1.5716">
        <ele>123.14137268066</ele>
        <time>2015-09-13T07:03:23.000Z</time>
      </trkpt>
      <trkpt lat="49.16948" lon="1.57164">
        <ele>123.20947265625</ele>
        <time>2015-09-13T07:03:26.000Z</time>
      </trkpt>
      <trkpt lat="49.16956" lon="1.57178">
        <ele>123.2801361084</ele>
        <time>2015-09-13T07:03:29.000Z</time>
      </trkpt>
      <trkpt lat="49.16964" lon="1.57189">
        <ele>123.33290100098</ele>
        <time>2015-09-13T07:03:31.000Z</time>
      </trkpt>
      <trkpt lat="49.16973" lon="1.57205">
        <ele>123.35947418213</ele>
        <time>2015-09-13T07:03:34.000Z</time>
      </trkpt>
      <trkpt lat="49.1698" lon="1.57217">
        <ele>123.3715057373</ele>
        <time>2015-09-13T07:03:35.000Z</time>
      </trkpt>
      <trkpt lat="49.16988" lon="1.57229">
        <ele>123.34181976318</ele>
        <time>2015-09-13T07:03:38.000Z</time>
      </trkpt>
      <trkpt lat="49.16995" lon="1.57241">
        <ele>123.280418396</ele>
        <time>2015-09-13T07:03:40.000Z</time>
      </trkpt>
      <trkpt lat="49.17003" lon="1.57253">
        <ele>123.15793609619</ele>
        <time>2015-09-13T07:03:42.000Z</time>
      </trkpt>
      <trkpt lat="49.17015" lon="1.57272">
        <ele>122.861328125</ele>
        <time>2015-09-13T07:03:45.000Z</time>
      </trkpt>
      <trkpt lat="49.17024" lon="1.57286">
        <ele>122.44952392578</ele>
        <time>2015-09-13T07:03:47.000Z</time>
      </trkpt>
      <trkpt lat="49.17032" lon="1.57301">
        <ele>121.93585205078</ele>
        <time>2015-09-13T07:03:49.000Z</time>
      </trkpt>
      <trkpt lat="49.1704" lon="1.57314">
        <ele>121.333152771</ele>
        <time>2015-09-13T07:03:51.000Z</time>
      </trkpt>
      <trkpt lat="49.17048" lon="1.57328">
        <ele>120.68564605713</ele>
        <time>2015-09-13T07:03:53.000Z</time>
      </trkpt>
      <trkpt lat="49.17061" lon="1.57352">
        <ele>120.11702728271</ele>
        <time>2015-09-13T07:03:57.000Z</time>
      </trkpt>
      <trkpt lat="49.17073" lon="1.57373">
        <ele>119.59719085693</ele>
        <time>2015-09-13T07:03:59.000Z</time>
      </trkpt>
      <trkpt lat="49.17086" lon="1.57396">
        <ele>119.120262146</ele>
        <time>2015-09-13T07:04:02.000Z</time>
      </trkpt>
      <trkpt lat="49.17095" lon="1.57412">
        <ele>118.71339416504</ele>
        <time>2015-09-13T07:04:04.000Z</time>
      </trkpt>
      <trkpt lat="49.17108" lon="1.57437">
        <ele>118.33779144287</ele>
        <time>2015-09-13T07:04:07.000Z</time>
      </trkpt>
      <trkpt lat="49.17122" lon="1.57461">
        <ele>117.97299957275</ele>
        <time>2015-09-13T07:04:10.000Z</time>
      </trkpt>
      <trkpt lat="49.17135" lon="1.57486">
        <ele>117.57370758057</ele>
        <time>2015-09-13T07:04:13.000Z</time>
      </trkpt>
      <trkpt lat="49.17149" lon="1.57509">
        <ele>117.0751953125</ele>
        <time>2015-09-13T07:04:16.000Z</time>
      </trkpt>
      <trkpt lat="49.17158" lon="1.57523">
        <ele>116.46504211426</ele>
        <time>2015-09-13T07:04:18.000Z</time>
      </trkpt>
      <trkpt lat="49.17172" lon="1.57542">
        <ele>115.72902679443</ele>
        <time>2015-09-13T07:04:21.000Z</time>
      </trkpt>
      <trkpt lat="49.17183" lon="1.57553">
        <ele>115.00862121582</ele>
        <time>2015-09-13T07:04:23.000Z</time>
      </trkpt>
      <trkpt lat="49.17201" lon="1.57568">
        <ele>114.34743499756</ele>
        <time>2015-09-13T07:04:26.000Z</time>
      </trkpt>
      <trkpt lat="49.17218" lon="1.57579">
        <ele>113.86383056641</ele>
        <time>2015-09-13T07:04:29.000Z</time>
      </trkpt>
      <trkpt lat="49.17236" lon="1.57587">
        <ele>113.56687927246</ele>
        <time>2015-09-13T07:04:32.000Z</time>
      </trkpt>
      <trkpt lat="49.17255" lon="1.57598">
        <ele>113.45308685303</ele>
        <time>2015-09-13T07:04:35.000Z</time>
      </trkpt>
      <trkpt lat="49.17272" lon="1.57607">
        <ele>113.32305908203</ele>
        <time>2015-09-13T07:04:38.000Z</time>
      </trkpt>
      <trkpt lat="49.17288" lon="1.57617">
        <ele>113.15942382812</ele>
        <time>2015-09-13T07:04:41.000Z</time>
      </trkpt>
      <trkpt lat="49.17299" lon="1.57623">
        <ele>112.93979644775</ele>
        <time>2015-09-13T07:04:43.000Z</time>
      </trkpt>
      <trkpt lat="49.17315" lon="1.57635">
        <ele>112.60623931885</ele>
        <time>2015-09-13T07:04:46.000Z</time>
      </trkpt>
      <trkpt lat="49.17325" lon="1.57641">
        <ele>112.24626159668</ele>
        <time>2015-09-13T07:04:48.000Z</time>
      </trkpt>
      <trkpt lat="49.1734" lon="1.5765">
        <ele>111.93461608887</ele>
        <time>2015-09-13T07:04:51.000Z</time>
      </trkpt>
      <trkpt lat="49.17351" lon="1.57656">
        <ele>111.68774414062</ele>
        <time>2015-09-13T07:04:53.000Z</time>
      </trkpt>
      <trkpt lat="49.17366" lon="1.57664">
        <ele>111.4507598877</ele>
        <time>2015-09-13T07:04:56.000Z</time>
      </trkpt>
      <trkpt lat="49.17374" lon="1.5767">
        <ele>111.25953674316</ele>
        <time>2015-09-13T07:04:58.000Z</time>
      </trkpt>
      <trkpt lat="49.17389" lon="1.57679">
        <ele>111.06369781494</ele>
        <time>2015-09-13T07:05:01.000Z</time>
      </trkpt>
      <trkpt lat="49.17399" lon="1.57686">
        <ele>110.88200378418</ele>
        <time>2015-09-13T07:05:03.000Z</time>
      </trkpt>
      <trkpt lat="49.17408" lon="1.57692">
        <ele>110.69659423828</ele>
        <time>2015-09-13T07:05:05.000Z</time>
      </trkpt>
      <trkpt lat="49.17417" lon="1.57698">
        <ele>110.53450775146</ele>
        <time>2015-09-13T07:05:07.000Z</time>
      </trkpt>
      <trkpt lat="49.17431" lon="1.57707">
        <ele>110.44499206543</ele>
        <time>2015-09-13T07:05:10.000Z</time>
      </trkpt>
      <trkpt lat="49.17443" lon="1.57716">
        <ele>110.43969726562</ele>
        <time>2015-09-13T07:05:13.000Z</time>
      </trkpt>
      <trkpt lat="49.17454" lon="1.57725">
        <ele>110.50187683105</ele>
        <time>2015-09-13T07:05:16.000Z</time>
      </trkpt>
      <trkpt lat="49.17465" lon="1.57733">
        <ele>110.63716888428</ele>
        <time>2015-09-13T07:05:19.000Z</time>
      </trkpt>
      <trkpt lat="49.17472" lon="1.57738">
        <ele>110.82524108887</ele>
        <time>2015-09-13T07:05:21.000Z</time>
      </trkpt>
      <trkpt lat="49.1748" lon="1.57744">
        <ele>111.00673675537</ele>
        <time>2015-09-13T07:05:23.000Z</time>
      </trkpt>
      <trkpt lat="49.17491" lon="1.57752">
        <ele>111.20218658447</ele>
        <time>2015-09-13T07:05:26.000Z</time>
      </trkpt>
      <trkpt lat="49.175" lon="1.57763">
        <ele>111.38116455078</ele>
        <time>2015-09-13T07:05:29.000Z</time>
      </trkpt>
      <trkpt lat="49.17506" lon="1.57771">
        <ele>111.49409484863</ele>
        <time>2015-09-13T07:05:31.000Z</time>
      </trkpt>
      <trkpt lat="49.17514" lon="1.57779">
        <ele>111.56170654297</ele>
        <time>2015-09-13T07:05:33.000Z</time>
      </trkpt>
      <trkpt lat="49.17527" lon="1.57791">
        <ele>111.58892822266</ele>
        <time>2015-09-13T07:05:36.000Z</time>
      </trkpt>
      <trkpt lat="49.1754" lon="1.57803">
        <ele>111.56585693359</ele>
        <time>2015-09-13T07:05:39.000Z</time>
      </trkpt>
      <trkpt lat="49.17547" lon="1.57814">
        <ele>111.5159072876</ele>
        <time>2015-09-13T07:05:41.000Z</time>
      </trkpt>
      <trkpt lat="49.17558" lon="1.57832">
        <ele>111.47715759277</ele>
        <time>2015-09-13T07:05:44.000Z</time>
      </trkpt>
      <trkpt lat="49.17569" lon="1.57849">
        <ele>111.41986083984</ele>
        <time>2015-09-13T07:05:47.000Z</time>
      </trkpt>
      <trkpt lat="49.17577" lon="1.57861">
        <ele>111.35359191895</ele>
        <time>2015-09-13T07:05:49.000Z</time>
      </trkpt>
      <trkpt lat="49.17585" lon="1.57873">
        <ele>111.26582336426</ele>
        <time>2015-09-13T07:05:51.000Z</time>
      </trkpt>
      <trkpt lat="49.17593" lon="1.57884">
        <ele>111.12961578369</ele>
        <time>2015-09-13T07:05:53.000Z</time>
      </trkpt>
      <trkpt lat="49.17604" lon="1.57901">
        <ele>110.92319488525</ele>
        <time>2015-09-13T07:05:56.000Z</time>
      </trkpt>
      <trkpt lat="49.17616" lon="1.57919">
        <ele>110.66589355469</ele>
        <time>2015-09-13T07:05:59.000Z</time>
      </trkpt>
      <trkpt lat="49.17627" lon="1.57936">
        <ele>110.36367034912</ele>
        <time>2015-09-13T07:06:02.000Z</time>
      </trkpt>
      <trkpt lat="49.17635" lon="1.57948">
        <ele>110.04933166504</ele>
        <time>2015-09-13T07:06:04.000Z</time>
      </trkpt>
      <trkpt lat="49.17646" lon="1.57966">
        <ele>109.74835205078</ele>
        <time>2015-09-13T07:06:07.000Z</time>
      </trkpt>
      <trkpt lat="49.17659" lon="1.57984">
        <ele>109.49659729004</ele>
        <time>2015-09-13T07:06:10.000Z</time>
      </trkpt>
      <trkpt lat="49.17667" lon="1.57996">
        <ele>109.31376647949</ele>
        <time>2015-09-13T07:06:12.000Z</time>
      </trkpt>
      <trkpt lat="49.17678" lon="1.58016">
        <ele>109.11381530762</ele>
        <time>2015-09-13T07:06:15.000Z</time>
      </trkpt>
      <trkpt lat="49.17687" lon="1.58028">
        <ele>108.89992523193</ele>
        <time>2015-09-13T07:06:17.000Z</time>
      </trkpt>
      <trkpt lat="49.17695" lon="1.5804">
        <ele>108.6854095459</ele>
        <time>2015-09-13T07:06:20.000Z</time>
      </trkpt>
      <trkpt lat="49.17714" lon="1.58072">
        <ele>108.41412353516</ele>
        <time>2015-09-13T07:06:24.000Z</time>
      </trkpt>
      <trkpt lat="49.17727" lon="1.58093">
        <ele>108.14890289307</ele>
        <time>2015-09-13T07:06:27.000Z</time>
      </trkpt>
      <trkpt lat="49.17735" lon="1.58106">
        <ele>107.98071289062</ele>
        <time>2015-09-13T07:06:29.000Z</time>
      </trkpt>
      <trkpt lat="49.17747" lon="1.58127">
        <ele>107.88948822021</ele>
        <time>2015-09-13T07:06:32.000Z</time>
      </trkpt>
      <trkpt lat="49.17755" lon="1.58142">
        <ele>107.83554840088</ele>
        <time>2015-09-13T07:06:34.000Z</time>
      </trkpt>
      <trkpt lat="49.17766" lon="1.58165">
        <ele>107.8448638916</ele>
        <time>2015-09-13T07:06:37.000Z</time>
      </trkpt>
      <trkpt lat="49.17773" lon="1.5818">
        <ele>107.81315612793</ele>
        <time>2015-09-13T07:06:39.000Z</time>
      </trkpt>
      <trkpt lat="49.17784" lon="1.58205">
        <ele>107.67789459229</ele>
        <time>2015-09-13T07:06:42.000Z</time>
      </trkpt>
      <trkpt lat="49.17795" lon="1.5823">
        <ele>107.42808532715</ele>
        <time>2015-09-13T07:06:45.000Z</time>
      </trkpt>
      <trkpt lat="49.17805" lon="1.58255">
        <ele>107.09922027588</ele>
        <time>2015-09-13T07:06:48.000Z</time>
      </trkpt>
      <trkpt lat="49.17812" lon="1.58273">
        <ele>106.73394775391</ele>
        <time>2015-09-13T07:06:50.000Z</time>
      </trkpt>
      <trkpt lat="49.17818" lon="1.58291">
        <ele>106.35797119141</ele>
        <time>2015-09-13T07:06:52.000Z</time>
      </trkpt>
      <trkpt lat="49.17828" lon="1.58319">
        <ele>105.97922515869</ele>
        <time>2015-09-13T07:06:55.000Z</time>
      </trkpt>
      <trkpt lat="49.17834" lon="1.58337">
        <ele>105.63700866699</ele>
        <time>2015-09-13T07:06:57.000Z</time>
      </trkpt>
      <trkpt lat="49.17841" lon="1.58356">
        <ele>105.36659240723</ele>
        <time>2015-09-13T07:06:59.000Z</time>
      </trkpt>
      <trkpt lat="49.17851" lon="1.58383">
        <ele>105.09510803223</ele>
        <time>2015-09-13T07:07:02.000Z</time>
      </trkpt>
      <trkpt lat="49.17858" lon="1.58403">
        <ele>104.8125</ele>
        <time>2015-09-13T07:07:04.000Z</time>
      </trkpt>
      <trkpt lat="49.17869" lon="1.58434">
        <ele>104.48637390137</ele>
        <time>2015-09-13T07:07:07.000Z</time>
      </trkpt>
      <trkpt lat="49.17876" lon="1.58455">
        <ele>104.13488769531</ele>
        <time>2015-09-13T07:07:09.000Z</time>
      </trkpt>
      <trkpt lat="49.17888" lon="1.58484">
        <ele>103.70046234131</ele>
        <time>2015-09-13T07:07:12.000Z</time>
      </trkpt>
      <trkpt lat="49.17901" lon="1.58511">
        <ele>103.22479248047</ele>
        <time>2015-09-13T07:07:16.000Z</time>
      </trkpt>
      <trkpt lat="49.1791" lon="1.58529">
        <ele>102.73536682129</ele>
        <time>2015-09-13T07:07:17.000Z</time>
      </trkpt>
      <trkpt lat="49.17919" lon="1.58547">
        <ele>102.29847717285</ele>
        <time>2015-09-13T07:07:19.000Z</time>
      </trkpt>
      <trkpt lat="49.17933" lon="1.5857">
        <ele>101.87614440918</ele>
        <time>2015-09-13T07:07:22.000Z</time>
      </trkpt>
      <trkpt lat="49.17947" lon="1.58596">
        <ele>101.51611328125</ele>
        <time>2015-09-13T07:07:25.000Z</time>
      </trkpt>
      <trkpt lat="49.17955" lon="1.58613">
        <ele>101.26142883301</ele>
        <time>2015-09-13T07:07:27.000Z</time>
      </trkpt>
      <trkpt lat="49.17967" lon="1.58638">
        <ele>101.12462615967</ele>
        <time>2015-09-13T07:07:30.000Z</time>
      </trkpt>
      <trkpt lat="49.17975" lon="1.58653">
        <ele>101.10757446289</ele>
        <time>2015-09-13T07:07:32.000Z</time>
      </trkpt>
      <trkpt lat="49.17983" lon="1.58668">
        <ele>101.20305633545</ele>
        <time>2015-09-13T07:07:34.000Z</time>
      </trkpt>
      <trkpt lat="49.1799" lon="1.58684">
        <ele>101.40000152588</ele>
        <time>2015-09-13T07:07:36.000Z</time>
      </trkpt>
      <trkpt lat="49.17997" lon="1.5871">
        <ele>101.69214630127</ele>
        <time>2015-09-13T07:07:39.000Z</time>
      </trkpt>
      <trkpt lat="49.18" lon="1.58725">
        <ele>102.00370788574</ele>
        <time>2015-09-13T07:07:41.000Z</time>
      </trkpt>
      <trkpt lat="49.17999" lon="1.58749">
        <ele>102.32523345947</ele>
        <time>2015-09-13T07:07:44.000Z</time>
      </trkpt>
      <trkpt lat="49.17993" lon="1.58763">
        <ele>102.58843994141</ele>
        <time>2015-09-13T07:07:46.000Z</time>
      </trkpt>
      <trkpt lat="49.17986" lon="1.58781">
        <ele>102.78792572021</ele>
        <time>2015-09-13T07:07:49.000Z</time>
      </trkpt>
      <trkpt lat="49.17986" lon="1.58796">
        <ele>102.92700195312</ele>
        <time>2015-09-13T07:07:51.000Z</time>
      </trkpt>
      <trkpt lat="49.1799" lon="1.58819">
        <ele>103.10105895996</ele>
        <time>2015-09-13T07:07:54.000Z</time>
      </trkpt>
      <trkpt lat="49.17996" lon="1.58841">
        <ele>103.30937194824</ele>
        <time>2015-09-13T07:07:57.000Z</time>
      </trkpt>
      <trkpt lat="49.17999" lon="1.58854">
        <ele>103.57151794434</ele>
        <time>2015-09-13T07:07:59.000Z</time>
      </trkpt>
      <trkpt lat="49.18005" lon="1.58875">
        <ele>103.92219543457</ele>
        <time>2015-09-13T07:08:02.000Z</time>
      </trkpt>
      <trkpt lat="49.18008" lon="1.5889">
        <ele>104.29797363281</ele>
        <time>2015-09-13T07:08:04.000Z</time>
      </trkpt>
      <trkpt lat="49.18014" lon="1.5891">
        <ele>104.67537689209</ele>
        <time>2015-09-13T07:08:07.000Z</time>
      </trkpt>
      <trkpt lat="49.18018" lon="1.58924">
        <ele>105.0193862915</ele>
        <time>2015-09-13T07:08:09.000Z</time>
      </trkpt>
      <trkpt lat="49.18025" lon="1.58945">
        <ele>105.37955474854</ele>
        <time>2015-09-13T07:08:12.000Z</time>
      </trkpt>
      <trkpt lat="49.1803" lon="1.58959">
        <ele>105.68465423584</ele>
        <time>2015-09-13T07:08:14.000Z</time>
      </trkpt>
      <trkpt lat="49.18035" lon="1.58973">
        <ele>105.95584869385</ele>
        <time>2015-09-13T07:08:16.000Z</time>
      </trkpt>
      <trkpt lat="49.1804" lon="1.58988">
        <ele>106.15883636475</ele>
        <time>2015-09-13T07:08:18.000Z</time>
      </trkpt>
      <trkpt lat="49.18045" lon="1.59003">
        <ele>106.32012939453</ele>
        <time>2015-09-13T07:08:20.000Z</time>
      </trkpt>
      <trkpt lat="49.18048" lon="1.59027">
        <ele>106.39091491699</ele>
        <time>2015-09-13T07:08:23.000Z</time>
      </trkpt>
      <trkpt lat="49.1805" lon="1.59049">
        <ele>106.39710998535</ele>
        <time>2015-09-13T07:08:26.000Z</time>
      </trkpt>
      <trkpt lat="49.18051" lon="1.59064">
        <ele>106.35234069824</ele>
        <time>2015-09-13T07:08:28.000Z</time>
      </trkpt>
      <trkpt lat="49.18052" lon="1.59079">
        <ele>106.26539611816</ele>
        <time>2015-09-13T07:08:30.000Z</time>
      </trkpt>
      <trkpt lat="49.18054" lon="1.59101">
        <ele>106.16186523438</ele>
        <time>2015-09-13T07:08:33.000Z</time>
      </trkpt>
      <trkpt lat="49.18057" lon="1.59121">
        <ele>106.08408355713</ele>
        <time>2015-09-13T07:08:36.000Z</time>
      </trkpt>
      <trkpt lat="49.18063" lon="1.59138">
        <ele>106.03414154053</ele>
        <time>2015-09-13T07:08:39.000Z</time>
      </trkpt>
      <trkpt lat="49.18071" lon="1.59154">
        <ele>106.00650787354</ele>
        <time>2015-09-13T07:08:42.000Z</time>
      </trkpt>
      <trkpt lat="49.18082" lon="1.59168">
        <ele>106.0027923584</ele>
        <time>2015-09-13T07:08:45.000Z</time>
      </trkpt>
      <trkpt lat="49.18089" lon="1.59178">
        <ele>106.04420471191</ele>
        <time>2015-09-13T07:08:47.000Z</time>
      </trkpt>
      <trkpt lat="49.18101" lon="1.59193">
        <ele>106.14786529541</ele>
        <time>2015-09-13T07:08:50.000Z</time>
      </trkpt>
      <trkpt lat="49.18111" lon="1.59206">
        <ele>106.30889892578</ele>
        <time>2015-09-13T07:08:53.000Z</time>
      </trkpt>
      <trkpt lat="49.18119" lon="1.59214">
        <ele>106.50679779053</ele>
        <time>2015-09-13T07:08:55.000Z</time>
      </trkpt>
      <trkpt lat="49.18127" lon="1.59222">
        <ele>106.74237060547</ele>
        <time>2015-09-13T07:08:57.000Z</time>
      </trkpt>
      <trkpt lat="49.18138" lon="1.59234">
        <ele>106.99407958984</ele>
        <time>2015-09-13T07:09:00.000Z</time>
      </trkpt>
      <trkpt lat="49.18149" lon="1.59245">
        <ele>107.2361831665</ele>
        <time>2015-09-13T07:09:03.000Z</time>
      </trkpt>
      <trkpt lat="49.18159" lon="1.59257">
        <ele>107.45860290527</ele>
        <time>2015-09-13T07:09:06.000Z</time>
      </trkpt>
      <trkpt lat="49.18166" lon="1.59265">
        <ele>107.6587677002</ele>
        <time>2015-09-13T07:09:08.000Z</time>
      </trkpt>
      <trkpt lat="49.18174" lon="1.59274">
        <ele>107.84252929688</ele>
        <time>2015-09-13T07:09:11.000Z</time>
      </trkpt>
      <trkpt lat="49.1818" lon="1.59281">
        <ele>107.99308776855</ele>
        <time>2015-09-13T07:09:13.000Z</time>
      </trkpt>
      <trkpt lat="49.18189" lon="1.59293">
        <ele>108.12940979004</ele>
        <time>2015-09-13T07:09:16.000Z</time>
      </trkpt>
      <trkpt lat="49.18199" lon="1.59304">
        <ele>108.2727432251</ele>
        <time>2015-09-13T07:09:19.000Z</time>
      </trkpt>
      <trkpt lat="49.18205" lon="1.59312">
        <ele>108.4337387085</ele>
        <time>2015-09-13T07:09:21.000Z</time>
      </trkpt>
      <trkpt lat="49.18213" lon="1.59323">
        <ele>108.62194824219</ele>
        <time>2015-09-13T07:09:24.000Z</time>
      </trkpt>
      <trkpt lat="49.18219" lon="1.59331">
        <ele>108.82326507568</ele>
        <time>2015-09-13T07:09:26.000Z</time>
      </trkpt>
      <trkpt lat="49.18223" lon="1.59337">
        <ele>109.02465820312</ele>
        <time>2015-09-13T07:09:28.000Z</time>
      </trkpt>
      <trkpt lat="49.18231" lon="1.59345">
        <ele>109.24800872803</ele>
        <time>2015-09-13T07:09:31.000Z</time>
      </trkpt>
      <trkpt lat="49.18237" lon="1.59352">
        <ele>109.4845123291</ele>
        <time>2015-09-13T07:09:33.000Z</time>
      </trkpt>
      <trkpt lat="49.18242" lon="1.5936">
        <ele>109.71018981934</ele>
        <time>2015-09-13T07:09:35.000Z</time>
      </trkpt>
      <trkpt lat="49.18247" lon="1.59366">
        <ele>109.93629455566</ele>
        <time>2015-09-13T07:09:37.000Z</time>
      </trkpt>
      <trkpt lat="49.18256" lon="1.59376">
        <ele>110.22341156006</ele>
        <time>2015-09-13T07:09:40.000Z</time>
      </trkpt>
      <trkpt lat="49.18261" lon="1.59383">
        <ele>110.52880859375</ele>
        <time>2015-09-13T07:09:42.000Z</time>
      </trkpt>
      <trkpt lat="49.18269" lon="1.59392">
        <ele>110.90775299072</ele>
        <time>2015-09-13T07:09:45.000Z</time>
      </trkpt>
      <trkpt lat="49.18277" lon="1.59401">
        <ele>111.36036682129</ele>
        <time>2015-09-13T07:09:48.000Z</time>
      </trkpt>
      <trkpt lat="49.18285" lon="1.59411">
        <ele>111.893699646</ele>
        <time>2015-09-13T07:09:51.000Z</time>
      </trkpt>
      <trkpt lat="49.1829" lon="1.59417">
        <ele>112.40222167969</ele>
        <time>2015-09-13T07:09:53.000Z</time>
      </trkpt>
      <trkpt lat="49.18294" lon="1.59422">
        <ele>112.89038085938</ele>
        <time>2015-09-13T07:09:55.000Z</time>
      </trkpt>
      <trkpt lat="49.18299" lon="1.59428">
        <ele>113.32405090332</ele>
        <time>2015-09-13T07:09:57.000Z</time>
      </trkpt>
      <trkpt lat="49.18306" lon="1.59439">
        <ele>113.74263763428</ele>
        <time>2015-09-13T07:10:01.000Z</time>
      </trkpt>
      <trkpt lat="49.18311" lon="1.59444">
        <ele>114.1001739502</ele>
        <time>2015-09-13T07:10:02.000Z</time>
      </trkpt>
      <trkpt lat="49.18315" lon="1.59449">
        <ele>114.43516540527</ele>
        <time>2015-09-13T07:10:04.000Z</time>
      </trkpt>
      <trkpt lat="49.1832" lon="1.59455">
        <ele>114.76377105713</ele>
        <time>2015-09-13T07:10:07.000Z</time>
      </trkpt>
      <trkpt lat="49.18324" lon="1.59459">
        <ele>115.07000732422</ele>
        <time>2015-09-13T07:10:09.000Z</time>
      </trkpt>
      <trkpt lat="49.1833" lon="1.59467">
        <ele>115.33317565918</ele>
        <time>2015-09-13T07:10:12.000Z</time>
      </trkpt>
      <trkpt lat="49.18336" lon="1.59475">
        <ele>115.61402893066</ele>
        <time>2015-09-13T07:10:15.000Z</time>
      </trkpt>
      <trkpt lat="49.18342" lon="1.59482">
        <ele>115.94779205322</ele>
        <time>2015-09-13T07:10:18.000Z</time>
      </trkpt>
      <trkpt lat="49.18346" lon="1.59488">
        <ele>116.28477478027</ele>
        <time>2015-09-13T07:10:20.000Z</time>
      </trkpt>
      <trkpt lat="49.18349" lon="1.59493">
        <ele>116.64017486572</ele>
        <time>2015-09-13T07:10:22.000Z</time>
      </trkpt>
      <trkpt lat="49.18353" lon="1.59497">
        <ele>116.99255371094</ele>
        <time>2015-09-13T07:10:24.000Z</time>
      </trkpt>
      <trkpt lat="49.18358" lon="1.59503">
        <ele>117.37734222412</ele>
        <time>2015-09-13T07:10:27.000Z</time>
      </trkpt>
      <trkpt lat="49.18362" lon="1.59507">
        <ele>117.74719238281</ele>
        <time>2015-09-13T07:10:29.000Z</time>
      </trkpt>
      <trkpt lat="49.18365" lon="1.59511">
        <ele>118.13034820557</ele>
        <time>2015-09-13T07:10:31.000Z</time>
      </trkpt>
      <trkpt lat="49.1837" lon="1.59517">
        <ele>118.56825256348</ele>
        <time>2015-09-13T07:10:34.000Z</time>
      </trkpt>
      <trkpt lat="49.18375" lon="1.59523">
        <ele>119.05930328369</ele>
        <time>2015-09-13T07:10:37.000Z</time>
      </trkpt>
      <trkpt lat="49.18379" lon="1.59527">
        <ele>119.5196685791</ele>
        <time>2015-09-13T07:10:39.000Z</time>
      </trkpt>
      <trkpt lat="49.18384" lon="1.59533">
        <ele>119.99044036865</ele>
        <time>2015-09-13T07:10:42.000Z</time>
      </trkpt>
      <trkpt lat="49.18387" lon="1.59537">
        <ele>120.45322418213</ele>
        <time>2015-09-13T07:10:44.000Z</time>
      </trkpt>
      <trkpt lat="49.18393" lon="1.59544">
        <ele>120.91024017334</ele>
        <time>2015-09-13T07:10:47.000Z</time>
      </trkpt>
      <trkpt lat="49.18397" lon="1.59552">
        <ele>121.35367584229</ele>
        <time>2015-09-13T07:10:50.000Z</time>
      </trkpt>
      <trkpt lat="49.184" lon="1.59558">
        <ele>121.78127288818</ele>
        <time>2015-09-13T07:10:52.000Z</time>
      </trkpt>
      <trkpt lat="49.18403" lon="1.59564">
        <ele>122.17002105713</ele>
        <time>2015-09-13T07:10:54.000Z</time>
      </trkpt>
      <trkpt lat="49.18407" lon="1.59574">
        <ele>122.57498931885</ele>
        <time>2015-09-13T07:10:56.000Z</time>
      </trkpt>
      <trkpt lat="49.1841" lon="1.59581">
        <ele>122.92067718506</ele>
        <time>2015-09-13T07:10:59.000Z</time>
      </trkpt>
      <trkpt lat="49.18413" lon="1.59591">
        <ele>123.25930023193</ele>
        <time>2015-09-13T07:11:02.000Z</time>
      </trkpt>
      <trkpt lat="49.18415" lon="1.59599">
        <ele>123.60008239746</ele>
        <time>2015-09-13T07:11:04.000Z</time>
      </trkpt>
      <trkpt lat="49.18418" lon="1.59608">
        <ele>123.96055603027</ele>
        <time>2015-09-13T07:11:07.000Z</time>
      </trkpt>
      <trkpt lat="49.18422" lon="1.59618">
        <ele>124.3373260498</ele>
        <time>2015-09-13T07:11:10.000Z</time>
      </trkpt>
      <trkpt lat="49.18424" lon="1.59624">
        <ele>124.72415924072</ele>
        <time>2015-09-13T07:11:12.000Z</time>
      </trkpt>
      <trkpt lat="49.18426" lon="1.59631">
        <ele>125.0922088623</ele>
        <time>2015-09-13T07:11:14.000Z</time>
      </trkpt>
      <trkpt lat="49.1843" lon="1.59641">
        <ele>125.49426269531</ele>
        <time>2015-09-13T07:11:17.000Z</time>
      </trkpt>
      <trkpt lat="49.18432" lon="1.59647">
        <ele>125.87994384766</ele>
        <time>2015-09-13T07:11:19.000Z</time>
      </trkpt>
      <trkpt lat="49.18435" lon="1.59656">
        <ele>126.26318359375</ele>
        <time>2015-09-13T07:11:21.000Z</time>
      </trkpt>
      <trkpt lat="49.18438" lon="1.59665">
        <ele>126.67022705078</ele>
        <time>2015-09-13T07:11:25.000Z</time>
      </trkpt>
      <trkpt lat="49.18441" lon="1.59671">
        <ele>127.0835723877</ele>
        <time>2015-09-13T07:11:27.000Z</time>
      </trkpt>
      <trkpt lat="49.18443" lon="1.59679">
        <ele>127.4965057373</ele>
        <time>2015-09-13T07:11:30.000Z</time>
      </trkpt>
      <trkpt lat="49.18446" lon="1.59687">
        <ele>127.9446182251</ele>
        <time>2015-09-13T07:11:33.000Z</time>
      </trkpt>
      <trkpt lat="49.18448" lon="1.59693">
        <ele>128.36735534668</ele>
        <time>2015-09-13T07:11:35.000Z</time>
      </trkpt>
      <trkpt lat="49.18451" lon="1.59702">
        <ele>128.80380249023</ele>
        <time>2015-09-13T07:11:38.000Z</time>
      </trkpt>
      <trkpt lat="49.18452" lon="1.59708">
        <ele>129.24069213867</ele>
        <time>2015-09-13T07:11:40.000Z</time>
      </trkpt>
      <trkpt lat="49.18455" lon="1.59717">
        <ele>129.68325805664</ele>
        <time>2015-09-13T07:11:43.000Z</time>
      </trkpt>
      <trkpt lat="49.18457" lon="1.59722">
        <ele>130.08856201172</ele>
        <time>2015-09-13T07:11:45.000Z</time>
      </trkpt>
      <trkpt lat="49.18459" lon="1.59731">
        <ele>130.51849365234</ele>
        <time>2015-09-13T07:11:48.000Z</time>
      </trkpt>
      <trkpt lat="49.18462" lon="1.59739">
        <ele>130.94778442383</ele>
        <time>2015-09-13T07:11:50.000Z</time>
      </trkpt>
      <trkpt lat="49.18465" lon="1.59747">
        <ele>131.40609741211</ele>
        <time>2015-09-13T07:11:54.000Z</time>
      </trkpt>
      <trkpt lat="49.18465" lon="1.59754">
        <ele>131.82850646973</ele>
        <time>2015-09-13T07:11:56.000Z</time>
      </trkpt>
      <trkpt lat="49.18465" lon="1.59765">
        <ele>132.2604675293</ele>
        <time>2015-09-13T07:11:59.000Z</time>
      </trkpt>
      <trkpt lat="49.18462" lon="1.59775">
        <ele>132.63836669922</ele>
        <time>2015-09-13T07:12:02.000Z</time>
      </trkpt>
      <trkpt lat="49.1846" lon="1.5978">
        <ele>132.9419708252</ele>
        <time>2015-09-13T07:12:05.000Z</time>
      </trkpt>
      <trkpt lat="49.18457" lon="1.59789">
        <ele>133.17764282227</ele>
        <time>2015-09-13T07:12:07.000Z</time>
      </trkpt>
      <trkpt lat="49.18452" lon="1.59798">
        <ele>133.38641357422</ele>
        <time>2015-09-13T07:12:10.000Z</time>
      </trkpt>
      <trkpt lat="49.18449" lon="1.59805">
        <ele>133.54521179199</ele>
        <time>2015-09-13T07:12:12.000Z</time>
      </trkpt>
      <trkpt lat="49.18448" lon="1.59808">
        <ele>133.68359375</ele>
        <time>2015-09-13T07:12:14.000Z</time>
      </trkpt>
      <trkpt lat="49.18443" lon="1.59822">
        <ele>133.8837890625</ele>
        <time>2015-09-13T07:12:17.000Z</time>
      </trkpt>
      <trkpt lat="49.1844" lon="1.59829">
        <ele>134.10313415527</ele>
        <time>2015-09-13T07:12:19.000Z</time>
      </trkpt>
      <trkpt lat="49.18437" lon="1.59838">
        <ele>134.31930541992</ele>
        <time>2015-09-13T07:12:22.000Z</time>
      </trkpt>
      <trkpt lat="49.18435" lon="1.59845">
        <ele>134.52084350586</ele>
        <time>2015-09-13T07:12:24.000Z</time>
      </trkpt>
      <trkpt lat="49.18431" lon="1.59858">
        <ele>134.71319580078</ele>
        <time>2015-09-13T07:12:27.000Z</time>
      </trkpt>
      <trkpt lat="49.18429" lon="1.59869">
        <ele>134.83744812012</ele>
        <time>2015-09-13T07:12:29.000Z</time>
      </trkpt>
      <trkpt lat="49.18426" lon="1.59881">
        <ele>134.91793823242</ele>
        <time>2015-09-13T07:12:31.000Z</time>
      </trkpt>
      <trkpt lat="49.18423" lon="1.59892">
        <ele>134.96784973145</ele>
        <time>2015-09-13T07:12:33.000Z</time>
      </trkpt>
      <trkpt lat="49.18419" lon="1.59909">
        <ele>135.01010131836</ele>
        <time>2015-09-13T07:12:36.000Z</time>
      </trkpt>
      <trkpt lat="49.18417" lon="1.59923">
        <ele>135.00344848633</ele>
        <time>2015-09-13T07:12:38.000Z</time>
      </trkpt>
      <trkpt lat="49.18415" lon="1.59936">
        <ele>134.90922546387</ele>
        <time>2015-09-13T07:12:40.000Z</time>
      </trkpt>
      <trkpt lat="49.18415" lon="1.59955">
        <ele>134.71920776367</ele>
        <time>2015-09-13T07:12:43.000Z</time>
      </trkpt>
      <trkpt lat="49.1842" lon="1.59965">
        <ele>134.50285339355</ele>
        <time>2015-09-13T07:12:45.000Z</time>
      </trkpt>
      <trkpt lat="49.18428" lon="1.59974">
        <ele>134.3217010498</ele>
        <time>2015-09-13T07:12:47.000Z</time>
      </trkpt>
      <trkpt lat="49.18445" lon="1.59987">
        <ele>134.23492431641</ele>
        <time>2015-09-13T07:12:50.000Z</time>
      </trkpt>
      <trkpt lat="49.18464" lon="1.60002">
        <ele>134.24076843262</ele>
        <time>2015-09-13T07:12:53.000Z</time>
      </trkpt>
      <trkpt lat="49.18485" lon="1.60021">
        <ele>134.228515625</ele>
        <time>2015-09-13T07:12:56.000Z</time>
      </trkpt>
      <trkpt lat="49.185" lon="1.60035">
        <ele>134.13088989258</ele>
        <time>2015-09-13T07:12:59.000Z</time>
      </trkpt>
      <trkpt lat="49.18523" lon="1.60058">
        <ele>133.47122192383</ele>
        <time>2015-09-13T07:13:02.000Z</time>
      </trkpt>
      <trkpt lat="49.1854" lon="1.60076">
        <ele>132.31758117676</ele>
        <time>2015-09-13T07:13:03.000Z</time>
      </trkpt>
      <trkpt lat="49.18564" lon="1.60105">
        <ele>130.41781616211</ele>
        <time>2015-09-13T07:13:06.000Z</time>
      </trkpt>
      <trkpt lat="49.18581" lon="1.60124">
        <ele>128.15017700195</ele>
        <time>2015-09-13T07:13:08.000Z</time>
      </trkpt>
      <trkpt lat="49.18607" lon="1.60155">
        <ele>125.48352050781</ele>
        <time>2015-09-13T07:13:11.000Z</time>
      </trkpt>
      <trkpt lat="49.18621" lon="1.60182">
        <ele>123.073387146</ele>
        <time>2015-09-13T07:13:13.000Z</time>
      </trkpt>
      <trkpt lat="49.18639" lon="1.60223">
        <ele>120.77935791016</ele>
        <time>2015-09-13T07:13:16.000Z</time>
      </trkpt>
      <trkpt lat="49.18657" lon="1.60261">
        <ele>118.83709716797</ele>
        <time>2015-09-13T07:13:19.000Z</time>
      </trkpt>
      <trkpt lat="49.1867" lon="1.60284">
        <ele>117.06781005859</ele>
        <time>2015-09-13T07:13:21.000Z</time>
      </trkpt>
      <trkpt lat="49.18685" lon="1.60306">
        <ele>115.45951843262</ele>
        <time>2015-09-13T07:13:23.000Z</time>
      </trkpt>
      <trkpt lat="49.18709" lon="1.6034">
        <ele>113.64575195312</ele>
        <time>2015-09-13T07:13:26.000Z</time>
      </trkpt>
      <trkpt lat="49.18727" lon="1.60374">
        <ele>111.86303710938</ele>
        <time>2015-09-13T07:13:29.000Z</time>
      </trkpt>
      <trkpt lat="49.18734" lon="1.60391">
        <ele>110.34163665771</ele>
        <time>2015-09-13T07:13:31.000Z</time>
      </trkpt>
      <trkpt lat="49.18731" lon="1.60413">
        <ele>108.99592590332</ele>
        <time>2015-09-13T07:13:34.000Z</time>
      </trkpt>
      <trkpt lat="49.1872" lon="1.60424">
        <ele>107.95637512207</ele>
        <time>2015-09-13T07:13:37.000Z</time>
      </trkpt>
      <trkpt lat="49.1871" lon="1.6043">
        <ele>107.37800598145</ele>
        <time>2015-09-13T07:13:39.000Z</time>
      </trkpt>
      <trkpt lat="49.18698" lon="1.60436">
        <ele>107.07502746582</ele>
        <time>2015-09-13T07:13:41.000Z</time>
      </trkpt>
      <trkpt lat="49.18679" lon="1.60443">
        <ele>106.86674499512</ele>
        <time>2015-09-13T07:13:44.000Z</time>
      </trkpt>
      <trkpt lat="49.18666" lon="1.60448">
        <ele>106.7691192627</ele>
        <time>2015-09-13T07:13:46.000Z</time>
      </trkpt>
      <trkpt lat="49.18653" lon="1.60465">
        <ele>106.60578918457</ele>
        <time>2015-09-13T07:13:49.000Z</time>
      </trkpt>
      <trkpt lat="49.18655" lon="1.60489">
        <ele>106.41157531738</ele>
        <time>2015-09-13T07:13:52.000Z</time>
      </trkpt>
      <trkpt lat="49.18662" lon="1.60498">
        <ele>106.23879241943</ele>
        <time>2015-09-13T07:13:54.000Z</time>
      </trkpt>
      <trkpt lat="49.18669" lon="1.60512">
        <ele>106.01564025879</ele>
        <time>2015-09-13T07:13:56.000Z</time>
      </trkpt>
      <trkpt lat="49.18677" lon="1.60533">
        <ele>105.64176177979</ele>
        <time>2015-09-13T07:13:59.000Z</time>
      </trkpt>
      <trkpt lat="49.18687" lon="1.60555">
        <ele>105.1967010498</ele>
        <time>2015-09-13T07:14:02.000Z</time>
      </trkpt>
      <trkpt lat="49.18697" lon="1.60577">
        <ele>104.60018157959</ele>
        <time>2015-09-13T07:14:05.000Z</time>
      </trkpt>
      <trkpt lat="49.18704" lon="1.60592">
        <ele>103.90716552734</ele>
        <time>2015-09-13T07:14:07.000Z</time>
      </trkpt>
      <trkpt lat="49.18713" lon="1.60618">
        <ele>103.19856262207</ele>
        <time>2015-09-13T07:14:10.000Z</time>
      </trkpt>
      <trkpt lat="49.18716" lon="1.60637">
        <ele>102.60075378418</ele>
        <time>2015-09-13T07:14:12.000Z</time>
      </trkpt>
      <trkpt lat="49.18719" lon="1.60664">
        <ele>102.10589599609</ele>
        <time>2015-09-13T07:14:15.000Z</time>
      </trkpt>
      <trkpt lat="49.18721" lon="1.60695">
        <ele>101.77364349365</ele>
        <time>2015-09-13T07:14:18.000Z</time>
      </trkpt>
      <trkpt lat="49.18723" lon="1.60715">
        <ele>101.51251220703</ele>
        <time>2015-09-13T07:14:20.000Z</time>
      </trkpt>
      <trkpt lat="49.18724" lon="1.60734">
        <ele>101.31799316406</ele>
        <time>2015-09-13T07:14:22.000Z</time>
      </trkpt>
      <trkpt lat="49.18726" lon="1.60752">
        <ele>101.16080474854</ele>
        <time>2015-09-13T07:14:24.000Z</time>
      </trkpt>
      <trkpt lat="49.18728" lon="1.60778">
        <ele>101.03099060059</ele>
        <time>2015-09-13T07:14:27.000Z</time>
      </trkpt>
      <trkpt lat="49.1873" lon="1.60795">
        <ele>100.90324401855</ele>
        <time>2015-09-13T07:14:29.000Z</time>
      </trkpt>
      <trkpt lat="49.18732" lon="1.60813">
        <ele>100.75738525391</ele>
        <time>2015-09-13T07:14:31.000Z</time>
      </trkpt>
      <trkpt lat="49.18734" lon="1.6084">
        <ele>100.58058929443</ele>
        <time>2015-09-13T07:14:34.000Z</time>
      </trkpt>
      <trkpt lat="49.18737" lon="1.60868">
        <ele>100.40217590332</ele>
        <time>2015-09-13T07:14:37.000Z</time>
      </trkpt>
      <trkpt lat="49.18739" lon="1.60887">
        <ele>100.26148223877</ele>
        <time>2015-09-13T07:14:39.000Z</time>
      </trkpt>
      <trkpt lat="49.18741" lon="1.60905">
        <ele>100.14703369141</ele>
        <time>2015-09-13T07:14:41.000Z</time>
      </trkpt>
      <trkpt lat="49.18744" lon="1.60931">
        <ele>100.03224182129</ele>
        <time>2015-09-13T07:14:44.000Z</time>
      </trkpt>
      <trkpt lat="49.18747" lon="1.60957">
        <ele>99.903732299805</ele>
        <time>2015-09-13T07:14:47.000Z</time>
      </trkpt>
      <trkpt lat="49.1875" lon="1.60984">
        <ele>99.725006103516</ele>
        <time>2015-09-13T07:14:50.000Z</time>
      </trkpt>
      <trkpt lat="49.18751" lon="1.61002">
        <ele>99.515968322754</ele>
        <time>2015-09-13T07:14:52.000Z</time>
      </trkpt>
      <trkpt lat="49.18753" lon="1.6103">
        <ele>99.310096740723</ele>
        <time>2015-09-13T07:14:55.000Z</time>
      </trkpt>
      <trkpt lat="49.18756" lon="1.61057">
        <ele>99.132164001465</ele>
        <time>2015-09-13T07:14:58.000Z</time>
      </trkpt>
      <trkpt lat="49.18759" lon="1.61086">
        <ele>98.991638183594</ele>
        <time>2015-09-13T07:15:01.000Z</time>
      </trkpt>
      <trkpt lat="49.18762" lon="1.61113">
        <ele>98.791305541992</ele>
        <time>2015-09-13T07:15:04.000Z</time>
      </trkpt>
      <trkpt lat="49.18765" lon="1.61138">
        <ele>98.515609741211</ele>
        <time>2015-09-13T07:15:06.000Z</time>
      </trkpt>
      <trkpt lat="49.18768" lon="1.61163">
        <ele>98.132537841797</ele>
        <time>2015-09-13T07:15:10.000Z</time>
      </trkpt>
      <trkpt lat="49.18771" lon="1.61187">
        <ele>97.78044128418</ele>
        <time>2015-09-13T07:15:13.000Z</time>
      </trkpt>
      <trkpt lat="49.18772" lon="1.61204">
        <ele>97.480079650879</ele>
        <time>2015-09-13T07:15:15.000Z</time>
      </trkpt>
      <trkpt lat="49.18774" lon="1.6122">
        <ele>97.333457946777</ele>
        <time>2015-09-13T07:15:17.000Z</time>
      </trkpt>
      <trkpt lat="49.18775" lon="1.61237">
        <ele>97.327445983887</ele>
        <time>2015-09-13T07:15:19.000Z</time>
      </trkpt>
      <trkpt lat="49.18777" lon="1.61262">
        <ele>97.417930603027</ele>
        <time>2015-09-13T07:15:22.000Z</time>
      </trkpt>
      <trkpt lat="49.18779" lon="1.61286">
        <ele>97.425155639648</ele>
        <time>2015-09-13T07:15:25.000Z</time>
      </trkpt>
      <trkpt lat="49.18782" lon="1.61309">
        <ele>97.341728210449</ele>
        <time>2015-09-13T07:15:28.000Z</time>
      </trkpt>
      <trkpt lat="49.18783" lon="1.61325">
        <ele>97.191307067871</ele>
        <time>2015-09-13T07:15:30.000Z</time>
      </trkpt>
      <trkpt lat="49.18785" lon="1.6134">
        <ele>96.979499816895</ele>
        <time>2015-09-13T07:15:32.000Z</time>
      </trkpt>
      <trkpt lat="49.18787" lon="1.61356">
        <ele>96.754692077637</ele>
        <time>2015-09-13T07:15:34.000Z</time>
      </trkpt>
      <trkpt lat="49.1879" lon="1.61381">
        <ele>96.55485534668</ele>
        <time>2015-09-13T07:15:37.000Z</time>
      </trkpt>
      <trkpt lat="49.18793" lon="1.61398">
        <ele>96.394348144531</ele>
        <time>2015-09-13T07:15:40.000Z</time>
      </trkpt>
      <trkpt lat="49.18796" lon="1.61424">
        <ele>96.252319335938</ele>
        <time>2015-09-13T07:15:42.000Z</time>
      </trkpt>
      <trkpt lat="49.18798" lon="1.6144">
        <ele>96.145919799805</ele>
        <time>2015-09-13T07:15:44.000Z</time>
      </trkpt>
      <trkpt lat="49.18802" lon="1.61464">
        <ele>96.06608581543</ele>
        <time>2015-09-13T07:15:47.000Z</time>
      </trkpt>
      <trkpt lat="49.18805" lon="1.61478">
        <ele>96.02156829834</ele>
        <time>2015-09-13T07:15:49.000Z</time>
      </trkpt>
      <trkpt lat="49.18809" lon="1.615">
        <ele>95.999839782715</ele>
        <time>2015-09-13T07:15:52.000Z</time>
      </trkpt>
      <trkpt lat="49.18813" lon="1.6152">
        <ele>95.951889038086</ele>
        <time>2015-09-13T07:15:55.000Z</time>
      </trkpt>
      <trkpt lat="49.18816" lon="1.61533">
        <ele>95.872207641602</ele>
        <time>2015-09-13T07:15:57.000Z</time>
      </trkpt>
      <trkpt lat="49.1882" lon="1.61548">
        <ele>95.756935119629</ele>
        <time>2015-09-13T07:15:59.000Z</time>
      </trkpt>
      <trkpt lat="49.18826" lon="1.61567">
        <ele>95.594970703125</ele>
        <time>2015-09-13T07:16:02.000Z</time>
      </trkpt>
      <trkpt lat="49.18829" lon="1.6158">
        <ele>95.403350830078</ele>
        <time>2015-09-13T07:16:04.000Z</time>
      </trkpt>
      <trkpt lat="49.18836" lon="1.61601">
        <ele>95.312973022461</ele>
        <time>2015-09-13T07:16:07.000Z</time>
      </trkpt>
      <trkpt lat="49.1884" lon="1.61614">
        <ele>95.311058044434</ele>
        <time>2015-09-13T07:16:09.000Z</time>
      </trkpt>
      <trkpt lat="49.18845" lon="1.61631">
        <ele>95.424049377441</ele>
        <time>2015-09-13T07:16:12.000Z</time>
      </trkpt>
      <trkpt lat="49.18848" lon="1.61641">
        <ele>95.633560180664</ele>
        <time>2015-09-13T07:16:14.000Z</time>
      </trkpt>
      <trkpt lat="49.18853" lon="1.61654">
        <ele>95.937164306641</ele>
        <time>2015-09-13T07:16:17.000Z</time>
      </trkpt>
      <trkpt lat="49.18856" lon="1.61664">
        <ele>96.233795166016</ele>
        <time>2015-09-13T07:16:19.000Z</time>
      </trkpt>
      <trkpt lat="49.18859" lon="1.61672">
        <ele>96.509918212891</ele>
        <time>2015-09-13T07:16:21.000Z</time>
      </trkpt>
      <trkpt lat="49.18865" lon="1.61688">
        <ele>96.770065307617</ele>
        <time>2015-09-13T07:16:24.000Z</time>
      </trkpt>
      <trkpt lat="49.1887" lon="1.61702">
        <ele>97.034790039062</ele>
        <time>2015-09-13T07:16:27.000Z</time>
      </trkpt>
      <trkpt lat="49.18877" lon="1.61719">
        <ele>97.296333312988</ele>
        <time>2015-09-13T07:16:30.000Z</time>
      </trkpt>
      <trkpt lat="49.1888" lon="1.61728">
        <ele>97.54175567627</ele>
        <time>2015-09-13T07:16:32.000Z</time>
      </trkpt>
      <trkpt lat="49.18886" lon="1.61743">
        <ele>97.79549407959</ele>
        <time>2015-09-13T07:16:35.000Z</time>
      </trkpt>
      <trkpt lat="49.18891" lon="1.61759">
        <ele>98.021751403809</ele>
        <time>2015-09-13T07:16:38.000Z</time>
      </trkpt>
      <trkpt lat="49.18896" lon="1.61772">
        <ele>98.223861694336</ele>
        <time>2015-09-13T07:16:41.000Z</time>
      </trkpt>
      <trkpt lat="49.189" lon="1.61783">
        <ele>98.385330200195</ele>
        <time>2015-09-13T07:16:43.000Z</time>
      </trkpt>
      <trkpt lat="49.18905" lon="1.61799">
        <ele>98.543418884277</ele>
        <time>2015-09-13T07:16:46.000Z</time>
      </trkpt>
      <trkpt lat="49.1891" lon="1.61811">
        <ele>98.674545288086</ele>
        <time>2015-09-13T07:16:48.000Z</time>
      </trkpt>
      <trkpt lat="49.18916" lon="1.61829">
        <ele>98.789810180664</ele>
        <time>2015-09-13T07:16:51.000Z</time>
      </trkpt>
      <trkpt lat="49.18921" lon="1.6184">
        <ele>98.871017456055</ele>
        <time>2015-09-13T07:16:53.000Z</time>
      </trkpt>
      <trkpt lat="49.18927" lon="1.61856">
        <ele>98.919448852539</ele>
        <time>2015-09-13T07:16:56.000Z</time>
      </trkpt>
      <trkpt lat="49.1893" lon="1.61865">
        <ele>98.938316345215</ele>
        <time>2015-09-13T07:16:58.000Z</time>
      </trkpt>
      <trkpt lat="49.18937" lon="1.61884">
        <ele>98.944534301758</ele>
        <time>2015-09-13T07:17:01.000Z</time>
      </trkpt>
      <trkpt lat="49.18941" lon="1.61896">
        <ele>98.939895629883</ele>
        <time>2015-09-13T07:17:03.000Z</time>
      </trkpt>
      <trkpt lat="49.18945" lon="1.61907">
        <ele>98.952125549316</ele>
        <time>2015-09-13T07:17:05.000Z</time>
      </trkpt>
      <trkpt lat="49.1895" lon="1.61925">
        <ele>98.999412536621</ele>
        <time>2015-09-13T07:17:08.000Z</time>
      </trkpt>
      <trkpt lat="49.18953" lon="1.61937">
        <ele>99.061508178711</ele>
        <time>2015-09-13T07:17:10.000Z</time>
      </trkpt>
      <trkpt lat="49.18956" lon="1.6195">
        <ele>99.123611450195</ele>
        <time>2015-09-13T07:17:12.000Z</time>
      </trkpt>
      <trkpt lat="49.18959" lon="1.6196">
        <ele>99.179092407227</ele>
        <time>2015-09-13T07:17:14.000Z</time>
      </trkpt>
      <trkpt lat="49.18962" lon="1.61976">
        <ele>99.221862792969</ele>
        <time>2015-09-13T07:17:17.000Z</time>
      </trkpt>
      <trkpt lat="49.18966" lon="1.61996">
        <ele>99.236366271973</ele>
        <time>2015-09-13T07:17:20.000Z</time>
      </trkpt>
      <trkpt lat="49.18968" lon="1.62009">
        <ele>99.262428283691</ele>
        <time>2015-09-13T07:17:22.000Z</time>
      </trkpt>
      <trkpt lat="49.1897" lon="1.62028">
        <ele>99.339302062988</ele>
        <time>2015-09-13T07:17:25.000Z</time>
      </trkpt>
      <trkpt lat="49.18972" lon="1.62044">
        <ele>99.460441589355</ele>
        <time>2015-09-13T07:17:28.000Z</time>
      </trkpt>
      <trkpt lat="49.18973" lon="1.62056">
        <ele>99.614967346191</ele>
        <time>2015-09-13T07:17:30.000Z</time>
      </trkpt>
      <trkpt lat="49.18975" lon="1.62069">
        <ele>99.814392089844</ele>
        <time>2015-09-13T07:17:31.000Z</time>
      </trkpt>
      <trkpt lat="49.18976" lon="1.62081">
        <ele>100.02499389648</ele>
        <time>2015-09-13T07:17:34.000Z</time>
      </trkpt>
      <trkpt lat="49.18977" lon="1.62093">
        <ele>100.18354797363</ele>
        <time>2015-09-13T07:17:36.000Z</time>
      </trkpt>
      <trkpt lat="49.18978" lon="1.6211">
        <ele>100.29106140137</ele>
        <time>2015-09-13T07:17:39.000Z</time>
      </trkpt>
      <trkpt lat="49.18978" lon="1.62122">
        <ele>100.35746002197</ele>
        <time>2015-09-13T07:17:41.000Z</time>
      </trkpt>
      <trkpt lat="49.18977" lon="1.62135">
        <ele>100.37152862549</ele>
        <time>2015-09-13T07:17:43.000Z</time>
      </trkpt>
      <trkpt lat="49.18977" lon="1.62149">
        <ele>100.33604431152</ele>
        <time>2015-09-13T07:17:45.000Z</time>
      </trkpt>
      <trkpt lat="49.18975" lon="1.6217">
        <ele>100.27555847168</ele>
        <time>2015-09-13T07:17:48.000Z</time>
      </trkpt>
      <trkpt lat="49.18974" lon="1.62184">
        <ele>100.22105407715</ele>
        <time>2015-09-13T07:17:50.000Z</time>
      </trkpt>
      <trkpt lat="49.18972" lon="1.62205">
        <ele>100.18235778809</ele>
        <time>2015-09-13T07:17:53.000Z</time>
      </trkpt>
      <trkpt lat="49.18971" lon="1.62225">
        <ele>100.16351318359</ele>
        <time>2015-09-13T07:17:56.000Z</time>
      </trkpt>
      <trkpt lat="49.18969" lon="1.62246">
        <ele>100.16840362549</ele>
        <time>2015-09-13T07:17:59.000Z</time>
      </trkpt>
      <trkpt lat="49.18969" lon="1.6226">
        <ele>100.17900085449</ele>
        <time>2015-09-13T07:18:01.000Z</time>
      </trkpt>
      <trkpt lat="49.18968" lon="1.62282">
        <ele>100.15189361572</ele>
        <time>2015-09-13T07:18:04.000Z</time>
      </trkpt>
      <trkpt lat="49.18967" lon="1.62296">
        <ele>100.09432983398</ele>
        <time>2015-09-13T07:18:06.000Z</time>
      </trkpt>
      <trkpt lat="49.18967" lon="1.6232">
        <ele>99.993942260742</ele>
        <time>2015-09-13T07:18:09.000Z</time>
      </trkpt>
      <trkpt lat="49.18966" lon="1.62344">
        <ele>99.843765258789</ele>
        <time>2015-09-13T07:18:12.000Z</time>
      </trkpt>
      <trkpt lat="49.18964" lon="1.62367">
        <ele>99.65625</ele>
        <time>2015-09-13T07:18:15.000Z</time>
      </trkpt>
      <trkpt lat="49.18964" lon="1.62391">
        <ele>99.450645446777</ele>
        <time>2015-09-13T07:18:18.000Z</time>
      </trkpt>
      <trkpt lat="49.18963" lon="1.62416">
        <ele>99.208038330078</ele>
        <time>2015-09-13T07:18:21.000Z</time>
      </trkpt>
      <trkpt lat="49.18962" lon="1.62441">
        <ele>99.080581665039</ele>
        <time>2015-09-13T07:18:24.000Z</time>
      </trkpt>
      <trkpt lat="49.18961" lon="1.62464">
        <ele>99.074058532715</ele>
        <time>2015-09-13T07:18:28.000Z</time>
      </trkpt>
      <trkpt lat="49.18959" lon="1.62487">
        <ele>99.192794799805</ele>
        <time>2015-09-13T07:18:30.000Z</time>
      </trkpt>
      <trkpt lat="49.18959" lon="1.62505">
        <ele>99.39875793457</ele>
        <time>2015-09-13T07:18:33.000Z</time>
      </trkpt>
      <trkpt lat="49.18959" lon="1.62519">
        <ele>99.647361755371</ele>
        <time>2015-09-13T07:18:35.000Z</time>
      </trkpt>
      <trkpt lat="49.18958" lon="1.62541">
        <ele>99.785873413086</ele>
        <time>2015-09-13T07:18:38.000Z</time>
      </trkpt>
      <trkpt lat="49.18958" lon="1.62564">
        <ele>99.811065673828</ele>
        <time>2015-09-13T07:18:41.000Z</time>
      </trkpt>
      <trkpt lat="49.18957" lon="1.62585">
        <ele>99.737800598145</ele>
        <time>2015-09-13T07:18:44.000Z</time>
      </trkpt>
      <trkpt lat="49.18957" lon="1.62608">
        <ele>99.628448486328</ele>
        <time>2015-09-13T07:18:47.000Z</time>
      </trkpt>
      <trkpt lat="49.18956" lon="1.62622">
        <ele>99.532516479492</ele>
        <time>2015-09-13T07:18:49.000Z</time>
      </trkpt>
      <trkpt lat="49.18956" lon="1.62635">
        <ele>99.464614868164</ele>
        <time>2015-09-13T07:18:51.000Z</time>
      </trkpt>
      <trkpt lat="49.18956" lon="1.62657">
        <ele>99.4267578125</ele>
        <time>2015-09-13T07:18:54.000Z</time>
      </trkpt>
      <trkpt lat="49.18955" lon="1.62673">
        <ele>99.405075073242</ele>
        <time>2015-09-13T07:18:56.000Z</time>
      </trkpt>
      <trkpt lat="49.18954" lon="1.62696">
        <ele>99.355560302734</ele>
        <time>2015-09-13T07:18:59.000Z</time>
      </trkpt>
      <trkpt lat="49.18954" lon="1.62711">
        <ele>99.290939331055</ele>
        <time>2015-09-13T07:19:01.000Z</time>
      </trkpt>
      <trkpt lat="49.18953" lon="1.62728">
        <ele>99.206077575684</ele>
        <time>2015-09-13T07:19:03.000Z</time>
      </trkpt>
      <trkpt lat="49.18952" lon="1.62751">
        <ele>99.109802246094</ele>
        <time>2015-09-13T07:19:06.000Z</time>
      </trkpt>
      <trkpt lat="49.18951" lon="1.62775">
        <ele>99.248886108398</ele>
        <time>2015-09-13T07:19:09.000Z</time>
      </trkpt>
      <trkpt lat="49.1895" lon="1.62798">
        <ele>99.635093688965</ele>
        <time>2015-09-13T07:19:12.000Z</time>
      </trkpt>
      <trkpt lat="49.1895" lon="1.62814">
        <ele>100.1781539917</ele>
        <time>2015-09-13T07:19:14.000Z</time>
      </trkpt>
      <trkpt lat="49.1895" lon="1.62835">
        <ele>100.95310974121</ele>
        <time>2015-09-13T07:19:17.000Z</time>
      </trkpt>
      <trkpt lat="49.18951" lon="1.62847">
        <ele>101.96087646484</ele>
        <time>2015-09-13T07:19:19.000Z</time>
      </trkpt>
      <trkpt lat="49.18954" lon="1.62858">
        <ele>102.96940612793</ele>
        <time>2015-09-13T07:19:21.000Z</time>
      </trkpt>
      <trkpt lat="49.18956" lon="1.6287">
        <ele>103.98238372803</ele>
        <time>2015-09-13T07:19:23.000Z</time>
      </trkpt>
      <trkpt lat="49.18959" lon="1.62881">
        <ele>105.07176208496</ele>
        <time>2015-09-13T07:19:25.000Z</time>
      </trkpt>
      <trkpt lat="49.18966" lon="1.62898">
        <ele>106.31098937988</ele>
        <time>2015-09-13T07:19:28.000Z</time>
      </trkpt>
      <trkpt lat="49.1897" lon="1.6291">
        <ele>107.57822418213</ele>
        <time>2015-09-13T07:19:30.000Z</time>
      </trkpt>
      <trkpt lat="49.18972" lon="1.62929">
        <ele>108.9354095459</ele>
        <time>2015-09-13T07:19:33.000Z</time>
      </trkpt>
      <trkpt lat="49.18972" lon="1.62939">
        <ele>110.23448181152</ele>
        <time>2015-09-13T07:19:36.000Z</time>
      </trkpt>
      <trkpt lat="49.18974" lon="1.62954">
        <ele>111.56611633301</ele>
        <time>2015-09-13T07:19:39.000Z</time>
      </trkpt>
      <trkpt lat="49.18975" lon="1.62963">
        <ele>112.67497253418</ele>
        <time>2015-09-13T07:19:41.000Z</time>
      </trkpt>
      <trkpt lat="49.18975" lon="1.62971">
        <ele>113.66954040527</ele>
        <time>2015-09-13T07:19:43.000Z</time>
      </trkpt>
      <trkpt lat="49.18976" lon="1.62979">
        <ele>114.4672088623</ele>
        <time>2015-09-13T07:19:45.000Z</time>
      </trkpt>
      <trkpt lat="49.18976" lon="1.62986">
        <ele>115.20859527588</ele>
        <time>2015-09-13T07:19:47.000Z</time>
      </trkpt>
      <trkpt lat="49.18977" lon="1.62997">
        <ele>115.86827087402</ele>
        <time>2015-09-13T07:19:50.000Z</time>
      </trkpt>
      <trkpt lat="49.18978" lon="1.63004">
        <ele>116.45964050293</ele>
        <time>2015-09-13T07:19:52.000Z</time>
      </trkpt>
      <trkpt lat="49.1898" lon="1.63012">
        <ele>116.95713806152</ele>
        <time>2015-09-13T07:19:54.000Z</time>
      </trkpt>
      <trkpt lat="49.18982" lon="1.6302">
        <ele>117.37949371338</ele>
        <time>2015-09-13T07:19:57.000Z</time>
      </trkpt>
      <trkpt lat="49.18983" lon="1.63028">
        <ele>117.72835540771</ele>
        <time>2015-09-13T07:19:59.000Z</time>
      </trkpt>
      <trkpt lat="49.18985" lon="1.6304">
        <ele>117.95967102051</ele>
        <time>2015-09-13T07:20:02.000Z</time>
      </trkpt>
      <trkpt lat="49.18987" lon="1.63048">
        <ele>118.15533447266</ele>
        <time>2015-09-13T07:20:04.000Z</time>
      </trkpt>
      <trkpt lat="49.18989" lon="1.63056">
        <ele>118.34065246582</ele>
        <time>2015-09-13T07:20:05.000Z</time>
      </trkpt>
      <trkpt lat="49.18991" lon="1.63068">
        <ele>118.52040863037</ele>
        <time>2015-09-13T07:20:09.000Z</time>
      </trkpt>
      <trkpt lat="49.18994" lon="1.63076">
        <ele>118.68733215332</ele>
        <time>2015-09-13T07:20:12.000Z</time>
      </trkpt>
      <trkpt lat="49.18995" lon="1.6309">
        <ele>118.78737640381</ele>
        <time>2015-09-13T07:20:15.000Z</time>
      </trkpt>
      <trkpt lat="49.18997" lon="1.63097">
        <ele>118.79777526855</ele>
        <time>2015-09-13T07:20:17.000Z</time>
      </trkpt>
      <trkpt lat="49.18998" lon="1.63105">
        <ele>118.717628479</ele>
        <time>2015-09-13T07:20:20.000Z</time>
      </trkpt>
      <trkpt lat="49.19003" lon="1.63125">
        <ele>118.43132019043</ele>
        <time>2015-09-13T07:20:22.000Z</time>
      </trkpt>
      <trkpt lat="49.19003" lon="1.63136">
        <ele>118.04466247559</ele>
        <time>2015-09-13T07:20:24.000Z</time>
      </trkpt>
      <trkpt lat="49.18999" lon="1.6315">
        <ele>117.59930419922</ele>
        <time>2015-09-13T07:20:26.000Z</time>
      </trkpt>
      <trkpt lat="49.18996" lon="1.63162">
        <ele>117.19236755371</ele>
        <time>2015-09-13T07:20:28.000Z</time>
      </trkpt>
      <trkpt lat="49.18993" lon="1.63177">
        <ele>116.93296813965</ele>
        <time>2015-09-13T07:20:31.000Z</time>
      </trkpt>
      <trkpt lat="49.18992" lon="1.63195">
        <ele>116.95942687988</ele>
        <time>2015-09-13T07:20:33.000Z</time>
      </trkpt>
      <trkpt lat="49.18996" lon="1.63209">
        <ele>117.03569030762</ele>
        <time>2015-09-13T07:20:37.000Z</time>
      </trkpt>
      <trkpt lat="49.19001" lon="1.63222">
        <ele>117.15849304199</ele>
        <time>2015-09-13T07:20:39.000Z</time>
      </trkpt>
      <trkpt lat="49.19003" lon="1.63234">
        <ele>117.338722229</ele>
        <time>2015-09-13T07:20:41.000Z</time>
      </trkpt>
      <trkpt lat="49.19005" lon="1.63246">
        <ele>117.46506500244</ele>
        <time>2015-09-13T07:20:43.000Z</time>
      </trkpt>
      <trkpt lat="49.19007" lon="1.63262">
        <ele>117.54933929443</ele>
        <time>2015-09-13T07:20:47.000Z</time>
      </trkpt>
      <trkpt lat="49.19008" lon="1.63275">
        <ele>117.748878479</ele>
        <time>2015-09-13T07:20:48.000Z</time>
      </trkpt>
      <trkpt lat="49.19009" lon="1.63289">
        <ele>118.0668182373</ele>
        <time>2015-09-13T07:20:50.000Z</time>
      </trkpt>
      <trkpt lat="49.19014" lon="1.63307">
        <ele>118.42031097412</ele>
        <time>2015-09-13T07:20:53.000Z</time>
      </trkpt>
      <trkpt lat="49.19017" lon="1.63319">
        <ele>118.78875732422</ele>
        <time>2015-09-13T07:20:55.000Z</time>
      </trkpt>
      <trkpt lat="49.19019" lon="1.63335">
        <ele>119.14067077637</ele>
        <time>2015-09-13T07:20:58.000Z</time>
      </trkpt>
      <trkpt lat="49.19019" lon="1.63345">
        <ele>119.32039642334</ele>
        <time>2015-09-13T07:21:00.000Z</time>
      </trkpt>
      <trkpt lat="49.19024" lon="1.63357">
        <ele>119.25177001953</ele>
        <time>2015-09-13T07:21:03.000Z</time>
      </trkpt>
      <trkpt lat="49.19026" lon="1.63366">
        <ele>118.99848937988</ele>
        <time>2015-09-13T07:21:05.000Z</time>
      </trkpt>
      <trkpt lat="49.19027" lon="1.63377">
        <ele>118.59175109863</ele>
        <time>2015-09-13T07:21:07.000Z</time>
      </trkpt>
      <trkpt lat="49.1903" lon="1.63392">
        <ele>117.97096252441</ele>
        <time>2015-09-13T07:21:10.000Z</time>
      </trkpt>
      <trkpt lat="49.19038" lon="1.63404">
        <ele>117.25624847412</ele>
        <time>2015-09-13T07:21:13.000Z</time>
      </trkpt>
      <trkpt lat="49.19046" lon="1.63405">
        <ele>116.60258483887</ele>
        <time>2015-09-13T07:21:15.000Z</time>
      </trkpt>
      <trkpt lat="49.19055" lon="1.63405">
        <ele>115.97774505615</ele>
        <time>2015-09-13T07:21:17.000Z</time>
      </trkpt>
      <trkpt lat="49.19064" lon="1.63406">
        <ele>115.36799621582</ele>
        <time>2015-09-13T07:21:19.000Z</time>
      </trkpt>
      <trkpt lat="49.19079" lon="1.63406">
        <ele>114.76147460938</ele>
        <time>2015-09-13T07:21:22.000Z</time>
      </trkpt>
      <trkpt lat="49.1909" lon="1.63405">
        <ele>114.37277984619</ele>
        <time>2015-09-13T07:21:24.000Z</time>
      </trkpt>
      <trkpt lat="49.19104" lon="1.63401">
        <ele>114.29775238037</ele>
        <time>2015-09-13T07:21:27.000Z</time>
      </trkpt>
      <trkpt lat="49.19117" lon="1.63399">
        <ele>114.47424316406</ele>
        <time>2015-09-13T07:21:30.000Z</time>
      </trkpt>
      <trkpt lat="49.19124" lon="1.63397">
        <ele>114.83437347412</ele>
        <time>2015-09-13T07:21:32.000Z</time>
      </trkpt>
      <trkpt lat="49.19135" lon="1.63395">
        <ele>115.47664642334</ele>
        <time>2015-09-13T07:21:36.000Z</time>
      </trkpt>
      <trkpt lat="49.19139" lon="1.63393">
        <ele>116.14200592041</ele>
        <time>2015-09-13T07:21:37.000Z</time>
      </trkpt>
      <trkpt lat="49.19142" lon="1.63394">
        <ele>116.62581634521</ele>
        <time>2015-09-13T07:21:39.000Z</time>
      </trkpt>
      <trkpt lat="49.19147" lon="1.63392">
        <ele>116.99765777588</ele>
        <time>2015-09-13T07:21:41.000Z</time>
      </trkpt>
      <trkpt lat="49.19151" lon="1.63389">
        <ele>117.31911468506</ele>
        <time>2015-09-13T07:21:44.000Z</time>
      </trkpt>
      <trkpt lat="49.19151" lon="1.63383">
        <ele>117.51008605957</ele>
        <time>2015-09-13T07:21:47.000Z</time>
      </trkpt>
      <trkpt lat="49.19154" lon="1.63379">
        <ele>117.66347503662</ele>
        <time>2015-09-13T07:21:49.000Z</time>
      </trkpt>
      <trkpt lat="49.19158" lon="1.63375">
        <ele>117.82015228271</ele>
        <time>2015-09-13T07:21:52.000Z</time>
      </trkpt>
      <trkpt lat="49.19161" lon="1.63374">
        <ele>117.9485244751</ele>
        <time>2015-09-13T07:21:55.000Z</time>
      </trkpt>
      <trkpt lat="49.19167" lon="1.63369">
        <ele>118.0818939209</ele>
        <time>2015-09-13T07:21:59.000Z</time>
      </trkpt>
      <trkpt lat="49.19171" lon="1.63365">
        <ele>118.25150299072</ele>
        <time>2015-09-13T07:22:01.000Z</time>
      </trkpt>
      <trkpt lat="49.19174" lon="1.63359">
        <ele>118.41469573975</ele>
        <time>2015-09-13T07:22:04.000Z</time>
      </trkpt>
      <trkpt lat="49.19176" lon="1.63357">
        <ele>118.55406188965</ele>
        <time>2015-09-13T07:22:06.000Z</time>
      </trkpt>
      <trkpt lat="49.19192" lon="1.63351">
        <ele>118.82482910156</ele>
        <time>2015-09-13T07:22:10.000Z</time>
      </trkpt>
      <trkpt lat="49.19201" lon="1.63349">
        <ele>119.12925720215</ele>
        <time>2015-09-13T07:22:13.000Z</time>
      </trkpt>
      <trkpt lat="49.19205" lon="1.6335">
        <ele>119.44975280762</ele>
        <time>2015-09-13T07:22:16.000Z</time>
      </trkpt>
      <trkpt lat="49.19211" lon="1.63348">
        <ele>119.80497741699</ele>
        <time>2015-09-13T07:22:19.000Z</time>
      </trkpt>
      <trkpt lat="49.19218" lon="1.63345">
        <ele>120.20330810547</ele>
        <time>2015-09-13T07:22:22.000Z</time>
      </trkpt>
      <trkpt lat="49.19224" lon="1.63343">
        <ele>120.49636077881</ele>
        <time>2015-09-13T07:22:25.000Z</time>
      </trkpt>
      <trkpt lat="49.19232" lon="1.63339">
        <ele>120.76338195801</ele>
        <time>2015-09-13T07:22:28.000Z</time>
      </trkpt>
      <trkpt lat="49.19245" lon="1.63334">
        <ele>121.07334899902</ele>
        <time>2015-09-13T07:22:31.000Z</time>
      </trkpt>
      <trkpt lat="49.1925" lon="1.63332">
        <ele>121.37754058838</ele>
        <time>2015-09-13T07:22:33.000Z</time>
      </trkpt>
      <trkpt lat="49.19257" lon="1.63329">
        <ele>121.70278167725</ele>
        <time>2015-09-13T07:22:35.000Z</time>
      </trkpt>
      <trkpt lat="49.19263" lon="1.63326">
        <ele>122.02815246582</ele>
        <time>2015-09-13T07:22:38.000Z</time>
      </trkpt>
      <trkpt lat="49.19269" lon="1.63321">
        <ele>122.3526763916</ele>
        <time>2015-09-13T07:22:41.000Z</time>
      </trkpt>
      <trkpt lat="49.19276" lon="1.63317">
        <ele>122.63637542725</ele>
        <time>2015-09-13T07:22:45.000Z</time>
      </trkpt>
      <trkpt lat="49.19283" lon="1.63315">
        <ele>122.93581390381</ele>
        <time>2015-09-13T07:22:47.000Z</time>
      </trkpt>
      <trkpt lat="49.19291" lon="1.63313">
        <ele>123.22957611084</ele>
        <time>2015-09-13T07:22:49.000Z</time>
      </trkpt>
      <trkpt lat="49.19299" lon="1.63311">
        <ele>123.53596496582</ele>
        <time>2015-09-13T07:22:52.000Z</time>
      </trkpt>
      <trkpt lat="49.19311" lon="1.63306">
        <ele>123.85322570801</ele>
        <time>2015-09-13T07:22:54.000Z</time>
      </trkpt>
      <trkpt lat="49.19319" lon="1.63302">
        <ele>124.14549255371</ele>
        <time>2015-09-13T07:22:57.000Z</time>
      </trkpt>
      <trkpt lat="49.19325" lon="1.63299">
        <ele>124.38487243652</ele>
        <time>2015-09-13T07:22:59.000Z</time>
      </trkpt>
      <trkpt lat="49.19335" lon="1.63294">
        <ele>124.57578277588</ele>
        <time>2015-09-13T07:23:01.000Z</time>
      </trkpt>
      <trkpt lat="49.19347" lon="1.63292">
        <ele>124.83497619629</ele>
        <time>2015-09-13T07:23:04.000Z</time>
      </trkpt>
      <trkpt lat="49.19354" lon="1.63291">
        <ele>125.11692047119</ele>
        <time>2015-09-13T07:23:06.000Z</time>
      </trkpt>
      <trkpt lat="49.19356" lon="1.6329">
        <ele>125.3882598877</ele>
        <time>2015-09-13T07:23:08.000Z</time>
      </trkpt>
      <trkpt lat="49.19367" lon="1.63284">
        <ele>125.74039459229</ele>
        <time>2015-09-13T07:23:11.000Z</time>
      </trkpt>
      <trkpt lat="49.19374" lon="1.63281">
        <ele>126.14067077637</ele>
        <time>2015-09-13T07:23:13.000Z</time>
      </trkpt>
      <trkpt lat="49.19381" lon="1.63276">
        <ele>126.45281982422</ele>
        <time>2015-09-13T07:23:16.000Z</time>
      </trkpt>
      <trkpt lat="49.19384" lon="1.63273">
        <ele>126.70212554932</ele>
        <time>2015-09-13T07:23:18.000Z</time>
      </trkpt>
      <trkpt lat="49.19387" lon="1.6327">
        <ele>126.94427490234</ele>
        <time>2015-09-13T07:23:20.000Z</time>
      </trkpt>
      <trkpt lat="49.19395" lon="1.63265">
        <ele>127.18756103516</ele>
        <time>2015-09-13T07:23:23.000Z</time>
      </trkpt>
      <trkpt lat="49.19399" lon="1.63263">
        <ele>127.40226745605</ele>
        <time>2015-09-13T07:23:25.000Z</time>
      </trkpt>
      <trkpt lat="49.19402" lon="1.63262">
        <ele>127.60502624512</ele>
        <time>2015-09-13T07:23:28.000Z</time>
      </trkpt>
      <trkpt lat="49.19412" lon="1.63255">
        <ele>127.91883850098</ele>
        <time>2015-09-13T07:23:31.000Z</time>
      </trkpt>
      <trkpt lat="49.19419" lon="1.63247">
        <ele>128.30564880371</ele>
        <time>2015-09-13T07:23:34.000Z</time>
      </trkpt>
      <trkpt lat="49.19427" lon="1.63239">
        <ele>128.69192504883</ele>
        <time>2015-09-13T07:23:37.000Z</time>
      </trkpt>
      <trkpt lat="49.19433" lon="1.63233">
        <ele>129.11930847168</ele>
        <time>2015-09-13T07:23:40.000Z</time>
      </trkpt>
      <trkpt lat="49.19442" lon="1.63223">
        <ele>129.62797546387</ele>
        <time>2015-09-13T07:23:43.000Z</time>
      </trkpt>
      <trkpt lat="49.19449" lon="1.63212">
        <ele>130.0905456543</ele>
        <time>2015-09-13T07:23:46.000Z</time>
      </trkpt>
      <trkpt lat="49.1945" lon="1.63207">
        <ele>130.47439575195</ele>
        <time>2015-09-13T07:23:48.000Z</time>
      </trkpt>
      <trkpt lat="49.19457" lon="1.6319">
        <ele>130.86265563965</ele>
        <time>2015-09-13T07:23:51.000Z</time>
      </trkpt>
      <trkpt lat="49.19463" lon="1.6318">
        <ele>131.24862670898</ele>
        <time>2015-09-13T07:23:54.000Z</time>
      </trkpt>
      <trkpt lat="49.19466" lon="1.63174">
        <ele>131.57171630859</ele>
        <time>2015-09-13T07:23:56.000Z</time>
      </trkpt>
      <trkpt lat="49.19471" lon="1.63163">
        <ele>131.85287475586</ele>
        <time>2015-09-13T07:23:59.000Z</time>
      </trkpt>
      <trkpt lat="49.19475" lon="1.6315">
        <ele>132.12744140625</ele>
        <time>2015-09-13T07:24:02.000Z</time>
      </trkpt>
      <trkpt lat="49.19477" lon="1.63142">
        <ele>132.30133056641</ele>
        <time>2015-09-13T07:24:04.000Z</time>
      </trkpt>
      <trkpt lat="49.19483" lon="1.63134">
        <ele>132.44807434082</ele>
        <time>2015-09-13T07:24:07.000Z</time>
      </trkpt>
      <trkpt lat="49.19487" lon="1.63128">
        <ele>132.57460021973</ele>
        <time>2015-09-13T07:24:09.000Z</time>
      </trkpt>
      <trkpt lat="49.19493" lon="1.63118">
        <ele>132.71998596191</ele>
        <time>2015-09-13T07:24:12.000Z</time>
      </trkpt>
      <trkpt lat="49.195" lon="1.63116">
        <ele>132.98313903809</ele>
        <time>2015-09-13T07:24:22.000Z</time>
      </trkpt>
      <trkpt lat="49.19508" lon="1.63112">
        <ele>133.29734802246</ele>
        <time>2015-09-13T07:24:24.000Z</time>
      </trkpt>
      <trkpt lat="49.1951" lon="1.63107">
        <ele>133.54208374023</ele>
        <time>2015-09-13T07:24:26.000Z</time>
      </trkpt>
      <trkpt lat="49.19507" lon="1.63102">
        <ele>133.71241760254</ele>
        <time>2015-09-13T07:24:29.000Z</time>
      </trkpt>
      <trkpt lat="49.19498" lon="1.63101">
        <ele>133.72230529785</ele>
        <time>2015-09-13T07:24:32.000Z</time>
      </trkpt>
      <trkpt lat="49.19493" lon="1.631">
        <ele>133.51069641113</ele>
        <time>2015-09-13T07:24:34.000Z</time>
      </trkpt>
      <trkpt lat="49.19485" lon="1.63099">
        <ele>133.10559082031</ele>
        <time>2015-09-13T07:24:36.000Z</time>
      </trkpt>
      <trkpt lat="49.19464" lon="1.63094">
        <ele>132.28988647461</ele>
        <time>2015-09-13T07:24:39.000Z</time>
      </trkpt>
      <trkpt lat="49.19449" lon="1.63082">
        <ele>131.16116333008</ele>
        <time>2015-09-13T07:24:41.000Z</time>
      </trkpt>
      <trkpt lat="49.19424" lon="1.63062">
        <ele>129.61685180664</ele>
        <time>2015-09-13T07:24:44.000Z</time>
      </trkpt>
      <trkpt lat="49.19408" lon="1.63045">
        <ele>128.18128967285</ele>
        <time>2015-09-13T07:24:46.000Z</time>
      </trkpt>
      <trkpt lat="49.19393" lon="1.63031">
        <ele>127.12404632568</ele>
        <time>2015-09-13T07:24:49.000Z</time>
      </trkpt>
      <trkpt lat="49.19386" lon="1.63025">
        <ele>126.60617828369</ele>
        <time>2015-09-13T07:24:51.000Z</time>
      </trkpt>
      <trkpt lat="49.19381" lon="1.63025">
        <ele>126.51391601562</ele>
        <time>2015-09-13T07:24:54.000Z</time>
      </trkpt>
      <trkpt lat="49.19377" lon="1.63023">
        <ele>126.99973297119</ele>
        <time>2015-09-13T07:24:56.000Z</time>
      </trkpt>
      <trkpt lat="49.19373" lon="1.63018">
        <ele>127.55442047119</ele>
        <time>2015-09-13T07:24:58.000Z</time>
      </trkpt>
      <trkpt lat="49.19371" lon="1.63013">
        <ele>127.94106292725</ele>
        <time>2015-09-13T07:25:00.000Z</time>
      </trkpt>
      <trkpt lat="49.19365" lon="1.63009">
        <ele>128.31521606445</ele>
        <time>2015-09-13T07:25:03.000Z</time>
      </trkpt>
      <trkpt lat="49.19359" lon="1.63001">
        <ele>128.76409912109</ele>
        <time>2015-09-13T07:25:06.000Z</time>
      </trkpt>
      <trkpt lat="49.19355" lon="1.62997">
        <ele>129.22380065918</ele>
        <time>2015-09-13T07:25:08.000Z</time>
      </trkpt>
      <trkpt lat="49.19352" lon="1.62994">
        <ele>129.67013549805</ele>
        <time>2015-09-13T07:25:10.000Z</time>
      </trkpt>
      <trkpt lat="49.19348" lon="1.62992">
        <ele>130.13484191895</ele>
        <time>2015-09-13T07:25:12.000Z</time>
      </trkpt>
      <trkpt lat="49.19341" lon="1.62985">
        <ele>130.6471862793</ele>
        <time>2015-09-13T07:25:16.000Z</time>
      </trkpt>
      <trkpt lat="49.19334" lon="1.62979">
        <ele>131.15995788574</ele>
        <time>2015-09-13T07:25:19.000Z</time>
      </trkpt>
      <trkpt lat="49.19333" lon="1.62977">
        <ele>131.6116027832</ele>
        <time>2015-09-13T07:25:23.000Z</time>
      </trkpt>
      <trkpt lat="49.19327" lon="1.6297">
        <ele>131.9616394043</ele>
        <time>2015-09-13T07:25:24.000Z</time>
      </trkpt>
      <trkpt lat="49.19323" lon="1.62962">
        <ele>132.21069335938</ele>
        <time>2015-09-13T07:25:26.000Z</time>
      </trkpt>
      <trkpt lat="49.1932" lon="1.62952">
        <ele>132.3147277832</ele>
        <time>2015-09-13T07:25:28.000Z</time>
      </trkpt>
      <trkpt lat="49.19319" lon="1.62946">
        <ele>132.27374267578</ele>
        <time>2015-09-13T07:25:30.000Z</time>
      </trkpt>
      <trkpt lat="49.19316" lon="1.62933">
        <ele>132.22909545898</ele>
        <time>2015-09-13T07:25:33.000Z</time>
      </trkpt>
      <trkpt lat="49.19317" lon="1.62918">
        <ele>132.28799438477</ele>
        <time>2015-09-13T07:25:36.000Z</time>
      </trkpt>
      <trkpt lat="49.19316" lon="1.62903">
        <ele>132.33517456055</ele>
        <time>2015-09-13T07:25:39.000Z</time>
      </trkpt>
      <trkpt lat="49.19315" lon="1.62896">
        <ele>132.33975219727</ele>
        <time>2015-09-13T07:25:41.000Z</time>
      </trkpt>
      <trkpt lat="49.19312" lon="1.62889">
        <ele>132.2964630127</ele>
        <time>2015-09-13T07:25:43.000Z</time>
      </trkpt>
      <trkpt lat="49.19312" lon="1.62882">
        <ele>132.21745300293</ele>
        <time>2015-09-13T07:25:46.000Z</time>
      </trkpt>
      <trkpt lat="49.19311" lon="1.62874">
        <ele>132.0583190918</ele>
        <time>2015-09-13T07:25:50.000Z</time>
      </trkpt>
      <trkpt lat="49.1931" lon="1.62862">
        <ele>131.90376281738</ele>
        <time>2015-09-13T07:25:52.000Z</time>
      </trkpt>
      <trkpt lat="49.19312" lon="1.62855">
        <ele>131.79144287109</ele>
        <time>2015-09-13T07:25:55.000Z</time>
      </trkpt>
      <trkpt lat="49.19312" lon="1.62844">
        <ele>131.70567321777</ele>
        <time>2015-09-13T07:25:58.000Z</time>
      </trkpt>
      <trkpt lat="49.1931" lon="1.62833">
        <ele>131.61833190918</ele>
        <time>2015-09-13T07:26:00.000Z</time>
      </trkpt>
      <trkpt lat="49.19309" lon="1.62825">
        <ele>131.56210327148</ele>
        <time>2015-09-13T07:26:02.000Z</time>
      </trkpt>
      <trkpt lat="49.19308" lon="1.62817">
        <ele>131.54931640625</ele>
        <time>2015-09-13T07:26:04.000Z</time>
      </trkpt>
      <trkpt lat="49.19307" lon="1.6281">
        <ele>131.54927062988</ele>
        <time>2015-09-13T07:26:06.000Z</time>
      </trkpt>
      <trkpt lat="49.19306" lon="1.62802">
        <ele>131.58134460449</ele>
        <time>2015-09-13T07:26:08.000Z</time>
      </trkpt>
      <trkpt lat="49.19305" lon="1.62795">
        <ele>131.6484375</ele>
        <time>2015-09-13T07:26:11.000Z</time>
      </trkpt>
      <trkpt lat="49.19304" lon="1.62781">
        <ele>131.73007202148</ele>
        <time>2015-09-13T07:26:14.000Z</time>
      </trkpt>
      <trkpt lat="49.193" lon="1.62769">
        <ele>131.81063842773</ele>
        <time>2015-09-13T07:26:17.000Z</time>
      </trkpt>
      <trkpt lat="49.19298" lon="1.62761">
        <ele>131.88510131836</ele>
        <time>2015-09-13T07:26:19.000Z</time>
      </trkpt>
      <trkpt lat="49.19296" lon="1.62746">
        <ele>131.95452880859</ele>
        <time>2015-09-13T07:26:22.000Z</time>
      </trkpt>
      <trkpt lat="49.19293" lon="1.62733">
        <ele>131.98538208008</ele>
        <time>2015-09-13T07:26:25.000Z</time>
      </trkpt>
      <trkpt lat="49.19292" lon="1.62725">
        <ele>131.97186279297</ele>
        <time>2015-09-13T07:26:27.000Z</time>
      </trkpt>
      <trkpt lat="49.19291" lon="1.62712">
        <ele>131.92518615723</ele>
        <time>2015-09-13T07:26:29.000Z</time>
      </trkpt>
      <trkpt lat="49.1929" lon="1.62691">
        <ele>131.84516906738</ele>
        <time>2015-09-13T07:26:32.000Z</time>
      </trkpt>
      <trkpt lat="49.1929" lon="1.62676">
        <ele>131.73825073242</ele>
        <time>2015-09-13T07:26:35.000Z</time>
      </trkpt>
      <trkpt lat="49.1929" lon="1.62666">
        <ele>131.64785766602</ele>
        <time>2015-09-13T07:26:37.000Z</time>
      </trkpt>
      <trkpt lat="49.19289" lon="1.62651">
        <ele>131.57353210449</ele>
        <time>2015-09-13T07:26:40.000Z</time>
      </trkpt>
      <trkpt lat="49.19288" lon="1.62641">
        <ele>131.52030944824</ele>
        <time>2015-09-13T07:26:42.000Z</time>
      </trkpt>
      <trkpt lat="49.19283" lon="1.62623">
        <ele>131.49597167969</ele>
        <time>2015-09-13T07:26:45.000Z</time>
      </trkpt>
      <trkpt lat="49.19279" lon="1.62607">
        <ele>131.5020904541</ele>
        <time>2015-09-13T07:26:47.000Z</time>
      </trkpt>
      <trkpt lat="49.19277" lon="1.62588">
        <ele>131.5379486084</ele>
        <time>2015-09-13T07:26:50.000Z</time>
      </trkpt>
      <trkpt lat="49.19275" lon="1.62578">
        <ele>131.62524414062</ele>
        <time>2015-09-13T07:26:52.000Z</time>
      </trkpt>
      <trkpt lat="49.19277" lon="1.6256">
        <ele>131.8712310791</ele>
        <time>2015-09-13T07:26:55.000Z</time>
      </trkpt>
      <trkpt lat="49.19283" lon="1.6255">
        <ele>132.1828918457</ele>
        <time>2015-09-13T07:27:04.000Z</time>
      </trkpt>
      <trkpt lat="49.1929" lon="1.6253">
        <ele>132.62399291992</ele>
        <time>2015-09-13T07:27:08.000Z</time>
      </trkpt>
      <trkpt lat="49.19289" lon="1.62522">
        <ele>133.11666870117</ele>
        <time>2015-09-13T07:27:15.000Z</time>
      </trkpt>
      <trkpt lat="49.19288" lon="1.62475">
        <ele>133.74641418457</ele>
        <time>2015-09-13T07:27:20.000Z</time>
      </trkpt>
      <trkpt lat="49.19288" lon="1.62475">
        <ele>133.74641418457</ele>
        <time>2015-09-13T07:27:30.000Z</time>
      </trkpt>
      <trkpt lat="49.19285" lon="1.62468">
        <ele>134.22338867188</ele>
        <time>2015-09-13T07:27:33.000Z</time>
      </trkpt>
      <trkpt lat="49.19281" lon="1.62457">
        <ele>134.63610839844</ele>
        <time>2015-09-13T07:27:36.000Z</time>
      </trkpt>
      <trkpt lat="49.19281" lon="1.62457">
        <ele>134.63610839844</ele>
        <time>2015-09-13T07:27:47.000Z</time>
      </trkpt>
      <trkpt lat="49.19276" lon="1.62456">
        <ele>134.91683959961</ele>
        <time>2015-09-13T07:27:50.000Z</time>
      </trkpt>
      <trkpt lat="49.19271" lon="1.62457">
        <ele>135.13961791992</ele>
        <time>2015-09-13T07:27:59.000Z</time>
      </trkpt>
      <trkpt lat="49.19271" lon="1.62457">
        <ele>135.13961791992</ele>
        <time>2015-09-13T07:28:09.000Z</time>
      </trkpt>
      <trkpt lat="49.19271" lon="1.62448">
        <ele>135.16360473633</ele>
        <time>2015-09-13T07:28:35.000Z</time>
      </trkpt>
      <trkpt lat="49.19271" lon="1.62448">
        <ele>135.16360473633</ele>
        <time>2015-09-13T07:28:45.000Z</time>
      </trkpt>
      <trkpt lat="49.1927" lon="1.62449">
        <ele>135.18417358398</ele>
        <time>2015-09-13T07:28:46.000Z</time>
      </trkpt>
      <trkpt lat="49.19268" lon="1.62446">
        <ele>135.19857788086</ele>
        <time>2015-09-13T07:28:52.000Z</time>
      </trkpt>
      <trkpt lat="49.19267" lon="1.6243">
        <ele>135.18264770508</ele>
        <time>2015-09-13T07:28:56.000Z</time>
      </trkpt>
      <trkpt lat="49.19266" lon="1.6242">
        <ele>135.1408996582</ele>
        <time>2015-09-13T07:28:57.000Z</time>
      </trkpt>
      <trkpt lat="49.19265" lon="1.62411">
        <ele>135.10974121094</ele>
        <time>2015-09-13T07:28:59.000Z</time>
      </trkpt>
      <trkpt lat="49.19263" lon="1.62401">
        <ele>135.08218383789</ele>
        <time>2015-09-13T07:29:01.000Z</time>
      </trkpt>
      <trkpt lat="49.19259" lon="1.62387">
        <ele>135.05857849121</ele>
        <time>2015-09-13T07:29:04.000Z</time>
      </trkpt>
      <trkpt lat="49.19257" lon="1.62377">
        <ele>135.05651855469</ele>
        <time>2015-09-13T07:29:06.000Z</time>
      </trkpt>
      <trkpt lat="49.19256" lon="1.62363">
        <ele>135.07000732422</ele>
        <time>2015-09-13T07:29:08.000Z</time>
      </trkpt>
      <trkpt lat="49.19252" lon="1.62345">
        <ele>135.07490539551</ele>
        <time>2015-09-13T07:29:11.000Z</time>
      </trkpt>
      <trkpt lat="49.1925" lon="1.62334">
        <ele>135.06481933594</ele>
        <time>2015-09-13T07:29:13.000Z</time>
      </trkpt>
      <trkpt lat="49.19246" lon="1.62317">
        <ele>135.00473022461</ele>
        <time>2015-09-13T07:29:16.000Z</time>
      </trkpt>
      <trkpt lat="49.19242" lon="1.62305">
        <ele>134.89712524414</ele>
        <time>2015-09-13T07:29:18.000Z</time>
      </trkpt>
      <trkpt lat="49.19239" lon="1.6229">
        <ele>134.78507995605</ele>
        <time>2015-09-13T07:29:21.000Z</time>
      </trkpt>
      <trkpt lat="49.19236" lon="1.62271">
        <ele>134.69204711914</ele>
        <time>2015-09-13T07:29:24.000Z</time>
      </trkpt>
      <trkpt lat="49.19235" lon="1.62258">
        <ele>134.65129089355</ele>
        <time>2015-09-13T07:29:26.000Z</time>
      </trkpt>
      <trkpt lat="49.19233" lon="1.6223">
        <ele>134.65679931641</ele>
        <time>2015-09-13T07:29:29.000Z</time>
      </trkpt>
      <trkpt lat="49.19232" lon="1.62219">
        <ele>134.6662902832</ele>
        <time>2015-09-13T07:29:32.000Z</time>
      </trkpt>
      <trkpt lat="49.19233" lon="1.6221">
        <ele>134.69960021973</ele>
        <time>2015-09-13T07:29:39.000Z</time>
      </trkpt>
      <trkpt lat="49.19235" lon="1.62203">
        <ele>134.78695678711</ele>
        <time>2015-09-13T07:29:41.000Z</time>
      </trkpt>
      <trkpt lat="49.19244" lon="1.62189">
        <ele>135.06640625</ele>
        <time>2015-09-13T07:29:44.000Z</time>
      </trkpt>
      <trkpt lat="49.19249" lon="1.6218">
        <ele>135.4853515625</ele>
        <time>2015-09-13T07:29:46.000Z</time>
      </trkpt>
      <trkpt lat="49.19256" lon="1.62168">
        <ele>135.99642944336</ele>
        <time>2015-09-13T07:29:49.000Z</time>
      </trkpt>
      <trkpt lat="49.19261" lon="1.62159">
        <ele>136.45529174805</ele>
        <time>2015-09-13T07:29:51.000Z</time>
      </trkpt>
      <trkpt lat="49.19268" lon="1.62146">
        <ele>136.79624938965</ele>
        <time>2015-09-13T07:29:54.000Z</time>
      </trkpt>
      <trkpt lat="49.19276" lon="1.62133">
        <ele>136.85858154297</ele>
        <time>2015-09-13T07:30:01.000Z</time>
      </trkpt>
      <trkpt lat="49.19281" lon="1.62121">
        <ele>136.73718261719</ele>
        <time>2015-09-13T07:30:03.000Z</time>
      </trkpt>
      <trkpt lat="49.19284" lon="1.62112">
        <ele>136.53172302246</ele>
        <time>2015-09-13T07:30:03.000Z</time>
      </trkpt>
      <trkpt lat="49.19288" lon="1.621">
        <ele>136.30682373047</ele>
        <time>2015-09-13T07:30:05.000Z</time>
      </trkpt>
      <trkpt lat="49.19289" lon="1.62093">
        <ele>136.10090637207</ele>
        <time>2015-09-13T07:30:07.000Z</time>
      </trkpt>
      <trkpt lat="49.19292" lon="1.62091">
        <ele>135.9432220459</ele>
        <time>2015-09-13T07:30:10.000Z</time>
      </trkpt>
      <trkpt lat="49.19297" lon="1.62087">
        <ele>135.84089660645</ele>
        <time>2015-09-13T07:30:12.000Z</time>
      </trkpt>
      <trkpt lat="49.19303" lon="1.62077">
        <ele>135.79733276367</ele>
        <time>2015-09-13T07:30:15.000Z</time>
      </trkpt>
      <trkpt lat="49.19307" lon="1.62064">
        <ele>135.84902954102</ele>
        <time>2015-09-13T07:30:18.000Z</time>
      </trkpt>
      <trkpt lat="49.19312" lon="1.62051">
        <ele>136.01057434082</ele>
        <time>2015-09-13T07:30:21.000Z</time>
      </trkpt>
      <trkpt lat="49.19318" lon="1.62039">
        <ele>136.26487731934</ele>
        <time>2015-09-13T07:30:24.000Z</time>
      </trkpt>
      <trkpt lat="49.19324" lon="1.62025">
        <ele>136.65168762207</ele>
        <time>2015-09-13T07:30:30.000Z</time>
      </trkpt>
      <trkpt lat="49.1933" lon="1.62014">
        <ele>137.15005493164</ele>
        <time>2015-09-13T07:30:30.000Z</time>
      </trkpt>
      <trkpt lat="49.19339" lon="1.61999">
        <ele>137.7516784668</ele>
        <time>2015-09-13T07:30:32.000Z</time>
      </trkpt>
      <trkpt lat="49.19345" lon="1.61988">
        <ele>138.33110046387</ele>
        <time>2015-09-13T07:30:34.000Z</time>
      </trkpt>
      <trkpt lat="49.19352" lon="1.61973">
        <ele>138.87040710449</ele>
        <time>2015-09-13T07:30:37.000Z</time>
      </trkpt>
      <trkpt lat="49.19357" lon="1.6196">
        <ele>139.30706787109</ele>
        <time>2015-09-13T07:30:39.000Z</time>
      </trkpt>
      <trkpt lat="49.19364" lon="1.61943">
        <ele>139.66125488281</ele>
        <time>2015-09-13T07:30:42.000Z</time>
      </trkpt>
      <trkpt lat="49.19375" lon="1.61927">
        <ele>139.92192077637</ele>
        <time>2015-09-13T07:30:45.000Z</time>
      </trkpt>
      <trkpt lat="49.19383" lon="1.61917">
        <ele>140.16007995605</ele>
        <time>2015-09-13T07:30:47.000Z</time>
      </trkpt>
      <trkpt lat="49.1939" lon="1.61908">
        <ele>140.33796691895</ele>
        <time>2015-09-13T07:30:49.000Z</time>
      </trkpt>
      <trkpt lat="49.19397" lon="1.61899">
        <ele>140.47964477539</ele>
        <time>2015-09-13T07:30:51.000Z</time>
      </trkpt>
      <trkpt lat="49.19403" lon="1.6189">
        <ele>140.58084106445</ele>
        <time>2015-09-13T07:30:53.000Z</time>
      </trkpt>
      <trkpt lat="49.19411" lon="1.61878">
        <ele>140.66374206543</ele>
        <time>2015-09-13T07:30:56.000Z</time>
      </trkpt>
      <trkpt lat="49.19421" lon="1.61859">
        <ele>140.74586486816</ele>
        <time>2015-09-13T07:30:59.000Z</time>
      </trkpt>
      <trkpt lat="49.19429" lon="1.61843">
        <ele>140.84786987305</ele>
        <time>2015-09-13T07:31:02.000Z</time>
      </trkpt>
      <trkpt lat="49.19436" lon="1.61828">
        <ele>140.93746948242</ele>
        <time>2015-09-13T07:31:05.000Z</time>
      </trkpt>
      <trkpt lat="49.19441" lon="1.61821">
        <ele>140.97415161133</ele>
        <time>2015-09-13T07:31:07.000Z</time>
      </trkpt>
      <trkpt lat="49.19446" lon="1.61814">
        <ele>140.93721008301</ele>
        <time>2015-09-13T07:31:09.000Z</time>
      </trkpt>
      <trkpt lat="49.19453" lon="1.61808">
        <ele>140.84033203125</ele>
        <time>2015-09-13T07:31:12.000Z</time>
      </trkpt>
      <trkpt lat="49.19459" lon="1.61801">
        <ele>140.69291687012</ele>
        <time>2015-09-13T07:31:15.000Z</time>
      </trkpt>
      <trkpt lat="49.19466" lon="1.61797">
        <ele>140.53750610352</ele>
        <time>2015-09-13T07:31:18.000Z</time>
      </trkpt>
      <trkpt lat="49.19472" lon="1.61791">
        <ele>140.39846801758</ele>
        <time>2015-09-13T07:31:20.000Z</time>
      </trkpt>
      <trkpt lat="49.19487" lon="1.61788">
        <ele>140.30339050293</ele>
        <time>2015-09-13T07:31:23.000Z</time>
      </trkpt>
      <trkpt lat="49.195" lon="1.61786">
        <ele>140.25875854492</ele>
        <time>2015-09-13T07:31:26.000Z</time>
      </trkpt>
      <trkpt lat="49.19511" lon="1.61786">
        <ele>140.21611022949</ele>
        <time>2015-09-13T07:31:28.000Z</time>
      </trkpt>
      <trkpt lat="49.19522" lon="1.6179">
        <ele>140.17282104492</ele>
        <time>2015-09-13T07:31:31.000Z</time>
      </trkpt>
      <trkpt lat="49.19527" lon="1.61793">
        <ele>140.14868164062</ele>
        <time>2015-09-13T07:31:33.000Z</time>
      </trkpt>
      <trkpt lat="49.19531" lon="1.61799">
        <ele>140.11837768555</ele>
        <time>2015-09-13T07:31:36.000Z</time>
      </trkpt>
      <trkpt lat="49.19537" lon="1.618">
        <ele>140.03915405273</ele>
        <time>2015-09-13T07:31:38.000Z</time>
      </trkpt>
      <trkpt lat="49.19543" lon="1.61792">
        <ele>139.95706176758</ele>
        <time>2015-09-13T07:31:40.000Z</time>
      </trkpt>
      <trkpt lat="49.19547" lon="1.61776">
        <ele>139.86811828613</ele>
        <time>2015-09-13T07:31:43.000Z</time>
      </trkpt>
      <trkpt lat="49.19549" lon="1.61768">
        <ele>139.78030395508</ele>
        <time>2015-09-13T07:31:45.000Z</time>
      </trkpt>
      <trkpt lat="49.1955" lon="1.61759">
        <ele>139.69149780273</ele>
        <time>2015-09-13T07:31:47.000Z</time>
      </trkpt>
      <trkpt lat="49.19547" lon="1.61755">
        <ele>139.62641906738</ele>
        <time>2015-09-13T07:31:49.000Z</time>
      </trkpt>
      <trkpt lat="49.19542" lon="1.61748">
        <ele>139.55339050293</ele>
        <time>2015-09-13T07:31:52.000Z</time>
      </trkpt>
      <trkpt lat="49.19537" lon="1.61743">
        <ele>139.39332580566</ele>
        <time>2015-09-13T07:31:54.000Z</time>
      </trkpt>
      <trkpt lat="49.19531" lon="1.61738">
        <ele>139.12554931641</ele>
        <time>2015-09-13T07:31:56.000Z</time>
      </trkpt>
      <trkpt lat="49.19522" lon="1.61719">
        <ele>138.46897888184</ele>
        <time>2015-09-13T07:31:59.000Z</time>
      </trkpt>
      <trkpt lat="49.19514" lon="1.61708">
        <ele>137.54624938965</ele>
        <time>2015-09-13T07:32:01.000Z</time>
      </trkpt>
      <trkpt lat="49.195" lon="1.61695">
        <ele>136.28117370605</ele>
        <time>2015-09-13T07:32:04.000Z</time>
      </trkpt>
      <trkpt lat="49.19496" lon="1.6169">
        <ele>134.99775695801</ele>
        <time>2015-09-13T07:32:06.000Z</time>
      </trkpt>
      <trkpt lat="49.19494" lon="1.61688">
        <ele>133.76396179199</ele>
        <time>2015-09-13T07:32:09.000Z</time>
      </trkpt>
      <trkpt lat="49.19495" lon="1.61688">
        <ele>132.93006896973</ele>
        <time>2015-09-13T07:32:12.000Z</time>
      </trkpt>
      <trkpt lat="49.19496" lon="1.61686">
        <ele>132.34255981445</ele>
        <time>2015-09-13T07:32:14.000Z</time>
      </trkpt>
      <trkpt lat="49.19497" lon="1.61682">
        <ele>132.03796386719</ele>
        <time>2015-09-13T07:32:17.000Z</time>
      </trkpt>
      <trkpt lat="49.19499" lon="1.61676">
        <ele>131.7431640625</ele>
        <time>2015-09-13T07:32:20.000Z</time>
      </trkpt>
      <trkpt lat="49.19502" lon="1.61671">
        <ele>131.43574523926</ele>
        <time>2015-09-13T07:32:22.000Z</time>
      </trkpt>
      <trkpt lat="49.19504" lon="1.61667">
        <ele>131.06271362305</ele>
        <time>2015-09-13T07:32:24.000Z</time>
      </trkpt>
      <trkpt lat="49.19509" lon="1.61661">
        <ele>130.62435913086</ele>
        <time>2015-09-13T07:32:27.000Z</time>
      </trkpt>
      <trkpt lat="49.19514" lon="1.61657">
        <ele>130.2434387207</ele>
        <time>2015-09-13T07:32:29.000Z</time>
      </trkpt>
      <trkpt lat="49.19518" lon="1.61653">
        <ele>129.93511962891</ele>
        <time>2015-09-13T07:32:31.000Z</time>
      </trkpt>
      <trkpt lat="49.19526" lon="1.61647">
        <ele>129.64993286133</ele>
        <time>2015-09-13T07:32:34.000Z</time>
      </trkpt>
      <trkpt lat="49.19535" lon="1.61642">
        <ele>129.39414978027</ele>
        <time>2015-09-13T07:32:37.000Z</time>
      </trkpt>
      <trkpt lat="49.19541" lon="1.61638">
        <ele>129.22064208984</ele>
        <time>2015-09-13T07:32:39.000Z</time>
      </trkpt>
      <trkpt lat="49.19547" lon="1.61635">
        <ele>129.10043334961</ele>
        <time>2015-09-13T07:32:42.000Z</time>
      </trkpt>
      <trkpt lat="49.19553" lon="1.61632">
        <ele>129.05160522461</ele>
        <time>2015-09-13T07:32:43.000Z</time>
      </trkpt>
      <trkpt lat="49.19563" lon="1.61628">
        <ele>129.11245727539</ele>
        <time>2015-09-13T07:32:46.000Z</time>
      </trkpt>
      <trkpt lat="49.19572" lon="1.61621">
        <ele>129.15339660645</ele>
        <time>2015-09-13T07:32:49.000Z</time>
      </trkpt>
      <trkpt lat="49.19579" lon="1.61614">
        <ele>129.15705871582</ele>
        <time>2015-09-13T07:32:51.000Z</time>
      </trkpt>
      <trkpt lat="49.19595" lon="1.61601">
        <ele>129.18017578125</ele>
        <time>2015-09-13T07:32:54.000Z</time>
      </trkpt>
      <trkpt lat="49.19603" lon="1.61591">
        <ele>129.16879272461</ele>
        <time>2015-09-13T07:32:56.000Z</time>
      </trkpt>
      <trkpt lat="49.19611" lon="1.61579">
        <ele>129.04995727539</ele>
        <time>2015-09-13T07:32:58.000Z</time>
      </trkpt>
      <trkpt lat="49.19619" lon="1.6157">
        <ele>129.01501464844</ele>
        <time>2015-09-13T07:33:00.000Z</time>
      </trkpt>
      <trkpt lat="49.19631" lon="1.61557">
        <ele>129.10385131836</ele>
        <time>2015-09-13T07:33:03.000Z</time>
      </trkpt>
      <trkpt lat="49.19638" lon="1.61548">
        <ele>129.1827545166</ele>
        <time>2015-09-13T07:33:05.000Z</time>
      </trkpt>
      <trkpt lat="49.19645" lon="1.61539">
        <ele>129.30000305176</ele>
        <time>2015-09-13T07:33:07.000Z</time>
      </trkpt>
      <trkpt lat="49.1965" lon="1.61528">
        <ele>129.45314025879</ele>
        <time>2015-09-13T07:33:09.000Z</time>
      </trkpt>
      <trkpt lat="49.19658" lon="1.61516">
        <ele>129.61581420898</ele>
        <time>2015-09-13T07:33:11.000Z</time>
      </trkpt>
      <trkpt lat="49.19668" lon="1.61501">
        <ele>129.77726745605</ele>
        <time>2015-09-13T07:33:14.000Z</time>
      </trkpt>
      <trkpt lat="49.19673" lon="1.61489">
        <ele>129.86361694336</ele>
        <time>2015-09-13T07:33:16.000Z</time>
      </trkpt>
      <trkpt lat="49.19685" lon="1.61472">
        <ele>130.00234985352</ele>
        <time>2015-09-13T07:33:19.000Z</time>
      </trkpt>
      <trkpt lat="49.19694" lon="1.61462">
        <ele>130.24114990234</ele>
        <time>2015-09-13T07:33:21.000Z</time>
      </trkpt>
      <trkpt lat="49.19703" lon="1.61448">
        <ele>130.5150604248</ele>
        <time>2015-09-13T07:33:24.000Z</time>
      </trkpt>
      <trkpt lat="49.19709" lon="1.61436">
        <ele>130.74969482422</ele>
        <time>2015-09-13T07:33:26.000Z</time>
      </trkpt>
      <trkpt lat="49.19718" lon="1.61423">
        <ele>131.14511108398</ele>
        <time>2015-09-13T07:33:29.000Z</time>
      </trkpt>
      <trkpt lat="49.19726" lon="1.61414">
        <ele>131.66543579102</ele>
        <time>2015-09-13T07:33:31.000Z</time>
      </trkpt>
      <trkpt lat="49.19736" lon="1.61403">
        <ele>132.42956542969</ele>
        <time>2015-09-13T07:33:34.000Z</time>
      </trkpt>
      <trkpt lat="49.19745" lon="1.61387">
        <ele>133.41569519043</ele>
        <time>2015-09-13T07:33:37.000Z</time>
      </trkpt>
      <trkpt lat="49.19751" lon="1.61375">
        <ele>134.55041503906</ele>
        <time>2015-09-13T07:33:39.000Z</time>
      </trkpt>
      <trkpt lat="49.19754" lon="1.61366">
        <ele>135.63882446289</ele>
        <time>2015-09-13T07:33:42.000Z</time>
      </trkpt>
      <trkpt lat="49.19759" lon="1.61354">
        <ele>136.6130065918</ele>
        <time>2015-09-13T07:33:45.000Z</time>
      </trkpt>
      <trkpt lat="49.19762" lon="1.61344">
        <ele>137.3247833252</ele>
        <time>2015-09-13T07:33:47.000Z</time>
      </trkpt>
      <trkpt lat="49.19765" lon="1.61334">
        <ele>137.82374572754</ele>
        <time>2015-09-13T07:33:49.000Z</time>
      </trkpt>
      <trkpt lat="49.19769" lon="1.61325">
        <ele>138.10177612305</ele>
        <time>2015-09-13T07:33:51.000Z</time>
      </trkpt>
      <trkpt lat="49.19775" lon="1.61312">
        <ele>138.27172851562</ele>
        <time>2015-09-13T07:33:54.000Z</time>
      </trkpt>
      <trkpt lat="49.19778" lon="1.61302">
        <ele>138.29602050781</ele>
        <time>2015-09-13T07:33:56.000Z</time>
      </trkpt>
      <trkpt lat="49.19781" lon="1.61293">
        <ele>138.18371582031</ele>
        <time>2015-09-13T07:33:58.000Z</time>
      </trkpt>
      <trkpt lat="49.19786" lon="1.61284">
        <ele>137.96212768555</ele>
        <time>2015-09-13T07:34:01.000Z</time>
      </trkpt>
      <trkpt lat="49.1979" lon="1.6128">
        <ele>137.83004760742</ele>
        <time>2015-09-13T07:34:03.000Z</time>
      </trkpt>
      <trkpt lat="49.19791" lon="1.61279">
        <ele>137.75338745117</ele>
        <time>2015-09-13T07:34:05.000Z</time>
      </trkpt>
      <trkpt lat="49.19799" lon="1.61273">
        <ele>137.83866882324</ele>
        <time>2015-09-13T07:34:08.000Z</time>
      </trkpt>
      <trkpt lat="49.19804" lon="1.61272">
        <ele>138.09609985352</ele>
        <time>2015-09-13T07:34:11.000Z</time>
      </trkpt>
      <trkpt lat="49.1981" lon="1.61271">
        <ele>138.49801635742</ele>
        <time>2015-09-13T07:34:14.000Z</time>
      </trkpt>
      <trkpt lat="49.19814" lon="1.61272">
        <ele>138.93357849121</ele>
        <time>2015-09-13T07:34:16.000Z</time>
      </trkpt>
      <trkpt lat="49.19819" lon="1.61272">
        <ele>139.5036315918</ele>
        <time>2015-09-13T07:34:19.000Z</time>
      </trkpt>
      <trkpt lat="49.1982" lon="1.61272">
        <ele>139.99076843262</ele>
        <time>2015-09-13T07:34:21.000Z</time>
      </trkpt>
      <trkpt lat="49.19829" lon="1.61266">
        <ele>140.49728393555</ele>
        <time>2015-09-13T07:34:24.000Z</time>
      </trkpt>
      <trkpt lat="49.19835" lon="1.61268">
        <ele>140.99615478516</ele>
        <time>2015-09-13T07:34:26.000Z</time>
      </trkpt>
      <trkpt lat="49.19839" lon="1.6127">
        <ele>141.41662597656</ele>
        <time>2015-09-13T07:34:28.000Z</time>
      </trkpt>
      <trkpt lat="49.19847" lon="1.61276">
        <ele>141.73574829102</ele>
        <time>2015-09-13T07:34:31.000Z</time>
      </trkpt>
      <trkpt lat="49.19855" lon="1.61285">
        <ele>142.0846862793</ele>
        <time>2015-09-13T07:34:34.000Z</time>
      </trkpt>
      <trkpt lat="49.19864" lon="1.61294">
        <ele>142.33041381836</ele>
        <time>2015-09-13T07:34:37.000Z</time>
      </trkpt>
      <trkpt lat="49.19875" lon="1.61304">
        <ele>142.44596862793</ele>
        <time>2015-09-13T07:34:40.000Z</time>
      </trkpt>
      <trkpt lat="49.19881" lon="1.61311">
        <ele>142.53678894043</ele>
        <time>2015-09-13T07:34:42.000Z</time>
      </trkpt>
      <trkpt lat="49.19886" lon="1.61318">
        <ele>142.57711791992</ele>
        <time>2015-09-13T07:34:44.000Z</time>
      </trkpt>
      <trkpt lat="49.19893" lon="1.61328">
        <ele>142.52868652344</ele>
        <time>2015-09-13T07:34:48.000Z</time>
      </trkpt>
      <trkpt lat="49.19899" lon="1.61338">
        <ele>142.3786315918</ele>
        <time>2015-09-13T07:34:50.000Z</time>
      </trkpt>
      <trkpt lat="49.19904" lon="1.61345">
        <ele>142.11520385742</ele>
        <time>2015-09-13T07:34:53.000Z</time>
      </trkpt>
      <trkpt lat="49.19912" lon="1.61355">
        <ele>141.70634460449</ele>
        <time>2015-09-13T07:34:56.000Z</time>
      </trkpt>
      <trkpt lat="49.19919" lon="1.61366">
        <ele>141.16455078125</ele>
        <time>2015-09-13T07:35:01.000Z</time>
      </trkpt>
      <trkpt lat="49.19923" lon="1.61371">
        <ele>140.59306335449</ele>
        <time>2015-09-13T07:35:02.000Z</time>
      </trkpt>
      <trkpt lat="49.1993" lon="1.61379">
        <ele>140.02081298828</ele>
        <time>2015-09-13T07:35:04.000Z</time>
      </trkpt>
      <trkpt lat="49.19937" lon="1.61389">
        <ele>139.47702026367</ele>
        <time>2015-09-13T07:35:07.000Z</time>
      </trkpt>
      <trkpt lat="49.19944" lon="1.61399">
        <ele>139.01277160645</ele>
        <time>2015-09-13T07:35:11.000Z</time>
      </trkpt>
      <trkpt lat="49.19952" lon="1.61415">
        <ele>138.58122253418</ele>
        <time>2015-09-13T07:35:13.000Z</time>
      </trkpt>
      <trkpt lat="49.19962" lon="1.61432">
        <ele>138.17965698242</ele>
        <time>2015-09-13T07:35:17.000Z</time>
      </trkpt>
      <trkpt lat="49.19973" lon="1.61448">
        <ele>137.83413696289</ele>
        <time>2015-09-13T07:35:19.000Z</time>
      </trkpt>
      <trkpt lat="49.19979" lon="1.61457">
        <ele>137.56704711914</ele>
        <time>2015-09-13T07:35:21.000Z</time>
      </trkpt>
      <trkpt lat="49.19991" lon="1.61472">
        <ele>137.35342407227</ele>
        <time>2015-09-13T07:35:24.000Z</time>
      </trkpt>
      <trkpt lat="49.19998" lon="1.61481">
        <ele>137.2333984375</ele>
        <time>2015-09-13T07:35:26.000Z</time>
      </trkpt>
      <trkpt lat="49.20005" lon="1.61492">
        <ele>137.1298828125</ele>
        <time>2015-09-13T07:35:28.000Z</time>
      </trkpt>
      <trkpt lat="49.20015" lon="1.61506">
        <ele>137.02734375</ele>
        <time>2015-09-13T07:35:31.000Z</time>
      </trkpt>
      <trkpt lat="49.20026" lon="1.61518">
        <ele>136.9150390625</ele>
        <time>2015-09-13T07:35:34.000Z</time>
      </trkpt>
      <trkpt lat="49.20037" lon="1.61531">
        <ele>136.8046875</ele>
        <time>2015-09-13T07:35:37.000Z</time>
      </trkpt>
      <trkpt lat="49.20048" lon="1.61544">
        <ele>136.6845703125</ele>
        <time>2015-09-13T07:35:40.000Z</time>
      </trkpt>
      <trkpt lat="49.20055" lon="1.61553">
        <ele>136.5634765625</ele>
        <time>2015-09-13T07:35:42.000Z</time>
      </trkpt>
      <trkpt lat="49.20063" lon="1.61562">
        <ele>136.44921875</ele>
        <time>2015-09-13T07:35:44.000Z</time>
      </trkpt>
      <trkpt lat="49.20071" lon="1.61571">
        <ele>136.341796875</ele>
        <time>2015-09-13T07:35:46.000Z</time>
      </trkpt>
      <trkpt lat="49.20083" lon="1.61583">
        <ele>136.23046875</ele>
        <time>2015-09-13T07:35:49.000Z</time>
      </trkpt>
      <trkpt lat="49.20094" lon="1.61596">
        <ele>136.09257507324</ele>
        <time>2015-09-13T07:35:52.000Z</time>
      </trkpt>
      <trkpt lat="49.20101" lon="1.61603">
        <ele>135.93905639648</ele>
        <time>2015-09-13T07:35:54.000Z</time>
      </trkpt>
      <trkpt lat="49.20113" lon="1.6162">
        <ele>135.74746704102</ele>
        <time>2015-09-13T07:35:57.000Z</time>
      </trkpt>
      <trkpt lat="49.20123" lon="1.61641">
        <ele>135.52656555176</ele>
        <time>2015-09-13T07:36:00.000Z</time>
      </trkpt>
      <trkpt lat="49.2013" lon="1.61653">
        <ele>135.302734375</ele>
        <time>2015-09-13T07:36:02.000Z</time>
      </trkpt>
      <trkpt lat="49.20139" lon="1.61672">
        <ele>135.09664916992</ele>
        <time>2015-09-13T07:36:05.000Z</time>
      </trkpt>
      <trkpt lat="49.20145" lon="1.61686">
        <ele>134.92124938965</ele>
        <time>2015-09-13T07:36:07.000Z</time>
      </trkpt>
      <trkpt lat="49.2015" lon="1.61697">
        <ele>134.80001831055</ele>
        <time>2015-09-13T07:36:09.000Z</time>
      </trkpt>
      <trkpt lat="49.20158" lon="1.61713">
        <ele>134.73391723633</ele>
        <time>2015-09-13T07:36:12.000Z</time>
      </trkpt>
      <trkpt lat="49.20164" lon="1.61725">
        <ele>134.7060546875</ele>
        <time>2015-09-13T07:36:14.000Z</time>
      </trkpt>
      <trkpt lat="49.20169" lon="1.61736">
        <ele>134.72009277344</ele>
        <time>2015-09-13T07:36:16.000Z</time>
      </trkpt>
      <trkpt lat="49.20179" lon="1.61754">
        <ele>134.7152557373</ele>
        <time>2015-09-13T07:36:19.000Z</time>
      </trkpt>
      <trkpt lat="49.20187" lon="1.61772">
        <ele>134.64065551758</ele>
        <time>2015-09-13T07:36:22.000Z</time>
      </trkpt>
      <trkpt lat="49.20193" lon="1.61784">
        <ele>134.51614379883</ele>
        <time>2015-09-13T07:36:24.000Z</time>
      </trkpt>
      <trkpt lat="49.20202" lon="1.61802">
        <ele>134.32553100586</ele>
        <time>2015-09-13T07:36:27.000Z</time>
      </trkpt>
      <trkpt lat="49.20211" lon="1.61821">
        <ele>134.07739257812</ele>
        <time>2015-09-13T07:36:30.000Z</time>
      </trkpt>
      <trkpt lat="49.2022" lon="1.61839">
        <ele>133.81175231934</ele>
        <time>2015-09-13T07:36:33.000Z</time>
      </trkpt>
      <trkpt lat="49.20226" lon="1.61852">
        <ele>133.59652709961</ele>
        <time>2015-09-13T07:36:35.000Z</time>
      </trkpt>
      <trkpt lat="49.20234" lon="1.6187">
        <ele>133.40116882324</ele>
        <time>2015-09-13T07:36:39.000Z</time>
      </trkpt>
      <trkpt lat="49.20241" lon="1.61887">
        <ele>133.25057983398</ele>
        <time>2015-09-13T07:36:41.000Z</time>
      </trkpt>
      <trkpt lat="49.20249" lon="1.61904">
        <ele>133.14424133301</ele>
        <time>2015-09-13T07:36:44.000Z</time>
      </trkpt>
      <trkpt lat="49.20257" lon="1.61922">
        <ele>133.0774230957</ele>
        <time>2015-09-13T07:36:47.000Z</time>
      </trkpt>
      <trkpt lat="49.20263" lon="1.61933">
        <ele>133.037109375</ele>
        <time>2015-09-13T07:36:50.000Z</time>
      </trkpt>
      <trkpt lat="49.20269" lon="1.61944">
        <ele>133.0298614502</ele>
        <time>2015-09-13T07:36:51.000Z</time>
      </trkpt>
      <trkpt lat="49.20278" lon="1.61962">
        <ele>133.05868530273</ele>
        <time>2015-09-13T07:36:54.000Z</time>
      </trkpt>
      <trkpt lat="49.20287" lon="1.61978">
        <ele>133.12240600586</ele>
        <time>2015-09-13T07:36:57.000Z</time>
      </trkpt>
      <trkpt lat="49.20295" lon="1.61994">
        <ele>133.22018432617</ele>
        <time>2015-09-13T07:37:00.000Z</time>
      </trkpt>
      <trkpt lat="49.20304" lon="1.62012">
        <ele>133.31503295898</ele>
        <time>2015-09-13T07:37:03.000Z</time>
      </trkpt>
      <trkpt lat="49.20309" lon="1.62025">
        <ele>133.38288879395</ele>
        <time>2015-09-13T07:37:05.000Z</time>
      </trkpt>
      <trkpt lat="49.20316" lon="1.62042">
        <ele>133.40223693848</ele>
        <time>2015-09-13T07:37:08.000Z</time>
      </trkpt>
      <trkpt lat="49.20321" lon="1.62052">
        <ele>133.3830871582</ele>
        <time>2015-09-13T07:37:10.000Z</time>
      </trkpt>
      <trkpt lat="49.20328" lon="1.62069">
        <ele>133.30517578125</ele>
        <time>2015-09-13T07:37:13.000Z</time>
      </trkpt>
      <trkpt lat="49.20335" lon="1.62089">
        <ele>133.17642211914</ele>
        <time>2015-09-13T07:37:16.000Z</time>
      </trkpt>
      <trkpt lat="49.20342" lon="1.62108">
        <ele>132.96682739258</ele>
        <time>2015-09-13T07:37:19.000Z</time>
      </trkpt>
      <trkpt lat="49.20347" lon="1.6212">
        <ele>132.73031616211</ele>
        <time>2015-09-13T07:37:21.000Z</time>
      </trkpt>
      <trkpt lat="49.20353" lon="1.6214">
        <ele>132.43110656738</ele>
        <time>2015-09-13T07:37:24.000Z</time>
      </trkpt>
      <trkpt lat="49.20359" lon="1.6216">
        <ele>132.09417724609</ele>
        <time>2015-09-13T07:37:27.000Z</time>
      </trkpt>
      <trkpt lat="49.20366" lon="1.62177">
        <ele>131.78460693359</ele>
        <time>2015-09-13T07:37:30.000Z</time>
      </trkpt>
      <trkpt lat="49.20372" lon="1.62197">
        <ele>131.5659942627</ele>
        <time>2015-09-13T07:37:33.000Z</time>
      </trkpt>
      <trkpt lat="49.20378" lon="1.62217">
        <ele>131.39631652832</ele>
        <time>2015-09-13T07:37:36.000Z</time>
      </trkpt>
      <trkpt lat="49.20382" lon="1.6223">
        <ele>131.30595397949</ele>
        <time>2015-09-13T07:37:38.000Z</time>
      </trkpt>
      <trkpt lat="49.20387" lon="1.62247">
        <ele>131.28414916992</ele>
        <time>2015-09-13T07:37:41.000Z</time>
      </trkpt>
      <trkpt lat="49.20391" lon="1.62257">
        <ele>131.27590942383</ele>
        <time>2015-09-13T07:37:43.000Z</time>
      </trkpt>
      <trkpt lat="49.20399" lon="1.62278">
        <ele>131.22941589355</ele>
        <time>2015-09-13T07:37:46.000Z</time>
      </trkpt>
      <trkpt lat="49.20407" lon="1.62301">
        <ele>131.11587524414</ele>
        <time>2015-09-13T07:37:49.000Z</time>
      </trkpt>
      <trkpt lat="49.20414" lon="1.62323">
        <ele>130.90798950195</ele>
        <time>2015-09-13T07:37:52.000Z</time>
      </trkpt>
      <trkpt lat="49.2042" lon="1.62344">
        <ele>130.64688110352</ele>
        <time>2015-09-13T07:37:55.000Z</time>
      </trkpt>
      <trkpt lat="49.20425" lon="1.62358">
        <ele>130.39865112305</ele>
        <time>2015-09-13T07:37:57.000Z</time>
      </trkpt>
      <trkpt lat="49.20432" lon="1.62378">
        <ele>130.20980834961</ele>
        <time>2015-09-13T07:38:00.000Z</time>
      </trkpt>
      <trkpt lat="49.2044" lon="1.62398">
        <ele>130.1159362793</ele>
        <time>2015-09-13T07:38:03.000Z</time>
      </trkpt>
      <trkpt lat="49.20446" lon="1.62418">
        <ele>130.13977050781</ele>
        <time>2015-09-13T07:38:06.000Z</time>
      </trkpt>
      <trkpt lat="49.2045" lon="1.62428">
        <ele>130.21882629395</ele>
        <time>2015-09-13T07:38:08.000Z</time>
      </trkpt>
      <trkpt lat="49.20454" lon="1.62438">
        <ele>130.30387878418</ele>
        <time>2015-09-13T07:38:10.000Z</time>
      </trkpt>
      <trkpt lat="49.20459" lon="1.62447">
        <ele>130.38526916504</ele>
        <time>2015-09-13T07:38:12.000Z</time>
      </trkpt>
      <trkpt lat="49.20465" lon="1.62465">
        <ele>130.458984375</ele>
        <time>2015-09-13T07:38:15.000Z</time>
      </trkpt>
      <trkpt lat="49.20472" lon="1.62485">
        <ele>130.51953125</ele>
        <time>2015-09-13T07:38:19.000Z</time>
      </trkpt>
      <trkpt lat="49.20478" lon="1.62506">
        <ele>130.56625366211</ele>
        <time>2015-09-13T07:38:21.000Z</time>
      </trkpt>
      <trkpt lat="49.20484" lon="1.62525">
        <ele>130.55387878418</ele>
        <time>2015-09-13T07:38:25.000Z</time>
      </trkpt>
      <trkpt lat="49.20492" lon="1.62548">
        <ele>130.49549865723</ele>
        <time>2015-09-13T07:38:27.000Z</time>
      </trkpt>
      <trkpt lat="49.20497" lon="1.62563">
        <ele>130.41177368164</ele>
        <time>2015-09-13T07:38:29.000Z</time>
      </trkpt>
      <trkpt lat="49.20503" lon="1.62578">
        <ele>130.28518676758</ele>
        <time>2015-09-13T07:38:31.000Z</time>
      </trkpt>
      <trkpt lat="49.2051" lon="1.62601">
        <ele>130.00891113281</ele>
        <time>2015-09-13T07:38:34.000Z</time>
      </trkpt>
      <trkpt lat="49.20517" lon="1.62624">
        <ele>129.6181640625</ele>
        <time>2015-09-13T07:38:37.000Z</time>
      </trkpt>
      <trkpt lat="49.20523" lon="1.62647">
        <ele>129.10531616211</ele>
        <time>2015-09-13T07:38:40.000Z</time>
      </trkpt>
      <trkpt lat="49.20526" lon="1.62663">
        <ele>128.49555969238</ele>
        <time>2015-09-13T07:38:42.000Z</time>
      </trkpt>
      <trkpt lat="49.20531" lon="1.62689">
        <ele>127.73913574219</ele>
        <time>2015-09-13T07:38:45.000Z</time>
      </trkpt>
      <trkpt lat="49.20537" lon="1.62714">
        <ele>126.9811630249</ele>
        <time>2015-09-13T07:38:48.000Z</time>
      </trkpt>
      <trkpt lat="49.20543" lon="1.62742">
        <ele>126.25329589844</ele>
        <time>2015-09-13T07:38:51.000Z</time>
      </trkpt>
      <trkpt lat="49.20551" lon="1.6277">
        <ele>125.60047912598</ele>
        <time>2015-09-13T07:38:54.000Z</time>
      </trkpt>
      <trkpt lat="49.20557" lon="1.62798">
        <ele>125.00490570068</ele>
        <time>2015-09-13T07:38:57.000Z</time>
      </trkpt>
      <trkpt lat="49.20562" lon="1.62816">
        <ele>124.56729888916</ele>
        <time>2015-09-13T07:38:59.000Z</time>
      </trkpt>
      <trkpt lat="49.20568" lon="1.62833">
        <ele>124.28619384766</ele>
        <time>2015-09-13T07:39:01.000Z</time>
      </trkpt>
      <trkpt lat="49.20574" lon="1.62858">
        <ele>124.18336486816</ele>
        <time>2015-09-13T07:39:04.000Z</time>
      </trkpt>
      <trkpt lat="49.20578" lon="1.62874">
        <ele>124.21563720703</ele>
        <time>2015-09-13T07:39:06.000Z</time>
      </trkpt>
      <trkpt lat="49.20586" lon="1.62896">
        <ele>124.38694000244</ele>
        <time>2015-09-13T07:39:09.000Z</time>
      </trkpt>
      <trkpt lat="49.2059" lon="1.6291">
        <ele>124.57440185547</ele>
        <time>2015-09-13T07:39:11.000Z</time>
      </trkpt>
      <trkpt lat="49.20596" lon="1.62929">
        <ele>124.71650695801</ele>
        <time>2015-09-13T07:39:14.000Z</time>
      </trkpt>
      <trkpt lat="49.20599" lon="1.62943">
        <ele>124.76885986328</ele>
        <time>2015-09-13T07:39:16.000Z</time>
      </trkpt>
      <trkpt lat="49.20604" lon="1.62965">
        <ele>124.71500396729</ele>
        <time>2015-09-13T07:39:19.000Z</time>
      </trkpt>
      <trkpt lat="49.20608" lon="1.6298">
        <ele>124.54679107666</ele>
        <time>2015-09-13T07:39:21.000Z</time>
      </trkpt>
      <trkpt lat="49.20613" lon="1.63005">
        <ele>124.34920501709</ele>
        <time>2015-09-13T07:39:24.000Z</time>
      </trkpt>
      <trkpt lat="49.20619" lon="1.63028">
        <ele>124.1650390625</ele>
        <time>2015-09-13T07:39:27.000Z</time>
      </trkpt>
      <trkpt lat="49.20624" lon="1.63053">
        <ele>124.01180267334</ele>
        <time>2015-09-13T07:39:30.000Z</time>
      </trkpt>
      <trkpt lat="49.20627" lon="1.63069">
        <ele>123.91635894775</ele>
        <time>2015-09-13T07:39:32.000Z</time>
      </trkpt>
      <trkpt lat="49.20631" lon="1.6309">
        <ele>123.87014007568</ele>
        <time>2015-09-13T07:39:35.000Z</time>
      </trkpt>
      <trkpt lat="49.20634" lon="1.63104">
        <ele>123.88304138184</ele>
        <time>2015-09-13T07:39:38.000Z</time>
      </trkpt>
      <trkpt lat="49.20638" lon="1.63126">
        <ele>123.98527526855</ele>
        <time>2015-09-13T07:39:40.000Z</time>
      </trkpt>
      <trkpt lat="49.20641" lon="1.63146">
        <ele>124.16015625</ele>
        <time>2015-09-13T07:39:43.000Z</time>
      </trkpt>
      <trkpt lat="49.20641" lon="1.63158">
        <ele>124.33483886719</ele>
        <time>2015-09-13T07:39:45.000Z</time>
      </trkpt>
      <trkpt lat="49.20645" lon="1.63178">
        <ele>124.5460357666</ele>
        <time>2015-09-13T07:39:48.000Z</time>
      </trkpt>
      <trkpt lat="49.20648" lon="1.63191">
        <ele>124.75003814697</ele>
        <time>2015-09-13T07:39:50.000Z</time>
      </trkpt>
      <trkpt lat="49.20649" lon="1.63203">
        <ele>124.89935302734</ele>
        <time>2015-09-13T07:39:52.000Z</time>
      </trkpt>
      <trkpt lat="49.20652" lon="1.63216">
        <ele>125.0048828125</ele>
        <time>2015-09-13T07:39:55.000Z</time>
      </trkpt>
      <trkpt lat="49.20654" lon="1.63229">
        <ele>125.15002441406</ele>
        <time>2015-09-13T07:39:57.000Z</time>
      </trkpt>
      <trkpt lat="49.20658" lon="1.6325">
        <ele>125.26900482178</ele>
        <time>2015-09-13T07:40:00.000Z</time>
      </trkpt>
      <trkpt lat="49.20658" lon="1.63268">
        <ele>125.17478179932</ele>
        <time>2015-09-13T07:40:03.000Z</time>
      </trkpt>
      <trkpt lat="49.2066" lon="1.6328">
        <ele>125.00219726562</ele>
        <time>2015-09-13T07:40:05.000Z</time>
      </trkpt>
      <trkpt lat="49.20663" lon="1.633">
        <ele>124.6641998291</ele>
        <time>2015-09-13T07:40:08.000Z</time>
      </trkpt>
      <trkpt lat="49.20667" lon="1.63312">
        <ele>124.25144195557</ele>
        <time>2015-09-13T07:40:10.000Z</time>
      </trkpt>
      <trkpt lat="49.20671" lon="1.63323">
        <ele>123.78592681885</ele>
        <time>2015-09-13T07:40:12.000Z</time>
      </trkpt>
      <trkpt lat="49.20686" lon="1.63339">
        <ele>123.74250793457</ele>
        <time>2015-09-13T07:40:15.000Z</time>
      </trkpt>
      <trkpt lat="49.20694" lon="1.63351">
        <ele>123.817527771</ele>
        <time>2015-09-13T07:40:17.000Z</time>
      </trkpt>
      <trkpt lat="49.20699" lon="1.63363">
        <ele>124.01768493652</ele>
        <time>2015-09-13T07:40:19.000Z</time>
      </trkpt>
      <trkpt lat="49.20708" lon="1.63384">
        <ele>124.22651672363</ele>
        <time>2015-09-13T07:40:22.000Z</time>
      </trkpt>
      <trkpt lat="49.20715" lon="1.634">
        <ele>124.39556884766</ele>
        <time>2015-09-13T07:40:24.000Z</time>
      </trkpt>
      <trkpt lat="49.2072" lon="1.63417">
        <ele>124.25583648682</ele>
        <time>2015-09-13T07:40:26.000Z</time>
      </trkpt>
      <trkpt lat="49.20728" lon="1.63441">
        <ele>124.24973297119</ele>
        <time>2015-09-13T07:40:29.000Z</time>
      </trkpt>
      <trkpt lat="49.20736" lon="1.63467">
        <ele>124.42901611328</ele>
        <time>2015-09-13T07:40:35.000Z</time>
      </trkpt>
      <trkpt lat="49.2074" lon="1.63481">
        <ele>124.70420074463</ele>
        <time>2015-09-13T07:40:35.000Z</time>
      </trkpt>
      <trkpt lat="49.20745" lon="1.635">
        <ele>125.15519714355</ele>
        <time>2015-09-13T07:40:37.000Z</time>
      </trkpt>
      <trkpt lat="49.20749" lon="1.63513">
        <ele>125.77708435059</ele>
        <time>2015-09-13T07:40:39.000Z</time>
      </trkpt>
      <trkpt lat="49.20754" lon="1.63531">
        <ele>126.34239196777</ele>
        <time>2015-09-13T07:40:42.000Z</time>
      </trkpt>
      <trkpt lat="49.20759" lon="1.63547">
        <ele>126.86098480225</ele>
        <time>2015-09-13T07:40:45.000Z</time>
      </trkpt>
      <trkpt lat="49.20764" lon="1.63562">
        <ele>127.4320526123</ele>
        <time>2015-09-13T07:40:48.000Z</time>
      </trkpt>
      <trkpt lat="49.20766" lon="1.63572">
        <ele>127.96490478516</ele>
        <time>2015-09-13T07:40:50.000Z</time>
      </trkpt>
      <trkpt lat="49.20771" lon="1.63587">
        <ele>128.55209350586</ele>
        <time>2015-09-13T07:40:53.000Z</time>
      </trkpt>
      <trkpt lat="49.20777" lon="1.63599">
        <ele>129.15013122559</ele>
        <time>2015-09-13T07:40:56.000Z</time>
      </trkpt>
      <trkpt lat="49.20782" lon="1.63611">
        <ele>129.74792480469</ele>
        <time>2015-09-13T07:41:01.000Z</time>
      </trkpt>
      <trkpt lat="49.20787" lon="1.63625">
        <ele>130.3352355957</ele>
        <time>2015-09-13T07:41:02.000Z</time>
      </trkpt>
      <trkpt lat="49.20792" lon="1.63634">
        <ele>130.97706604004</ele>
        <time>2015-09-13T07:41:04.000Z</time>
      </trkpt>
      <trkpt lat="49.20799" lon="1.63644">
        <ele>131.65339660645</ele>
        <time>2015-09-13T07:41:07.000Z</time>
      </trkpt>
      <trkpt lat="49.20801" lon="1.63647">
        <ele>132.26481628418</ele>
        <time>2015-09-13T07:41:10.000Z</time>
      </trkpt>
      <trkpt lat="49.20809" lon="1.63659">
        <ele>132.98429870605</ele>
        <time>2015-09-13T07:41:13.000Z</time>
      </trkpt>
      <trkpt lat="49.20817" lon="1.63668">
        <ele>133.79998779297</ele>
        <time>2015-09-13T07:41:16.000Z</time>
      </trkpt>
      <trkpt lat="49.20819" lon="1.63674">
        <ele>134.58944702148</ele>
        <time>2015-09-13T07:41:19.000Z</time>
      </trkpt>
      <trkpt lat="49.20825" lon="1.63687">
        <ele>135.41006469727</ele>
        <time>2015-09-13T07:41:22.000Z</time>
      </trkpt>
      <trkpt lat="49.20828" lon="1.63694">
        <ele>136.29292297363</ele>
        <time>2015-09-13T07:41:24.000Z</time>
      </trkpt>
      <trkpt lat="49.20832" lon="1.637">
        <ele>137.09155273438</ele>
        <time>2015-09-13T07:41:26.000Z</time>
      </trkpt>
      <trkpt lat="49.20837" lon="1.6371">
        <ele>137.85836791992</ele>
        <time>2015-09-13T07:41:29.000Z</time>
      </trkpt>
      <trkpt lat="49.20846" lon="1.63718">
        <ele>138.73164367676</ele>
        <time>2015-09-13T07:41:34.000Z</time>
      </trkpt>
      <trkpt lat="49.20852" lon="1.63731">
        <ele>139.5989074707</ele>
        <time>2015-09-13T07:41:35.000Z</time>
      </trkpt>
      <trkpt lat="49.20856" lon="1.63741">
        <ele>140.4582824707</ele>
        <time>2015-09-13T07:41:37.000Z</time>
      </trkpt>
      <trkpt lat="49.20859" lon="1.6375">
        <ele>141.29914855957</ele>
        <time>2015-09-13T07:41:40.000Z</time>
      </trkpt>
      <trkpt lat="49.20867" lon="1.63767">
        <ele>142.09732055664</ele>
        <time>2015-09-13T07:41:43.000Z</time>
      </trkpt>
      <trkpt lat="49.20872" lon="1.63776">
        <ele>142.76393127441</ele>
        <time>2015-09-13T07:41:45.000Z</time>
      </trkpt>
      <trkpt lat="49.20878" lon="1.63791">
        <ele>143.30899047852</ele>
        <time>2015-09-13T07:41:48.000Z</time>
      </trkpt>
      <trkpt lat="49.20884" lon="1.63806">
        <ele>143.83010864258</ele>
        <time>2015-09-13T07:41:51.000Z</time>
      </trkpt>
      <trkpt lat="49.20889" lon="1.63816">
        <ele>144.31323242188</ele>
        <time>2015-09-13T07:41:55.000Z</time>
      </trkpt>
      <trkpt lat="49.20895" lon="1.63832">
        <ele>144.76321411133</ele>
        <time>2015-09-13T07:41:56.000Z</time>
      </trkpt>
      <trkpt lat="49.20899" lon="1.63845">
        <ele>145.09753417969</ele>
        <time>2015-09-13T07:41:58.000Z</time>
      </trkpt>
      <trkpt lat="49.20902" lon="1.63862">
        <ele>145.25032043457</ele>
        <time>2015-09-13T07:42:00.000Z</time>
      </trkpt>
      <trkpt lat="49.20907" lon="1.63882">
        <ele>145.2357635498</ele>
        <time>2015-09-13T07:42:03.000Z</time>
      </trkpt>
      <trkpt lat="49.20911" lon="1.63896">
        <ele>145.08201599121</ele>
        <time>2015-09-13T07:42:05.000Z</time>
      </trkpt>
      <trkpt lat="49.20914" lon="1.6391">
        <ele>144.75852966309</ele>
        <time>2015-09-13T07:42:08.000Z</time>
      </trkpt>
      <trkpt lat="49.20916" lon="1.63917">
        <ele>144.43713378906</ele>
        <time>2015-09-13T07:42:10.000Z</time>
      </trkpt>
      <trkpt lat="49.20921" lon="1.63937">
        <ele>144.06631469727</ele>
        <time>2015-09-13T07:42:13.000Z</time>
      </trkpt>
      <trkpt lat="49.20923" lon="1.63949">
        <ele>143.67044067383</ele>
        <time>2015-09-13T07:42:15.000Z</time>
      </trkpt>
      <trkpt lat="49.20929" lon="1.63962">
        <ele>143.2903137207</ele>
        <time>2015-09-13T07:42:18.000Z</time>
      </trkpt>
      <trkpt lat="49.20933" lon="1.63972">
        <ele>142.9460144043</ele>
        <time>2015-09-13T07:42:20.000Z</time>
      </trkpt>
      <trkpt lat="49.2094" lon="1.63986">
        <ele>142.62911987305</ele>
        <time>2015-09-13T07:42:23.000Z</time>
      </trkpt>
      <trkpt lat="49.20946" lon="1.64">
        <ele>142.4193572998</ele>
        <time>2015-09-13T07:42:26.000Z</time>
      </trkpt>
      <trkpt lat="49.20952" lon="1.64011">
        <ele>142.21928405762</ele>
        <time>2015-09-13T07:42:29.000Z</time>
      </trkpt>
      <trkpt lat="49.20955" lon="1.64018">
        <ele>141.99174499512</ele>
        <time>2015-09-13T07:42:31.000Z</time>
      </trkpt>
      <trkpt lat="49.20961" lon="1.64032">
        <ele>141.68556213379</ele>
        <time>2015-09-13T07:42:34.000Z</time>
      </trkpt>
      <trkpt lat="49.20966" lon="1.64041">
        <ele>141.3169708252</ele>
        <time>2015-09-13T07:42:36.000Z</time>
      </trkpt>
      <trkpt lat="49.20972" lon="1.64053">
        <ele>140.91567993164</ele>
        <time>2015-09-13T07:42:39.000Z</time>
      </trkpt>
      <trkpt lat="49.20975" lon="1.6406">
        <ele>140.53964233398</ele>
        <time>2015-09-13T07:42:41.000Z</time>
      </trkpt>
      <trkpt lat="49.2098" lon="1.64071">
        <ele>140.15869140625</ele>
        <time>2015-09-13T07:42:44.000Z</time>
      </trkpt>
      <trkpt lat="49.20983" lon="1.64079">
        <ele>139.82827758789</ele>
        <time>2015-09-13T07:42:46.000Z</time>
      </trkpt>
      <trkpt lat="49.20986" lon="1.64086">
        <ele>139.53500366211</ele>
        <time>2015-09-13T07:42:48.000Z</time>
      </trkpt>
      <trkpt lat="49.20993" lon="1.64097">
        <ele>139.32621765137</ele>
        <time>2015-09-13T07:42:51.000Z</time>
      </trkpt>
      <trkpt lat="49.20996" lon="1.64105">
        <ele>139.15249633789</ele>
        <time>2015-09-13T07:42:53.000Z</time>
      </trkpt>
      <trkpt lat="49.21001" lon="1.64116">
        <ele>139.01119995117</ele>
        <time>2015-09-13T07:42:56.000Z</time>
      </trkpt>
      <trkpt lat="49.21006" lon="1.64125">
        <ele>138.99096679688</ele>
        <time>2015-09-13T07:42:59.000Z</time>
      </trkpt>
      <trkpt lat="49.21011" lon="1.64132">
        <ele>139.0626373291</ele>
        <time>2015-09-13T07:43:01.000Z</time>
      </trkpt>
      <trkpt lat="49.21017" lon="1.64147">
        <ele>139.12588500977</ele>
        <time>2015-09-13T07:43:04.000Z</time>
      </trkpt>
      <trkpt lat="49.21022" lon="1.64158">
        <ele>139.23835754395</ele>
        <time>2015-09-13T07:43:07.000Z</time>
      </trkpt>
      <trkpt lat="49.21028" lon="1.6417">
        <ele>139.46138000488</ele>
        <time>2015-09-13T07:43:10.000Z</time>
      </trkpt>
      <trkpt lat="49.21032" lon="1.64181">
        <ele>139.65728759766</ele>
        <time>2015-09-13T07:43:13.000Z</time>
      </trkpt>
      <trkpt lat="49.21037" lon="1.64194">
        <ele>139.81025695801</ele>
        <time>2015-09-13T07:43:16.000Z</time>
      </trkpt>
      <trkpt lat="49.2104" lon="1.64203">
        <ele>139.98796081543</ele>
        <time>2015-09-13T07:43:18.000Z</time>
      </trkpt>
      <trkpt lat="49.21043" lon="1.64211">
        <ele>140.15408325195</ele>
        <time>2015-09-13T07:43:20.000Z</time>
      </trkpt>
      <trkpt lat="49.21049" lon="1.64222">
        <ele>140.27038574219</ele>
        <time>2015-09-13T07:43:23.000Z</time>
      </trkpt>
      <trkpt lat="49.21055" lon="1.64235">
        <ele>140.35578918457</ele>
        <time>2015-09-13T07:43:27.000Z</time>
      </trkpt>
      <trkpt lat="49.21062" lon="1.64249">
        <ele>140.41152954102</ele>
        <time>2015-09-13T07:43:29.000Z</time>
      </trkpt>
      <trkpt lat="49.21064" lon="1.64257">
        <ele>140.42395019531</ele>
        <time>2015-09-13T07:43:31.000Z</time>
      </trkpt>
      <trkpt lat="49.2107" lon="1.64269">
        <ele>140.41548156738</ele>
        <time>2015-09-13T07:43:34.000Z</time>
      </trkpt>
      <trkpt lat="49.21075" lon="1.64282">
        <ele>140.35311889648</ele>
        <time>2015-09-13T07:43:37.000Z</time>
      </trkpt>
      <trkpt lat="49.21082" lon="1.64296">
        <ele>140.27168273926</ele>
        <time>2015-09-13T07:43:40.000Z</time>
      </trkpt>
      <trkpt lat="49.21089" lon="1.64312">
        <ele>140.06083679199</ele>
        <time>2015-09-13T07:43:43.000Z</time>
      </trkpt>
      <trkpt lat="49.21093" lon="1.64321">
        <ele>139.75857543945</ele>
        <time>2015-09-13T07:43:45.000Z</time>
      </trkpt>
      <trkpt lat="49.21097" lon="1.64329">
        <ele>139.37870788574</ele>
        <time>2015-09-13T07:43:47.000Z</time>
      </trkpt>
      <trkpt lat="49.21099" lon="1.64337">
        <ele>138.9393157959</ele>
        <time>2015-09-13T07:43:49.000Z</time>
      </trkpt>
      <trkpt lat="49.21098" lon="1.64349">
        <ele>138.37246704102</ele>
        <time>2015-09-13T07:43:53.000Z</time>
      </trkpt>
      <trkpt lat="49.21074" lon="1.64364">
        <ele>137.57682800293</ele>
        <time>2015-09-13T07:43:57.000Z</time>
      </trkpt>
      <trkpt lat="49.2106" lon="1.64372">
        <ele>136.60176086426</ele>
        <time>2015-09-13T07:43:59.000Z</time>
      </trkpt>
      <trkpt lat="49.21036" lon="1.64389">
        <ele>135.20266723633</ele>
        <time>2015-09-13T07:44:02.000Z</time>
      </trkpt>
      <trkpt lat="49.21002" lon="1.64408">
        <ele>133.29679870605</ele>
        <time>2015-09-13T07:44:05.000Z</time>
      </trkpt>
      <trkpt lat="49.20972" lon="1.64441">
        <ele>130.64987182617</ele>
        <time>2015-09-13T07:44:08.000Z</time>
      </trkpt>
      <trkpt lat="49.20942" lon="1.64473">
        <ele>127.56819152832</ele>
        <time>2015-09-13T07:44:11.000Z</time>
      </trkpt>
      <trkpt lat="49.20913" lon="1.64496">
        <ele>124.13828277588</ele>
        <time>2015-09-13T07:44:14.000Z</time>
      </trkpt>
      <trkpt lat="49.20881" lon="1.64519">
        <ele>120.71098327637</ele>
        <time>2015-09-13T07:44:17.000Z</time>
      </trkpt>
      <trkpt lat="49.2085" lon="1.64541">
        <ele>117.44160461426</ele>
        <time>2015-09-13T07:44:24.000Z</time>
      </trkpt>
      <trkpt lat="49.2083" lon="1.64554">
        <ele>114.79345703125</ele>
        <time>2015-09-13T07:44:24.000Z</time>
      </trkpt>
      <trkpt lat="49.20803" lon="1.6457">
        <ele>112.62153625488</ele>
        <time>2015-09-13T07:44:26.000Z</time>
      </trkpt>
      <trkpt lat="49.20788" lon="1.64582">
        <ele>110.90535736084</ele>
        <time>2015-09-13T07:44:27.000Z</time>
      </trkpt>
      <trkpt lat="49.20767" lon="1.64601">
        <ele>109.51723480225</ele>
        <time>2015-09-13T07:44:30.000Z</time>
      </trkpt>
      <trkpt lat="49.20748" lon="1.64621">
        <ele>108.46942138672</ele>
        <time>2015-09-13T07:44:33.000Z</time>
      </trkpt>
      <trkpt lat="49.20737" lon="1.64634">
        <ele>107.68410491943</ele>
        <time>2015-09-13T07:44:35.000Z</time>
      </trkpt>
      <trkpt lat="49.20721" lon="1.64654">
        <ele>107.24951171875</ele>
        <time>2015-09-13T07:44:38.000Z</time>
      </trkpt>
      <trkpt lat="49.20711" lon="1.64667">
        <ele>107.02314758301</ele>
        <time>2015-09-13T07:44:40.000Z</time>
      </trkpt>
      <trkpt lat="49.20697" lon="1.64685">
        <ele>107.14561462402</ele>
        <time>2015-09-13T07:44:44.000Z</time>
      </trkpt>
      <trkpt lat="49.20684" lon="1.64702">
        <ele>107.55062103271</ele>
        <time>2015-09-13T07:44:46.000Z</time>
      </trkpt>
      <trkpt lat="49.20671" lon="1.64717">
        <ele>108.12422180176</ele>
        <time>2015-09-13T07:44:49.000Z</time>
      </trkpt>
      <trkpt lat="49.2066" lon="1.64732">
        <ele>108.77160644531</ele>
        <time>2015-09-13T07:44:52.000Z</time>
      </trkpt>
      <trkpt lat="49.20652" lon="1.64742">
        <ele>109.42771911621</ele>
        <time>2015-09-13T07:44:54.000Z</time>
      </trkpt>
      <trkpt lat="49.20641" lon="1.64755">
        <ele>109.96211242676</ele>
        <time>2015-09-13T07:44:57.000Z</time>
      </trkpt>
      <trkpt lat="49.20634" lon="1.64764">
        <ele>110.36315917969</ele>
        <time>2015-09-13T07:45:01.000Z</time>
      </trkpt>
      <trkpt lat="49.20622" lon="1.64778">
        <ele>110.62303161621</ele>
        <time>2015-09-13T07:45:02.000Z</time>
      </trkpt>
      <trkpt lat="49.2061" lon="1.64795">
        <ele>110.8125</ele>
        <time>2015-09-13T07:45:05.000Z</time>
      </trkpt>
      <trkpt lat="49.20599" lon="1.64814">
        <ele>110.94593811035</ele>
        <time>2015-09-13T07:45:08.000Z</time>
      </trkpt>
      <trkpt lat="49.20589" lon="1.64832">
        <ele>110.98812103271</ele>
        <time>2015-09-13T07:45:11.000Z</time>
      </trkpt>
      <trkpt lat="49.20581" lon="1.64852">
        <ele>110.95040130615</ele>
        <time>2015-09-13T07:45:14.000Z</time>
      </trkpt>
      <trkpt lat="49.20575" lon="1.64866">
        <ele>110.89514160156</ele>
        <time>2015-09-13T07:45:16.000Z</time>
      </trkpt>
      <trkpt lat="49.20569" lon="1.64883">
        <ele>110.81845855713</ele>
        <time>2015-09-13T07:45:19.000Z</time>
      </trkpt>
      <trkpt lat="49.20564" lon="1.64899">
        <ele>110.77032470703</ele>
        <time>2015-09-13T07:45:22.000Z</time>
      </trkpt>
      <trkpt lat="49.20562" lon="1.6491">
        <ele>110.77967834473</ele>
        <time>2015-09-13T07:45:24.000Z</time>
      </trkpt>
      <trkpt lat="49.20558" lon="1.64922">
        <ele>110.81925964355</ele>
        <time>2015-09-13T07:45:26.000Z</time>
      </trkpt>
      <trkpt lat="49.20552" lon="1.64942">
        <ele>110.8240737915</ele>
        <time>2015-09-13T07:45:29.000Z</time>
      </trkpt>
      <trkpt lat="49.20548" lon="1.64956">
        <ele>110.77443695068</ele>
        <time>2015-09-13T07:45:31.000Z</time>
      </trkpt>
      <trkpt lat="49.20539" lon="1.64978">
        <ele>110.6163482666</ele>
        <time>2015-09-13T07:45:35.000Z</time>
      </trkpt>
      <trkpt lat="49.2053" lon="1.65001">
        <ele>110.28464508057</ele>
        <time>2015-09-13T07:45:37.000Z</time>
      </trkpt>
      <trkpt lat="49.2052" lon="1.6503">
        <ele>109.72904205322</ele>
        <time>2015-09-13T07:45:41.000Z</time>
      </trkpt>
      <trkpt lat="49.20511" lon="1.65059">
        <ele>109.0196762085</ele>
        <time>2015-09-13T07:45:43.000Z</time>
      </trkpt>
      <trkpt lat="49.20504" lon="1.65079">
        <ele>108.21730804443</ele>
        <time>2015-09-13T07:45:45.000Z</time>
      </trkpt>
      <trkpt lat="49.20496" lon="1.651">
        <ele>107.50285339355</ele>
        <time>2015-09-13T07:45:47.000Z</time>
      </trkpt>
      <trkpt lat="49.20488" lon="1.6512">
        <ele>106.96392822266</ele>
        <time>2015-09-13T07:45:49.000Z</time>
      </trkpt>
      <trkpt lat="49.20478" lon="1.65147">
        <ele>106.61916351318</ele>
        <time>2015-09-13T07:45:52.000Z</time>
      </trkpt>
      <trkpt lat="49.20472" lon="1.65166">
        <ele>106.42224121094</ele>
        <time>2015-09-13T07:45:54.000Z</time>
      </trkpt>
      <trkpt lat="49.2046" lon="1.65196">
        <ele>106.23811340332</ele>
        <time>2015-09-13T07:45:57.000Z</time>
      </trkpt>
      <trkpt lat="49.20444" lon="1.65221">
        <ele>105.75518798828</ele>
        <time>2015-09-13T07:46:00.000Z</time>
      </trkpt>
      <trkpt lat="49.20425" lon="1.65244">
        <ele>104.87223052979</ele>
        <time>2015-09-13T07:46:03.000Z</time>
      </trkpt>
      <trkpt lat="49.20414" lon="1.65259">
        <ele>103.73579406738</ele>
        <time>2015-09-13T07:46:05.000Z</time>
      </trkpt>
      <trkpt lat="49.20403" lon="1.65274">
        <ele>102.44299316406</ele>
        <time>2015-09-13T07:46:07.000Z</time>
      </trkpt>
      <trkpt lat="49.20394" lon="1.65289">
        <ele>101.12208557129</ele>
        <time>2015-09-13T07:46:09.000Z</time>
      </trkpt>
      <trkpt lat="49.20379" lon="1.6531">
        <ele>99.857452392578</ele>
        <time>2015-09-13T07:46:12.000Z</time>
      </trkpt>
      <trkpt lat="49.20362" lon="1.65333">
        <ele>98.721755981445</ele>
        <time>2015-09-13T07:46:15.000Z</time>
      </trkpt>
      <trkpt lat="49.20351" lon="1.65349">
        <ele>97.658653259277</ele>
        <time>2015-09-13T07:46:17.000Z</time>
      </trkpt>
      <trkpt lat="49.20334" lon="1.65373">
        <ele>96.516883850098</ele>
        <time>2015-09-13T07:46:20.000Z</time>
      </trkpt>
      <trkpt lat="49.20322" lon="1.6539">
        <ele>95.312255859375</ele>
        <time>2015-09-13T07:46:22.000Z</time>
      </trkpt>
      <trkpt lat="49.20309" lon="1.65406">
        <ele>94.147529602051</ele>
        <time>2015-09-13T07:46:24.000Z</time>
      </trkpt>
      <trkpt lat="49.20289" lon="1.65432">
        <ele>92.937080383301</ele>
        <time>2015-09-13T07:46:27.000Z</time>
      </trkpt>
      <trkpt lat="49.2027" lon="1.6546">
        <ele>91.679969787598</ele>
        <time>2015-09-13T07:46:30.000Z</time>
      </trkpt>
      <trkpt lat="49.20258" lon="1.65478">
        <ele>90.544227600098</ele>
        <time>2015-09-13T07:46:32.000Z</time>
      </trkpt>
      <trkpt lat="49.20245" lon="1.65499">
        <ele>89.439025878906</ele>
        <time>2015-09-13T07:46:34.000Z</time>
      </trkpt>
      <trkpt lat="49.20234" lon="1.65517">
        <ele>88.332504272461</ele>
        <time>2015-09-13T07:46:36.000Z</time>
      </trkpt>
      <trkpt lat="49.20218" lon="1.65545">
        <ele>87.235153198242</ele>
        <time>2015-09-13T07:46:39.000Z</time>
      </trkpt>
      <trkpt lat="49.20208" lon="1.65561">
        <ele>86.23819732666</ele>
        <time>2015-09-13T07:46:41.000Z</time>
      </trkpt>
      <trkpt lat="49.20198" lon="1.65579">
        <ele>85.217910766602</ele>
        <time>2015-09-13T07:46:43.000Z</time>
      </trkpt>
      <trkpt lat="49.20186" lon="1.65599">
        <ele>84.213134765625</ele>
        <time>2015-09-13T07:46:45.000Z</time>
      </trkpt>
      <trkpt lat="49.20168" lon="1.65629">
        <ele>83.190788269043</ele>
        <time>2015-09-13T07:46:49.000Z</time>
      </trkpt>
      <trkpt lat="49.20151" lon="1.65662">
        <ele>82.122940063477</ele>
        <time>2015-09-13T07:46:51.000Z</time>
      </trkpt>
      <trkpt lat="49.20139" lon="1.65685">
        <ele>80.926574707031</ele>
        <time>2015-09-13T07:46:53.000Z</time>
      </trkpt>
      <trkpt lat="49.20123" lon="1.6572">
        <ele>79.545471191406</ele>
        <time>2015-09-13T07:46:56.000Z</time>
      </trkpt>
      <trkpt lat="49.20114" lon="1.65742">
        <ele>78.175788879395</ele>
        <time>2015-09-13T07:46:58.000Z</time>
      </trkpt>
      <trkpt lat="49.20105" lon="1.65767">
        <ele>76.772132873535</ele>
        <time>2015-09-13T07:47:00.000Z</time>
      </trkpt>
      <trkpt lat="49.20099" lon="1.65794">
        <ele>75.41877746582</ele>
        <time>2015-09-13T07:47:02.000Z</time>
      </trkpt>
      <trkpt lat="49.201" lon="1.65831">
        <ele>74.215484619141</ele>
        <time>2015-09-13T07:47:05.000Z</time>
      </trkpt>
      <trkpt lat="49.20096" lon="1.65846">
        <ele>73.144714355469</ele>
        <time>2015-09-13T07:47:08.000Z</time>
      </trkpt>
      <trkpt lat="49.20085" lon="1.65848">
        <ele>71.956329345703</ele>
        <time>2015-09-13T07:47:10.000Z</time>
      </trkpt>
      <trkpt lat="49.20071" lon="1.65832">
        <ele>70.840408325195</ele>
        <time>2015-09-13T07:47:13.000Z</time>
      </trkpt>
      <trkpt lat="49.20059" lon="1.65819">
        <ele>69.810417175293</ele>
        <time>2015-09-13T07:47:17.000Z</time>
      </trkpt>
      <trkpt lat="49.20045" lon="1.65791">
        <ele>68.665817260742</ele>
        <time>2015-09-13T07:47:18.000Z</time>
      </trkpt>
      <trkpt lat="49.20038" lon="1.65754">
        <ele>67.664016723633</ele>
        <time>2015-09-13T07:47:22.000Z</time>
      </trkpt>
      <trkpt lat="49.20039" lon="1.65727">
        <ele>66.910842895508</ele>
        <time>2015-09-13T07:47:23.000Z</time>
      </trkpt>
      <trkpt lat="49.20041" lon="1.65687">
        <ele>66.31428527832</ele>
        <time>2015-09-13T07:47:26.000Z</time>
      </trkpt>
      <trkpt lat="49.20044" lon="1.65647">
        <ele>65.938209533691</ele>
        <time>2015-09-13T07:47:29.000Z</time>
      </trkpt>
      <trkpt lat="49.20045" lon="1.6562">
        <ele>65.835121154785</ele>
        <time>2015-09-13T07:47:33.000Z</time>
      </trkpt>
      <trkpt lat="49.20047" lon="1.65584">
        <ele>65.828140258789</ele>
        <time>2015-09-13T07:47:34.000Z</time>
      </trkpt>
      <trkpt lat="49.20044" lon="1.65564">
        <ele>65.808036804199</ele>
        <time>2015-09-13T07:47:37.000Z</time>
      </trkpt>
      <trkpt lat="49.20038" lon="1.65561">
        <ele>65.751853942871</ele>
        <time>2015-09-13T07:47:39.000Z</time>
      </trkpt>
      <trkpt lat="49.20031" lon="1.65565">
        <ele>65.573768615723</ele>
        <time>2015-09-13T07:47:41.000Z</time>
      </trkpt>
      <trkpt lat="49.20024" lon="1.65572">
        <ele>65.247055053711</ele>
        <time>2015-09-13T07:47:47.000Z</time>
      </trkpt>
      <trkpt lat="49.20017" lon="1.6558">
        <ele>64.749649047852</ele>
        <time>2015-09-13T07:47:47.000Z</time>
      </trkpt>
      <trkpt lat="49.20006" lon="1.65594">
        <ele>64.07341003418</ele>
        <time>2015-09-13T07:47:48.000Z</time>
      </trkpt>
      <trkpt lat="49.19997" lon="1.65604">
        <ele>63.379199981689</ele>
        <time>2015-09-13T07:47:50.000Z</time>
      </trkpt>
      <trkpt lat="49.19989" lon="1.65614">
        <ele>62.874145507812</ele>
        <time>2015-09-13T07:47:52.000Z</time>
      </trkpt>
      <trkpt lat="49.19975" lon="1.65631">
        <ele>62.597442626953</ele>
        <time>2015-09-13T07:47:55.000Z</time>
      </trkpt>
      <trkpt lat="49.19961" lon="1.65649">
        <ele>62.500541687012</ele>
        <time>2015-09-13T07:47:58.000Z</time>
      </trkpt>
      <trkpt lat="49.19949" lon="1.65667">
        <ele>62.590404510498</ele>
        <time>2015-09-13T07:48:01.000Z</time>
      </trkpt>
      <trkpt lat="49.19939" lon="1.65686">
        <ele>62.710590362549</ele>
        <time>2015-09-13T07:48:04.000Z</time>
      </trkpt>
      <trkpt lat="49.19929" lon="1.65706">
        <ele>62.624153137207</ele>
        <time>2015-09-13T07:48:07.000Z</time>
      </trkpt>
      <trkpt lat="49.19925" lon="1.65721">
        <ele>62.325462341309</ele>
        <time>2015-09-13T07:48:09.000Z</time>
      </trkpt>
      <trkpt lat="49.1992" lon="1.65742">
        <ele>61.805347442627</ele>
        <time>2015-09-13T07:48:12.000Z</time>
      </trkpt>
      <trkpt lat="49.19918" lon="1.65757">
        <ele>61.275531768799</ele>
        <time>2015-09-13T07:48:14.000Z</time>
      </trkpt>
      <trkpt lat="49.19915" lon="1.65771">
        <ele>60.913471221924</ele>
        <time>2015-09-13T07:48:16.000Z</time>
      </trkpt>
      <trkpt lat="49.19913" lon="1.65785">
        <ele>60.817924499512</ele>
        <time>2015-09-13T07:48:18.000Z</time>
      </trkpt>
      <trkpt lat="49.19911" lon="1.65801">
        <ele>60.976818084717</ele>
        <time>2015-09-13T07:48:21.000Z</time>
      </trkpt>
      <trkpt lat="49.19908" lon="1.65815">
        <ele>61.481945037842</ele>
        <time>2015-09-13T07:48:24.000Z</time>
      </trkpt>
      <trkpt lat="49.19906" lon="1.65825">
        <ele>62.128807067871</ele>
        <time>2015-09-13T07:48:27.000Z</time>
      </trkpt>
      <trkpt lat="49.19904" lon="1.65839">
        <ele>62.780952453613</ele>
        <time>2015-09-13T07:48:29.000Z</time>
      </trkpt>
      <trkpt lat="49.19902" lon="1.65848">
        <ele>63.35062789917</ele>
        <time>2015-09-13T07:48:31.000Z</time>
      </trkpt>
      <trkpt lat="49.199" lon="1.65863">
        <ele>63.843055725098</ele>
        <time>2015-09-13T07:48:34.000Z</time>
      </trkpt>
      <trkpt lat="49.19897" lon="1.65877">
        <ele>64.258438110352</ele>
        <time>2015-09-13T07:48:37.000Z</time>
      </trkpt>
      <trkpt lat="49.19896" lon="1.65886">
        <ele>64.6279296875</ele>
        <time>2015-09-13T07:48:39.000Z</time>
      </trkpt>
      <trkpt lat="49.19894" lon="1.65895">
        <ele>64.9326171875</ele>
        <time>2015-09-13T07:48:41.000Z</time>
      </trkpt>
      <trkpt lat="49.19893" lon="1.65903">
        <ele>65.2119140625</ele>
        <time>2015-09-13T07:48:43.000Z</time>
      </trkpt>
      <trkpt lat="49.19893" lon="1.65916">
        <ele>65.427734375</ele>
        <time>2015-09-13T07:48:46.000Z</time>
      </trkpt>
      <trkpt lat="49.19893" lon="1.65924">
        <ele>65.564865112305</ele>
        <time>2015-09-13T07:48:48.000Z</time>
      </trkpt>
      <trkpt lat="49.19891" lon="1.65936">
        <ele>65.700393676758</ele>
        <time>2015-09-13T07:48:51.000Z</time>
      </trkpt>
      <trkpt lat="49.19891" lon="1.65945">
        <ele>65.81063079834</ele>
        <time>2015-09-13T07:48:53.000Z</time>
      </trkpt>
      <trkpt lat="49.1989" lon="1.65953">
        <ele>65.895622253418</ele>
        <time>2015-09-13T07:48:55.000Z</time>
      </trkpt>
      <trkpt lat="49.19889" lon="1.65961">
        <ele>66.008224487305</ele>
        <time>2015-09-13T07:48:57.000Z</time>
      </trkpt>
      <trkpt lat="49.19888" lon="1.65973">
        <ele>66.181625366211</ele>
        <time>2015-09-13T07:49:00.000Z</time>
      </trkpt>
      <trkpt lat="49.19887" lon="1.65982">
        <ele>66.336685180664</ele>
        <time>2015-09-13T07:49:02.000Z</time>
      </trkpt>
      <trkpt lat="49.19886" lon="1.65986">
        <ele>66.482116699219</ele>
        <time>2015-09-13T07:49:04.000Z</time>
      </trkpt>
      <trkpt lat="49.19886" lon="1.65986">
        <ele>66.482116699219</ele>
        <time>2015-09-13T07:49:16.000Z</time>
      </trkpt>
      <trkpt lat="49.19885" lon="1.66004">
        <ele>66.704895019531</ele>
        <time>2015-09-13T07:49:30.000Z</time>
      </trkpt>
      <trkpt lat="49.19885" lon="1.6601">
        <ele>66.967926025391</ele>
        <time>2015-09-13T07:49:31.000Z</time>
      </trkpt>
      <trkpt lat="49.19884" lon="1.6602">
        <ele>67.300003051758</ele>
        <time>2015-09-13T07:49:32.000Z</time>
      </trkpt>
      <trkpt lat="49.19883" lon="1.66027">
        <ele>67.702674865723</ele>
        <time>2015-09-13T07:49:32.000Z</time>
      </trkpt>
      <trkpt lat="49.19883" lon="1.66034">
        <ele>68.176513671875</ele>
        <time>2015-09-13T07:49:32.000Z</time>
      </trkpt>
      <trkpt lat="49.19882" lon="1.66044">
        <ele>68.686767578125</ele>
        <time>2015-09-13T07:49:32.000Z</time>
      </trkpt>
      <trkpt lat="49.19881" lon="1.66054">
        <ele>69.25048828125</ele>
        <time>2015-09-13T07:49:34.000Z</time>
      </trkpt>
      <trkpt lat="49.1988" lon="1.66062">
        <ele>69.813720703125</ele>
        <time>2015-09-13T07:49:37.000Z</time>
      </trkpt>
      <trkpt lat="49.19879" lon="1.66071">
        <ele>70.40380859375</ele>
        <time>2015-09-13T07:49:37.000Z</time>
      </trkpt>
      <trkpt lat="49.19879" lon="1.66074">
        <ele>70.93701171875</ele>
        <time>2015-09-13T07:49:37.000Z</time>
      </trkpt>
      <trkpt lat="49.19878" lon="1.66082">
        <ele>71.438720703125</ele>
        <time>2015-09-13T07:49:37.000Z</time>
      </trkpt>
      <trkpt lat="49.19878" lon="1.6609">
        <ele>71.916275024414</ele>
        <time>2015-09-13T07:49:38.000Z</time>
      </trkpt>
      <trkpt lat="49.19877" lon="1.66092">
        <ele>72.30241394043</ele>
        <time>2015-09-13T07:49:38.000Z</time>
      </trkpt>
      <trkpt lat="49.19876" lon="1.66103">
        <ele>72.696884155273</ele>
        <time>2015-09-13T07:49:40.000Z</time>
      </trkpt>
      <trkpt lat="49.19875" lon="1.66109">
        <ele>73.15837097168</ele>
        <time>2015-09-13T07:49:42.000Z</time>
      </trkpt>
      <trkpt lat="49.19874" lon="1.66117">
        <ele>73.628677368164</ele>
        <time>2015-09-13T07:49:45.000Z</time>
      </trkpt>
      <trkpt lat="49.19873" lon="1.66126">
        <ele>74.107276916504</ele>
        <time>2015-09-13T07:49:48.000Z</time>
      </trkpt>
      <trkpt lat="49.19872" lon="1.66135">
        <ele>74.692260742188</ele>
        <time>2015-09-13T07:49:51.000Z</time>
      </trkpt>
      <trkpt lat="49.19868" lon="1.66142">
        <ele>75.310989379883</ele>
        <time>2015-09-13T07:49:54.000Z</time>
      </trkpt>
      <trkpt lat="49.19867" lon="1.66144">
        <ele>75.937156677246</ele>
        <time>2015-09-13T07:49:57.000Z</time>
      </trkpt>
      <trkpt lat="49.19864" lon="1.66141">
        <ele>76.532531738281</ele>
        <time>2015-09-13T07:50:00.000Z</time>
      </trkpt>
      <trkpt lat="49.1986" lon="1.66136">
        <ele>77.13729095459</ele>
        <time>2015-09-13T07:50:04.000Z</time>
      </trkpt>
      <trkpt lat="49.19859" lon="1.66133">
        <ele>77.642761230469</ele>
        <time>2015-09-13T07:50:06.000Z</time>
      </trkpt>
      <trkpt lat="49.19854" lon="1.66121">
        <ele>78.046676635742</ele>
        <time>2015-09-13T07:50:09.000Z</time>
      </trkpt>
      <trkpt lat="49.19852" lon="1.66116">
        <ele>78.381820678711</ele>
        <time>2015-09-13T07:50:11.000Z</time>
      </trkpt>
      <trkpt lat="49.19848" lon="1.66108">
        <ele>78.714744567871</ele>
        <time>2015-09-13T07:50:14.000Z</time>
      </trkpt>
      <trkpt lat="49.19844" lon="1.66102">
        <ele>79.036338806152</ele>
        <time>2015-09-13T07:50:17.000Z</time>
      </trkpt>
      <trkpt lat="49.19841" lon="1.66099">
        <ele>79.399078369141</ele>
        <time>2015-09-13T07:50:19.000Z</time>
      </trkpt>
      <trkpt lat="49.19839" lon="1.66097">
        <ele>79.763618469238</ele>
        <time>2015-09-13T07:50:21.000Z</time>
      </trkpt>
      <trkpt lat="49.19836" lon="1.66095">
        <ele>80.199424743652</ele>
        <time>2015-09-13T07:50:23.000Z</time>
      </trkpt>
      <trkpt lat="49.1983" lon="1.66091">
        <ele>80.666625976562</ele>
        <time>2015-09-13T07:50:26.000Z</time>
      </trkpt>
      <trkpt lat="49.19826" lon="1.6609">
        <ele>81.080032348633</ele>
        <time>2015-09-13T07:50:28.000Z</time>
      </trkpt>
      <trkpt lat="49.19823" lon="1.66089">
        <ele>81.46410369873</ele>
        <time>2015-09-13T07:50:31.000Z</time>
      </trkpt>
      <trkpt lat="49.19817" lon="1.66089">
        <ele>81.86742401123</ele>
        <time>2015-09-13T07:50:33.000Z</time>
      </trkpt>
      <trkpt lat="49.19813" lon="1.66089">
        <ele>82.220718383789</ele>
        <time>2015-09-13T07:50:36.000Z</time>
      </trkpt>
      <trkpt lat="49.19806" lon="1.66087">
        <ele>82.585151672363</ele>
        <time>2015-09-13T07:50:39.000Z</time>
      </trkpt>
      <trkpt lat="49.19799" lon="1.66084">
        <ele>82.987648010254</ele>
        <time>2015-09-13T07:50:42.000Z</time>
      </trkpt>
      <trkpt lat="49.19794" lon="1.66082">
        <ele>83.408584594727</ele>
        <time>2015-09-13T07:50:45.000Z</time>
      </trkpt>
      <trkpt lat="49.19788" lon="1.6608">
        <ele>83.818748474121</ele>
        <time>2015-09-13T07:50:48.000Z</time>
      </trkpt>
      <trkpt lat="49.19783" lon="1.6608">
        <ele>84.269439697266</ele>
        <time>2015-09-13T07:50:52.000Z</time>
      </trkpt>
      <trkpt lat="49.1978" lon="1.66079">
        <ele>84.660018920898</ele>
        <time>2015-09-13T07:50:53.000Z</time>
      </trkpt>
      <trkpt lat="49.19777" lon="1.6608">
        <ele>85.010498046875</ele>
        <time>2015-09-13T07:50:55.000Z</time>
      </trkpt>
      <trkpt lat="49.1977" lon="1.66083">
        <ele>85.411727905273</ele>
        <time>2015-09-13T07:50:58.000Z</time>
      </trkpt>
      <trkpt lat="49.19764" lon="1.66086">
        <ele>85.858360290527</ele>
        <time>2015-09-13T07:51:01.000Z</time>
      </trkpt>
      <trkpt lat="49.19759" lon="1.66087">
        <ele>86.276390075684</ele>
        <time>2015-09-13T07:51:03.000Z</time>
      </trkpt>
      <trkpt lat="49.19756" lon="1.66088">
        <ele>86.708076477051</ele>
        <time>2015-09-13T07:51:05.000Z</time>
      </trkpt>
      <trkpt lat="49.19754" lon="1.66088">
        <ele>87.118667602539</ele>
        <time>2015-09-13T07:51:08.000Z</time>
      </trkpt>
      <trkpt lat="49.19754" lon="1.66088">
        <ele>87.118667602539</ele>
        <time>2015-09-13T07:51:18.000Z</time>
      </trkpt>
      <trkpt lat="49.19751" lon="1.66084">
        <ele>87.458503723145</ele>
        <time>2015-09-13T07:51:32.000Z</time>
      </trkpt>
      <trkpt lat="49.1975" lon="1.66079">
        <ele>87.662178039551</ele>
        <time>2015-09-13T07:51:34.000Z</time>
      </trkpt>
      <trkpt lat="49.1975" lon="1.66079">
        <ele>87.662178039551</ele>
        <time>2015-09-13T07:51:45.000Z</time>
      </trkpt>
      <trkpt lat="49.19751" lon="1.66086">
        <ele>87.795181274414</ele>
        <time>2015-09-13T07:51:57.000Z</time>
      </trkpt>
      <trkpt lat="49.19751" lon="1.66086">
        <ele>87.795181274414</ele>
        <time>2015-09-13T07:52:08.000Z</time>
      </trkpt>
      <trkpt lat="49.19756" lon="1.66088">
        <ele>87.782371520996</ele>
        <time>2015-09-13T07:52:25.000Z</time>
      </trkpt>
      <trkpt lat="49.19756" lon="1.66088">
        <ele>87.782371520996</ele>
        <time>2015-09-13T07:52:35.000Z</time>
      </trkpt>
      <trkpt lat="49.19757" lon="1.66091">
        <ele>87.725509643555</ele>
        <time>2015-09-13T07:52:37.000Z</time>
      </trkpt>
      <trkpt lat="49.19757" lon="1.66091">
        <ele>87.725509643555</ele>
        <time>2015-09-13T07:52:47.000Z</time>
      </trkpt>
      <trkpt lat="49.19758" lon="1.66092">
        <ele>87.610656738281</ele>
        <time>2015-09-13T07:52:49.000Z</time>
      </trkpt>
      <trkpt lat="49.19757" lon="1.66092">
        <ele>87.51976776123</ele>
        <time>2015-09-13T07:52:52.000Z</time>
      </trkpt>
      <trkpt lat="49.19757" lon="1.66092">
        <ele>87.51976776123</ele>
        <time>2015-09-13T07:53:02.000Z</time>
      </trkpt>
      <trkpt lat="49.19757" lon="1.66093">
        <ele>87.431793212891</ele>
        <time>2015-09-13T07:53:08.000Z</time>
      </trkpt>
      <trkpt lat="49.19757" lon="1.66093">
        <ele>87.431793212891</ele>
        <time>2015-09-13T07:53:18.000Z</time>
      </trkpt>
      <trkpt lat="49.19758" lon="1.66094">
        <ele>87.410453796387</ele>
        <time>2015-09-13T07:53:57.000Z</time>
      </trkpt>
      <trkpt lat="49.19757" lon="1.66092">
        <ele>87.417442321777</ele>
        <time>2015-09-13T07:54:07.000Z</time>
      </trkpt>
      <trkpt lat="49.19758" lon="1.66091">
        <ele>87.409523010254</ele>
        <time>2015-09-13T07:54:11.000Z</time>
      </trkpt>
      <trkpt lat="49.19758" lon="1.66091">
        <ele>87.409523010254</ele>
        <time>2015-09-13T07:54:21.000Z</time>
      </trkpt>
      <trkpt lat="49.19757" lon="1.66093">
        <ele>87.404174804688</ele>
        <time>2015-09-13T07:54:31.000Z</time>
      </trkpt>
      <trkpt lat="49.19757" lon="1.66093">
        <ele>87.404174804688</ele>
        <time>2015-09-13T07:54:41.000Z</time>
      </trkpt>
      <trkpt lat="49.19757" lon="1.66093">
        <ele>87.410423278809</ele>
        <time>2015-09-13T07:54:46.000Z</time>
      </trkpt>
      <trkpt lat="49.19757" lon="1.66093">
        <ele>87.410423278809</ele>
        <time>2015-09-13T07:54:56.000Z</time>
      </trkpt>
      <trkpt lat="49.19756" lon="1.66093">
        <ele>87.447929382324</ele>
        <time>2015-09-13T07:54:58.000Z</time>
      </trkpt>
      <trkpt lat="49.19757" lon="1.66092">
        <ele>87.448402404785</ele>
        <time>2015-09-13T07:55:05.000Z</time>
      </trkpt>
      <trkpt lat="49.19757" lon="1.66092">
        <ele>87.448402404785</ele>
        <time>2015-09-13T07:55:15.000Z</time>
      </trkpt>
      <trkpt lat="49.19756" lon="1.66091">
        <ele>87.480651855469</ele>
        <time>2015-09-13T07:55:18.000Z</time>
      </trkpt>
      <trkpt lat="49.19756" lon="1.66089">
        <ele>87.503341674805</ele>
        <time>2015-09-13T07:55:21.000Z</time>
      </trkpt>
      <trkpt lat="49.19756" lon="1.66087">
        <ele>87.505554199219</ele>
        <time>2015-09-13T07:55:28.000Z</time>
      </trkpt>
      <trkpt lat="49.19757" lon="1.66087">
        <ele>87.474960327148</ele>
        <time>2015-09-13T07:55:31.000Z</time>
      </trkpt>
      <trkpt lat="49.19758" lon="1.66088">
        <ele>87.451866149902</ele>
        <time>2015-09-13T07:55:34.000Z</time>
      </trkpt>
      <trkpt lat="49.19758" lon="1.6609">
        <ele>87.425071716309</ele>
        <time>2015-09-13T07:55:36.000Z</time>
      </trkpt>
      <trkpt lat="49.19757" lon="1.66092">
        <ele>87.40111541748</ele>
        <time>2015-09-13T07:55:45.000Z</time>
      </trkpt>
      <trkpt lat="49.19757" lon="1.66092">
        <ele>87.40111541748</ele>
        <time>2015-09-13T07:55:55.000Z</time>
      </trkpt>
      <trkpt lat="49.19757" lon="1.66093">
        <ele>87.386024475098</ele>
        <time>2015-09-13T07:56:10.000Z</time>
      </trkpt>
      <trkpt lat="49.19757" lon="1.66093">
        <ele>87.386024475098</ele>
        <time>2015-09-13T07:56:20.000Z</time>
      </trkpt>
      <trkpt lat="49.19757" lon="1.66093">
        <ele>87.397857666016</ele>
        <time>2015-09-13T07:56:25.000Z</time>
      </trkpt>
      <trkpt lat="49.19756" lon="1.66091">
        <ele>87.433212280273</ele>
        <time>2015-09-13T07:56:27.000Z</time>
      </trkpt>
      <trkpt lat="49.19756" lon="1.66089">
        <ele>87.47216796875</ele>
        <time>2015-09-13T07:56:29.000Z</time>
      </trkpt>
      <trkpt lat="49.19755" lon="1.66086">
        <ele>87.50789642334</ele>
        <time>2015-09-13T07:56:32.000Z</time>
      </trkpt>
      <trkpt lat="49.19754" lon="1.66085">
        <ele>87.561882019043</ele>
        <time>2015-09-13T07:56:33.000Z</time>
      </trkpt>
      <trkpt lat="49.19751" lon="1.66083">
        <ele>87.649307250977</ele>
        <time>2015-09-13T07:56:36.000Z</time>
      </trkpt>
      <trkpt lat="49.19749" lon="1.66082">
        <ele>87.740562438965</ele>
        <time>2015-09-13T07:56:38.000Z</time>
      </trkpt>
      <trkpt lat="49.19748" lon="1.6608">
        <ele>87.811859130859</ele>
        <time>2015-09-13T07:56:40.000Z</time>
      </trkpt>
      <trkpt lat="49.19748" lon="1.6608">
        <ele>87.811859130859</ele>
        <time>2015-09-13T07:56:50.000Z</time>
      </trkpt>
      <trkpt lat="49.19747" lon="1.66078">
        <ele>87.872055053711</ele>
        <time>2015-09-13T07:57:03.000Z</time>
      </trkpt>
      <trkpt lat="49.19744" lon="1.66078">
        <ele>87.911911010742</ele>
        <time>2015-09-13T07:57:05.000Z</time>
      </trkpt>
      <trkpt lat="49.1974" lon="1.66079">
        <ele>87.911743164062</ele>
        <time>2015-09-13T07:57:08.000Z</time>
      </trkpt>
      <trkpt lat="49.19735" lon="1.66079">
        <ele>87.902793884277</ele>
        <time>2015-09-13T07:57:11.000Z</time>
      </trkpt>
      <trkpt lat="49.19731" lon="1.66078">
        <ele>87.902206420898</ele>
        <time>2015-09-13T07:57:14.000Z</time>
      </trkpt>
      <trkpt lat="49.19727" lon="1.6608">
        <ele>87.916030883789</ele>
        <time>2015-09-13T07:57:16.000Z</time>
      </trkpt>
      <trkpt lat="49.19723" lon="1.66081">
        <ele>87.934326171875</ele>
        <time>2015-09-13T07:57:18.000Z</time>
      </trkpt>
      <trkpt lat="49.19717" lon="1.66085">
        <ele>87.943252563477</ele>
        <time>2015-09-13T07:57:21.000Z</time>
      </trkpt>
      <trkpt lat="49.19714" lon="1.66089">
        <ele>87.934898376465</ele>
        <time>2015-09-13T07:57:23.000Z</time>
      </trkpt>
      <trkpt lat="49.19705" lon="1.661">
        <ele>87.867164611816</ele>
        <time>2015-09-13T07:57:26.000Z</time>
      </trkpt>
      <trkpt lat="49.19701" lon="1.66107">
        <ele>87.743850708008</ele>
        <time>2015-09-13T07:57:28.000Z</time>
      </trkpt>
      <trkpt lat="49.19696" lon="1.66126">
        <ele>87.483688354492</ele>
        <time>2015-09-13T07:57:31.000Z</time>
      </trkpt>
      <trkpt lat="49.19693" lon="1.6614">
        <ele>87.117858886719</ele>
        <time>2015-09-13T07:57:33.000Z</time>
      </trkpt>
      <trkpt lat="49.19691" lon="1.66165">
        <ele>86.588539123535</ele>
        <time>2015-09-13T07:57:36.000Z</time>
      </trkpt>
      <trkpt lat="49.1969" lon="1.66188">
        <ele>85.861999511719</ele>
        <time>2015-09-13T07:57:39.000Z</time>
      </trkpt>
      <trkpt lat="49.1969" lon="1.66205">
        <ele>84.991554260254</ele>
        <time>2015-09-13T07:57:41.000Z</time>
      </trkpt>
      <trkpt lat="49.19692" lon="1.66236">
        <ele>83.940986633301</ele>
        <time>2015-09-13T07:57:45.000Z</time>
      </trkpt>
      <trkpt lat="49.19694" lon="1.66253">
        <ele>82.788482666016</ele>
        <time>2015-09-13T07:57:46.000Z</time>
      </trkpt>
      <trkpt lat="49.19698" lon="1.66272">
        <ele>81.521057128906</ele>
        <time>2015-09-13T07:57:49.000Z</time>
      </trkpt>
      <trkpt lat="49.19698" lon="1.66281">
        <ele>80.372573852539</ele>
        <time>2015-09-13T07:57:51.000Z</time>
      </trkpt>
      <trkpt lat="49.19696" lon="1.66292">
        <ele>79.206207275391</ele>
        <time>2015-09-13T07:57:54.000Z</time>
      </trkpt>
      <trkpt lat="49.19681" lon="1.66296">
        <ele>78.221130371094</ele>
        <time>2015-09-13T07:57:57.000Z</time>
      </trkpt>
      <trkpt lat="49.19659" lon="1.66295">
        <ele>77.294868469238</ele>
        <time>2015-09-13T07:58:01.000Z</time>
      </trkpt>
      <trkpt lat="49.19636" lon="1.66294">
        <ele>76.418075561523</ele>
        <time>2015-09-13T07:58:03.000Z</time>
      </trkpt>
      <trkpt lat="49.19614" lon="1.6629">
        <ele>75.475143432617</ele>
        <time>2015-09-13T07:58:06.000Z</time>
      </trkpt>
      <trkpt lat="49.19594" lon="1.66284">
        <ele>74.604606628418</ele>
        <time>2015-09-13T07:58:09.000Z</time>
      </trkpt>
      <trkpt lat="49.19579" lon="1.6628">
        <ele>73.718460083008</ele>
        <time>2015-09-13T07:58:12.000Z</time>
      </trkpt>
      <trkpt lat="49.19556" lon="1.66274">
        <ele>72.621505737305</ele>
        <time>2015-09-13T07:58:14.000Z</time>
      </trkpt>
      <trkpt lat="49.19536" lon="1.66269">
        <ele>71.468612670898</ele>
        <time>2015-09-13T07:58:16.000Z</time>
      </trkpt>
      <trkpt lat="49.19513" lon="1.66265">
        <ele>70.143997192383</ele>
        <time>2015-09-13T07:58:18.000Z</time>
      </trkpt>
      <trkpt lat="49.19489" lon="1.6626">
        <ele>68.633140563965</ele>
        <time>2015-09-13T07:58:20.000Z</time>
      </trkpt>
      <trkpt lat="49.19453" lon="1.66251">
        <ele>66.921920776367</ele>
        <time>2015-09-13T07:58:23.000Z</time>
      </trkpt>
      <trkpt lat="49.19418" lon="1.66244">
        <ele>65.210334777832</ele>
        <time>2015-09-13T07:58:26.000Z</time>
      </trkpt>
      <trkpt lat="49.19397" lon="1.66239">
        <ele>63.720634460449</ele>
        <time>2015-09-13T07:58:29.000Z</time>
      </trkpt>
      <trkpt lat="49.19367" lon="1.66233">
        <ele>62.496318817139</ele>
        <time>2015-09-13T07:58:31.000Z</time>
      </trkpt>
      <trkpt lat="49.19346" lon="1.66229">
        <ele>61.507270812988</ele>
        <time>2015-09-13T07:58:33.000Z</time>
      </trkpt>
      <trkpt lat="49.19315" lon="1.66221">
        <ele>60.719734191895</ele>
        <time>2015-09-13T07:58:36.000Z</time>
      </trkpt>
      <trkpt lat="49.19294" lon="1.66216">
        <ele>60.156841278076</ele>
        <time>2015-09-13T07:58:38.000Z</time>
      </trkpt>
      <trkpt lat="49.19265" lon="1.6621">
        <ele>59.44896697998</ele>
        <time>2015-09-13T07:58:41.000Z</time>
      </trkpt>
      <trkpt lat="49.19237" lon="1.66204">
        <ele>58.605415344238</ele>
        <time>2015-09-13T07:58:44.000Z</time>
      </trkpt>
      <trkpt lat="49.19209" lon="1.66196">
        <ele>57.612499237061</ele>
        <time>2015-09-13T07:58:47.000Z</time>
      </trkpt>
      <trkpt lat="49.19177" lon="1.66186">
        <ele>56.473838806152</ele>
        <time>2015-09-13T07:58:50.000Z</time>
      </trkpt>
      <trkpt lat="49.19146" lon="1.66178">
        <ele>55.204936981201</ele>
        <time>2015-09-13T07:58:53.000Z</time>
      </trkpt>
      <trkpt lat="49.19116" lon="1.6617">
        <ele>53.937225341797</ele>
        <time>2015-09-13T07:58:57.000Z</time>
      </trkpt>
      <trkpt lat="49.19087" lon="1.66159">
        <ele>52.70556640625</ele>
        <time>2015-09-13T07:58:59.000Z</time>
      </trkpt>
      <trkpt lat="49.19056" lon="1.66144">
        <ele>51.422992706299</ele>
        <time>2015-09-13T07:59:02.000Z</time>
      </trkpt>
      <trkpt lat="49.19028" lon="1.66127">
        <ele>50.167751312256</ele>
        <time>2015-09-13T07:59:05.000Z</time>
      </trkpt>
      <trkpt lat="49.19001" lon="1.66115">
        <ele>48.927368164062</ele>
        <time>2015-09-13T07:59:08.000Z</time>
      </trkpt>
      <trkpt lat="49.18981" lon="1.66101">
        <ele>48.048770904541</ele>
        <time>2015-09-13T07:59:11.000Z</time>
      </trkpt>
      <trkpt lat="49.18967" lon="1.66091">
        <ele>47.499671936035</ele>
        <time>2015-09-13T07:59:14.000Z</time>
      </trkpt>
      <trkpt lat="49.18957" lon="1.66083">
        <ele>47.321983337402</ele>
        <time>2015-09-13T07:59:16.000Z</time>
      </trkpt>
      <trkpt lat="49.18949" lon="1.66077">
        <ele>47.478527069092</ele>
        <time>2015-09-13T07:59:19.000Z</time>
      </trkpt>
      <trkpt lat="49.18938" lon="1.6607">
        <ele>47.972290039062</ele>
        <time>2015-09-13T07:59:21.000Z</time>
      </trkpt>
      <trkpt lat="49.18932" lon="1.66067">
        <ele>48.374145507812</ele>
        <time>2015-09-13T07:59:23.000Z</time>
      </trkpt>
      <trkpt lat="49.18926" lon="1.66064">
        <ele>48.698364257812</ele>
        <time>2015-09-13T07:59:25.000Z</time>
      </trkpt>
      <trkpt lat="49.18916" lon="1.66057">
        <ele>49.017650604248</ele>
        <time>2015-09-13T07:59:29.000Z</time>
      </trkpt>
      <trkpt lat="49.18909" lon="1.6605">
        <ele>49.38402557373</ele>
        <time>2015-09-13T07:59:31.000Z</time>
      </trkpt>
      <trkpt lat="49.18902" lon="1.66045">
        <ele>49.768981933594</ele>
        <time>2015-09-13T07:59:34.000Z</time>
      </trkpt>
      <trkpt lat="49.18895" lon="1.66039">
        <ele>50.21720123291</ele>
        <time>2015-09-13T07:59:35.000Z</time>
      </trkpt>
      <trkpt lat="49.18885" lon="1.66031">
        <ele>50.770812988281</ele>
        <time>2015-09-13T07:59:38.000Z</time>
      </trkpt>
      <trkpt lat="49.18876" lon="1.66023">
        <ele>51.393218994141</ele>
        <time>2015-09-13T07:59:41.000Z</time>
      </trkpt>
      <trkpt lat="49.18869" lon="1.66017">
        <ele>52.020946502686</ele>
        <time>2015-09-13T07:59:44.000Z</time>
      </trkpt>
      <trkpt lat="49.18861" lon="1.6601">
        <ele>52.670692443848</ele>
        <time>2015-09-13T07:59:47.000Z</time>
      </trkpt>
      <trkpt lat="49.18856" lon="1.66007">
        <ele>53.303504943848</ele>
        <time>2015-09-13T07:59:49.000Z</time>
      </trkpt>
      <trkpt lat="49.1885" lon="1.66003">
        <ele>53.87589263916</ele>
        <time>2015-09-13T07:59:51.000Z</time>
      </trkpt>
      <trkpt lat="49.18842" lon="1.65997">
        <ele>54.427143096924</ele>
        <time>2015-09-13T07:59:54.000Z</time>
      </trkpt>
      <trkpt lat="49.18837" lon="1.65993">
        <ele>54.924743652344</ele>
        <time>2015-09-13T07:59:56.000Z</time>
      </trkpt>
      <trkpt lat="49.18831" lon="1.65991">
        <ele>55.354999542236</ele>
        <time>2015-09-13T07:59:58.000Z</time>
      </trkpt>
      <trkpt lat="49.18826" lon="1.65988">
        <ele>55.706615447998</ele>
        <time>2015-09-13T08:00:00.000Z</time>
      </trkpt>
      <trkpt lat="49.18819" lon="1.65984">
        <ele>55.999580383301</ele>
        <time>2015-09-13T08:00:03.000Z</time>
      </trkpt>
      <trkpt lat="49.18812" lon="1.6598">
        <ele>56.198509216309</ele>
        <time>2015-09-13T08:00:06.000Z</time>
      </trkpt>
      <trkpt lat="49.18805" lon="1.65976">
        <ele>56.36869430542</ele>
        <time>2015-09-13T08:00:09.000Z</time>
      </trkpt>
      <trkpt lat="49.18799" lon="1.65974">
        <ele>56.510814666748</ele>
        <time>2015-09-13T08:00:11.000Z</time>
      </trkpt>
      <trkpt lat="49.18793" lon="1.65971">
        <ele>56.672691345215</ele>
        <time>2015-09-13T08:00:13.000Z</time>
      </trkpt>
      <trkpt lat="49.18788" lon="1.65969">
        <ele>56.840473175049</ele>
        <time>2015-09-13T08:00:16.000Z</time>
      </trkpt>
      <trkpt lat="49.1878" lon="1.65966">
        <ele>57.035175323486</ele>
        <time>2015-09-13T08:00:19.000Z</time>
      </trkpt>
      <trkpt lat="49.18776" lon="1.65963">
        <ele>57.229301452637</ele>
        <time>2015-09-13T08:00:21.000Z</time>
      </trkpt>
      <trkpt lat="49.18771" lon="1.65961">
        <ele>57.438011169434</ele>
        <time>2015-09-13T08:00:23.000Z</time>
      </trkpt>
      <trkpt lat="49.18763" lon="1.65957">
        <ele>57.681831359863</ele>
        <time>2015-09-13T08:00:27.000Z</time>
      </trkpt>
      <trkpt lat="49.18758" lon="1.65955">
        <ele>57.942302703857</ele>
        <time>2015-09-13T08:00:28.000Z</time>
      </trkpt>
      <trkpt lat="49.18753" lon="1.65953">
        <ele>58.193744659424</ele>
        <time>2015-09-13T08:00:30.000Z</time>
      </trkpt>
      <trkpt lat="49.18748" lon="1.6595">
        <ele>58.457817077637</ele>
        <time>2015-09-13T08:00:33.000Z</time>
      </trkpt>
      <trkpt lat="49.1874" lon="1.65947">
        <ele>58.723552703857</ele>
        <time>2015-09-13T08:00:35.000Z</time>
      </trkpt>
      <trkpt lat="49.18733" lon="1.65944">
        <ele>58.959373474121</ele>
        <time>2015-09-13T08:00:38.000Z</time>
      </trkpt>
      <trkpt lat="49.18727" lon="1.65942">
        <ele>59.177417755127</ele>
        <time>2015-09-13T08:00:40.000Z</time>
      </trkpt>
      <trkpt lat="49.18719" lon="1.65939">
        <ele>59.398933410645</ele>
        <time>2015-09-13T08:00:43.000Z</time>
      </trkpt>
      <trkpt lat="49.18712" lon="1.65935">
        <ele>59.627605438232</ele>
        <time>2015-09-13T08:00:46.000Z</time>
      </trkpt>
      <trkpt lat="49.18708" lon="1.65933">
        <ele>59.854454040527</ele>
        <time>2015-09-13T08:00:49.000Z</time>
      </trkpt>
      <trkpt lat="49.187" lon="1.65929">
        <ele>60.112312316895</ele>
        <time>2015-09-13T08:00:51.000Z</time>
      </trkpt>
      <trkpt lat="49.18695" lon="1.65926">
        <ele>60.385887145996</ele>
        <time>2015-09-13T08:00:53.000Z</time>
      </trkpt>
      <trkpt lat="49.18687" lon="1.65922">
        <ele>60.684692382812</ele>
        <time>2015-09-13T08:00:56.000Z</time>
      </trkpt>
      <trkpt lat="49.18681" lon="1.6592">
        <ele>60.977638244629</ele>
        <time>2015-09-13T08:00:58.000Z</time>
      </trkpt>
      <trkpt lat="49.18676" lon="1.65917">
        <ele>61.275825500488</ele>
        <time>2015-09-13T08:01:00.000Z</time>
      </trkpt>
      <trkpt lat="49.18668" lon="1.65914">
        <ele>61.579414367676</ele>
        <time>2015-09-13T08:01:03.000Z</time>
      </trkpt>
      <trkpt lat="49.18658" lon="1.65909">
        <ele>61.860862731934</ele>
        <time>2015-09-13T08:01:06.000Z</time>
      </trkpt>
      <trkpt lat="49.18652" lon="1.65906">
        <ele>62.075122833252</ele>
        <time>2015-09-13T08:01:08.000Z</time>
      </trkpt>
      <trkpt lat="49.18643" lon="1.65902">
        <ele>62.254711151123</ele>
        <time>2015-09-13T08:01:11.000Z</time>
      </trkpt>
      <trkpt lat="49.18634" lon="1.65898">
        <ele>62.39769744873</ele>
        <time>2015-09-13T08:01:14.000Z</time>
      </trkpt>
      <trkpt lat="49.18627" lon="1.65895">
        <ele>62.476867675781</ele>
        <time>2015-09-13T08:01:16.000Z</time>
      </trkpt>
      <trkpt lat="49.18621" lon="1.65892">
        <ele>62.544677734375</ele>
        <time>2015-09-13T08:01:18.000Z</time>
      </trkpt>
      <trkpt lat="49.18613" lon="1.65887">
        <ele>62.629455566406</ele>
        <time>2015-09-13T08:01:21.000Z</time>
      </trkpt>
      <trkpt lat="49.18603" lon="1.65881">
        <ele>62.736938476562</ele>
        <time>2015-09-13T08:01:24.000Z</time>
      </trkpt>
      <trkpt lat="49.18596" lon="1.65878">
        <ele>62.845153808594</ele>
        <time>2015-09-13T08:01:26.000Z</time>
      </trkpt>
      <trkpt lat="49.18586" lon="1.65874">
        <ele>62.956481933594</ele>
        <time>2015-09-13T08:01:29.000Z</time>
      </trkpt>
      <trkpt lat="49.18579" lon="1.6587">
        <ele>63.07674407959</ele>
        <time>2015-09-13T08:01:31.000Z</time>
      </trkpt>
      <trkpt lat="49.1857" lon="1.65865">
        <ele>63.221302032471</ele>
        <time>2015-09-13T08:01:34.000Z</time>
      </trkpt>
      <trkpt lat="49.18564" lon="1.65862">
        <ele>63.360729217529</ele>
        <time>2015-09-13T08:01:36.000Z</time>
      </trkpt>
      <trkpt lat="49.18556" lon="1.65857">
        <ele>63.539405822754</ele>
        <time>2015-09-13T08:01:39.000Z</time>
      </trkpt>
      <trkpt lat="49.18551" lon="1.65854">
        <ele>63.738647460938</ele>
        <time>2015-09-13T08:01:41.000Z</time>
      </trkpt>
      <trkpt lat="49.18546" lon="1.65851">
        <ele>63.943542480469</ele>
        <time>2015-09-13T08:01:43.000Z</time>
      </trkpt>
      <trkpt lat="49.18544" lon="1.65841">
        <ele>64.227905273438</ele>
        <time>2015-09-13T08:01:47.000Z</time>
      </trkpt>
      <trkpt lat="49.18548" lon="1.65838">
        <ele>64.524536132812</ele>
        <time>2015-09-13T08:01:48.000Z</time>
      </trkpt>
      <trkpt lat="49.18554" lon="1.65834">
        <ele>64.842834472656</ele>
        <time>2015-09-13T08:01:51.000Z</time>
      </trkpt>
      <trkpt lat="49.18559" lon="1.65831">
        <ele>65.192810058594</ele>
        <time>2015-09-13T08:01:53.000Z</time>
      </trkpt>
      <trkpt lat="49.18563" lon="1.65826">
        <ele>65.596069335938</ele>
        <time>2015-09-13T08:01:55.000Z</time>
      </trkpt>
      <trkpt lat="49.18567" lon="1.6582">
        <ele>65.947937011719</ele>
        <time>2015-09-13T08:01:57.000Z</time>
      </trkpt>
      <trkpt lat="49.18573" lon="1.65813">
        <ele>66.373168945312</ele>
        <time>2015-09-13T08:02:00.000Z</time>
      </trkpt>
      <trkpt lat="49.18578" lon="1.65806">
        <ele>66.843505859375</ele>
        <time>2015-09-13T08:02:03.000Z</time>
      </trkpt>
      <trkpt lat="49.18584" lon="1.65799">
        <ele>67.363586425781</ele>
        <time>2015-09-13T08:02:06.000Z</time>
      </trkpt>
      <trkpt lat="49.18588" lon="1.65795">
        <ele>67.873199462891</ele>
        <time>2015-09-13T08:02:08.000Z</time>
      </trkpt>
      <trkpt lat="49.18594" lon="1.65789">
        <ele>68.405944824219</ele>
        <time>2015-09-13T08:02:11.000Z</time>
      </trkpt>
      <trkpt lat="49.18599" lon="1.65782">
        <ele>68.926887512207</ele>
        <time>2015-09-13T08:02:14.000Z</time>
      </trkpt>
      <trkpt lat="49.18603" lon="1.65778">
        <ele>69.403968811035</ele>
        <time>2015-09-13T08:02:16.000Z</time>
      </trkpt>
      <trkpt lat="49.18605" lon="1.65774">
        <ele>69.826072692871</ele>
        <time>2015-09-13T08:02:18.000Z</time>
      </trkpt>
      <trkpt lat="49.18609" lon="1.6577">
        <ele>70.24560546875</ele>
        <time>2015-09-13T08:02:21.000Z</time>
      </trkpt>
      <trkpt lat="49.18613" lon="1.65763">
        <ele>70.666313171387</ele>
        <time>2015-09-13T08:02:24.000Z</time>
      </trkpt>
      <trkpt lat="49.18616" lon="1.65759">
        <ele>71.040832519531</ele>
        <time>2015-09-13T08:02:27.000Z</time>
      </trkpt>
      <trkpt lat="49.1862" lon="1.65753">
        <ele>71.423805236816</ele>
        <time>2015-09-13T08:02:30.000Z</time>
      </trkpt>
      <trkpt lat="49.18623" lon="1.65747">
        <ele>71.84049987793</ele>
        <time>2015-09-13T08:02:32.000Z</time>
      </trkpt>
      <trkpt lat="49.18628" lon="1.65741">
        <ele>72.290237426758</ele>
        <time>2015-09-13T08:02:35.000Z</time>
      </trkpt>
      <trkpt lat="49.18629" lon="1.65738">
        <ele>72.677207946777</ele>
        <time>2015-09-13T08:02:37.000Z</time>
      </trkpt>
      <trkpt lat="49.18635" lon="1.65728">
        <ele>73.14412689209</ele>
        <time>2015-09-13T08:02:40.000Z</time>
      </trkpt>
      <trkpt lat="49.18638" lon="1.65725">
        <ele>73.57137298584</ele>
        <time>2015-09-13T08:02:42.000Z</time>
      </trkpt>
      <trkpt lat="49.18642" lon="1.65719">
        <ele>73.980567932129</ele>
        <time>2015-09-13T08:02:45.000Z</time>
      </trkpt>
      <trkpt lat="49.18644" lon="1.65711">
        <ele>74.389625549316</ele>
        <time>2015-09-13T08:02:48.000Z</time>
      </trkpt>
      <trkpt lat="49.18645" lon="1.65702">
        <ele>74.859512329102</ele>
        <time>2015-09-13T08:02:51.000Z</time>
      </trkpt>
      <trkpt lat="49.18646" lon="1.65698">
        <ele>75.24129486084</ele>
        <time>2015-09-13T08:02:53.000Z</time>
      </trkpt>
      <trkpt lat="49.18647" lon="1.65692">
        <ele>75.650108337402</ele>
        <time>2015-09-13T08:02:56.000Z</time>
      </trkpt>
      <trkpt lat="49.18646" lon="1.6569">
        <ele>76.003967285156</ele>
        <time>2015-09-13T08:02:58.000Z</time>
      </trkpt>
      <trkpt lat="49.18647" lon="1.65685">
        <ele>76.305397033691</ele>
        <time>2015-09-13T08:03:00.000Z</time>
      </trkpt>
      <trkpt lat="49.18647" lon="1.65678">
        <ele>76.595718383789</ele>
        <time>2015-09-13T08:03:03.000Z</time>
      </trkpt>
      <trkpt lat="49.18647" lon="1.65672">
        <ele>76.905265808105</ele>
        <time>2015-09-13T08:03:06.000Z</time>
      </trkpt>
      <trkpt lat="49.18647" lon="1.65667">
        <ele>77.213905334473</ele>
        <time>2015-09-13T08:03:09.000Z</time>
      </trkpt>
      <trkpt lat="49.18647" lon="1.6566">
        <ele>77.615509033203</ele>
        <time>2015-09-13T08:03:12.000Z</time>
      </trkpt>
      <trkpt lat="49.18647" lon="1.65655">
        <ele>78.04222869873</ele>
        <time>2015-09-13T08:03:14.000Z</time>
      </trkpt>
      <trkpt lat="49.18647" lon="1.65651">
        <ele>78.446517944336</ele>
        <time>2015-09-13T08:03:16.000Z</time>
      </trkpt>
      <trkpt lat="49.18647" lon="1.65645">
        <ele>78.881042480469</ele>
        <time>2015-09-13T08:03:19.000Z</time>
      </trkpt>
      <trkpt lat="49.18646" lon="1.65641">
        <ele>79.321502685547</ele>
        <time>2015-09-13T08:03:21.000Z</time>
      </trkpt>
      <trkpt lat="49.18645" lon="1.65638">
        <ele>79.710540771484</ele>
        <time>2015-09-13T08:03:23.000Z</time>
      </trkpt>
      <trkpt lat="49.18644" lon="1.6563">
        <ele>80.153167724609</ele>
        <time>2015-09-13T08:03:26.000Z</time>
      </trkpt>
      <trkpt lat="49.18644" lon="1.65624">
        <ele>80.649688720703</ele>
        <time>2015-09-13T08:03:29.000Z</time>
      </trkpt>
      <trkpt lat="49.18643" lon="1.65619">
        <ele>81.123840332031</ele>
        <time>2015-09-13T08:03:31.000Z</time>
      </trkpt>
      <trkpt lat="49.18641" lon="1.65612">
        <ele>81.653656005859</ele>
        <time>2015-09-13T08:03:34.000Z</time>
      </trkpt>
      <trkpt lat="49.1864" lon="1.65606">
        <ele>82.236419677734</ele>
        <time>2015-09-13T08:03:37.000Z</time>
      </trkpt>
      <trkpt lat="49.18639" lon="1.65603">
        <ele>82.756530761719</ele>
        <time>2015-09-13T08:03:39.000Z</time>
      </trkpt>
      <trkpt lat="49.18638" lon="1.656">
        <ele>83.214965820312</ele>
        <time>2015-09-13T08:03:41.000Z</time>
      </trkpt>
      <trkpt lat="49.18637" lon="1.65596">
        <ele>83.650817871094</ele>
        <time>2015-09-13T08:03:43.000Z</time>
      </trkpt>
      <trkpt lat="49.18636" lon="1.65593">
        <ele>84.024658203125</ele>
        <time>2015-09-13T08:03:45.000Z</time>
      </trkpt>
      <trkpt lat="49.18634" lon="1.65589">
        <ele>84.373352050781</ele>
        <time>2015-09-13T08:03:48.000Z</time>
      </trkpt>
      <trkpt lat="49.18632" lon="1.65585">
        <ele>84.728790283203</ele>
        <time>2015-09-13T08:03:51.000Z</time>
      </trkpt>
      <trkpt lat="49.1863" lon="1.65581">
        <ele>85.101745605469</ele>
        <time>2015-09-13T08:03:53.000Z</time>
      </trkpt>
      <trkpt lat="49.18629" lon="1.65576">
        <ele>85.51741027832</ele>
        <time>2015-09-13T08:03:56.000Z</time>
      </trkpt>
      <trkpt lat="49.18628" lon="1.65574">
        <ele>85.900436401367</ele>
        <time>2015-09-13T08:03:58.000Z</time>
      </trkpt>
      <trkpt lat="49.18626" lon="1.65569">
        <ele>86.285110473633</ele>
        <time>2015-09-13T08:04:00.000Z</time>
      </trkpt>
      <trkpt lat="49.18625" lon="1.65563">
        <ele>86.709251403809</ele>
        <time>2015-09-13T08:04:03.000Z</time>
      </trkpt>
      <trkpt lat="49.18624" lon="1.65558">
        <ele>87.132614135742</ele>
        <time>2015-09-13T08:04:06.000Z</time>
      </trkpt>
      <trkpt lat="49.18623" lon="1.65553">
        <ele>87.545204162598</ele>
        <time>2015-09-13T08:04:09.000Z</time>
      </trkpt>
      <trkpt lat="49.18621" lon="1.65549">
        <ele>87.987258911133</ele>
        <time>2015-09-13T08:04:11.000Z</time>
      </trkpt>
      <trkpt lat="49.18621" lon="1.65546">
        <ele>88.397514343262</ele>
        <time>2015-09-13T08:04:14.000Z</time>
      </trkpt>
      <trkpt lat="49.18619" lon="1.65541">
        <ele>88.782981872559</ele>
        <time>2015-09-13T08:04:16.000Z</time>
      </trkpt>
      <trkpt lat="49.18618" lon="1.65535">
        <ele>89.194389343262</ele>
        <time>2015-09-13T08:04:20.000Z</time>
      </trkpt>
      <trkpt lat="49.18616" lon="1.65532">
        <ele>89.576858520508</ele>
        <time>2015-09-13T08:04:21.000Z</time>
      </trkpt>
      <trkpt lat="49.18615" lon="1.65528">
        <ele>89.959999084473</ele>
        <time>2015-09-13T08:04:23.000Z</time>
      </trkpt>
      <trkpt lat="49.18613" lon="1.65525">
        <ele>90.338310241699</ele>
        <time>2015-09-13T08:04:26.000Z</time>
      </trkpt>
      <trkpt lat="49.1861" lon="1.6552">
        <ele>90.73136138916</ele>
        <time>2015-09-13T08:04:29.000Z</time>
      </trkpt>
      <trkpt lat="49.18608" lon="1.65516">
        <ele>91.102073669434</ele>
        <time>2015-09-13T08:04:34.000Z</time>
      </trkpt>
      <trkpt lat="49.18606" lon="1.65512">
        <ele>91.481872558594</ele>
        <time>2015-09-13T08:04:34.000Z</time>
      </trkpt>
      <trkpt lat="49.18603" lon="1.65509">
        <ele>91.861183166504</ele>
        <time>2015-09-13T08:04:35.000Z</time>
      </trkpt>
      <trkpt lat="49.186" lon="1.65505">
        <ele>92.259803771973</ele>
        <time>2015-09-13T08:04:38.000Z</time>
      </trkpt>
      <trkpt lat="49.18598" lon="1.65504">
        <ele>92.589653015137</ele>
        <time>2015-09-13T08:04:40.000Z</time>
      </trkpt>
      <trkpt lat="49.18595" lon="1.65501">
        <ele>92.906951904297</ele>
        <time>2015-09-13T08:04:44.000Z</time>
      </trkpt>
      <trkpt lat="49.18592" lon="1.655">
        <ele>93.192825317383</ele>
        <time>2015-09-13T08:04:45.000Z</time>
      </trkpt>
      <trkpt lat="49.18589" lon="1.65497">
        <ele>93.47550201416</ele>
        <time>2015-09-13T08:04:47.000Z</time>
      </trkpt>
      <trkpt lat="49.18586" lon="1.65493">
        <ele>93.769401550293</ele>
        <time>2015-09-13T08:04:50.000Z</time>
      </trkpt>
      <trkpt lat="49.18584" lon="1.65491">
        <ele>94.088394165039</ele>
        <time>2015-09-13T08:04:52.000Z</time>
      </trkpt>
      <trkpt lat="49.1858" lon="1.65488">
        <ele>94.367485046387</ele>
        <time>2015-09-13T08:04:54.000Z</time>
      </trkpt>
      <trkpt lat="49.18576" lon="1.65484">
        <ele>94.655776977539</ele>
        <time>2015-09-13T08:04:57.000Z</time>
      </trkpt>
      <trkpt lat="49.18573" lon="1.65481">
        <ele>94.915946960449</ele>
        <time>2015-09-13T08:05:01.000Z</time>
      </trkpt>
      <trkpt lat="49.18569" lon="1.65477">
        <ele>95.133392333984</ele>
        <time>2015-09-13T08:05:02.000Z</time>
      </trkpt>
      <trkpt lat="49.18567" lon="1.65474">
        <ele>95.311256408691</ele>
        <time>2015-09-13T08:05:04.000Z</time>
      </trkpt>
      <trkpt lat="49.18562" lon="1.6547">
        <ele>95.500900268555</ele>
        <time>2015-09-13T08:05:07.000Z</time>
      </trkpt>
      <trkpt lat="49.18557" lon="1.65464">
        <ele>95.700073242188</ele>
        <time>2015-09-13T08:05:10.000Z</time>
      </trkpt>
      <trkpt lat="49.18555" lon="1.65461">
        <ele>95.893272399902</ele>
        <time>2015-09-13T08:05:12.000Z</time>
      </trkpt>
      <trkpt lat="49.1855" lon="1.65455">
        <ele>96.101112365723</ele>
        <time>2015-09-13T08:05:15.000Z</time>
      </trkpt>
      <trkpt lat="49.18547" lon="1.6545">
        <ele>96.339149475098</ele>
        <time>2015-09-13T08:05:17.000Z</time>
      </trkpt>
      <trkpt lat="49.18544" lon="1.65444">
        <ele>96.601913452148</ele>
        <time>2015-09-13T08:05:19.000Z</time>
      </trkpt>
      <trkpt lat="49.18541" lon="1.65438">
        <ele>96.853698730469</ele>
        <time>2015-09-13T08:05:21.000Z</time>
      </trkpt>
      <trkpt lat="49.18536" lon="1.65431">
        <ele>97.141975402832</ele>
        <time>2015-09-13T08:05:24.000Z</time>
      </trkpt>
      <trkpt lat="49.18533" lon="1.65426">
        <ele>97.416893005371</ele>
        <time>2015-09-13T08:05:26.000Z</time>
      </trkpt>
      <trkpt lat="49.18531" lon="1.65421">
        <ele>97.691360473633</ele>
        <time>2015-09-13T08:05:28.000Z</time>
      </trkpt>
      <trkpt lat="49.18527" lon="1.65412">
        <ele>98.001091003418</ele>
        <time>2015-09-13T08:05:31.000Z</time>
      </trkpt>
      <trkpt lat="49.18523" lon="1.65403">
        <ele>98.395942687988</ele>
        <time>2015-09-13T08:05:34.000Z</time>
      </trkpt>
      <trkpt lat="49.18519" lon="1.65395">
        <ele>98.841285705566</ele>
        <time>2015-09-13T08:05:37.000Z</time>
      </trkpt>
      <trkpt lat="49.18516" lon="1.65386">
        <ele>99.370254516602</ele>
        <time>2015-09-13T08:05:40.000Z</time>
      </trkpt>
      <trkpt lat="49.18513" lon="1.65377">
        <ele>99.993728637695</ele>
        <time>2015-09-13T08:05:43.000Z</time>
      </trkpt>
      <trkpt lat="49.1851" lon="1.65366">
        <ele>100.69937896729</ele>
        <time>2015-09-13T08:05:46.000Z</time>
      </trkpt>
      <trkpt lat="49.18509" lon="1.6536">
        <ele>101.38488769531</ele>
        <time>2015-09-13T08:05:48.000Z</time>
      </trkpt>
      <trkpt lat="49.18508" lon="1.65351">
        <ele>102.10943603516</ele>
        <time>2015-09-13T08:05:51.000Z</time>
      </trkpt>
      <trkpt lat="49.18508" lon="1.65346">
        <ele>102.80628967285</ele>
        <time>2015-09-13T08:05:53.000Z</time>
      </trkpt>
      <trkpt lat="49.18509" lon="1.65339">
        <ele>103.50601959229</ele>
        <time>2015-09-13T08:05:56.000Z</time>
      </trkpt>
      <trkpt lat="49.18509" lon="1.65333">
        <ele>104.12976074219</ele>
        <time>2015-09-13T08:05:58.000Z</time>
      </trkpt>
      <trkpt lat="49.1851" lon="1.65327">
        <ele>104.70375823975</ele>
        <time>2015-09-13T08:06:00.000Z</time>
      </trkpt>
      <trkpt lat="49.1851" lon="1.65319">
        <ele>105.1978302002</ele>
        <time>2015-09-13T08:06:03.000Z</time>
      </trkpt>
      <trkpt lat="49.18508" lon="1.65309">
        <ele>105.67720794678</ele>
        <time>2015-09-13T08:06:06.000Z</time>
      </trkpt>
      <trkpt lat="49.18509" lon="1.65303">
        <ele>106.07120513916</ele>
        <time>2015-09-13T08:06:10.000Z</time>
      </trkpt>
      <trkpt lat="49.18508" lon="1.65294">
        <ele>106.44190979004</ele>
        <time>2015-09-13T08:06:11.000Z</time>
      </trkpt>
      <trkpt lat="49.1851" lon="1.65289">
        <ele>106.81294250488</ele>
        <time>2015-09-13T08:06:13.000Z</time>
      </trkpt>
      <trkpt lat="49.18509" lon="1.65283">
        <ele>107.1608505249</ele>
        <time>2015-09-13T08:06:15.000Z</time>
      </trkpt>
      <trkpt lat="49.1851" lon="1.65274">
        <ele>107.52668762207</ele>
        <time>2015-09-13T08:06:18.000Z</time>
      </trkpt>
      <trkpt lat="49.18507" lon="1.65263">
        <ele>107.90312194824</ele>
        <time>2015-09-13T08:06:21.000Z</time>
      </trkpt>
      <trkpt lat="49.18505" lon="1.65258">
        <ele>108.23811340332</ele>
        <time>2015-09-13T08:06:23.000Z</time>
      </trkpt>
      <trkpt lat="49.18504" lon="1.65245">
        <ele>108.58158874512</ele>
        <time>2015-09-13T08:06:26.000Z</time>
      </trkpt>
      <trkpt lat="49.18504" lon="1.65236">
        <ele>108.89366149902</ele>
        <time>2015-09-13T08:06:28.000Z</time>
      </trkpt>
      <trkpt lat="49.18507" lon="1.65225">
        <ele>109.15946960449</ele>
        <time>2015-09-13T08:06:31.000Z</time>
      </trkpt>
      <trkpt lat="49.18507" lon="1.65214">
        <ele>109.37866210938</ele>
        <time>2015-09-13T08:06:34.000Z</time>
      </trkpt>
      <trkpt lat="49.1851" lon="1.65202">
        <ele>109.60776519775</ele>
        <time>2015-09-13T08:06:37.000Z</time>
      </trkpt>
      <trkpt lat="49.18511" lon="1.65194">
        <ele>109.79998779297</ele>
        <time>2015-09-13T08:06:39.000Z</time>
      </trkpt>
      <trkpt lat="49.18511" lon="1.65183">
        <ele>109.99460601807</ele>
        <time>2015-09-13T08:06:42.000Z</time>
      </trkpt>
      <trkpt lat="49.1851" lon="1.65176">
        <ele>110.138671875</ele>
        <time>2015-09-13T08:06:44.000Z</time>
      </trkpt>
      <trkpt lat="49.1851" lon="1.65171">
        <ele>110.27490234375</ele>
        <time>2015-09-13T08:06:47.000Z</time>
      </trkpt>
      <trkpt lat="49.18512" lon="1.65158">
        <ele>110.44480133057</ele>
        <time>2015-09-13T08:06:50.000Z</time>
      </trkpt>
      <trkpt lat="49.18512" lon="1.65145">
        <ele>110.67297363281</ele>
        <time>2015-09-13T08:06:53.000Z</time>
      </trkpt>
      <trkpt lat="49.18514" lon="1.65132">
        <ele>110.98994445801</ele>
        <time>2015-09-13T08:06:57.000Z</time>
      </trkpt>
      <trkpt lat="49.18512" lon="1.65118">
        <ele>111.37929534912</ele>
        <time>2015-09-13T08:06:59.000Z</time>
      </trkpt>
      <trkpt lat="49.18511" lon="1.65107">
        <ele>111.81887054443</ele>
        <time>2015-09-13T08:07:01.000Z</time>
      </trkpt>
      <trkpt lat="49.18511" lon="1.65099">
        <ele>112.23980712891</ele>
        <time>2015-09-13T08:07:03.000Z</time>
      </trkpt>
      <trkpt lat="49.18517" lon="1.65086">
        <ele>112.70790863037</ele>
        <time>2015-09-13T08:07:06.000Z</time>
      </trkpt>
      <trkpt lat="49.18516" lon="1.65075">
        <ele>113.1549911499</ele>
        <time>2015-09-13T08:07:08.000Z</time>
      </trkpt>
      <trkpt lat="49.18516" lon="1.65058">
        <ele>113.66590881348</ele>
        <time>2015-09-13T08:07:11.000Z</time>
      </trkpt>
      <trkpt lat="49.18517" lon="1.65044">
        <ele>114.23748779297</ele>
        <time>2015-09-13T08:07:14.000Z</time>
      </trkpt>
      <trkpt lat="49.18515" lon="1.65028">
        <ele>114.84930419922</ele>
        <time>2015-09-13T08:07:17.000Z</time>
      </trkpt>
      <trkpt lat="49.18515" lon="1.65011">
        <ele>115.4641494751</ele>
        <time>2015-09-13T08:07:20.000Z</time>
      </trkpt>
      <trkpt lat="49.18514" lon="1.65003">
        <ele>116.05419921875</ele>
        <time>2015-09-13T08:07:22.000Z</time>
      </trkpt>
      <trkpt lat="49.18513" lon="1.64987">
        <ele>116.58628082275</ele>
        <time>2015-09-13T08:07:25.000Z</time>
      </trkpt>
      <trkpt lat="49.18513" lon="1.64973">
        <ele>117.08335113525</ele>
        <time>2015-09-13T08:07:28.000Z</time>
      </trkpt>
      <trkpt lat="49.18513" lon="1.6496">
        <ele>117.5520401001</ele>
        <time>2015-09-13T08:07:31.000Z</time>
      </trkpt>
      <trkpt lat="49.18513" lon="1.6495">
        <ele>117.93679046631</ele>
        <time>2015-09-13T08:07:33.000Z</time>
      </trkpt>
      <trkpt lat="49.18511" lon="1.64934">
        <ele>118.33724212646</ele>
        <time>2015-09-13T08:07:40.000Z</time>
      </trkpt>
      <trkpt lat="49.1851" lon="1.64925">
        <ele>118.69466400146</ele>
        <time>2015-09-13T08:07:40.000Z</time>
      </trkpt>
      <trkpt lat="49.18514" lon="1.64916">
        <ele>119.07182312012</ele>
        <time>2015-09-13T08:07:42.000Z</time>
      </trkpt>
      <trkpt lat="49.18515" lon="1.649">
        <ele>119.4125213623</ele>
        <time>2015-09-13T08:07:44.000Z</time>
      </trkpt>
      <trkpt lat="49.18514" lon="1.64881">
        <ele>119.7332611084</ele>
        <time>2015-09-13T08:07:47.000Z</time>
      </trkpt>
      <trkpt lat="49.18515" lon="1.64872">
        <ele>119.99973297119</ele>
        <time>2015-09-13T08:07:49.000Z</time>
      </trkpt>
      <trkpt lat="49.18513" lon="1.64861">
        <ele>120.23049163818</ele>
        <time>2015-09-13T08:07:52.000Z</time>
      </trkpt>
      <trkpt lat="49.18512" lon="1.64849">
        <ele>120.36122894287</ele>
        <time>2015-09-13T08:07:53.000Z</time>
      </trkpt>
      <trkpt lat="49.18512" lon="1.64832">
        <ele>120.48937988281</ele>
        <time>2015-09-13T08:07:56.000Z</time>
      </trkpt>
      <trkpt lat="49.18513" lon="1.64823">
        <ele>120.56687164307</ele>
        <time>2015-09-13T08:07:58.000Z</time>
      </trkpt>
      <trkpt lat="49.18514" lon="1.64813">
        <ele>120.62239837646</ele>
        <time>2015-09-13T08:08:00.000Z</time>
      </trkpt>
      <trkpt lat="49.18517" lon="1.648">
        <ele>120.6780166626</ele>
        <time>2015-09-13T08:08:04.000Z</time>
      </trkpt>
      <trkpt lat="49.18515" lon="1.6479">
        <ele>120.68244934082</ele>
        <time>2015-09-13T08:08:05.000Z</time>
      </trkpt>
      <trkpt lat="49.18517" lon="1.64782">
        <ele>120.65870666504</ele>
        <time>2015-09-13T08:08:07.000Z</time>
      </trkpt>
      <trkpt lat="49.18517" lon="1.6477">
        <ele>120.64140319824</ele>
        <time>2015-09-13T08:08:10.000Z</time>
      </trkpt>
      <trkpt lat="49.18521" lon="1.64765">
        <ele>120.67602539062</ele>
        <time>2015-09-13T08:08:12.000Z</time>
      </trkpt>
      <trkpt lat="49.18522" lon="1.64755">
        <ele>120.69825744629</ele>
        <time>2015-09-13T08:08:15.000Z</time>
      </trkpt>
      <trkpt lat="49.18523" lon="1.64743">
        <ele>120.77779388428</ele>
        <time>2015-09-13T08:08:18.000Z</time>
      </trkpt>
      <trkpt lat="49.18525" lon="1.6473">
        <ele>120.88890075684</ele>
        <time>2015-09-13T08:08:21.000Z</time>
      </trkpt>
      <trkpt lat="49.18526" lon="1.6472">
        <ele>121.02635192871</ele>
        <time>2015-09-13T08:08:23.000Z</time>
      </trkpt>
      <trkpt lat="49.1853" lon="1.64707">
        <ele>121.19639587402</ele>
        <time>2015-09-13T08:08:26.000Z</time>
      </trkpt>
      <trkpt lat="49.1853" lon="1.64695">
        <ele>121.3671875</ele>
        <time>2015-09-13T08:08:28.000Z</time>
      </trkpt>
      <trkpt lat="49.18528" lon="1.64676">
        <ele>121.50401306152</ele>
        <time>2015-09-13T08:08:31.000Z</time>
      </trkpt>
      <trkpt lat="49.18527" lon="1.64665">
        <ele>121.59313964844</ele>
        <time>2015-09-13T08:08:33.000Z</time>
      </trkpt>
      <trkpt lat="49.18526" lon="1.64652">
        <ele>121.68811035156</ele>
        <time>2015-09-13T08:08:37.000Z</time>
      </trkpt>
      <trkpt lat="49.18529" lon="1.64635">
        <ele>121.79856872559</ele>
        <time>2015-09-13T08:08:39.000Z</time>
      </trkpt>
      <trkpt lat="49.18528" lon="1.6462">
        <ele>121.94724273682</ele>
        <time>2015-09-13T08:08:41.000Z</time>
      </trkpt>
      <trkpt lat="49.18528" lon="1.64603">
        <ele>122.1580657959</ele>
        <time>2015-09-13T08:08:44.000Z</time>
      </trkpt>
      <trkpt lat="49.18526" lon="1.64588">
        <ele>122.40183258057</ele>
        <time>2015-09-13T08:08:47.000Z</time>
      </trkpt>
      <trkpt lat="49.18527" lon="1.64582">
        <ele>122.64721679688</ele>
        <time>2015-09-13T08:08:49.000Z</time>
      </trkpt>
      <trkpt lat="49.18527" lon="1.64569">
        <ele>122.83766937256</ele>
        <time>2015-09-13T08:08:52.000Z</time>
      </trkpt>
      <trkpt lat="49.18525" lon="1.64554">
        <ele>123.02577972412</ele>
        <time>2015-09-13T08:08:56.000Z</time>
      </trkpt>
      <trkpt lat="49.18525" lon="1.6454">
        <ele>123.22933197021</ele>
        <time>2015-09-13T08:08:58.000Z</time>
      </trkpt>
      <trkpt lat="49.1853" lon="1.64529">
        <ele>123.50650787354</ele>
        <time>2015-09-13T08:09:02.000Z</time>
      </trkpt>
      <trkpt lat="49.1853" lon="1.64519">
        <ele>123.79736328125</ele>
        <time>2015-09-13T08:09:03.000Z</time>
      </trkpt>
      <trkpt lat="49.18532" lon="1.64508">
        <ele>124.1008682251</ele>
        <time>2015-09-13T08:09:05.000Z</time>
      </trkpt>
      <trkpt lat="49.18533" lon="1.645">
        <ele>124.4252166748</ele>
        <time>2015-09-13T08:09:07.000Z</time>
      </trkpt>
      <trkpt lat="49.18534" lon="1.64492">
        <ele>124.70101165771</ele>
        <time>2015-09-13T08:09:09.000Z</time>
      </trkpt>
      <trkpt lat="49.18536" lon="1.64479">
        <ele>124.9093170166</ele>
        <time>2015-09-13T08:09:12.000Z</time>
      </trkpt>
      <trkpt lat="49.18539" lon="1.64467">
        <ele>125.12524414062</ele>
        <time>2015-09-13T08:09:15.000Z</time>
      </trkpt>
      <trkpt lat="49.18541" lon="1.6446">
        <ele>125.31634521484</ele>
        <time>2015-09-13T08:09:17.000Z</time>
      </trkpt>
      <trkpt lat="49.18541" lon="1.64455">
        <ele>125.448097229</ele>
        <time>2015-09-13T08:09:19.000Z</time>
      </trkpt>
      <trkpt lat="49.18542" lon="1.64443">
        <ele>125.60009765625</ele>
        <time>2015-09-13T08:09:22.000Z</time>
      </trkpt>
      <trkpt lat="49.18544" lon="1.64432">
        <ele>125.77309417725</ele>
        <time>2015-09-13T08:09:25.000Z</time>
      </trkpt>
      <trkpt lat="49.18546" lon="1.64421">
        <ele>125.94853210449</ele>
        <time>2015-09-13T08:09:28.000Z</time>
      </trkpt>
      <trkpt lat="49.18548" lon="1.64413">
        <ele>126.11950683594</ele>
        <time>2015-09-13T08:09:30.000Z</time>
      </trkpt>
      <trkpt lat="49.18549" lon="1.64393">
        <ele>126.28464508057</ele>
        <time>2015-09-13T08:09:33.000Z</time>
      </trkpt>
      <trkpt lat="49.18547" lon="1.64372">
        <ele>126.35744476318</ele>
        <time>2015-09-13T08:09:36.000Z</time>
      </trkpt>
      <trkpt lat="49.18546" lon="1.64359">
        <ele>126.33421325684</ele>
        <time>2015-09-13T08:09:38.000Z</time>
      </trkpt>
      <trkpt lat="49.18547" lon="1.64337">
        <ele>126.24269866943</ele>
        <time>2015-09-13T08:09:41.000Z</time>
      </trkpt>
      <trkpt lat="49.18547" lon="1.64322">
        <ele>126.10611724854</ele>
        <time>2015-09-13T08:09:43.000Z</time>
      </trkpt>
      <trkpt lat="49.18549" lon="1.64304">
        <ele>125.97592926025</ele>
        <time>2015-09-13T08:09:46.000Z</time>
      </trkpt>
      <trkpt lat="49.18549" lon="1.64287">
        <ele>125.87187194824</ele>
        <time>2015-09-13T08:09:49.000Z</time>
      </trkpt>
      <trkpt lat="49.18547" lon="1.64266">
        <ele>125.7417755127</ele>
        <time>2015-09-13T08:09:52.000Z</time>
      </trkpt>
      <trkpt lat="49.18545" lon="1.64254">
        <ele>125.59541320801</ele>
        <time>2015-09-13T08:09:54.000Z</time>
      </trkpt>
      <trkpt lat="49.18544" lon="1.6424">
        <ele>125.35041809082</ele>
        <time>2015-09-13T08:09:58.000Z</time>
      </trkpt>
      <trkpt lat="49.18542" lon="1.64224">
        <ele>124.93410491943</ele>
        <time>2015-09-13T08:10:01.000Z</time>
      </trkpt>
      <trkpt lat="49.18538" lon="1.64206">
        <ele>124.34265136719</ele>
        <time>2015-09-13T08:10:03.000Z</time>
      </trkpt>
      <trkpt lat="49.18537" lon="1.64191">
        <ele>123.66516113281</ele>
        <time>2015-09-13T08:10:06.000Z</time>
      </trkpt>
      <trkpt lat="49.18535" lon="1.64181">
        <ele>122.89904785156</ele>
        <time>2015-09-13T08:10:09.000Z</time>
      </trkpt>
      <trkpt lat="49.18531" lon="1.64164">
        <ele>122.05764007568</ele>
        <time>2015-09-13T08:10:11.000Z</time>
      </trkpt>
      <trkpt lat="49.18523" lon="1.64151">
        <ele>121.27186584473</ele>
        <time>2015-09-13T08:10:15.000Z</time>
      </trkpt>
      <trkpt lat="49.18515" lon="1.64141">
        <ele>120.59777832031</ele>
        <time>2015-09-13T08:10:16.000Z</time>
      </trkpt>
      <trkpt lat="49.18508" lon="1.64131">
        <ele>119.98557281494</ele>
        <time>2015-09-13T08:10:18.000Z</time>
      </trkpt>
      <trkpt lat="49.18494" lon="1.64112">
        <ele>119.27368164062</ele>
        <time>2015-09-13T08:10:21.000Z</time>
      </trkpt>
      <trkpt lat="49.18476" lon="1.64096">
        <ele>118.43882751465</ele>
        <time>2015-09-13T08:10:24.000Z</time>
      </trkpt>
      <trkpt lat="49.18457" lon="1.64075">
        <ele>117.54048919678</ele>
        <time>2015-09-13T08:10:27.000Z</time>
      </trkpt>
      <trkpt lat="49.18445" lon="1.64064">
        <ele>116.71083831787</ele>
        <time>2015-09-13T08:10:29.000Z</time>
      </trkpt>
      <trkpt lat="49.18433" lon="1.64052">
        <ele>115.96485900879</ele>
        <time>2015-09-13T08:10:31.000Z</time>
      </trkpt>
      <trkpt lat="49.18422" lon="1.64042">
        <ele>115.44500732422</ele>
        <time>2015-09-13T08:10:33.000Z</time>
      </trkpt>
      <trkpt lat="49.18407" lon="1.64028">
        <ele>115.35080718994</ele>
        <time>2015-09-13T08:10:36.000Z</time>
      </trkpt>
      <trkpt lat="49.18393" lon="1.64016">
        <ele>115.55934906006</ele>
        <time>2015-09-13T08:10:39.000Z</time>
      </trkpt>
      <trkpt lat="49.18386" lon="1.64009">
        <ele>115.85176849365</ele>
        <time>2015-09-13T08:10:41.000Z</time>
      </trkpt>
      <trkpt lat="49.18379" lon="1.64002">
        <ele>116.2123260498</ele>
        <time>2015-09-13T08:10:43.000Z</time>
      </trkpt>
      <trkpt lat="49.18368" lon="1.63991">
        <ele>116.5564956665</ele>
        <time>2015-09-13T08:10:46.000Z</time>
      </trkpt>
      <trkpt lat="49.18359" lon="1.63978">
        <ele>116.75233459473</ele>
        <time>2015-09-13T08:10:49.000Z</time>
      </trkpt>
      <trkpt lat="49.1835" lon="1.63966">
        <ele>116.79066467285</ele>
        <time>2015-09-13T08:10:52.000Z</time>
      </trkpt>
      <trkpt lat="49.18344" lon="1.63957">
        <ele>116.73266601562</ele>
        <time>2015-09-13T08:10:54.000Z</time>
      </trkpt>
      <trkpt lat="49.18335" lon="1.63944">
        <ele>116.54878234863</ele>
        <time>2015-09-13T08:10:57.000Z</time>
      </trkpt>
      <trkpt lat="49.18325" lon="1.63931">
        <ele>116.30378723145</ele>
        <time>2015-09-13T08:11:00.000Z</time>
      </trkpt>
      <trkpt lat="49.18313" lon="1.6392">
        <ele>116.00592041016</ele>
        <time>2015-09-13T08:11:03.000Z</time>
      </trkpt>
      <trkpt lat="49.18306" lon="1.63923">
        <ele>115.70195007324</ele>
        <time>2015-09-13T08:11:05.000Z</time>
      </trkpt>
      <trkpt lat="49.18303" lon="1.63933">
        <ele>115.41967773438</ele>
        <time>2015-09-13T08:11:07.000Z</time>
      </trkpt>
      <trkpt lat="49.18297" lon="1.63951">
        <ele>115.18155670166</ele>
        <time>2015-09-13T08:11:12.000Z</time>
      </trkpt>
      <trkpt lat="49.1829" lon="1.63959">
        <ele>114.97873687744</ele>
        <time>2015-09-13T08:11:12.000Z</time>
      </trkpt>
      <trkpt lat="49.18277" lon="1.63962">
        <ele>114.78932189941</ele>
        <time>2015-09-13T08:11:15.000Z</time>
      </trkpt>
      <trkpt lat="49.18268" lon="1.63961">
        <ele>114.58898925781</ele>
        <time>2015-09-13T08:11:17.000Z</time>
      </trkpt>
      <trkpt lat="49.18255" lon="1.63958">
        <ele>114.32498931885</ele>
        <time>2015-09-13T08:11:20.000Z</time>
      </trkpt>
      <trkpt lat="49.18241" lon="1.63955">
        <ele>114.07453918457</ele>
        <time>2015-09-13T08:11:23.000Z</time>
      </trkpt>
      <trkpt lat="49.18225" lon="1.63953">
        <ele>113.90104675293</ele>
        <time>2015-09-13T08:11:26.000Z</time>
      </trkpt>
      <trkpt lat="49.18213" lon="1.63949">
        <ele>113.81010437012</ele>
        <time>2015-09-13T08:11:29.000Z</time>
      </trkpt>
      <trkpt lat="49.18197" lon="1.63937">
        <ele>113.73979187012</ele>
        <time>2015-09-13T08:11:31.000Z</time>
      </trkpt>
      <trkpt lat="49.18188" lon="1.63933">
        <ele>113.73879241943</ele>
        <time>2015-09-13T08:11:34.000Z</time>
      </trkpt>
      <trkpt lat="49.18174" lon="1.63936">
        <ele>113.78751373291</ele>
        <time>2015-09-13T08:11:36.000Z</time>
      </trkpt>
      <trkpt lat="49.18165" lon="1.63942">
        <ele>113.86098480225</ele>
        <time>2015-09-13T08:11:38.000Z</time>
      </trkpt>
      <trkpt lat="49.18154" lon="1.63951">
        <ele>113.98983001709</ele>
        <time>2015-09-13T08:11:41.000Z</time>
      </trkpt>
      <trkpt lat="49.18146" lon="1.63958">
        <ele>114.22151947021</ele>
        <time>2015-09-13T08:11:44.000Z</time>
      </trkpt>
      <trkpt lat="49.18136" lon="1.63964">
        <ele>114.5411605835</ele>
        <time>2015-09-13T08:11:47.000Z</time>
      </trkpt>
      <trkpt lat="49.18131" lon="1.63968">
        <ele>114.86061096191</ele>
        <time>2015-09-13T08:11:49.000Z</time>
      </trkpt>
      <trkpt lat="49.18127" lon="1.63972">
        <ele>115.19026184082</ele>
        <time>2015-09-13T08:11:51.000Z</time>
      </trkpt>
      <trkpt lat="49.18121" lon="1.63981">
        <ele>115.59468078613</ele>
        <time>2015-09-13T08:11:54.000Z</time>
      </trkpt>
      <trkpt lat="49.18115" lon="1.63993">
        <ele>116.14508056641</ele>
        <time>2015-09-13T08:11:58.000Z</time>
      </trkpt>
      <trkpt lat="49.1811" lon="1.64005">
        <ele>116.78525543213</ele>
        <time>2015-09-13T08:12:00.000Z</time>
      </trkpt>
      <trkpt lat="49.18106" lon="1.64014">
        <ele>117.43747711182</ele>
        <time>2015-09-13T08:12:03.000Z</time>
      </trkpt>
      <trkpt lat="49.18102" lon="1.64024">
        <ele>118.08583068848</ele>
        <time>2015-09-13T08:12:04.000Z</time>
      </trkpt>
      <trkpt lat="49.18098" lon="1.64033">
        <ele>118.67015075684</ele>
        <time>2015-09-13T08:12:06.000Z</time>
      </trkpt>
      <trkpt lat="49.18093" lon="1.64044">
        <ele>119.15307617188</ele>
        <time>2015-09-13T08:12:09.000Z</time>
      </trkpt>
      <trkpt lat="49.18089" lon="1.64054">
        <ele>119.58393859863</ele>
        <time>2015-09-13T08:12:12.000Z</time>
      </trkpt>
      <trkpt lat="49.18085" lon="1.64062">
        <ele>120.06355285645</ele>
        <time>2015-09-13T08:12:15.000Z</time>
      </trkpt>
      <trkpt lat="49.18078" lon="1.64075">
        <ele>120.55047607422</ele>
        <time>2015-09-13T08:12:17.000Z</time>
      </trkpt>
      <trkpt lat="49.18074" lon="1.64083">
        <ele>121.01070404053</ele>
        <time>2015-09-13T08:12:19.000Z</time>
      </trkpt>
      <trkpt lat="49.18067" lon="1.64098">
        <ele>121.30519866943</ele>
        <time>2015-09-13T08:12:22.000Z</time>
      </trkpt>
      <trkpt lat="49.18062" lon="1.64107">
        <ele>121.47096252441</ele>
        <time>2015-09-13T08:12:24.000Z</time>
      </trkpt>
      <trkpt lat="49.18058" lon="1.64115">
        <ele>121.53562164307</ele>
        <time>2015-09-13T08:12:26.000Z</time>
      </trkpt>
      <trkpt lat="49.18052" lon="1.6413">
        <ele>121.55389404297</ele>
        <time>2015-09-13T08:12:29.000Z</time>
      </trkpt>
      <trkpt lat="49.18048" lon="1.64144">
        <ele>121.57234191895</ele>
        <time>2015-09-13T08:12:32.000Z</time>
      </trkpt>
      <trkpt lat="49.18042" lon="1.64154">
        <ele>121.71952819824</ele>
        <time>2015-09-13T08:12:35.000Z</time>
      </trkpt>
      <trkpt lat="49.18037" lon="1.64165">
        <ele>121.97928619385</ele>
        <time>2015-09-13T08:12:38.000Z</time>
      </trkpt>
      <trkpt lat="49.18031" lon="1.64176">
        <ele>122.31585693359</ele>
        <time>2015-09-13T08:12:41.000Z</time>
      </trkpt>
      <trkpt lat="49.18026" lon="1.64186">
        <ele>122.69451904297</ele>
        <time>2015-09-13T08:12:44.000Z</time>
      </trkpt>
      <trkpt lat="49.18024" lon="1.64193">
        <ele>123.07266998291</ele>
        <time>2015-09-13T08:12:46.000Z</time>
      </trkpt>
      <trkpt lat="49.1802" lon="1.64198">
        <ele>123.43884277344</ele>
        <time>2015-09-13T08:12:49.000Z</time>
      </trkpt>
      <trkpt lat="49.18015" lon="1.64209">
        <ele>123.82836914062</ele>
        <time>2015-09-13T08:12:52.000Z</time>
      </trkpt>
      <trkpt lat="49.18012" lon="1.64218">
        <ele>124.21989440918</ele>
        <time>2015-09-13T08:12:55.000Z</time>
      </trkpt>
      <trkpt lat="49.18008" lon="1.64229">
        <ele>124.65263366699</ele>
        <time>2015-09-13T08:12:58.000Z</time>
      </trkpt>
      <trkpt lat="49.18004" lon="1.64234">
        <ele>125.13238525391</ele>
        <time>2015-09-13T08:13:01.000Z</time>
      </trkpt>
      <trkpt lat="49.17997" lon="1.64249">
        <ele>125.71675872803</ele>
        <time>2015-09-13T08:13:04.000Z</time>
      </trkpt>
      <trkpt lat="49.17991" lon="1.64262">
        <ele>126.3229598999</ele>
        <time>2015-09-13T08:13:10.000Z</time>
      </trkpt>
      <trkpt lat="49.17987" lon="1.64275">
        <ele>126.98472595215</ele>
        <time>2015-09-13T08:13:14.000Z</time>
      </trkpt>
      <trkpt lat="49.17977" lon="1.64284">
        <ele>127.66011047363</ele>
        <time>2015-09-13T08:13:18.000Z</time>
      </trkpt>
      <trkpt lat="49.17966" lon="1.6429">
        <ele>128.33703613281</ele>
        <time>2015-09-13T08:13:21.000Z</time>
      </trkpt>
      <trkpt lat="49.17958" lon="1.64294">
        <ele>128.91458129883</ele>
        <time>2015-09-13T08:13:24.000Z</time>
      </trkpt>
      <trkpt lat="49.17947" lon="1.64298">
        <ele>129.42778015137</ele>
        <time>2015-09-13T08:13:28.000Z</time>
      </trkpt>
      <trkpt lat="49.17938" lon="1.64302">
        <ele>129.88581848145</ele>
        <time>2015-09-13T08:13:30.000Z</time>
      </trkpt>
      <trkpt lat="49.17935" lon="1.64304">
        <ele>130.24868774414</ele>
        <time>2015-09-13T08:13:32.000Z</time>
      </trkpt>
      <trkpt lat="49.17925" lon="1.64312">
        <ele>130.6551361084</ele>
        <time>2015-09-13T08:13:35.000Z</time>
      </trkpt>
      <trkpt lat="49.17915" lon="1.64322">
        <ele>131.13006591797</ele>
        <time>2015-09-13T08:13:39.000Z</time>
      </trkpt>
      <trkpt lat="49.17905" lon="1.64329">
        <ele>131.49555969238</ele>
        <time>2015-09-13T08:13:42.000Z</time>
      </trkpt>
      <trkpt lat="49.17899" lon="1.64336">
        <ele>131.79487609863</ele>
        <time>2015-09-13T08:13:44.000Z</time>
      </trkpt>
      <trkpt lat="49.17887" lon="1.64351">
        <ele>132.01293945312</ele>
        <time>2015-09-13T08:13:47.000Z</time>
      </trkpt>
      <trkpt lat="49.17882" lon="1.6436">
        <ele>132.08134460449</ele>
        <time>2015-09-13T08:13:50.000Z</time>
      </trkpt>
      <trkpt lat="49.1788" lon="1.64364">
        <ele>132.0158996582</ele>
        <time>2015-09-13T08:13:52.000Z</time>
      </trkpt>
      <trkpt lat="49.1787" lon="1.6439">
        <ele>132.03735351562</ele>
        <time>2015-09-13T08:13:56.000Z</time>
      </trkpt>
      <trkpt lat="49.17865" lon="1.64402">
        <ele>132.07046508789</ele>
        <time>2015-09-13T08:14:00.000Z</time>
      </trkpt>
      <trkpt lat="49.17855" lon="1.64414">
        <ele>132.16592407227</ele>
        <time>2015-09-13T08:14:03.000Z</time>
      </trkpt>
      <trkpt lat="49.17848" lon="1.64424">
        <ele>132.28506469727</ele>
        <time>2015-09-13T08:14:07.000Z</time>
      </trkpt>
      <trkpt lat="49.17842" lon="1.64436">
        <ele>132.42973327637</ele>
        <time>2015-09-13T08:14:09.000Z</time>
      </trkpt>
      <trkpt lat="49.17838" lon="1.64448">
        <ele>132.55941772461</ele>
        <time>2015-09-13T08:14:12.000Z</time>
      </trkpt>
      <trkpt lat="49.17831" lon="1.64464">
        <ele>132.67520141602</ele>
        <time>2015-09-13T08:14:15.000Z</time>
      </trkpt>
      <trkpt lat="49.17826" lon="1.64477">
        <ele>132.75624084473</ele>
        <time>2015-09-13T08:14:17.000Z</time>
      </trkpt>
      <trkpt lat="49.17823" lon="1.64491">
        <ele>132.85848999023</ele>
        <time>2015-09-13T08:14:19.000Z</time>
      </trkpt>
      <trkpt lat="49.17819" lon="1.64505">
        <ele>132.95710754395</ele>
        <time>2015-09-13T08:14:22.000Z</time>
      </trkpt>
      <trkpt lat="49.17813" lon="1.64519">
        <ele>133.03128051758</ele>
        <time>2015-09-13T08:14:26.000Z</time>
      </trkpt>
      <trkpt lat="49.17808" lon="1.64534">
        <ele>133.12377929688</ele>
        <time>2015-09-13T08:14:29.000Z</time>
      </trkpt>
      <trkpt lat="49.17802" lon="1.64545">
        <ele>133.22256469727</ele>
        <time>2015-09-13T08:14:33.000Z</time>
      </trkpt>
      <trkpt lat="49.17796" lon="1.6456">
        <ele>133.30033874512</ele>
        <time>2015-09-13T08:14:37.000Z</time>
      </trkpt>
      <trkpt lat="49.1779" lon="1.64573">
        <ele>133.37222290039</ele>
        <time>2015-09-13T08:14:40.000Z</time>
      </trkpt>
      <trkpt lat="49.17788" lon="1.64577">
        <ele>133.43730163574</ele>
        <time>2015-09-13T08:14:42.000Z</time>
      </trkpt>
      <trkpt lat="49.17779" lon="1.64596">
        <ele>133.36856079102</ele>
        <time>2015-09-13T08:14:45.000Z</time>
      </trkpt>
      <trkpt lat="49.17772" lon="1.6461">
        <ele>133.20051574707</ele>
        <time>2015-09-13T08:14:48.000Z</time>
      </trkpt>
      <trkpt lat="49.17765" lon="1.64625">
        <ele>132.90873718262</ele>
        <time>2015-09-13T08:14:51.000Z</time>
      </trkpt>
      <trkpt lat="49.17757" lon="1.64642">
        <ele>132.4992980957</ele>
        <time>2015-09-13T08:14:54.000Z</time>
      </trkpt>
      <trkpt lat="49.17751" lon="1.64656">
        <ele>132.00170898438</ele>
        <time>2015-09-13T08:14:57.000Z</time>
      </trkpt>
      <trkpt lat="49.17744" lon="1.64674">
        <ele>131.56289672852</ele>
        <time>2015-09-13T08:15:00.000Z</time>
      </trkpt>
      <trkpt lat="49.1774" lon="1.64684">
        <ele>131.26383972168</ele>
        <time>2015-09-13T08:15:02.000Z</time>
      </trkpt>
      <trkpt lat="49.17732" lon="1.64701">
        <ele>131.09233093262</ele>
        <time>2015-09-13T08:15:05.000Z</time>
      </trkpt>
      <trkpt lat="49.17724" lon="1.64722">
        <ele>131.05824279785</ele>
        <time>2015-09-13T08:15:08.000Z</time>
      </trkpt>
      <trkpt lat="49.1772" lon="1.64739">
        <ele>131.1640625</ele>
        <time>2015-09-13T08:15:11.000Z</time>
      </trkpt>
      <trkpt lat="49.17718" lon="1.64757">
        <ele>131.42060852051</ele>
        <time>2015-09-13T08:15:15.000Z</time>
      </trkpt>
      <trkpt lat="49.17714" lon="1.64779">
        <ele>131.69467163086</ele>
        <time>2015-09-13T08:15:18.000Z</time>
      </trkpt>
      <trkpt lat="49.17711" lon="1.64794">
        <ele>131.98864746094</ele>
        <time>2015-09-13T08:15:20.000Z</time>
      </trkpt>
      <trkpt lat="49.17707" lon="1.64816">
        <ele>132.3053894043</ele>
        <time>2015-09-13T08:15:24.000Z</time>
      </trkpt>
      <trkpt lat="49.17703" lon="1.64832">
        <ele>132.58877563477</ele>
        <time>2015-09-13T08:15:25.000Z</time>
      </trkpt>
      <trkpt lat="49.17699" lon="1.64845">
        <ele>132.74411010742</ele>
        <time>2015-09-13T08:15:28.000Z</time>
      </trkpt>
      <trkpt lat="49.17691" lon="1.64862">
        <ele>132.80880737305</ele>
        <time>2015-09-13T08:15:31.000Z</time>
      </trkpt>
      <trkpt lat="49.17678" lon="1.64892">
        <ele>132.83193969727</ele>
        <time>2015-09-13T08:15:34.000Z</time>
      </trkpt>
      <trkpt lat="49.17669" lon="1.64916">
        <ele>132.87503051758</ele>
        <time>2015-09-13T08:15:37.000Z</time>
      </trkpt>
      <trkpt lat="49.17664" lon="1.64932">
        <ele>132.9419708252</ele>
        <time>2015-09-13T08:15:39.000Z</time>
      </trkpt>
      <trkpt lat="49.17659" lon="1.64948">
        <ele>133.08117675781</ele>
        <time>2015-09-13T08:15:41.000Z</time>
      </trkpt>
      <trkpt lat="49.17654" lon="1.64963">
        <ele>133.30996704102</ele>
        <time>2015-09-13T08:15:43.000Z</time>
      </trkpt>
      <trkpt lat="49.17644" lon="1.64984">
        <ele>133.57974243164</ele>
        <time>2015-09-13T08:15:46.000Z</time>
      </trkpt>
      <trkpt lat="49.17635" lon="1.65005">
        <ele>133.77740478516</ele>
        <time>2015-09-13T08:15:49.000Z</time>
      </trkpt>
      <trkpt lat="49.17628" lon="1.65021">
        <ele>133.81938171387</ele>
        <time>2015-09-13T08:15:52.000Z</time>
      </trkpt>
      <trkpt lat="49.1762" lon="1.6504">
        <ele>133.70799255371</ele>
        <time>2015-09-13T08:15:55.000Z</time>
      </trkpt>
      <trkpt lat="49.17612" lon="1.65053">
        <ele>133.48152160645</ele>
        <time>2015-09-13T08:15:57.000Z</time>
      </trkpt>
      <trkpt lat="49.17605" lon="1.6507">
        <ele>133.1741027832</ele>
        <time>2015-09-13T08:15:59.000Z</time>
      </trkpt>
      <trkpt lat="49.17596" lon="1.65094">
        <ele>132.81466674805</ele>
        <time>2015-09-13T08:16:02.000Z</time>
      </trkpt>
      <trkpt lat="49.1759" lon="1.65116">
        <ele>132.52746582031</ele>
        <time>2015-09-13T08:16:05.000Z</time>
      </trkpt>
      <trkpt lat="49.17585" lon="1.65137">
        <ele>132.32446289062</ele>
        <time>2015-09-13T08:16:08.000Z</time>
      </trkpt>
      <trkpt lat="49.17581" lon="1.65151">
        <ele>132.15933227539</ele>
        <time>2015-09-13T08:16:10.000Z</time>
      </trkpt>
      <trkpt lat="49.17574" lon="1.65171">
        <ele>131.98141479492</ele>
        <time>2015-09-13T08:16:13.000Z</time>
      </trkpt>
      <trkpt lat="49.17567" lon="1.65192">
        <ele>131.83618164062</ele>
        <time>2015-09-13T08:16:16.000Z</time>
      </trkpt>
      <trkpt lat="49.17561" lon="1.65213">
        <ele>131.70988464355</ele>
        <time>2015-09-13T08:16:19.000Z</time>
      </trkpt>
      <trkpt lat="49.17557" lon="1.65225">
        <ele>131.58938598633</ele>
        <time>2015-09-13T08:16:21.000Z</time>
      </trkpt>
      <trkpt lat="49.17551" lon="1.65242">
        <ele>131.47991943359</ele>
        <time>2015-09-13T08:16:24.000Z</time>
      </trkpt>
      <trkpt lat="49.17548" lon="1.65253">
        <ele>131.40516662598</ele>
        <time>2015-09-13T08:16:26.000Z</time>
      </trkpt>
      <trkpt lat="49.17547" lon="1.65265">
        <ele>131.29141235352</ele>
        <time>2015-09-13T08:16:29.000Z</time>
      </trkpt>
      <trkpt lat="49.17535" lon="1.65286">
        <ele>131.00985717773</ele>
        <time>2015-09-13T08:16:32.000Z</time>
      </trkpt>
      <trkpt lat="49.17527" lon="1.653">
        <ele>130.62536621094</ele>
        <time>2015-09-13T08:16:34.000Z</time>
      </trkpt>
      <trkpt lat="49.17517" lon="1.65313">
        <ele>130.14141845703</ele>
        <time>2015-09-13T08:16:36.000Z</time>
      </trkpt>
      <trkpt lat="49.17507" lon="1.65333">
        <ele>129.54455566406</ele>
        <time>2015-09-13T08:16:39.000Z</time>
      </trkpt>
      <trkpt lat="49.175" lon="1.65347">
        <ele>128.85331726074</ele>
        <time>2015-09-13T08:16:41.000Z</time>
      </trkpt>
      <trkpt lat="49.17493" lon="1.65358">
        <ele>128.2029876709</ele>
        <time>2015-09-13T08:16:44.000Z</time>
      </trkpt>
      <trkpt lat="49.17484" lon="1.65377">
        <ele>127.49555969238</ele>
        <time>2015-09-13T08:16:46.000Z</time>
      </trkpt>
      <trkpt lat="49.17476" lon="1.65389">
        <ele>126.81690979004</ele>
        <time>2015-09-13T08:16:48.000Z</time>
      </trkpt>
      <trkpt lat="49.17469" lon="1.65401">
        <ele>126.20975494385</ele>
        <time>2015-09-13T08:16:50.000Z</time>
      </trkpt>
      <trkpt lat="49.17458" lon="1.65418">
        <ele>125.70483398438</ele>
        <time>2015-09-13T08:16:53.000Z</time>
      </trkpt>
      <trkpt lat="49.17451" lon="1.6543">
        <ele>125.33908843994</ele>
        <time>2015-09-13T08:16:56.000Z</time>
      </trkpt>
      <trkpt lat="49.17443" lon="1.65447">
        <ele>125.14463043213</ele>
        <time>2015-09-13T08:16:58.000Z</time>
      </trkpt>
      <trkpt lat="49.17437" lon="1.65459">
        <ele>125.04258728027</ele>
        <time>2015-09-13T08:17:00.000Z</time>
      </trkpt>
      <trkpt lat="49.17431" lon="1.65469">
        <ele>125</ele>
        <time>2015-09-13T08:17:02.000Z</time>
      </trkpt>
      <trkpt lat="49.17421" lon="1.65486">
        <ele>125</ele>
        <time>2015-09-13T08:17:05.000Z</time>
      </trkpt>
      <trkpt lat="49.17415" lon="1.65497">
        <ele>124.99912261963</ele>
        <time>2015-09-13T08:17:07.000Z</time>
      </trkpt>
      <trkpt lat="49.17405" lon="1.65515">
        <ele>124.97399902344</ele>
        <time>2015-09-13T08:17:10.000Z</time>
      </trkpt>
      <trkpt lat="49.17397" lon="1.65531">
        <ele>124.93575286865</ele>
        <time>2015-09-13T08:17:13.000Z</time>
      </trkpt>
      <trkpt lat="49.17391" lon="1.65541">
        <ele>124.89742279053</ele>
        <time>2015-09-13T08:17:15.000Z</time>
      </trkpt>
      <trkpt lat="49.17382" lon="1.65558">
        <ele>124.87403869629</ele>
        <time>2015-09-13T08:17:18.000Z</time>
      </trkpt>
      <trkpt lat="49.17372" lon="1.65576">
        <ele>124.88703918457</ele>
        <time>2015-09-13T08:17:21.000Z</time>
      </trkpt>
      <trkpt lat="49.17365" lon="1.65587">
        <ele>124.95539855957</ele>
        <time>2015-09-13T08:17:23.000Z</time>
      </trkpt>
      <trkpt lat="49.17358" lon="1.65602">
        <ele>125.0643081665</ele>
        <time>2015-09-13T08:17:26.000Z</time>
      </trkpt>
      <trkpt lat="49.1735" lon="1.65615">
        <ele>125.20817565918</ele>
        <time>2015-09-13T08:17:29.000Z</time>
      </trkpt>
      <trkpt lat="49.17344" lon="1.65622">
        <ele>125.36985015869</ele>
        <time>2015-09-13T08:17:31.000Z</time>
      </trkpt>
      <trkpt lat="49.17339" lon="1.65629">
        <ele>125.52639007568</ele>
        <time>2015-09-13T08:17:33.000Z</time>
      </trkpt>
      <trkpt lat="49.17331" lon="1.65638">
        <ele>125.64515686035</ele>
        <time>2015-09-13T08:17:36.000Z</time>
      </trkpt>
      <trkpt lat="49.17319" lon="1.65649">
        <ele>125.596824646</ele>
        <time>2015-09-13T08:17:39.000Z</time>
      </trkpt>
      <trkpt lat="49.17312" lon="1.65656">
        <ele>125.44557189941</ele>
        <time>2015-09-13T08:17:41.000Z</time>
      </trkpt>
      <trkpt lat="49.17303" lon="1.65663">
        <ele>125.20002746582</ele>
        <time>2015-09-13T08:17:44.000Z</time>
      </trkpt>
      <trkpt lat="49.17296" lon="1.6567">
        <ele>124.88344573975</ele>
        <time>2015-09-13T08:17:45.000Z</time>
      </trkpt>
      <trkpt lat="49.17284" lon="1.65685">
        <ele>124.49031066895</ele>
        <time>2015-09-13T08:17:48.000Z</time>
      </trkpt>
      <trkpt lat="49.17272" lon="1.65701">
        <ele>124.16245269775</ele>
        <time>2015-09-13T08:17:51.000Z</time>
      </trkpt>
      <trkpt lat="49.17268" lon="1.65706">
        <ele>123.87255859375</ele>
        <time>2015-09-13T08:17:53.000Z</time>
      </trkpt>
      <trkpt lat="49.17263" lon="1.65714">
        <ele>123.62097167969</ele>
        <time>2015-09-13T08:17:55.000Z</time>
      </trkpt>
      <trkpt lat="49.17258" lon="1.65728">
        <ele>123.3946762085</ele>
        <time>2015-09-13T08:17:57.000Z</time>
      </trkpt>
      <trkpt lat="49.17253" lon="1.65738">
        <ele>123.22955322266</ele>
        <time>2015-09-13T08:18:00.000Z</time>
      </trkpt>
      <trkpt lat="49.17244" lon="1.65755">
        <ele>123.13050842285</ele>
        <time>2015-09-13T08:18:02.000Z</time>
      </trkpt>
      <trkpt lat="49.17236" lon="1.6577">
        <ele>123.11375427246</ele>
        <time>2015-09-13T08:18:06.000Z</time>
      </trkpt>
      <trkpt lat="49.17229" lon="1.65779">
        <ele>123.15063476562</ele>
        <time>2015-09-13T08:18:07.000Z</time>
      </trkpt>
      <trkpt lat="49.17218" lon="1.65792">
        <ele>123.23567199707</ele>
        <time>2015-09-13T08:18:10.000Z</time>
      </trkpt>
      <trkpt lat="49.17206" lon="1.65806">
        <ele>123.3865737915</ele>
        <time>2015-09-13T08:18:13.000Z</time>
      </trkpt>
      <trkpt lat="49.17193" lon="1.65818">
        <ele>123.58679199219</ele>
        <time>2015-09-13T08:18:16.000Z</time>
      </trkpt>
      <trkpt lat="49.17184" lon="1.65827">
        <ele>123.76583099365</ele>
        <time>2015-09-13T08:18:18.000Z</time>
      </trkpt>
      <trkpt lat="49.17169" lon="1.65841">
        <ele>123.92015075684</ele>
        <time>2015-09-13T08:18:21.000Z</time>
      </trkpt>
      <trkpt lat="49.17159" lon="1.65849">
        <ele>123.9736328125</ele>
        <time>2015-09-13T08:18:23.000Z</time>
      </trkpt>
      <trkpt lat="49.17142" lon="1.65861">
        <ele>123.84797668457</ele>
        <time>2015-09-13T08:18:26.000Z</time>
      </trkpt>
      <trkpt lat="49.1713" lon="1.65868">
        <ele>123.58359527588</ele>
        <time>2015-09-13T08:18:29.000Z</time>
      </trkpt>
      <trkpt lat="49.17119" lon="1.65874">
        <ele>123.19403076172</ele>
        <time>2015-09-13T08:18:30.000Z</time>
      </trkpt>
      <trkpt lat="49.17107" lon="1.6588">
        <ele>122.69748687744</ele>
        <time>2015-09-13T08:18:32.000Z</time>
      </trkpt>
      <trkpt lat="49.17086" lon="1.65895">
        <ele>122.10849761963</ele>
        <time>2015-09-13T08:18:35.000Z</time>
      </trkpt>
      <trkpt lat="49.17073" lon="1.65904">
        <ele>121.45338439941</ele>
        <time>2015-09-13T08:18:37.000Z</time>
      </trkpt>
      <trkpt lat="49.17052" lon="1.65918">
        <ele>120.59400939941</ele>
        <time>2015-09-13T08:18:40.000Z</time>
      </trkpt>
      <trkpt lat="49.17032" lon="1.65933">
        <ele>119.42794036865</ele>
        <time>2015-09-13T08:18:43.000Z</time>
      </trkpt>
      <trkpt lat="49.1702" lon="1.65942">
        <ele>118.1346282959</ele>
        <time>2015-09-13T08:18:46.000Z</time>
      </trkpt>
      <trkpt lat="49.17007" lon="1.65954">
        <ele>116.76850891113</ele>
        <time>2015-09-13T08:18:47.000Z</time>
      </trkpt>
      <trkpt lat="49.16985" lon="1.65978">
        <ele>115.11907958984</ele>
        <time>2015-09-13T08:18:50.000Z</time>
      </trkpt>
      <trkpt lat="49.16967" lon="1.66004">
        <ele>113.38181304932</ele>
        <time>2015-09-13T08:18:53.000Z</time>
      </trkpt>
      <trkpt lat="49.16956" lon="1.66019">
        <ele>111.76747894287</ele>
        <time>2015-09-13T08:18:56.000Z</time>
      </trkpt>
      <trkpt lat="49.16948" lon="1.6603">
        <ele>110.19212341309</ele>
        <time>2015-09-13T08:18:58.000Z</time>
      </trkpt>
      <trkpt lat="49.16933" lon="1.66049">
        <ele>108.54384613037</ele>
        <time>2015-09-13T08:19:01.000Z</time>
      </trkpt>
      <trkpt lat="49.16926" lon="1.66062">
        <ele>107.21946716309</ele>
        <time>2015-09-13T08:19:04.000Z</time>
      </trkpt>
      <trkpt lat="49.16915" lon="1.66084">
        <ele>106.02144622803</ele>
        <time>2015-09-13T08:19:06.000Z</time>
      </trkpt>
      <trkpt lat="49.16907" lon="1.661">
        <ele>104.56335449219</ele>
        <time>2015-09-13T08:19:08.000Z</time>
      </trkpt>
      <trkpt lat="49.16898" lon="1.66117">
        <ele>102.72202301025</ele>
        <time>2015-09-13T08:19:10.000Z</time>
      </trkpt>
      <trkpt lat="49.16887" lon="1.66129">
        <ele>100.62979125977</ele>
        <time>2015-09-13T08:19:14.000Z</time>
      </trkpt>
      <trkpt lat="49.16807" lon="1.6613">
        <ele>96.175987243652</ele>
        <time>2015-09-13T08:19:18.000Z</time>
      </trkpt>
      <trkpt lat="49.16767" lon="1.66122">
        <ele>90.964340209961</ele>
        <time>2015-09-13T08:19:21.000Z</time>
      </trkpt>
      <trkpt lat="49.16742" lon="1.66118">
        <ele>85.718307495117</ele>
        <time>2015-09-13T08:19:24.000Z</time>
      </trkpt>
      <trkpt lat="49.16709" lon="1.66116">
        <ele>80.601272583008</ele>
        <time>2015-09-13T08:19:26.000Z</time>
      </trkpt>
      <trkpt lat="49.16676" lon="1.66117">
        <ele>75.581581115723</ele>
        <time>2015-09-13T08:19:29.000Z</time>
      </trkpt>
      <trkpt lat="49.16643" lon="1.66126">
        <ele>72.567825317383</ele>
        <time>2015-09-13T08:19:32.000Z</time>
      </trkpt>
      <trkpt lat="49.16624" lon="1.66141">
        <ele>70.330421447754</ele>
        <time>2015-09-13T08:19:34.000Z</time>
      </trkpt>
      <trkpt lat="49.16609" lon="1.66154">
        <ele>68.553672790527</ele>
        <time>2015-09-13T08:19:36.000Z</time>
      </trkpt>
      <trkpt lat="49.16598" lon="1.66172">
        <ele>67.090896606445</ele>
        <time>2015-09-13T08:19:38.000Z</time>
      </trkpt>
      <trkpt lat="49.16579" lon="1.66207">
        <ele>65.075904846191</ele>
        <time>2015-09-13T08:19:41.000Z</time>
      </trkpt>
      <trkpt lat="49.16574" lon="1.6623">
        <ele>62.95223236084</ele>
        <time>2015-09-13T08:19:44.000Z</time>
      </trkpt>
      <trkpt lat="49.16572" lon="1.66241">
        <ele>60.79125213623</ele>
        <time>2015-09-13T08:19:46.000Z</time>
      </trkpt>
      <trkpt lat="49.16576" lon="1.66266">
        <ele>58.378131866455</ele>
        <time>2015-09-13T08:19:49.000Z</time>
      </trkpt>
      <trkpt lat="49.1659" lon="1.66299">
        <ele>55.668109893799</ele>
        <time>2015-09-13T08:19:52.000Z</time>
      </trkpt>
      <trkpt lat="49.166" lon="1.66319">
        <ele>53.684467315674</ele>
        <time>2015-09-13T08:19:54.000Z</time>
      </trkpt>
      <trkpt lat="49.16615" lon="1.66348">
        <ele>51.96704864502</ele>
        <time>2015-09-13T08:19:58.000Z</time>
      </trkpt>
      <trkpt lat="49.16631" lon="1.66374">
        <ele>50.28178024292</ele>
        <time>2015-09-13T08:20:00.000Z</time>
      </trkpt>
      <trkpt lat="49.16646" lon="1.66395">
        <ele>48.796379089355</ele>
        <time>2015-09-13T08:20:03.000Z</time>
      </trkpt>
      <trkpt lat="49.16663" lon="1.66422">
        <ele>47.49409866333</ele>
        <time>2015-09-13T08:20:06.000Z</time>
      </trkpt>
      <trkpt lat="49.16676" lon="1.66439">
        <ele>46.305774688721</ele>
        <time>2015-09-13T08:20:09.000Z</time>
      </trkpt>
      <trkpt lat="49.16685" lon="1.66453">
        <ele>45.307231903076</ele>
        <time>2015-09-13T08:20:13.000Z</time>
      </trkpt>
      <trkpt lat="49.16687" lon="1.66461">
        <ele>44.420017242432</ele>
        <time>2015-09-13T08:20:14.000Z</time>
      </trkpt>
      <trkpt lat="49.16688" lon="1.66471">
        <ele>43.481323242188</ele>
        <time>2015-09-13T08:20:17.000Z</time>
      </trkpt>
      <trkpt lat="49.16692" lon="1.66471">
        <ele>42.852508544922</ele>
        <time>2015-09-13T08:20:20.000Z</time>
      </trkpt>
      <trkpt lat="49.1669" lon="1.66464">
        <ele>42.527214050293</ele>
        <time>2015-09-13T08:20:22.000Z</time>
      </trkpt>
      <trkpt lat="49.16688" lon="1.66463">
        <ele>42.370704650879</ele>
        <time>2015-09-13T08:20:25.000Z</time>
      </trkpt>
      <trkpt lat="49.16688" lon="1.66463">
        <ele>42.370704650879</ele>
        <time>2015-09-13T08:20:35.000Z</time>
      </trkpt>
      <trkpt lat="49.16685" lon="1.66461">
        <ele>42.342212677002</ele>
        <time>2015-09-13T08:20:37.000Z</time>
      </trkpt>
      <trkpt lat="49.16683" lon="1.66457">
        <ele>42.599769592285</ele>
        <time>2015-09-13T08:20:39.000Z</time>
      </trkpt>
      <trkpt lat="49.16681" lon="1.6645">
        <ele>42.905700683594</ele>
        <time>2015-09-13T08:20:41.000Z</time>
      </trkpt>
      <trkpt lat="49.16678" lon="1.66443">
        <ele>43.173233032227</ele>
        <time>2015-09-13T08:20:43.000Z</time>
      </trkpt>
      <trkpt lat="49.16674" lon="1.66434">
        <ele>43.579719543457</ele>
        <time>2015-09-13T08:20:46.000Z</time>
      </trkpt>
      <trkpt lat="49.16668" lon="1.66424">
        <ele>44.12601852417</ele>
        <time>2015-09-13T08:20:49.000Z</time>
      </trkpt>
      <trkpt lat="49.16662" lon="1.66409">
        <ele>44.802696228027</ele>
        <time>2015-09-13T08:20:55.000Z</time>
      </trkpt>
      <trkpt lat="49.16657" lon="1.66395">
        <ele>45.575202941895</ele>
        <time>2015-09-13T08:21:01.000Z</time>
      </trkpt>
      <trkpt lat="49.16653" lon="1.66384">
        <ele>46.421546936035</ele>
        <time>2015-09-13T08:21:05.000Z</time>
      </trkpt>
      <trkpt lat="49.1665" lon="1.66379">
        <ele>47.180023193359</ele>
        <time>2015-09-13T08:21:07.000Z</time>
      </trkpt>
      <trkpt lat="49.16646" lon="1.66371">
        <ele>47.902648925781</ele>
        <time>2015-09-13T08:21:10.000Z</time>
      </trkpt>
      <trkpt lat="49.16643" lon="1.66366">
        <ele>48.479736328125</ele>
        <time>2015-09-13T08:21:13.000Z</time>
      </trkpt>
      <trkpt lat="49.16636" lon="1.66352">
        <ele>48.991119384766</ele>
        <time>2015-09-13T08:21:17.000Z</time>
      </trkpt>
      <trkpt lat="49.1663" lon="1.66338">
        <ele>49.535949707031</ele>
        <time>2015-09-13T08:21:21.000Z</time>
      </trkpt>
      <trkpt lat="49.16626" lon="1.66323">
        <ele>50.263477325439</ele>
        <time>2015-09-13T08:21:26.000Z</time>
      </trkpt>
      <trkpt lat="49.16621" lon="1.66311">
        <ele>51.055850982666</ele>
        <time>2015-09-13T08:21:32.000Z</time>
      </trkpt>
      <trkpt lat="49.16618" lon="1.66298">
        <ele>52.011680603027</ele>
        <time>2015-09-13T08:21:38.000Z</time>
      </trkpt>
      <trkpt lat="49.16611" lon="1.66286">
        <ele>52.979053497314</ele>
        <time>2015-09-13T08:21:45.000Z</time>
      </trkpt>
      <trkpt lat="49.16605" lon="1.66275">
        <ele>53.897296905518</ele>
        <time>2015-09-13T08:21:50.000Z</time>
      </trkpt>
      <trkpt lat="49.166" lon="1.66261">
        <ele>54.808692932129</ele>
        <time>2015-09-13T08:21:56.000Z</time>
      </trkpt>
      <trkpt lat="49.16595" lon="1.66248">
        <ele>55.798652648926</ele>
        <time>2015-09-13T08:22:01.000Z</time>
      </trkpt>
      <trkpt lat="49.16594" lon="1.66241">
        <ele>56.70263671875</ele>
        <time>2015-09-13T08:22:05.000Z</time>
      </trkpt>
      <trkpt lat="49.16594" lon="1.66238">
        <ele>57.49649810791</ele>
        <time>2015-09-13T08:22:06.000Z</time>
      </trkpt>
      <trkpt lat="49.16592" lon="1.66223">
        <ele>58.388175964355</ele>
        <time>2015-09-13T08:22:11.000Z</time>
      </trkpt>
      <trkpt lat="49.16591" lon="1.66216">
        <ele>59.180919647217</ele>
        <time>2015-09-13T08:22:14.000Z</time>
      </trkpt>
      <trkpt lat="49.16589" lon="1.66202">
        <ele>59.977344512939</ele>
        <time>2015-09-13T08:22:21.000Z</time>
      </trkpt>
      <trkpt lat="49.16589" lon="1.66188">
        <ele>60.911003112793</ele>
        <time>2015-09-13T08:22:29.000Z</time>
      </trkpt>
      <trkpt lat="49.16591" lon="1.66174">
        <ele>62.085243225098</ele>
        <time>2015-09-13T08:22:38.000Z</time>
      </trkpt>
      <trkpt lat="49.16594" lon="1.66161">
        <ele>63.135906219482</ele>
        <time>2015-09-13T08:22:46.000Z</time>
      </trkpt>
      <trkpt lat="49.16597" lon="1.66156">
        <ele>64.057525634766</ele>
        <time>2015-09-13T08:22:50.000Z</time>
      </trkpt>
      <trkpt lat="49.16599" lon="1.66153">
        <ele>64.733474731445</ele>
        <time>2015-09-13T08:22:53.000Z</time>
      </trkpt>
      <trkpt lat="49.16604" lon="1.66148">
        <ele>65.16739654541</ele>
        <time>2015-09-13T08:22:59.000Z</time>
      </trkpt>
      <trkpt lat="49.16607" lon="1.66145">
        <ele>65.330764770508</ele>
        <time>2015-09-13T08:23:01.000Z</time>
      </trkpt>
      <trkpt lat="49.16611" lon="1.66141">
        <ele>65.392532348633</ele>
        <time>2015-09-13T08:23:04.000Z</time>
      </trkpt>
      <trkpt lat="49.16614" lon="1.66139">
        <ele>65.492919921875</ele>
        <time>2015-09-13T08:23:06.000Z</time>
      </trkpt>
      <trkpt lat="49.16617" lon="1.66138">
        <ele>65.632545471191</ele>
        <time>2015-09-13T08:23:10.000Z</time>
      </trkpt>
      <trkpt lat="49.16622" lon="1.66136">
        <ele>65.808235168457</ele>
        <time>2015-09-13T08:23:12.000Z</time>
      </trkpt>
      <trkpt lat="49.16625" lon="1.66135">
        <ele>66.004295349121</ele>
        <time>2015-09-13T08:23:14.000Z</time>
      </trkpt>
      <trkpt lat="49.1663" lon="1.66134">
        <ele>66.241516113281</ele>
        <time>2015-09-13T08:23:17.000Z</time>
      </trkpt>
      <trkpt lat="49.16633" lon="1.66133">
        <ele>66.485130310059</ele>
        <time>2015-09-13T08:23:19.000Z</time>
      </trkpt>
      <trkpt lat="49.16636" lon="1.66132">
        <ele>66.733528137207</ele>
        <time>2015-09-13T08:23:21.000Z</time>
      </trkpt>
      <trkpt lat="49.16641" lon="1.66131">
        <ele>66.987800598145</ele>
        <time>2015-09-13T08:23:24.000Z</time>
      </trkpt>
      <trkpt lat="49.16645" lon="1.66129">
        <ele>67.270980834961</ele>
        <time>2015-09-13T08:23:27.000Z</time>
      </trkpt>
      <trkpt lat="49.1665" lon="1.66128">
        <ele>67.561904907227</ele>
        <time>2015-09-13T08:23:30.000Z</time>
      </trkpt>
      <trkpt lat="49.16655" lon="1.66127">
        <ele>67.871505737305</ele>
        <time>2015-09-13T08:23:33.000Z</time>
      </trkpt>
      <trkpt lat="49.16658" lon="1.66127">
        <ele>68.19295501709</ele>
        <time>2015-09-13T08:23:35.000Z</time>
      </trkpt>
      <trkpt lat="49.16663" lon="1.66125">
        <ele>68.521743774414</ele>
        <time>2015-09-13T08:23:38.000Z</time>
      </trkpt>
      <trkpt lat="49.16666" lon="1.66124">
        <ele>68.838973999023</ele>
        <time>2015-09-13T08:23:40.000Z</time>
      </trkpt>
      <trkpt lat="49.16672" lon="1.66121">
        <ele>69.167892456055</ele>
        <time>2015-09-13T08:23:44.000Z</time>
      </trkpt>
      <trkpt lat="49.16677" lon="1.66121">
        <ele>69.507995605469</ele>
        <time>2015-09-13T08:23:45.000Z</time>
      </trkpt>
      <trkpt lat="49.16681" lon="1.6612">
        <ele>69.861679077148</ele>
        <time>2015-09-13T08:23:47.000Z</time>
      </trkpt>
      <trkpt lat="49.16685" lon="1.66119">
        <ele>70.195663452148</ele>
        <time>2015-09-13T08:23:49.000Z</time>
      </trkpt>
      <trkpt lat="49.1669" lon="1.66119">
        <ele>70.545593261719</ele>
        <time>2015-09-13T08:23:51.000Z</time>
      </trkpt>
      <trkpt lat="49.16695" lon="1.66118">
        <ele>70.88069152832</ele>
        <time>2015-09-13T08:23:53.000Z</time>
      </trkpt>
      <trkpt lat="49.16701" lon="1.66118">
        <ele>71.226539611816</ele>
        <time>2015-09-13T08:23:56.000Z</time>
      </trkpt>
      <trkpt lat="49.16706" lon="1.66116">
        <ele>71.590545654297</ele>
        <time>2015-09-13T08:23:59.000Z</time>
      </trkpt>
      <trkpt lat="49.16709" lon="1.66114">
        <ele>71.94255065918</ele>
        <time>2015-09-13T08:24:01.000Z</time>
      </trkpt>
      <trkpt lat="49.16711" lon="1.66108">
        <ele>72.296821594238</ele>
        <time>2015-09-13T08:24:03.000Z</time>
      </trkpt>
      <trkpt lat="49.16714" lon="1.66099">
        <ele>72.690582275391</ele>
        <time>2015-09-13T08:24:05.000Z</time>
      </trkpt>
      <trkpt lat="49.1672" lon="1.66086">
        <ele>73.18098449707</ele>
        <time>2015-09-13T08:24:08.000Z</time>
      </trkpt>
      <trkpt lat="49.16726" lon="1.6607">
        <ele>73.673828125</ele>
        <time>2015-09-13T08:24:11.000Z</time>
      </trkpt>
      <trkpt lat="49.16729" lon="1.66059">
        <ele>74.147689819336</ele>
        <time>2015-09-13T08:24:13.000Z</time>
      </trkpt>
      <trkpt lat="49.16734" lon="1.66041">
        <ele>74.59415435791</ele>
        <time>2015-09-13T08:24:16.000Z</time>
      </trkpt>
      <trkpt lat="49.16737" lon="1.66029">
        <ele>74.98307800293</ele>
        <time>2015-09-13T08:24:20.000Z</time>
      </trkpt>
      <trkpt lat="49.16741" lon="1.66012">
        <ele>75.265975952148</ele>
        <time>2015-09-13T08:24:21.000Z</time>
      </trkpt>
      <trkpt lat="49.16745" lon="1.66">
        <ele>75.55948638916</ele>
        <time>2015-09-13T08:24:23.000Z</time>
      </trkpt>
      <trkpt lat="49.16749" lon="1.6599">
        <ele>75.836647033691</ele>
        <time>2015-09-13T08:24:25.000Z</time>
      </trkpt>
      <trkpt lat="49.16755" lon="1.65975">
        <ele>76.169471740723</ele>
        <time>2015-09-13T08:24:29.000Z</time>
      </trkpt>
      <trkpt lat="49.16759" lon="1.65964">
        <ele>76.495796203613</ele>
        <time>2015-09-13T08:24:30.000Z</time>
      </trkpt>
      <trkpt lat="49.16763" lon="1.65946">
        <ele>76.774200439453</ele>
        <time>2015-09-13T08:24:34.000Z</time>
      </trkpt>
      <trkpt lat="49.16758" lon="1.65929">
        <ele>76.547409057617</ele>
        <time>2015-09-13T08:24:37.000Z</time>
      </trkpt>
      <trkpt lat="49.16741" lon="1.65909">
        <ele>75.488868713379</ele>
        <time>2015-09-13T08:24:40.000Z</time>
      </trkpt>
      <trkpt lat="49.16723" lon="1.65895">
        <ele>73.610649108887</ele>
        <time>2015-09-13T08:24:42.000Z</time>
      </trkpt>
      <trkpt lat="49.16712" lon="1.65886">
        <ele>71.248802185059</ele>
        <time>2015-09-13T08:24:44.000Z</time>
      </trkpt>
      <trkpt lat="49.16694" lon="1.65872">
        <ele>68.193466186523</ele>
        <time>2015-09-13T08:24:47.000Z</time>
      </trkpt>
      <trkpt lat="49.16683" lon="1.65861">
        <ele>65.115081787109</ele>
        <time>2015-09-13T08:24:50.000Z</time>
      </trkpt>
      <trkpt lat="49.16669" lon="1.65847">
        <ele>62.328277587891</ele>
        <time>2015-09-13T08:24:52.000Z</time>
      </trkpt>
      <trkpt lat="49.16657" lon="1.65835">
        <ele>59.808155059814</ele>
        <time>2015-09-13T08:24:55.000Z</time>
      </trkpt>
      <trkpt lat="49.16644" lon="1.65822">
        <ele>57.219818115234</ele>
        <time>2015-09-13T08:24:58.000Z</time>
      </trkpt>
      <trkpt lat="49.16628" lon="1.65807">
        <ele>54.751605987549</ele>
        <time>2015-09-13T08:25:01.000Z</time>
      </trkpt>
      <trkpt lat="49.16616" lon="1.65796">
        <ele>52.341331481934</ele>
        <time>2015-09-13T08:25:03.000Z</time>
      </trkpt>
      <trkpt lat="49.16602" lon="1.65783">
        <ele>50.054321289062</ele>
        <time>2015-09-13T08:25:07.000Z</time>
      </trkpt>
      <trkpt lat="49.16581" lon="1.65761">
        <ele>47.74080657959</ele>
        <time>2015-09-13T08:25:08.000Z</time>
      </trkpt>
      <trkpt lat="49.16567" lon="1.65747">
        <ele>45.9538230896</ele>
        <time>2015-09-13T08:25:11.000Z</time>
      </trkpt>
      <trkpt lat="49.1656" lon="1.65734">
        <ele>44.762138366699</ele>
        <time>2015-09-13T08:25:14.000Z</time>
      </trkpt>
      <trkpt lat="49.16562" lon="1.65717">
        <ele>43.957317352295</ele>
        <time>2015-09-13T08:25:17.000Z</time>
      </trkpt>
      <trkpt lat="49.16563" lon="1.65707">
        <ele>43.561737060547</ele>
        <time>2015-09-13T08:25:19.000Z</time>
      </trkpt>
      <trkpt lat="49.16566" lon="1.65693">
        <ele>43.635894775391</ele>
        <time>2015-09-13T08:25:22.000Z</time>
      </trkpt>
      <trkpt lat="49.16566" lon="1.6568">
        <ele>43.701877593994</ele>
        <time>2015-09-13T08:25:25.000Z</time>
      </trkpt>
      <trkpt lat="49.16563" lon="1.65676">
        <ele>43.75940322876</ele>
        <time>2015-09-13T08:25:27.000Z</time>
      </trkpt>
      <trkpt lat="49.16557" lon="1.65673">
        <ele>43.861854553223</ele>
        <time>2015-09-13T08:25:29.000Z</time>
      </trkpt>
      <trkpt lat="49.16549" lon="1.65668">
        <ele>44.043056488037</ele>
        <time>2015-09-13T08:25:32.000Z</time>
      </trkpt>
      <trkpt lat="49.16545" lon="1.65667">
        <ele>44.274940490723</ele>
        <time>2015-09-13T08:25:35.000Z</time>
      </trkpt>
      <trkpt lat="49.16544" lon="1.65667">
        <ele>44.506790161133</ele>
        <time>2015-09-13T08:25:41.000Z</time>
      </trkpt>
      <trkpt lat="49.16534" lon="1.65662">
        <ele>44.808952331543</ele>
        <time>2015-09-13T08:25:46.000Z</time>
      </trkpt>
      <trkpt lat="49.16529" lon="1.65659">
        <ele>45.114177703857</ele>
        <time>2015-09-13T08:25:48.000Z</time>
      </trkpt>
      <trkpt lat="49.16521" lon="1.65658">
        <ele>45.420989990234</ele>
        <time>2015-09-13T08:25:51.000Z</time>
      </trkpt>
      <trkpt lat="49.16513" lon="1.65657">
        <ele>45.760612487793</ele>
        <time>2015-09-13T08:25:54.000Z</time>
      </trkpt>
      <trkpt lat="49.16504" lon="1.65655">
        <ele>46.169551849365</ele>
        <time>2015-09-13T08:25:58.000Z</time>
      </trkpt>
      <trkpt lat="49.16495" lon="1.65655">
        <ele>46.622291564941</ele>
        <time>2015-09-13T08:26:02.000Z</time>
      </trkpt>
      <trkpt lat="49.16491" lon="1.65653">
        <ele>47.109115600586</ele>
        <time>2015-09-13T08:26:05.000Z</time>
      </trkpt>
      <trkpt lat="49.16486" lon="1.65652">
        <ele>47.614189147949</ele>
        <time>2015-09-13T08:26:07.000Z</time>
      </trkpt>
      <trkpt lat="49.16481" lon="1.65649">
        <ele>48.163997650146</ele>
        <time>2015-09-13T08:26:10.000Z</time>
      </trkpt>
      <trkpt lat="49.16475" lon="1.65646">
        <ele>48.765323638916</ele>
        <time>2015-09-13T08:26:13.000Z</time>
      </trkpt>
      <trkpt lat="49.16463" lon="1.65646">
        <ele>49.459133148193</ele>
        <time>2015-09-13T08:26:19.000Z</time>
      </trkpt>
      <trkpt lat="49.16455" lon="1.65647">
        <ele>50.237586975098</ele>
        <time>2015-09-13T08:26:23.000Z</time>
      </trkpt>
      <trkpt lat="49.16451" lon="1.65647">
        <ele>51.02059173584</ele>
        <time>2015-09-13T08:26:25.000Z</time>
      </trkpt>
      <trkpt lat="49.16446" lon="1.65647">
        <ele>51.781677246094</ele>
        <time>2015-09-13T08:26:28.000Z</time>
      </trkpt>
      <trkpt lat="49.16437" lon="1.6565">
        <ele>52.626972198486</ele>
        <time>2015-09-13T08:26:32.000Z</time>
      </trkpt>
      <trkpt lat="49.16433" lon="1.65652">
        <ele>53.315784454346</ele>
        <time>2015-09-13T08:26:36.000Z</time>
      </trkpt>
      <trkpt lat="49.16427" lon="1.65653">
        <ele>53.96199798584</ele>
        <time>2015-09-13T08:26:37.000Z</time>
      </trkpt>
      <trkpt lat="49.16417" lon="1.65655">
        <ele>54.744415283203</ele>
        <time>2015-09-13T08:26:43.000Z</time>
      </trkpt>
      <trkpt lat="49.16407" lon="1.65656">
        <ele>55.529376983643</ele>
        <time>2015-09-13T08:26:49.000Z</time>
      </trkpt>
      <trkpt lat="49.16398" lon="1.6566">
        <ele>56.199024200439</ele>
        <time>2015-09-13T08:26:54.000Z</time>
      </trkpt>
      <trkpt lat="49.16389" lon="1.65663">
        <ele>56.861656188965</ele>
        <time>2015-09-13T08:27:00.000Z</time>
      </trkpt>
      <trkpt lat="49.16378" lon="1.65663">
        <ele>57.473510742188</ele>
        <time>2015-09-13T08:27:05.000Z</time>
      </trkpt>
      <trkpt lat="49.16367" lon="1.6566">
        <ele>57.928882598877</ele>
        <time>2015-09-13T08:27:10.000Z</time>
      </trkpt>
      <trkpt lat="49.16357" lon="1.65659">
        <ele>58.369823455811</ele>
        <time>2015-09-13T08:27:15.000Z</time>
      </trkpt>
      <trkpt lat="49.16349" lon="1.65654">
        <ele>58.78475189209</ele>
        <time>2015-09-13T08:27:18.000Z</time>
      </trkpt>
      <trkpt lat="49.16347" lon="1.65653">
        <ele>59.137481689453</ele>
        <time>2015-09-13T08:27:20.000Z</time>
      </trkpt>
      <trkpt lat="49.16337" lon="1.65647">
        <ele>59.519634246826</ele>
        <time>2015-09-13T08:27:26.000Z</time>
      </trkpt>
      <trkpt lat="49.16328" lon="1.65642">
        <ele>59.953144073486</ele>
        <time>2015-09-13T08:27:31.000Z</time>
      </trkpt>
      <trkpt lat="49.16324" lon="1.65638">
        <ele>60.386646270752</ele>
        <time>2015-09-13T08:27:34.000Z</time>
      </trkpt>
      <trkpt lat="49.16316" lon="1.65633">
        <ele>60.879814147949</ele>
        <time>2015-09-13T08:27:37.000Z</time>
      </trkpt>
      <trkpt lat="49.16307" lon="1.65629">
        <ele>61.504302978516</ele>
        <time>2015-09-13T08:27:43.000Z</time>
      </trkpt>
      <trkpt lat="49.16296" lon="1.65627">
        <ele>62.187705993652</ele>
        <time>2015-09-13T08:27:48.000Z</time>
      </trkpt>
      <trkpt lat="49.16288" lon="1.65624">
        <ele>62.847145080566</ele>
        <time>2015-09-13T08:27:51.000Z</time>
      </trkpt>
      <trkpt lat="49.16282" lon="1.65621">
        <ele>63.520557403564</ele>
        <time>2015-09-13T08:27:53.000Z</time>
      </trkpt>
      <trkpt lat="49.16279" lon="1.65619">
        <ele>64.101600646973</ele>
        <time>2015-09-13T08:27:56.000Z</time>
      </trkpt>
      <trkpt lat="49.1627" lon="1.65615">
        <ele>64.660095214844</ele>
        <time>2015-09-13T08:27:59.000Z</time>
      </trkpt>
      <trkpt lat="49.16261" lon="1.65614">
        <ele>65.175437927246</ele>
        <time>2015-09-13T08:28:04.000Z</time>
      </trkpt>
      <trkpt lat="49.16254" lon="1.6561">
        <ele>65.662742614746</ele>
        <time>2015-09-13T08:28:06.000Z</time>
      </trkpt>
      <trkpt lat="49.16253" lon="1.65609">
        <ele>66.07878112793</ele>
        <time>2015-09-13T08:28:09.000Z</time>
      </trkpt>
      <trkpt lat="49.16242" lon="1.65605">
        <ele>66.498397827148</ele>
        <time>2015-09-13T08:28:13.000Z</time>
      </trkpt>
      <trkpt lat="49.16238" lon="1.65603">
        <ele>66.799728393555</ele>
        <time>2015-09-13T08:28:16.000Z</time>
      </trkpt>
      <trkpt lat="49.16236" lon="1.65602">
        <ele>66.976280212402</ele>
        <time>2015-09-13T08:28:20.000Z</time>
      </trkpt>
      <trkpt lat="49.16231" lon="1.656">
        <ele>67.091903686523</ele>
        <time>2015-09-13T08:28:21.000Z</time>
      </trkpt>
      <trkpt lat="49.16231" lon="1.656">
        <ele>67.091903686523</ele>
        <time>2015-09-13T08:28:31.000Z</time>
      </trkpt>
      <trkpt lat="49.16222" lon="1.65598">
        <ele>67.22159576416</ele>
        <time>2015-09-13T08:28:32.000Z</time>
      </trkpt>
      <trkpt lat="49.16211" lon="1.65593">
        <ele>67.389266967773</ele>
        <time>2015-09-13T08:28:39.000Z</time>
      </trkpt>
      <trkpt lat="49.16202" lon="1.65588">
        <ele>67.650718688965</ele>
        <time>2015-09-13T08:28:46.000Z</time>
      </trkpt>
      <trkpt lat="49.16194" lon="1.65584">
        <ele>68.015823364258</ele>
        <time>2015-09-13T08:28:51.000Z</time>
      </trkpt>
      <trkpt lat="49.16185" lon="1.6558">
        <ele>68.446304321289</ele>
        <time>2015-09-13T08:28:56.000Z</time>
      </trkpt>
      <trkpt lat="49.1618" lon="1.65577">
        <ele>68.88436126709</ele>
        <time>2015-09-13T08:28:58.000Z</time>
      </trkpt>
      <trkpt lat="49.16174" lon="1.65573">
        <ele>69.29850769043</ele>
        <time>2015-09-13T08:29:02.000Z</time>
      </trkpt>
      <trkpt lat="49.1617" lon="1.65569">
        <ele>69.656578063965</ele>
        <time>2015-09-13T08:29:03.000Z</time>
      </trkpt>
      <trkpt lat="49.16162" lon="1.65561">
        <ele>69.950942993164</ele>
        <time>2015-09-13T08:29:06.000Z</time>
      </trkpt>
      <trkpt lat="49.16157" lon="1.65553">
        <ele>70.173858642578</ele>
        <time>2015-09-13T08:29:09.000Z</time>
      </trkpt>
      <trkpt lat="49.1615" lon="1.65546">
        <ele>70.357406616211</ele>
        <time>2015-09-13T08:29:12.000Z</time>
      </trkpt>
      <trkpt lat="49.16144" lon="1.65539">
        <ele>70.497886657715</ele>
        <time>2015-09-13T08:29:15.000Z</time>
      </trkpt>
      <trkpt lat="49.1614" lon="1.65533">
        <ele>70.603935241699</ele>
        <time>2015-09-13T08:29:17.000Z</time>
      </trkpt>
      <trkpt lat="49.16133" lon="1.65524">
        <ele>70.696166992188</ele>
        <time>2015-09-13T08:29:20.000Z</time>
      </trkpt>
      <trkpt lat="49.16128" lon="1.65513">
        <ele>70.819068908691</ele>
        <time>2015-09-13T08:29:23.000Z</time>
      </trkpt>
      <trkpt lat="49.16124" lon="1.65506">
        <ele>70.96460723877</ele>
        <time>2015-09-13T08:29:25.000Z</time>
      </trkpt>
      <trkpt lat="49.16122" lon="1.65499">
        <ele>71.125305175781</ele>
        <time>2015-09-13T08:29:27.000Z</time>
      </trkpt>
      <trkpt lat="49.1612" lon="1.65495">
        <ele>71.291687011719</ele>
        <time>2015-09-13T08:29:29.000Z</time>
      </trkpt>
      <trkpt lat="49.16117" lon="1.65487">
        <ele>71.466407775879</ele>
        <time>2015-09-13T08:29:32.000Z</time>
      </trkpt>
      <trkpt lat="49.16116" lon="1.65481">
        <ele>71.621139526367</ele>
        <time>2015-09-13T08:29:34.000Z</time>
      </trkpt>
      <trkpt lat="49.16114" lon="1.65475">
        <ele>71.772048950195</ele>
        <time>2015-09-13T08:29:36.000Z</time>
      </trkpt>
      <trkpt lat="49.16113" lon="1.65467">
        <ele>71.933898925781</ele>
        <time>2015-09-13T08:29:39.000Z</time>
      </trkpt>
      <trkpt lat="49.16113" lon="1.65461">
        <ele>72.105049133301</ele>
        <time>2015-09-13T08:29:41.000Z</time>
      </trkpt>
      <trkpt lat="49.16112" lon="1.65456">
        <ele>72.263305664062</ele>
        <time>2015-09-13T08:29:43.000Z</time>
      </trkpt>
      <trkpt lat="49.16111" lon="1.65447">
        <ele>72.44026184082</ele>
        <time>2015-09-13T08:29:47.000Z</time>
      </trkpt>
      <trkpt lat="49.1611" lon="1.65438">
        <ele>72.637367248535</ele>
        <time>2015-09-13T08:29:49.000Z</time>
      </trkpt>
      <trkpt lat="49.16109" lon="1.65429">
        <ele>72.835830688477</ele>
        <time>2015-09-13T08:29:53.000Z</time>
      </trkpt>
      <trkpt lat="49.16108" lon="1.65422">
        <ele>73.038429260254</ele>
        <time>2015-09-13T08:29:55.000Z</time>
      </trkpt>
      <trkpt lat="49.16108" lon="1.65417">
        <ele>73.238693237305</ele>
        <time>2015-09-13T08:29:58.000Z</time>
      </trkpt>
      <trkpt lat="49.16107" lon="1.6541">
        <ele>73.439041137695</ele>
        <time>2015-09-13T08:29:59.000Z</time>
      </trkpt>
      <trkpt lat="49.16106" lon="1.65401">
        <ele>73.660903930664</ele>
        <time>2015-09-13T08:30:02.000Z</time>
      </trkpt>
      <trkpt lat="49.16106" lon="1.65392">
        <ele>73.902969360352</ele>
        <time>2015-09-13T08:30:05.000Z</time>
      </trkpt>
      <trkpt lat="49.16105" lon="1.65383">
        <ele>74.17569732666</ele>
        <time>2015-09-13T08:30:08.000Z</time>
      </trkpt>
      <trkpt lat="49.16104" lon="1.65373">
        <ele>74.498657226562</ele>
        <time>2015-09-13T08:30:11.000Z</time>
      </trkpt>
      <trkpt lat="49.16104" lon="1.65366">
        <ele>74.82551574707</ele>
        <time>2015-09-13T08:30:13.000Z</time>
      </trkpt>
      <trkpt lat="49.16103" lon="1.65355">
        <ele>75.168075561523</ele>
        <time>2015-09-13T08:30:16.000Z</time>
      </trkpt>
      <trkpt lat="49.16103" lon="1.65349">
        <ele>75.490432739258</ele>
        <time>2015-09-13T08:30:18.000Z</time>
      </trkpt>
      <trkpt lat="49.16102" lon="1.65342">
        <ele>75.79460144043</ele>
        <time>2015-09-13T08:30:21.000Z</time>
      </trkpt>
      <trkpt lat="49.16101" lon="1.65335">
        <ele>76.067016601562</ele>
        <time>2015-09-13T08:30:22.000Z</time>
      </trkpt>
      <trkpt lat="49.16098" lon="1.65326">
        <ele>76.344276428223</ele>
        <time>2015-09-13T08:30:26.000Z</time>
      </trkpt>
      <trkpt lat="49.16095" lon="1.65316">
        <ele>76.605155944824</ele>
        <time>2015-09-13T08:30:28.000Z</time>
      </trkpt>
      <trkpt lat="49.16091" lon="1.65306">
        <ele>76.893424987793</ele>
        <time>2015-09-13T08:30:31.000Z</time>
      </trkpt>
      <trkpt lat="49.16088" lon="1.65299">
        <ele>77.174850463867</ele>
        <time>2015-09-13T08:30:34.000Z</time>
      </trkpt>
      <trkpt lat="49.16085" lon="1.65294">
        <ele>77.451988220215</ele>
        <time>2015-09-13T08:30:37.000Z</time>
      </trkpt>
      <trkpt lat="49.16081" lon="1.65288">
        <ele>77.70735168457</ele>
        <time>2015-09-13T08:30:38.000Z</time>
      </trkpt>
      <trkpt lat="49.16077" lon="1.6528">
        <ele>77.946823120117</ele>
        <time>2015-09-13T08:30:42.000Z</time>
      </trkpt>
      <trkpt lat="49.16074" lon="1.65275">
        <ele>78.140029907227</ele>
        <time>2015-09-13T08:30:43.000Z</time>
      </trkpt>
      <trkpt lat="49.16069" lon="1.65268">
        <ele>78.340347290039</ele>
        <time>2015-09-13T08:30:46.000Z</time>
      </trkpt>
      <trkpt lat="49.16063" lon="1.6526">
        <ele>78.556991577148</ele>
        <time>2015-09-13T08:30:49.000Z</time>
      </trkpt>
      <trkpt lat="49.16057" lon="1.65251">
        <ele>78.794990539551</ele>
        <time>2015-09-13T08:30:53.000Z</time>
      </trkpt>
      <trkpt lat="49.16053" lon="1.65246">
        <ele>79.006553649902</ele>
        <time>2015-09-13T08:30:54.000Z</time>
      </trkpt>
      <trkpt lat="49.16046" lon="1.65237">
        <ele>79.229248046875</ele>
        <time>2015-09-13T08:30:57.000Z</time>
      </trkpt>
      <trkpt lat="49.1604" lon="1.65229">
        <ele>79.446304321289</ele>
        <time>2015-09-13T08:31:00.000Z</time>
      </trkpt>
      <trkpt lat="49.16037" lon="1.65224">
        <ele>79.636909484863</ele>
        <time>2015-09-13T08:31:02.000Z</time>
      </trkpt>
      <trkpt lat="49.16031" lon="1.65217">
        <ele>79.810134887695</ele>
        <time>2015-09-13T08:31:05.000Z</time>
      </trkpt>
      <trkpt lat="49.16027" lon="1.65213">
        <ele>79.981147766113</ele>
        <time>2015-09-13T08:31:07.000Z</time>
      </trkpt>
      <trkpt lat="49.16022" lon="1.65206">
        <ele>80.159309387207</ele>
        <time>2015-09-13T08:31:10.000Z</time>
      </trkpt>
      <trkpt lat="49.16017" lon="1.652">
        <ele>80.33366394043</ele>
        <time>2015-09-13T08:31:12.000Z</time>
      </trkpt>
      <trkpt lat="49.16011" lon="1.65192">
        <ele>80.532333374023</ele>
        <time>2015-09-13T08:31:15.000Z</time>
      </trkpt>
      <trkpt lat="49.16005" lon="1.65184">
        <ele>80.750938415527</ele>
        <time>2015-09-13T08:31:18.000Z</time>
      </trkpt>
      <trkpt lat="49.16" lon="1.65175">
        <ele>81.011512756348</ele>
        <time>2015-09-13T08:31:21.000Z</time>
      </trkpt>
      <trkpt lat="49.15994" lon="1.65165">
        <ele>81.29118347168</ele>
        <time>2015-09-13T08:31:24.000Z</time>
      </trkpt>
      <trkpt lat="49.1599" lon="1.65159">
        <ele>81.543312072754</ele>
        <time>2015-09-13T08:31:26.000Z</time>
      </trkpt>
      <trkpt lat="49.15987" lon="1.65153">
        <ele>81.755104064941</ele>
        <time>2015-09-13T08:31:28.000Z</time>
      </trkpt>
      <trkpt lat="49.1598" lon="1.65144">
        <ele>81.930839538574</ele>
        <time>2015-09-13T08:31:31.000Z</time>
      </trkpt>
      <trkpt lat="49.15974" lon="1.65136">
        <ele>82.054611206055</ele>
        <time>2015-09-13T08:31:33.000Z</time>
      </trkpt>
      <trkpt lat="49.15969" lon="1.65129">
        <ele>82.135238647461</ele>
        <time>2015-09-13T08:31:35.000Z</time>
      </trkpt>
      <trkpt lat="49.15962" lon="1.65121">
        <ele>82.228103637695</ele>
        <time>2015-09-13T08:31:38.000Z</time>
      </trkpt>
      <trkpt lat="49.15959" lon="1.65116">
        <ele>82.327713012695</ele>
        <time>2015-09-13T08:31:40.000Z</time>
      </trkpt>
      <trkpt lat="49.15953" lon="1.65106">
        <ele>82.444900512695</ele>
        <time>2015-09-13T08:31:44.000Z</time>
      </trkpt>
      <trkpt lat="49.15949" lon="1.65099">
        <ele>82.581985473633</ele>
        <time>2015-09-13T08:31:45.000Z</time>
      </trkpt>
      <trkpt lat="49.15944" lon="1.65089">
        <ele>82.744453430176</ele>
        <time>2015-09-13T08:31:48.000Z</time>
      </trkpt>
      <trkpt lat="49.15939" lon="1.65082">
        <ele>82.921798706055</ele>
        <time>2015-09-13T08:31:51.000Z</time>
      </trkpt>
      <trkpt lat="49.15934" lon="1.65073">
        <ele>83.132202148438</ele>
        <time>2015-09-13T08:31:55.000Z</time>
      </trkpt>
      <trkpt lat="49.15928" lon="1.65062">
        <ele>83.369102478027</ele>
        <time>2015-09-13T08:31:57.000Z</time>
      </trkpt>
      <trkpt lat="49.15923" lon="1.65049">
        <ele>83.647567749023</ele>
        <time>2015-09-13T08:32:01.000Z</time>
      </trkpt>
      <trkpt lat="49.15919" lon="1.65042">
        <ele>83.922576904297</ele>
        <time>2015-09-13T08:32:02.000Z</time>
      </trkpt>
      <trkpt lat="49.15913" lon="1.65032">
        <ele>84.248924255371</ele>
        <time>2015-09-13T08:32:05.000Z</time>
      </trkpt>
      <trkpt lat="49.1591" lon="1.65026">
        <ele>84.586921691895</ele>
        <time>2015-09-13T08:32:07.000Z</time>
      </trkpt>
      <trkpt lat="49.15905" lon="1.65017">
        <ele>84.959350585938</ele>
        <time>2015-09-13T08:32:11.000Z</time>
      </trkpt>
      <trkpt lat="49.15902" lon="1.65007">
        <ele>85.353591918945</ele>
        <time>2015-09-13T08:32:13.000Z</time>
      </trkpt>
      <trkpt lat="49.15898" lon="1.64997">
        <ele>85.816627502441</ele>
        <time>2015-09-13T08:32:17.000Z</time>
      </trkpt>
      <trkpt lat="49.15897" lon="1.64991">
        <ele>86.251586914062</ele>
        <time>2015-09-13T08:32:18.000Z</time>
      </trkpt>
      <trkpt lat="49.15895" lon="1.64983">
        <ele>86.703872680664</ele>
        <time>2015-09-13T08:32:22.000Z</time>
      </trkpt>
      <trkpt lat="49.15893" lon="1.64977">
        <ele>87.126968383789</ele>
        <time>2015-09-13T08:32:23.000Z</time>
      </trkpt>
      <trkpt lat="49.15891" lon="1.6497">
        <ele>87.54426574707</ele>
        <time>2015-09-13T08:32:26.000Z</time>
      </trkpt>
      <trkpt lat="49.15889" lon="1.64962">
        <ele>87.937118530273</ele>
        <time>2015-09-13T08:32:29.000Z</time>
      </trkpt>
      <trkpt lat="49.15888" lon="1.64958">
        <ele>88.328750610352</ele>
        <time>2015-09-13T08:32:31.000Z</time>
      </trkpt>
      <trkpt lat="49.15886" lon="1.64951">
        <ele>88.728408813477</ele>
        <time>2015-09-13T08:32:34.000Z</time>
      </trkpt>
      <trkpt lat="49.15884" lon="1.64947">
        <ele>89.105812072754</ele>
        <time>2015-09-13T08:32:36.000Z</time>
      </trkpt>
      <trkpt lat="49.15883" lon="1.64942">
        <ele>89.454216003418</ele>
        <time>2015-09-13T08:32:39.000Z</time>
      </trkpt>
      <trkpt lat="49.15882" lon="1.64939">
        <ele>89.769515991211</ele>
        <time>2015-09-13T08:32:41.000Z</time>
      </trkpt>
      <trkpt lat="49.15881" lon="1.64934">
        <ele>90.097679138184</ele>
        <time>2015-09-13T08:32:44.000Z</time>
      </trkpt>
      <trkpt lat="49.15878" lon="1.64928">
        <ele>90.423713684082</ele>
        <time>2015-09-13T08:32:47.000Z</time>
      </trkpt>
      <trkpt lat="49.15876" lon="1.64923">
        <ele>90.793334960938</ele>
        <time>2015-09-13T08:32:50.000Z</time>
      </trkpt>
      <trkpt lat="49.15874" lon="1.64917">
        <ele>91.185432434082</ele>
        <time>2015-09-13T08:32:53.000Z</time>
      </trkpt>
      <trkpt lat="49.15873" lon="1.64912">
        <ele>91.609634399414</ele>
        <time>2015-09-13T08:32:56.000Z</time>
      </trkpt>
      <trkpt lat="49.1587" lon="1.64905">
        <ele>92.072105407715</ele>
        <time>2015-09-13T08:32:59.000Z</time>
      </trkpt>
      <trkpt lat="49.15868" lon="1.64899">
        <ele>92.543739318848</ele>
        <time>2015-09-13T08:33:02.000Z</time>
      </trkpt>
      <trkpt lat="49.15867" lon="1.64896">
        <ele>92.976280212402</ele>
        <time>2015-09-13T08:33:04.000Z</time>
      </trkpt>
      <trkpt lat="49.15865" lon="1.64892">
        <ele>93.387916564941</ele>
        <time>2015-09-13T08:33:07.000Z</time>
      </trkpt>
      <trkpt lat="49.15863" lon="1.64887">
        <ele>93.79411315918</ele>
        <time>2015-09-13T08:33:10.000Z</time>
      </trkpt>
      <trkpt lat="49.15862" lon="1.64884">
        <ele>94.150489807129</ele>
        <time>2015-09-13T08:33:12.000Z</time>
      </trkpt>
      <trkpt lat="49.15859" lon="1.64878">
        <ele>94.497016906738</ele>
        <time>2015-09-13T08:33:15.000Z</time>
      </trkpt>
      <trkpt lat="49.15858" lon="1.64875">
        <ele>94.840744018555</ele>
        <time>2015-09-13T08:33:17.000Z</time>
      </trkpt>
      <trkpt lat="49.15857" lon="1.64871">
        <ele>95.183311462402</ele>
        <time>2015-09-13T08:33:19.000Z</time>
      </trkpt>
      <trkpt lat="49.15855" lon="1.64866">
        <ele>95.520751953125</ele>
        <time>2015-09-13T08:33:22.000Z</time>
      </trkpt>
      <trkpt lat="49.15853" lon="1.64861">
        <ele>95.87272644043</ele>
        <time>2015-09-13T08:33:25.000Z</time>
      </trkpt>
      <trkpt lat="49.15851" lon="1.64858">
        <ele>96.195297241211</ele>
        <time>2015-09-13T08:33:27.000Z</time>
      </trkpt>
      <trkpt lat="49.15849" lon="1.64855">
        <ele>96.513732910156</ele>
        <time>2015-09-13T08:33:29.000Z</time>
      </trkpt>
      <trkpt lat="49.15848" lon="1.64852">
        <ele>96.815223693848</ele>
        <time>2015-09-13T08:33:31.000Z</time>
      </trkpt>
      <trkpt lat="49.15845" lon="1.64847">
        <ele>97.117149353027</ele>
        <time>2015-09-13T08:33:34.000Z</time>
      </trkpt>
      <trkpt lat="49.15844" lon="1.64844">
        <ele>97.392761230469</ele>
        <time>2015-09-13T08:33:36.000Z</time>
      </trkpt>
      <trkpt lat="49.15842" lon="1.64839">
        <ele>97.675827026367</ele>
        <time>2015-09-13T08:33:39.000Z</time>
      </trkpt>
      <trkpt lat="49.15839" lon="1.64833">
        <ele>98.003128051758</ele>
        <time>2015-09-13T08:33:42.000Z</time>
      </trkpt>
      <trkpt lat="49.15837" lon="1.64829">
        <ele>98.357894897461</ele>
        <time>2015-09-13T08:33:44.000Z</time>
      </trkpt>
      <trkpt lat="49.15835" lon="1.64824">
        <ele>98.736892700195</ele>
        <time>2015-09-13T08:33:47.000Z</time>
      </trkpt>
      <trkpt lat="49.15833" lon="1.6482">
        <ele>99.13752746582</ele>
        <time>2015-09-13T08:33:50.000Z</time>
      </trkpt>
      <trkpt lat="49.15831" lon="1.64816">
        <ele>99.580848693848</ele>
        <time>2015-09-13T08:33:54.000Z</time>
      </trkpt>
      <trkpt lat="49.15828" lon="1.64811">
        <ele>100.0240020752</ele>
        <time>2015-09-13T08:33:56.000Z</time>
      </trkpt>
      <trkpt lat="49.15826" lon="1.64807">
        <ele>100.49957275391</ele>
        <time>2015-09-13T08:34:00.000Z</time>
      </trkpt>
      <trkpt lat="49.15823" lon="1.64801">
        <ele>100.99343109131</ele>
        <time>2015-09-13T08:34:02.000Z</time>
      </trkpt>
      <trkpt lat="49.15822" lon="1.64799">
        <ele>101.47049713135</ele>
        <time>2015-09-13T08:34:04.000Z</time>
      </trkpt>
      <trkpt lat="49.1582" lon="1.64797">
        <ele>101.89575195312</ele>
        <time>2015-09-13T08:34:06.000Z</time>
      </trkpt>
      <trkpt lat="49.15818" lon="1.64793">
        <ele>102.33275604248</ele>
        <time>2015-09-13T08:34:10.000Z</time>
      </trkpt>
      <trkpt lat="49.15815" lon="1.64788">
        <ele>102.77220153809</ele>
        <time>2015-09-13T08:34:12.000Z</time>
      </trkpt>
      <trkpt lat="49.15812" lon="1.64783">
        <ele>103.23587799072</ele>
        <time>2015-09-13T08:34:15.000Z</time>
      </trkpt>
      <trkpt lat="49.15809" lon="1.6478">
        <ele>103.72453308105</ele>
        <time>2015-09-13T08:34:17.000Z</time>
      </trkpt>
      <trkpt lat="49.15808" lon="1.64777">
        <ele>104.22294616699</ele>
        <time>2015-09-13T08:34:19.000Z</time>
      </trkpt>
      <trkpt lat="49.15806" lon="1.64771">
        <ele>104.74124908447</ele>
        <time>2015-09-13T08:34:22.000Z</time>
      </trkpt>
      <trkpt lat="49.15804" lon="1.64766">
        <ele>105.25648498535</ele>
        <time>2015-09-13T08:34:25.000Z</time>
      </trkpt>
      <trkpt lat="49.15802" lon="1.64761">
        <ele>105.73988342285</ele>
        <time>2015-09-13T08:34:28.000Z</time>
      </trkpt>
      <trkpt lat="49.158" lon="1.64758">
        <ele>106.21846008301</ele>
        <time>2015-09-13T08:34:30.000Z</time>
      </trkpt>
      <trkpt lat="49.15799" lon="1.64755">
        <ele>106.69828033447</ele>
        <time>2015-09-13T08:34:32.000Z</time>
      </trkpt>
      <trkpt lat="49.15796" lon="1.64749">
        <ele>107.18663024902</ele>
        <time>2015-09-13T08:34:35.000Z</time>
      </trkpt>
      <trkpt lat="49.15795" lon="1.64744">
        <ele>107.65272521973</ele>
        <time>2015-09-13T08:34:38.000Z</time>
      </trkpt>
      <trkpt lat="49.15794" lon="1.64742">
        <ele>108.03896331787</ele>
        <time>2015-09-13T08:34:40.000Z</time>
      </trkpt>
      <trkpt lat="49.15793" lon="1.64738">
        <ele>108.42846679688</ele>
        <time>2015-09-13T08:34:43.000Z</time>
      </trkpt>
      <trkpt lat="49.15792" lon="1.64734">
        <ele>108.80029296875</ele>
        <time>2015-09-13T08:34:45.000Z</time>
      </trkpt>
      <trkpt lat="49.15791" lon="1.64731">
        <ele>109.10546875</ele>
        <time>2015-09-13T08:34:48.000Z</time>
      </trkpt>
      <trkpt lat="49.1579" lon="1.64726">
        <ele>109.39316558838</ele>
        <time>2015-09-13T08:34:50.000Z</time>
      </trkpt>
      <trkpt lat="49.15789" lon="1.64721">
        <ele>109.73742675781</ele>
        <time>2015-09-13T08:34:54.000Z</time>
      </trkpt>
      <trkpt lat="49.15788" lon="1.64715">
        <ele>110.08500671387</ele>
        <time>2015-09-13T08:34:56.000Z</time>
      </trkpt>
      <trkpt lat="49.15787" lon="1.6471">
        <ele>110.45931243896</ele>
        <time>2015-09-13T08:34:59.000Z</time>
      </trkpt>
      <trkpt lat="49.15786" lon="1.64706">
        <ele>110.8345489502</ele>
        <time>2015-09-13T08:35:01.000Z</time>
      </trkpt>
      <trkpt lat="49.15784" lon="1.64702">
        <ele>111.20011138916</ele>
        <time>2015-09-13T08:35:03.000Z</time>
      </trkpt>
      <trkpt lat="49.15783" lon="1.64697">
        <ele>111.57238769531</ele>
        <time>2015-09-13T08:35:06.000Z</time>
      </trkpt>
      <trkpt lat="49.15782" lon="1.64693">
        <ele>111.92002105713</ele>
        <time>2015-09-13T08:35:08.000Z</time>
      </trkpt>
      <trkpt lat="49.1578" lon="1.64689">
        <ele>112.25970458984</ele>
        <time>2015-09-13T08:35:11.000Z</time>
      </trkpt>
      <trkpt lat="49.15778" lon="1.64683">
        <ele>112.63140869141</ele>
        <time>2015-09-13T08:35:14.000Z</time>
      </trkpt>
      <trkpt lat="49.15776" lon="1.6468">
        <ele>112.99311828613</ele>
        <time>2015-09-13T08:35:16.000Z</time>
      </trkpt>
      <trkpt lat="49.15775" lon="1.64676">
        <ele>113.32991027832</ele>
        <time>2015-09-13T08:35:19.000Z</time>
      </trkpt>
      <trkpt lat="49.15774" lon="1.64672">
        <ele>113.65952301025</ele>
        <time>2015-09-13T08:35:21.000Z</time>
      </trkpt>
      <trkpt lat="49.15772" lon="1.64667">
        <ele>114.00483703613</ele>
        <time>2015-09-13T08:35:24.000Z</time>
      </trkpt>
      <trkpt lat="49.15771" lon="1.64663">
        <ele>114.32694244385</ele>
        <time>2015-09-13T08:35:26.000Z</time>
      </trkpt>
      <trkpt lat="49.15769" lon="1.64656">
        <ele>114.73329925537</ele>
        <time>2015-09-13T08:35:29.000Z</time>
      </trkpt>
      <trkpt lat="49.15768" lon="1.64653">
        <ele>115.13291931152</ele>
        <time>2015-09-13T08:35:31.000Z</time>
      </trkpt>
      <trkpt lat="49.15766" lon="1.64647">
        <ele>115.60498046875</ele>
        <time>2015-09-13T08:35:34.000Z</time>
      </trkpt>
      <trkpt lat="49.15764" lon="1.64643">
        <ele>116.07820892334</ele>
        <time>2015-09-13T08:35:36.000Z</time>
      </trkpt>
      <trkpt lat="49.15761" lon="1.64636">
        <ele>116.62614440918</ele>
        <time>2015-09-13T08:35:39.000Z</time>
      </trkpt>
      <trkpt lat="49.15759" lon="1.6463">
        <ele>117.17519378662</ele>
        <time>2015-09-13T08:35:42.000Z</time>
      </trkpt>
      <trkpt lat="49.15759" lon="1.64627">
        <ele>117.71966552734</ele>
        <time>2015-09-13T08:35:45.000Z</time>
      </trkpt>
      <trkpt lat="49.15755" lon="1.64619">
        <ele>118.30838775635</ele>
        <time>2015-09-13T08:35:48.000Z</time>
      </trkpt>
      <trkpt lat="49.15754" lon="1.64614">
        <ele>118.93078613281</ele>
        <time>2015-09-13T08:35:51.000Z</time>
      </trkpt>
      <trkpt lat="49.15752" lon="1.64611">
        <ele>119.48219299316</ele>
        <time>2015-09-13T08:35:53.000Z</time>
      </trkpt>
      <trkpt lat="49.15751" lon="1.64607">
        <ele>119.99027252197</ele>
        <time>2015-09-13T08:35:56.000Z</time>
      </trkpt>
      <trkpt lat="49.1575" lon="1.64601">
        <ele>120.54034423828</ele>
        <time>2015-09-13T08:35:58.000Z</time>
      </trkpt>
      <trkpt lat="49.15749" lon="1.64597">
        <ele>121.01190185547</ele>
        <time>2015-09-13T08:36:01.000Z</time>
      </trkpt>
      <trkpt lat="49.15749" lon="1.6459">
        <ele>121.4815826416</ele>
        <time>2015-09-13T08:36:03.000Z</time>
      </trkpt>
      <trkpt lat="49.15749" lon="1.64585">
        <ele>121.9615020752</ele>
        <time>2015-09-13T08:36:06.000Z</time>
      </trkpt>
      <trkpt lat="49.15749" lon="1.6458">
        <ele>122.43984222412</ele>
        <time>2015-09-13T08:36:07.000Z</time>
      </trkpt>
      <trkpt lat="49.15749" lon="1.64574">
        <ele>122.96031188965</ele>
        <time>2015-09-13T08:36:11.000Z</time>
      </trkpt>
      <trkpt lat="49.15748" lon="1.6457">
        <ele>123.50048828125</ele>
        <time>2015-09-13T08:36:12.000Z</time>
      </trkpt>
      <trkpt lat="49.15747" lon="1.64563">
        <ele>124.0897064209</ele>
        <time>2015-09-13T08:36:15.000Z</time>
      </trkpt>
      <trkpt lat="49.15747" lon="1.64559">
        <ele>124.68379974365</ele>
        <time>2015-09-13T08:36:17.000Z</time>
      </trkpt>
      <trkpt lat="49.15747" lon="1.64553">
        <ele>125.3084487915</ele>
        <time>2015-09-13T08:36:20.000Z</time>
      </trkpt>
      <trkpt lat="49.15747" lon="1.64547">
        <ele>125.91108703613</ele>
        <time>2015-09-13T08:36:23.000Z</time>
      </trkpt>
      <trkpt lat="49.15747" lon="1.64541">
        <ele>126.53373718262</ele>
        <time>2015-09-13T08:36:27.000Z</time>
      </trkpt>
      <trkpt lat="49.15747" lon="1.64537">
        <ele>127.08003234863</ele>
        <time>2015-09-13T08:36:28.000Z</time>
      </trkpt>
      <trkpt lat="49.15748" lon="1.64531">
        <ele>127.64582824707</ele>
        <time>2015-09-13T08:36:31.000Z</time>
      </trkpt>
      <trkpt lat="49.15749" lon="1.64527">
        <ele>128.17509460449</ele>
        <time>2015-09-13T08:36:33.000Z</time>
      </trkpt>
      <trkpt lat="49.15749" lon="1.64523">
        <ele>128.66398620605</ele>
        <time>2015-09-13T08:36:35.000Z</time>
      </trkpt>
      <trkpt lat="49.15749" lon="1.64519">
        <ele>129.12966918945</ele>
        <time>2015-09-13T08:36:37.000Z</time>
      </trkpt>
      <trkpt lat="49.15749" lon="1.64515">
        <ele>129.58706665039</ele>
        <time>2015-09-13T08:36:39.000Z</time>
      </trkpt>
      <trkpt lat="49.15749" lon="1.64508">
        <ele>130.06777954102</ele>
        <time>2015-09-13T08:36:42.000Z</time>
      </trkpt>
      <trkpt lat="49.15749" lon="1.64504">
        <ele>130.55123901367</ele>
        <time>2015-09-13T08:36:44.000Z</time>
      </trkpt>
      <trkpt lat="49.1575" lon="1.64498">
        <ele>131.04890441895</ele>
        <time>2015-09-13T08:36:47.000Z</time>
      </trkpt>
      <trkpt lat="49.15751" lon="1.64492">
        <ele>131.47171020508</ele>
        <time>2015-09-13T08:36:49.000Z</time>
      </trkpt>
      <trkpt lat="49.1575" lon="1.64487">
        <ele>131.83447265625</ele>
        <time>2015-09-13T08:36:51.000Z</time>
      </trkpt>
      <trkpt lat="49.1575" lon="1.64484">
        <ele>132.08026123047</ele>
        <time>2015-09-13T08:36:54.000Z</time>
      </trkpt>
      <trkpt lat="49.1575" lon="1.64478">
        <ele>132.27569580078</ele>
        <time>2015-09-13T08:36:57.000Z</time>
      </trkpt>
      <trkpt lat="49.15749" lon="1.64471">
        <ele>132.41189575195</ele>
        <time>2015-09-13T08:37:00.000Z</time>
      </trkpt>
      <trkpt lat="49.15748" lon="1.64468">
        <ele>132.53964233398</ele>
        <time>2015-09-13T08:37:02.000Z</time>
      </trkpt>
      <trkpt lat="49.15747" lon="1.64463">
        <ele>132.67190551758</ele>
        <time>2015-09-13T08:37:04.000Z</time>
      </trkpt>
      <trkpt lat="49.15746" lon="1.64458">
        <ele>132.81381225586</ele>
        <time>2015-09-13T08:37:06.000Z</time>
      </trkpt>
      <trkpt lat="49.15746" lon="1.64453">
        <ele>132.94694519043</ele>
        <time>2015-09-13T08:37:08.000Z</time>
      </trkpt>
      <trkpt lat="49.15744" lon="1.64446">
        <ele>133.08039855957</ele>
        <time>2015-09-13T08:37:11.000Z</time>
      </trkpt>
      <trkpt lat="49.15742" lon="1.64442">
        <ele>133.21458435059</ele>
        <time>2015-09-13T08:37:13.000Z</time>
      </trkpt>
      <trkpt lat="49.15741" lon="1.64438">
        <ele>133.34326171875</ele>
        <time>2015-09-13T08:37:16.000Z</time>
      </trkpt>
      <trkpt lat="49.15739" lon="1.64431">
        <ele>133.47184753418</ele>
        <time>2015-09-13T08:37:18.000Z</time>
      </trkpt>
      <trkpt lat="49.15737" lon="1.64427">
        <ele>133.59317016602</ele>
        <time>2015-09-13T08:37:20.000Z</time>
      </trkpt>
      <trkpt lat="49.15735" lon="1.64422">
        <ele>133.69918823242</ele>
        <time>2015-09-13T08:37:22.000Z</time>
      </trkpt>
      <trkpt lat="49.15733" lon="1.64415">
        <ele>133.80741882324</ele>
        <time>2015-09-13T08:37:25.000Z</time>
      </trkpt>
      <trkpt lat="49.15732" lon="1.64411">
        <ele>133.91172790527</ele>
        <time>2015-09-13T08:37:28.000Z</time>
      </trkpt>
      <trkpt lat="49.1573" lon="1.64406">
        <ele>134.00369262695</ele>
        <time>2015-09-13T08:37:29.000Z</time>
      </trkpt>
      <trkpt lat="49.15728" lon="1.64399">
        <ele>134.10696411133</ele>
        <time>2015-09-13T08:37:33.000Z</time>
      </trkpt>
      <trkpt lat="49.15725" lon="1.64392">
        <ele>134.22052001953</ele>
        <time>2015-09-13T08:37:35.000Z</time>
      </trkpt>
      <trkpt lat="49.15723" lon="1.64387">
        <ele>134.33427429199</ele>
        <time>2015-09-13T08:37:38.000Z</time>
      </trkpt>
      <trkpt lat="49.15719" lon="1.6438">
        <ele>134.46797180176</ele>
        <time>2015-09-13T08:37:40.000Z</time>
      </trkpt>
      <trkpt lat="49.15717" lon="1.64374">
        <ele>134.6145324707</ele>
        <time>2015-09-13T08:37:43.000Z</time>
      </trkpt>
      <trkpt lat="49.15714" lon="1.64369">
        <ele>134.76431274414</ele>
        <time>2015-09-13T08:37:44.000Z</time>
      </trkpt>
      <trkpt lat="49.15709" lon="1.64361">
        <ele>134.93185424805</ele>
        <time>2015-09-13T08:37:47.000Z</time>
      </trkpt>
      <trkpt lat="49.15706" lon="1.64354">
        <ele>135.12339782715</ele>
        <time>2015-09-13T08:37:50.000Z</time>
      </trkpt>
      <trkpt lat="49.15704" lon="1.64349">
        <ele>135.30960083008</ele>
        <time>2015-09-13T08:37:52.000Z</time>
      </trkpt>
      <trkpt lat="49.15701" lon="1.64343">
        <ele>135.50979614258</ele>
        <time>2015-09-13T08:37:56.000Z</time>
      </trkpt>
      <trkpt lat="49.15697" lon="1.64332">
        <ele>135.75033569336</ele>
        <time>2015-09-13T08:37:57.000Z</time>
      </trkpt>
      <trkpt lat="49.15693" lon="1.64323">
        <ele>135.95449829102</ele>
        <time>2015-09-13T08:38:02.000Z</time>
      </trkpt>
      <trkpt lat="49.15689" lon="1.64314">
        <ele>136.11575317383</ele>
        <time>2015-09-13T08:38:03.000Z</time>
      </trkpt>
      <trkpt lat="49.15685" lon="1.64307">
        <ele>136.25170898438</ele>
        <time>2015-09-13T08:38:08.000Z</time>
      </trkpt>
      <trkpt lat="49.15683" lon="1.64301">
        <ele>136.34457397461</ele>
        <time>2015-09-13T08:38:09.000Z</time>
      </trkpt>
      <trkpt lat="49.15676" lon="1.64289">
        <ele>136.36001586914</ele>
        <time>2015-09-13T08:38:12.000Z</time>
      </trkpt>
      <trkpt lat="49.15672" lon="1.6428">
        <ele>136.35527038574</ele>
        <time>2015-09-13T08:38:13.000Z</time>
      </trkpt>
      <trkpt lat="49.15665" lon="1.64266">
        <ele>136.31869506836</ele>
        <time>2015-09-13T08:38:16.000Z</time>
      </trkpt>
      <trkpt lat="49.1566" lon="1.64256">
        <ele>136.24072265625</ele>
        <time>2015-09-13T08:38:18.000Z</time>
      </trkpt>
      <trkpt lat="49.15655" lon="1.64248">
        <ele>136.14152526855</ele>
        <time>2015-09-13T08:38:20.000Z</time>
      </trkpt>
      <trkpt lat="49.15648" lon="1.64234">
        <ele>136.05526733398</ele>
        <time>2015-09-13T08:38:25.000Z</time>
      </trkpt>
      <trkpt lat="49.15641" lon="1.64219">
        <ele>135.98239135742</ele>
        <time>2015-09-13T08:38:26.000Z</time>
      </trkpt>
      <trkpt lat="49.15637" lon="1.6421">
        <ele>135.93899536133</ele>
        <time>2015-09-13T08:38:29.000Z</time>
      </trkpt>
      <trkpt lat="49.15631" lon="1.64193">
        <ele>135.9322052002</ele>
        <time>2015-09-13T08:38:31.000Z</time>
      </trkpt>
      <trkpt lat="49.15627" lon="1.64182">
        <ele>135.94403076172</ele>
        <time>2015-09-13T08:38:33.000Z</time>
      </trkpt>
      <trkpt lat="49.1562" lon="1.64167">
        <ele>135.93371582031</ele>
        <time>2015-09-13T08:38:36.000Z</time>
      </trkpt>
      <trkpt lat="49.15615" lon="1.64157">
        <ele>135.87066650391</ele>
        <time>2015-09-13T08:38:38.000Z</time>
      </trkpt>
      <trkpt lat="49.15611" lon="1.64143">
        <ele>135.73664855957</ele>
        <time>2015-09-13T08:38:41.000Z</time>
      </trkpt>
      <trkpt lat="49.15608" lon="1.64131">
        <ele>135.54206848145</ele>
        <time>2015-09-13T08:38:43.000Z</time>
      </trkpt>
      <trkpt lat="49.15602" lon="1.64112">
        <ele>135.23999023438</ele>
        <time>2015-09-13T08:38:46.000Z</time>
      </trkpt>
      <trkpt lat="49.15598" lon="1.64099">
        <ele>134.86201477051</ele>
        <time>2015-09-13T08:38:48.000Z</time>
      </trkpt>
      <trkpt lat="49.15593" lon="1.64078">
        <ele>134.42990112305</ele>
        <time>2015-09-13T08:38:52.000Z</time>
      </trkpt>
      <trkpt lat="49.15589" lon="1.64056">
        <ele>134.02491760254</ele>
        <time>2015-09-13T08:38:54.000Z</time>
      </trkpt>
      <trkpt lat="49.15586" lon="1.64042">
        <ele>133.65367126465</ele>
        <time>2015-09-13T08:38:56.000Z</time>
      </trkpt>
      <trkpt lat="49.15582" lon="1.6402">
        <ele>133.33247375488</ele>
        <time>2015-09-13T08:38:59.000Z</time>
      </trkpt>
      <trkpt lat="49.15578" lon="1.64005">
        <ele>133.03042602539</ele>
        <time>2015-09-13T08:39:01.000Z</time>
      </trkpt>
      <trkpt lat="49.15573" lon="1.63982">
        <ele>132.72554016113</ele>
        <time>2015-09-13T08:39:04.000Z</time>
      </trkpt>
      <trkpt lat="49.15569" lon="1.63959">
        <ele>132.3616027832</ele>
        <time>2015-09-13T08:39:07.000Z</time>
      </trkpt>
      <trkpt lat="49.15566" lon="1.63943">
        <ele>131.94636535645</ele>
        <time>2015-09-13T08:39:10.000Z</time>
      </trkpt>
      <trkpt lat="49.15561" lon="1.63916">
        <ele>131.43994140625</ele>
        <time>2015-09-13T08:39:12.000Z</time>
      </trkpt>
      <trkpt lat="49.15555" lon="1.63888">
        <ele>130.95808410645</ele>
        <time>2015-09-13T08:39:15.000Z</time>
      </trkpt>
      <trkpt lat="49.15552" lon="1.6387">
        <ele>130.55090332031</ele>
        <time>2015-09-13T08:39:17.000Z</time>
      </trkpt>
      <trkpt lat="49.15549" lon="1.63852">
        <ele>130.22018432617</ele>
        <time>2015-09-13T08:39:19.000Z</time>
      </trkpt>
      <trkpt lat="49.15546" lon="1.63824">
        <ele>130.03439331055</ele>
        <time>2015-09-13T08:39:22.000Z</time>
      </trkpt>
      <trkpt lat="49.15543" lon="1.63806">
        <ele>130.14866638184</ele>
        <time>2015-09-13T08:39:24.000Z</time>
      </trkpt>
      <trkpt lat="49.15541" lon="1.63783">
        <ele>130.51438903809</ele>
        <time>2015-09-13T08:39:27.000Z</time>
      </trkpt>
      <trkpt lat="49.15538" lon="1.63759">
        <ele>131.08877563477</ele>
        <time>2015-09-13T08:39:30.000Z</time>
      </trkpt>
      <trkpt lat="49.15533" lon="1.63739">
        <ele>131.70657348633</ele>
        <time>2015-09-13T08:39:33.000Z</time>
      </trkpt>
      <trkpt lat="49.15527" lon="1.63711">
        <ele>132.18698120117</ele>
        <time>2015-09-13T08:39:35.000Z</time>
      </trkpt>
      <trkpt lat="49.15524" lon="1.63692">
        <ele>132.48931884766</ele>
        <time>2015-09-13T08:39:37.000Z</time>
      </trkpt>
      <trkpt lat="49.15519" lon="1.63665">
        <ele>132.54399108887</ele>
        <time>2015-09-13T08:39:40.000Z</time>
      </trkpt>
      <trkpt lat="49.15516" lon="1.63651">
        <ele>132.32707214355</ele>
        <time>2015-09-13T08:39:42.000Z</time>
      </trkpt>
      <trkpt lat="49.1551" lon="1.63626">
        <ele>131.95811462402</ele>
        <time>2015-09-13T08:39:45.000Z</time>
      </trkpt>
      <trkpt lat="49.15507" lon="1.63611">
        <ele>131.57752990723</ele>
        <time>2015-09-13T08:39:47.000Z</time>
      </trkpt>
      <trkpt lat="49.15499" lon="1.63583">
        <ele>131.09037780762</ele>
        <time>2015-09-13T08:39:51.000Z</time>
      </trkpt>
      <trkpt lat="49.15498" lon="1.63577">
        <ele>130.57366943359</ele>
        <time>2015-09-13T08:39:53.000Z</time>
      </trkpt>
      <trkpt lat="49.15491" lon="1.63531">
        <ele>129.80497741699</ele>
        <time>2015-09-13T08:39:58.000Z</time>
      </trkpt>
      <trkpt lat="49.15487" lon="1.63509">
        <ele>129.01422119141</ele>
        <time>2015-09-13T08:40:01.000Z</time>
      </trkpt>
      <trkpt lat="49.15482" lon="1.63493">
        <ele>128.15519714355</ele>
        <time>2015-09-13T08:40:03.000Z</time>
      </trkpt>
      <trkpt lat="49.15471" lon="1.63474">
        <ele>127.21982574463</ele>
        <time>2015-09-13T08:40:06.000Z</time>
      </trkpt>
      <trkpt lat="49.15464" lon="1.63463">
        <ele>126.2611541748</ele>
        <time>2015-09-13T08:40:08.000Z</time>
      </trkpt>
      <trkpt lat="49.15451" lon="1.63446">
        <ele>125.53485107422</ele>
        <time>2015-09-13T08:40:12.000Z</time>
      </trkpt>
      <trkpt lat="49.15441" lon="1.63431">
        <ele>124.93244934082</ele>
        <time>2015-09-13T08:40:14.000Z</time>
      </trkpt>
      <trkpt lat="49.15433" lon="1.63422">
        <ele>124.48294830322</ele>
        <time>2015-09-13T08:40:17.000Z</time>
      </trkpt>
      <trkpt lat="49.15426" lon="1.63413">
        <ele>124.26914215088</ele>
        <time>2015-09-13T08:40:18.000Z</time>
      </trkpt>
      <trkpt lat="49.15414" lon="1.63398">
        <ele>124.18132019043</ele>
        <time>2015-09-13T08:40:21.000Z</time>
      </trkpt>
      <trkpt lat="49.15407" lon="1.6339">
        <ele>124.20951080322</ele>
        <time>2015-09-13T08:40:23.000Z</time>
      </trkpt>
      <trkpt lat="49.15397" lon="1.63379">
        <ele>124.28009033203</ele>
        <time>2015-09-13T08:40:26.000Z</time>
      </trkpt>
      <trkpt lat="49.15386" lon="1.63367">
        <ele>124.37241363525</ele>
        <time>2015-09-13T08:40:29.000Z</time>
      </trkpt>
      <trkpt lat="49.15379" lon="1.63359">
        <ele>124.46209716797</ele>
        <time>2015-09-13T08:40:31.000Z</time>
      </trkpt>
      <trkpt lat="49.15369" lon="1.63348">
        <ele>124.56443786621</ele>
        <time>2015-09-13T08:40:34.000Z</time>
      </trkpt>
      <trkpt lat="49.15363" lon="1.63341">
        <ele>124.70416259766</ele>
        <time>2015-09-13T08:40:36.000Z</time>
      </trkpt>
      <trkpt lat="49.15353" lon="1.6333">
        <ele>124.88405609131</ele>
        <time>2015-09-13T08:40:40.000Z</time>
      </trkpt>
      <trkpt lat="49.15345" lon="1.63319">
        <ele>125.08585357666</ele>
        <time>2015-09-13T08:40:42.000Z</time>
      </trkpt>
      <trkpt lat="49.15336" lon="1.63309">
        <ele>125.33408355713</ele>
        <time>2015-09-13T08:40:46.000Z</time>
      </trkpt>
      <trkpt lat="49.1533" lon="1.63302">
        <ele>125.56750488281</ele>
        <time>2015-09-13T08:40:47.000Z</time>
      </trkpt>
      <trkpt lat="49.15322" lon="1.63293">
        <ele>125.79317474365</ele>
        <time>2015-09-13T08:40:50.000Z</time>
      </trkpt>
      <trkpt lat="49.15316" lon="1.63285">
        <ele>126.00563049316</ele>
        <time>2015-09-13T08:40:53.000Z</time>
      </trkpt>
      <trkpt lat="49.15309" lon="1.63275">
        <ele>126.22031402588</ele>
        <time>2015-09-13T08:40:55.000Z</time>
      </trkpt>
      <trkpt lat="49.15304" lon="1.63269">
        <ele>126.40803527832</ele>
        <time>2015-09-13T08:40:59.000Z</time>
      </trkpt>
      <trkpt lat="49.15298" lon="1.63262">
        <ele>126.60502624512</ele>
        <time>2015-09-13T08:40:59.000Z</time>
      </trkpt>
      <trkpt lat="49.15292" lon="1.63256">
        <ele>126.81412506104</ele>
        <time>2015-09-13T08:41:01.000Z</time>
      </trkpt>
      <trkpt lat="49.15283" lon="1.63245">
        <ele>127.04203796387</ele>
        <time>2015-09-13T08:41:04.000Z</time>
      </trkpt>
      <trkpt lat="49.15278" lon="1.6324">
        <ele>127.24289703369</ele>
        <time>2015-09-13T08:41:06.000Z</time>
      </trkpt>
      <trkpt lat="49.15273" lon="1.63234">
        <ele>127.42887115479</ele>
        <time>2015-09-13T08:41:09.000Z</time>
      </trkpt>
      <trkpt lat="49.15266" lon="1.63225">
        <ele>127.62056732178</ele>
        <time>2015-09-13T08:41:11.000Z</time>
      </trkpt>
      <trkpt lat="49.15259" lon="1.63217">
        <ele>127.81846618652</ele>
        <time>2015-09-13T08:41:14.000Z</time>
      </trkpt>
      <trkpt lat="49.15253" lon="1.63209">
        <ele>128.00726318359</ele>
        <time>2015-09-13T08:41:17.000Z</time>
      </trkpt>
      <trkpt lat="49.15249" lon="1.63204">
        <ele>128.20878601074</ele>
        <time>2015-09-13T08:41:20.000Z</time>
      </trkpt>
      <trkpt lat="49.15244" lon="1.63198">
        <ele>128.4024810791</ele>
        <time>2015-09-13T08:41:21.000Z</time>
      </trkpt>
      <trkpt lat="49.15236" lon="1.6319">
        <ele>128.59049987793</ele>
        <time>2015-09-13T08:41:24.000Z</time>
      </trkpt>
      <trkpt lat="49.15228" lon="1.6318">
        <ele>128.77949523926</ele>
        <time>2015-09-13T08:41:27.000Z</time>
      </trkpt>
      <trkpt lat="49.15223" lon="1.63174">
        <ele>128.95698547363</ele>
        <time>2015-09-13T08:41:29.000Z</time>
      </trkpt>
      <trkpt lat="49.15216" lon="1.63167">
        <ele>129.1487121582</ele>
        <time>2015-09-13T08:41:32.000Z</time>
      </trkpt>
      <trkpt lat="49.15212" lon="1.63162">
        <ele>129.37084960938</ele>
        <time>2015-09-13T08:41:34.000Z</time>
      </trkpt>
      <trkpt lat="49.15206" lon="1.63155">
        <ele>129.62963867188</ele>
        <time>2015-09-13T08:41:37.000Z</time>
      </trkpt>
      <trkpt lat="49.15202" lon="1.63149">
        <ele>129.89669799805</ele>
        <time>2015-09-13T08:41:39.000Z</time>
      </trkpt>
      <trkpt lat="49.15195" lon="1.6314">
        <ele>130.21588134766</ele>
        <time>2015-09-13T08:41:42.000Z</time>
      </trkpt>
      <trkpt lat="49.15191" lon="1.63134">
        <ele>130.54382324219</ele>
        <time>2015-09-13T08:41:44.000Z</time>
      </trkpt>
      <trkpt lat="49.15186" lon="1.63129">
        <ele>130.87539672852</ele>
        <time>2015-09-13T08:41:47.000Z</time>
      </trkpt>
      <trkpt lat="49.15179" lon="1.63119">
        <ele>131.23364257812</ele>
        <time>2015-09-13T08:41:49.000Z</time>
      </trkpt>
      <trkpt lat="49.15174" lon="1.63113">
        <ele>131.59484863281</ele>
        <time>2015-09-13T08:41:51.000Z</time>
      </trkpt>
      <trkpt lat="49.15168" lon="1.63104">
        <ele>131.96572875977</ele>
        <time>2015-09-13T08:41:54.000Z</time>
      </trkpt>
      <trkpt lat="49.15164" lon="1.63097">
        <ele>132.34741210938</ele>
        <time>2015-09-13T08:41:56.000Z</time>
      </trkpt>
      <trkpt lat="49.15156" lon="1.63088">
        <ele>132.75964355469</ele>
        <time>2015-09-13T08:41:59.000Z</time>
      </trkpt>
      <trkpt lat="49.15149" lon="1.6308">
        <ele>133.14297485352</ele>
        <time>2015-09-13T08:42:02.000Z</time>
      </trkpt>
      <trkpt lat="49.15144" lon="1.63074">
        <ele>133.5074005127</ele>
        <time>2015-09-13T08:42:04.000Z</time>
      </trkpt>
      <trkpt lat="49.15137" lon="1.63065">
        <ele>133.83941650391</ele>
        <time>2015-09-13T08:42:07.000Z</time>
      </trkpt>
      <trkpt lat="49.15131" lon="1.63057">
        <ele>134.16653442383</ele>
        <time>2015-09-13T08:42:10.000Z</time>
      </trkpt>
      <trkpt lat="49.15127" lon="1.63052">
        <ele>134.45489501953</ele>
        <time>2015-09-13T08:42:12.000Z</time>
      </trkpt>
      <trkpt lat="49.15121" lon="1.63045">
        <ele>134.7378692627</ele>
        <time>2015-09-13T08:42:15.000Z</time>
      </trkpt>
      <trkpt lat="49.15117" lon="1.6304">
        <ele>135.02514648438</ele>
        <time>2015-09-13T08:42:17.000Z</time>
      </trkpt>
      <trkpt lat="49.15109" lon="1.63031">
        <ele>135.34805297852</ele>
        <time>2015-09-13T08:42:20.000Z</time>
      </trkpt>
      <trkpt lat="49.15102" lon="1.63021">
        <ele>135.71952819824</ele>
        <time>2015-09-13T08:42:23.000Z</time>
      </trkpt>
      <trkpt lat="49.15095" lon="1.63013">
        <ele>136.14932250977</ele>
        <time>2015-09-13T08:42:26.000Z</time>
      </trkpt>
      <trkpt lat="49.15091" lon="1.63007">
        <ele>136.58065795898</ele>
        <time>2015-09-13T08:42:28.000Z</time>
      </trkpt>
      <trkpt lat="49.15086" lon="1.63002">
        <ele>137.03207397461</ele>
        <time>2015-09-13T08:42:30.000Z</time>
      </trkpt>
      <trkpt lat="49.1508" lon="1.62995">
        <ele>137.46281433105</ele>
        <time>2015-09-13T08:42:33.000Z</time>
      </trkpt>
      <trkpt lat="49.15074" lon="1.62987">
        <ele>137.84582519531</ele>
        <time>2015-09-13T08:42:36.000Z</time>
      </trkpt>
      <trkpt lat="49.15068" lon="1.6298">
        <ele>138.19046020508</ele>
        <time>2015-09-13T08:42:39.000Z</time>
      </trkpt>
      <trkpt lat="49.15064" lon="1.62975">
        <ele>138.50468444824</ele>
        <time>2015-09-13T08:42:41.000Z</time>
      </trkpt>
      <trkpt lat="49.1506" lon="1.6297">
        <ele>138.78799438477</ele>
        <time>2015-09-13T08:42:43.000Z</time>
      </trkpt>
      <trkpt lat="49.15054" lon="1.62964">
        <ele>139.03843688965</ele>
        <time>2015-09-13T08:42:46.000Z</time>
      </trkpt>
      <trkpt lat="49.15049" lon="1.62958">
        <ele>139.27360534668</ele>
        <time>2015-09-13T08:42:49.000Z</time>
      </trkpt>
      <trkpt lat="49.15046" lon="1.62953">
        <ele>139.48132324219</ele>
        <time>2015-09-13T08:42:51.000Z</time>
      </trkpt>
      <trkpt lat="49.15039" lon="1.62944">
        <ele>139.7109375</ele>
        <time>2015-09-13T08:42:55.000Z</time>
      </trkpt>
      <trkpt lat="49.15036" lon="1.62939">
        <ele>139.93270874023</ele>
        <time>2015-09-13T08:42:56.000Z</time>
      </trkpt>
      <trkpt lat="49.1503" lon="1.62931">
        <ele>140.15530395508</ele>
        <time>2015-09-13T08:43:00.000Z</time>
      </trkpt>
      <trkpt lat="49.15024" lon="1.62924">
        <ele>140.36787414551</ele>
        <time>2015-09-13T08:43:02.000Z</time>
      </trkpt>
      <trkpt lat="49.15018" lon="1.62917">
        <ele>140.5881652832</ele>
        <time>2015-09-13T08:43:06.000Z</time>
      </trkpt>
      <trkpt lat="49.15012" lon="1.62911">
        <ele>140.7840423584</ele>
        <time>2015-09-13T08:43:07.000Z</time>
      </trkpt>
      <trkpt lat="49.15006" lon="1.62904">
        <ele>141.00215148926</ele>
        <time>2015-09-13T08:43:11.000Z</time>
      </trkpt>
      <trkpt lat="49.15001" lon="1.62898">
        <ele>141.21492004395</ele>
        <time>2015-09-13T08:43:12.000Z</time>
      </trkpt>
      <trkpt lat="49.14994" lon="1.62889">
        <ele>141.50291442871</ele>
        <time>2015-09-13T08:43:15.000Z</time>
      </trkpt>
      <trkpt lat="49.14989" lon="1.62881">
        <ele>141.84617614746</ele>
        <time>2015-09-13T08:43:18.000Z</time>
      </trkpt>
      <trkpt lat="49.14982" lon="1.62872">
        <ele>142.25964355469</ele>
        <time>2015-09-13T08:43:22.000Z</time>
      </trkpt>
      <trkpt lat="49.14975" lon="1.62864">
        <ele>142.71855163574</ele>
        <time>2015-09-13T08:43:24.000Z</time>
      </trkpt>
      <trkpt lat="49.14969" lon="1.62856">
        <ele>143.21322631836</ele>
        <time>2015-09-13T08:43:28.000Z</time>
      </trkpt>
      <trkpt lat="49.14965" lon="1.62852">
        <ele>143.63906860352</ele>
        <time>2015-09-13T08:43:29.000Z</time>
      </trkpt>
      <trkpt lat="49.14959" lon="1.62845">
        <ele>144.03555297852</ele>
        <time>2015-09-13T08:43:32.000Z</time>
      </trkpt>
      <trkpt lat="49.14955" lon="1.62839">
        <ele>144.37632751465</ele>
        <time>2015-09-13T08:43:34.000Z</time>
      </trkpt>
      <trkpt lat="49.14948" lon="1.6283">
        <ele>144.68905639648</ele>
        <time>2015-09-13T08:43:37.000Z</time>
      </trkpt>
      <trkpt lat="49.14942" lon="1.62823">
        <ele>144.97428894043</ele>
        <time>2015-09-13T08:43:40.000Z</time>
      </trkpt>
      <trkpt lat="49.14936" lon="1.62814">
        <ele>145.26818847656</ele>
        <time>2015-09-13T08:43:44.000Z</time>
      </trkpt>
      <trkpt lat="49.14927" lon="1.62805">
        <ele>145.55534362793</ele>
        <time>2015-09-13T08:43:46.000Z</time>
      </trkpt>
      <trkpt lat="49.1492" lon="1.62797">
        <ele>145.83805847168</ele>
        <time>2015-09-13T08:43:49.000Z</time>
      </trkpt>
      <trkpt lat="49.14913" lon="1.62789">
        <ele>146.08856201172</ele>
        <time>2015-09-13T08:43:52.000Z</time>
      </trkpt>
      <trkpt lat="49.14906" lon="1.62779">
        <ele>146.3162689209</ele>
        <time>2015-09-13T08:43:55.000Z</time>
      </trkpt>
      <trkpt lat="49.14901" lon="1.62775">
        <ele>146.50317382812</ele>
        <time>2015-09-13T08:43:57.000Z</time>
      </trkpt>
      <trkpt lat="49.14894" lon="1.62765">
        <ele>146.64962768555</ele>
        <time>2015-09-13T08:44:00.000Z</time>
      </trkpt>
      <trkpt lat="49.1489" lon="1.6276">
        <ele>146.76062011719</ele>
        <time>2015-09-13T08:44:02.000Z</time>
      </trkpt>
      <trkpt lat="49.14883" lon="1.62751">
        <ele>146.84846496582</ele>
        <time>2015-09-13T08:44:06.000Z</time>
      </trkpt>
      <trkpt lat="49.14877" lon="1.62744">
        <ele>146.91593933105</ele>
        <time>2015-09-13T08:44:07.000Z</time>
      </trkpt>
      <trkpt lat="49.14868" lon="1.62731">
        <ele>146.9984588623</ele>
        <time>2015-09-13T08:44:11.000Z</time>
      </trkpt>
      <trkpt lat="49.14858" lon="1.62718">
        <ele>147.1076965332</ele>
        <time>2015-09-13T08:44:13.000Z</time>
      </trkpt>
      <trkpt lat="49.14851" lon="1.6271">
        <ele>147.25094604492</ele>
        <time>2015-09-13T08:44:16.000Z</time>
      </trkpt>
      <trkpt lat="49.14843" lon="1.62702">
        <ele>147.4404296875</ele>
        <time>2015-09-13T08:44:17.000Z</time>
      </trkpt>
      <trkpt lat="49.14836" lon="1.62693">
        <ele>147.6927947998</ele>
        <time>2015-09-13T08:44:19.000Z</time>
      </trkpt>
      <trkpt lat="49.14828" lon="1.62684">
        <ele>147.94721984863</ele>
        <time>2015-09-13T08:44:22.000Z</time>
      </trkpt>
      <trkpt lat="49.14818" lon="1.62672">
        <ele>148.13619995117</ele>
        <time>2015-09-13T08:44:24.000Z</time>
      </trkpt>
      <trkpt lat="49.14813" lon="1.62665">
        <ele>148.25637817383</ele>
        <time>2015-09-13T08:44:27.000Z</time>
      </trkpt>
      <trkpt lat="49.14804" lon="1.62652">
        <ele>148.23637390137</ele>
        <time>2015-09-13T08:44:29.000Z</time>
      </trkpt>
      <trkpt lat="49.14799" lon="1.62647">
        <ele>148.11376953125</ele>
        <time>2015-09-13T08:44:31.000Z</time>
      </trkpt>
      <trkpt lat="49.14791" lon="1.62638">
        <ele>147.92314147949</ele>
        <time>2015-09-13T08:44:34.000Z</time>
      </trkpt>
      <trkpt lat="49.14784" lon="1.62629">
        <ele>147.728515625</ele>
        <time>2015-09-13T08:44:36.000Z</time>
      </trkpt>
      <trkpt lat="49.14775" lon="1.62614">
        <ele>147.56103515625</ele>
        <time>2015-09-13T08:44:40.000Z</time>
      </trkpt>
      <trkpt lat="49.1477" lon="1.62603">
        <ele>147.49725341797</ele>
        <time>2015-09-13T08:44:41.000Z</time>
      </trkpt>
      <trkpt lat="49.14762" lon="1.62585">
        <ele>147.52560424805</ele>
        <time>2015-09-13T08:44:44.000Z</time>
      </trkpt>
      <trkpt lat="49.14757" lon="1.62572">
        <ele>147.55537414551</ele>
        <time>2015-09-13T08:44:46.000Z</time>
      </trkpt>
      <trkpt lat="49.14751" lon="1.62556">
        <ele>147.54393005371</ele>
        <time>2015-09-13T08:44:49.000Z</time>
      </trkpt>
      <trkpt lat="49.14741" lon="1.62531">
        <ele>147.37719726562</ele>
        <time>2015-09-13T08:44:51.000Z</time>
      </trkpt>
      <trkpt lat="49.14733" lon="1.62508">
        <ele>147.06327819824</ele>
        <time>2015-09-13T08:44:54.000Z</time>
      </trkpt>
      <trkpt lat="49.14724" lon="1.62484">
        <ele>146.58456420898</ele>
        <time>2015-09-13T08:44:57.000Z</time>
      </trkpt>
      <trkpt lat="49.14714" lon="1.62462">
        <ele>146.06585693359</ele>
        <time>2015-09-13T08:45:00.000Z</time>
      </trkpt>
      <trkpt lat="49.14708" lon="1.62446">
        <ele>145.57113647461</ele>
        <time>2015-09-13T08:45:02.000Z</time>
      </trkpt>
      <trkpt lat="49.14702" lon="1.62432">
        <ele>145.20310974121</ele>
        <time>2015-09-13T08:45:05.000Z</time>
      </trkpt>
      <trkpt lat="49.14696" lon="1.62416">
        <ele>144.93600463867</ele>
        <time>2015-09-13T08:45:06.000Z</time>
      </trkpt>
      <trkpt lat="49.14688" lon="1.62391">
        <ele>144.6162109375</ele>
        <time>2015-09-13T08:45:09.000Z</time>
      </trkpt>
      <trkpt lat="49.1468" lon="1.62369">
        <ele>144.23524475098</ele>
        <time>2015-09-13T08:45:12.000Z</time>
      </trkpt>
      <trkpt lat="49.14672" lon="1.62343">
        <ele>143.72396850586</ele>
        <time>2015-09-13T08:45:16.000Z</time>
      </trkpt>
      <trkpt lat="49.14666" lon="1.62326">
        <ele>143.12687683105</ele>
        <time>2015-09-13T08:45:18.000Z</time>
      </trkpt>
      <trkpt lat="49.14659" lon="1.62296">
        <ele>142.37045288086</ele>
        <time>2015-09-13T08:45:21.000Z</time>
      </trkpt>
      <trkpt lat="49.14651" lon="1.62265">
        <ele>141.61033630371</ele>
        <time>2015-09-13T08:45:23.000Z</time>
      </trkpt>
      <trkpt lat="49.14646" lon="1.62246">
        <ele>140.91241455078</ele>
        <time>2015-09-13T08:45:26.000Z</time>
      </trkpt>
      <trkpt lat="49.14647" lon="1.62231">
        <ele>140.30213928223</ele>
        <time>2015-09-13T08:45:27.000Z</time>
      </trkpt>
      <trkpt lat="49.14659" lon="1.6221">
        <ele>139.61656188965</ele>
        <time>2015-09-13T08:45:31.000Z</time>
      </trkpt>
      <trkpt lat="49.14669" lon="1.62194">
        <ele>138.9507598877</ele>
        <time>2015-09-13T08:45:32.000Z</time>
      </trkpt>
      <trkpt lat="49.14677" lon="1.62173">
        <ele>138.26045227051</ele>
        <time>2015-09-13T08:45:34.000Z</time>
      </trkpt>
      <trkpt lat="49.1468" lon="1.62151">
        <ele>137.36685180664</ele>
        <time>2015-09-13T08:45:37.000Z</time>
      </trkpt>
      <trkpt lat="49.14676" lon="1.62117">
        <ele>136.1782989502</ele>
        <time>2015-09-13T08:45:39.000Z</time>
      </trkpt>
      <trkpt lat="49.14672" lon="1.62077">
        <ele>134.72833251953</ele>
        <time>2015-09-13T08:45:43.000Z</time>
      </trkpt>
      <trkpt lat="49.14667" lon="1.62038">
        <ele>132.85110473633</ele>
        <time>2015-09-13T08:45:45.000Z</time>
      </trkpt>
      <trkpt lat="49.14666" lon="1.62018">
        <ele>130.86158752441</ele>
        <time>2015-09-13T08:45:47.000Z</time>
      </trkpt>
      <trkpt lat="49.14676" lon="1.6199">
        <ele>128.59930419922</ele>
        <time>2015-09-13T08:45:50.000Z</time>
      </trkpt>
      <trkpt lat="49.14686" lon="1.61977">
        <ele>126.46278381348</ele>
        <time>2015-09-13T08:45:52.000Z</time>
      </trkpt>
      <trkpt lat="49.14702" lon="1.61954">
        <ele>124.36781311035</ele>
        <time>2015-09-13T08:45:55.000Z</time>
      </trkpt>
      <trkpt lat="49.14717" lon="1.61941">
        <ele>122.56097412109</ele>
        <time>2015-09-13T08:45:57.000Z</time>
      </trkpt>
      <trkpt lat="49.1474" lon="1.61924">
        <ele>120.61085510254</ele>
        <time>2015-09-13T08:46:00.000Z</time>
      </trkpt>
      <trkpt lat="49.14764" lon="1.61909">
        <ele>118.96590423584</ele>
        <time>2015-09-13T08:46:03.000Z</time>
      </trkpt>
      <trkpt lat="49.14785" lon="1.61891">
        <ele>117.43253326416</ele>
        <time>2015-09-13T08:46:06.000Z</time>
      </trkpt>
      <trkpt lat="49.14799" lon="1.61879">
        <ele>116.21411132812</ele>
        <time>2015-09-13T08:46:08.000Z</time>
      </trkpt>
      <trkpt lat="49.14819" lon="1.61858">
        <ele>115.14701080322</ele>
        <time>2015-09-13T08:46:11.000Z</time>
      </trkpt>
      <trkpt lat="49.14832" lon="1.61844">
        <ele>114.42694091797</ele>
        <time>2015-09-13T08:46:13.000Z</time>
      </trkpt>
      <trkpt lat="49.14844" lon="1.61831">
        <ele>113.91471099854</ele>
        <time>2015-09-13T08:46:16.000Z</time>
      </trkpt>
      <trkpt lat="49.14856" lon="1.61817">
        <ele>113.52770996094</ele>
        <time>2015-09-13T08:46:17.000Z</time>
      </trkpt>
      <trkpt lat="49.14873" lon="1.61798">
        <ele>113.19573974609</ele>
        <time>2015-09-13T08:46:21.000Z</time>
      </trkpt>
      <trkpt lat="49.14883" lon="1.61786">
        <ele>112.98313140869</ele>
        <time>2015-09-13T08:46:22.000Z</time>
      </trkpt>
      <trkpt lat="49.14894" lon="1.61774">
        <ele>112.82859802246</ele>
        <time>2015-09-13T08:46:24.000Z</time>
      </trkpt>
      <trkpt lat="49.14909" lon="1.61757">
        <ele>112.64491271973</ele>
        <time>2015-09-13T08:46:27.000Z</time>
      </trkpt>
      <trkpt lat="49.14919" lon="1.61746">
        <ele>112.4133682251</ele>
        <time>2015-09-13T08:46:29.000Z</time>
      </trkpt>
      <trkpt lat="49.1493" lon="1.61732">
        <ele>112.13026428223</ele>
        <time>2015-09-13T08:46:32.000Z</time>
      </trkpt>
      <trkpt lat="49.1494" lon="1.61718">
        <ele>111.7837677002</ele>
        <time>2015-09-13T08:46:33.000Z</time>
      </trkpt>
      <trkpt lat="49.14954" lon="1.61695">
        <ele>111.32944488525</ele>
        <time>2015-09-13T08:46:36.000Z</time>
      </trkpt>
      <trkpt lat="49.14961" lon="1.61674">
        <ele>110.82598876953</ele>
        <time>2015-09-13T08:46:39.000Z</time>
      </trkpt>
      <trkpt lat="49.1497" lon="1.61643">
        <ele>110.26613616943</ele>
        <time>2015-09-13T08:46:41.000Z</time>
      </trkpt>
      <trkpt lat="49.1498" lon="1.61612">
        <ele>109.69708251953</ele>
        <time>2015-09-13T08:46:44.000Z</time>
      </trkpt>
      <trkpt lat="49.14989" lon="1.61581">
        <ele>109.12730407715</ele>
        <time>2015-09-13T08:46:48.000Z</time>
      </trkpt>
      <trkpt lat="49.14996" lon="1.6156">
        <ele>108.63612365723</ele>
        <time>2015-09-13T08:46:49.000Z</time>
      </trkpt>
      <trkpt lat="49.15009" lon="1.61529">
        <ele>108.13502502441</ele>
        <time>2015-09-13T08:46:52.000Z</time>
      </trkpt>
      <trkpt lat="49.15018" lon="1.61512">
        <ele>107.66487121582</ele>
        <time>2015-09-13T08:46:55.000Z</time>
      </trkpt>
      <trkpt lat="49.15037" lon="1.61493">
        <ele>107.1734161377</ele>
        <time>2015-09-13T08:46:57.000Z</time>
      </trkpt>
      <trkpt lat="49.15054" lon="1.61479">
        <ele>106.69284820557</ele>
        <time>2015-09-13T08:47:00.000Z</time>
      </trkpt>
      <trkpt lat="49.15065" lon="1.61471">
        <ele>106.2225112915</ele>
        <time>2015-09-13T08:47:02.000Z</time>
      </trkpt>
      <trkpt lat="49.15081" lon="1.61459">
        <ele>105.80261230469</ele>
        <time>2015-09-13T08:47:06.000Z</time>
      </trkpt>
      <trkpt lat="49.15089" lon="1.61454">
        <ele>105.41484069824</ele>
        <time>2015-09-13T08:47:08.000Z</time>
      </trkpt>
      <trkpt lat="49.15091" lon="1.61451">
        <ele>105.13730621338</ele>
        <time>2015-09-13T08:47:11.000Z</time>
      </trkpt>
      <trkpt lat="49.15091" lon="1.61442">
        <ele>104.94081878662</ele>
        <time>2015-09-13T08:47:13.000Z</time>
      </trkpt>
      <trkpt lat="49.15088" lon="1.61432">
        <ele>104.81953430176</ele>
        <time>2015-09-13T08:47:17.000Z</time>
      </trkpt>
      <trkpt lat="49.15083" lon="1.61419">
        <ele>104.8095703125</ele>
        <time>2015-09-13T08:47:19.000Z</time>
      </trkpt>
      <trkpt lat="49.15079" lon="1.61411">
        <ele>104.87324523926</ele>
        <time>2015-09-13T08:47:22.000Z</time>
      </trkpt>
      <trkpt lat="49.15074" lon="1.61401">
        <ele>104.97109222412</ele>
        <time>2015-09-13T08:47:25.000Z</time>
      </trkpt>
      <trkpt lat="49.1507" lon="1.61391">
        <ele>105.09140777588</ele>
        <time>2015-09-13T08:47:27.000Z</time>
      </trkpt>
      <trkpt lat="49.15065" lon="1.6138">
        <ele>105.21464538574</ele>
        <time>2015-09-13T08:47:30.000Z</time>
      </trkpt>
      <trkpt lat="49.1506" lon="1.6137">
        <ele>105.326171875</ele>
        <time>2015-09-13T08:47:33.000Z</time>
      </trkpt>
      <trkpt lat="49.15057" lon="1.61362">
        <ele>105.435546875</ele>
        <time>2015-09-13T08:47:35.000Z</time>
      </trkpt>
      <trkpt lat="49.15051" lon="1.61351">
        <ele>105.546875</ele>
        <time>2015-09-13T08:47:38.000Z</time>
      </trkpt>
      <trkpt lat="49.15044" lon="1.61338">
        <ele>105.669921875</ele>
        <time>2015-09-13T08:47:41.000Z</time>
      </trkpt>
      <trkpt lat="49.15038" lon="1.61327">
        <ele>105.87471008301</ele>
        <time>2015-09-13T08:47:44.000Z</time>
      </trkpt>
      <trkpt lat="49.15034" lon="1.61319">
        <ele>106.15865325928</ele>
        <time>2015-09-13T08:47:46.000Z</time>
      </trkpt>
      <trkpt lat="49.15031" lon="1.61313">
        <ele>106.50986480713</ele>
        <time>2015-09-13T08:47:49.000Z</time>
      </trkpt>
      <trkpt lat="49.15028" lon="1.61307">
        <ele>106.91819763184</ele>
        <time>2015-09-13T08:47:50.000Z</time>
      </trkpt>
      <trkpt lat="49.15025" lon="1.61301">
        <ele>107.37001800537</ele>
        <time>2015-09-13T08:47:52.000Z</time>
      </trkpt>
      <trkpt lat="49.15021" lon="1.61292">
        <ele>107.82762145996</ele>
        <time>2015-09-13T08:47:55.000Z</time>
      </trkpt>
      <trkpt lat="49.15017" lon="1.61286">
        <ele>108.25370788574</ele>
        <time>2015-09-13T08:47:57.000Z</time>
      </trkpt>
      <trkpt lat="49.15013" lon="1.61277">
        <ele>108.69919586182</ele>
        <time>2015-09-13T08:48:00.000Z</time>
      </trkpt>
      <trkpt lat="49.15008" lon="1.61266">
        <ele>109.1704864502</ele>
        <time>2015-09-13T08:48:03.000Z</time>
      </trkpt>
      <trkpt lat="49.15002" lon="1.61254">
        <ele>109.68906402588</ele>
        <time>2015-09-13T08:48:06.000Z</time>
      </trkpt>
      <trkpt lat="49.14997" lon="1.61242">
        <ele>110.2091293335</ele>
        <time>2015-09-13T08:48:09.000Z</time>
      </trkpt>
      <trkpt lat="49.14993" lon="1.61231">
        <ele>110.74394226074</ele>
        <time>2015-09-13T08:48:12.000Z</time>
      </trkpt>
      <trkpt lat="49.1499" lon="1.61223">
        <ele>111.23408508301</ele>
        <time>2015-09-13T08:48:16.000Z</time>
      </trkpt>
      <trkpt lat="49.14988" lon="1.61212">
        <ele>111.68981933594</ele>
        <time>2015-09-13T08:48:18.000Z</time>
      </trkpt>
      <trkpt lat="49.14984" lon="1.61202">
        <ele>112.08927154541</ele>
        <time>2015-09-13T08:48:21.000Z</time>
      </trkpt>
      <trkpt lat="49.1498" lon="1.61196">
        <ele>112.4016494751</ele>
        <time>2015-09-13T08:48:23.000Z</time>
      </trkpt>
      <trkpt lat="49.14976" lon="1.61187">
        <ele>112.66274261475</ele>
        <time>2015-09-13T08:48:26.000Z</time>
      </trkpt>
      <trkpt lat="49.14973" lon="1.61179">
        <ele>112.90299224854</ele>
        <time>2015-09-13T08:48:28.000Z</time>
      </trkpt>
      <trkpt lat="49.14969" lon="1.61171">
        <ele>113.08382415771</ele>
        <time>2015-09-13T08:48:30.000Z</time>
      </trkpt>
      <trkpt lat="49.14965" lon="1.61163">
        <ele>113.21467590332</ele>
        <time>2015-09-13T08:48:32.000Z</time>
      </trkpt>
      <trkpt lat="49.14962" lon="1.61153">
        <ele>113.34559631348</ele>
        <time>2015-09-13T08:48:35.000Z</time>
      </trkpt>
      <trkpt lat="49.14959" lon="1.61148">
        <ele>113.45070648193</ele>
        <time>2015-09-13T08:48:37.000Z</time>
      </trkpt>
      <trkpt lat="49.14957" lon="1.61142">
        <ele>113.5267791748</ele>
        <time>2015-09-13T08:48:39.000Z</time>
      </trkpt>
      <trkpt lat="49.14956" lon="1.61135">
        <ele>113.6164932251</ele>
        <time>2015-09-13T08:48:41.000Z</time>
      </trkpt>
      <trkpt lat="49.14956" lon="1.61131">
        <ele>113.71601867676</ele>
        <time>2015-09-13T08:48:43.000Z</time>
      </trkpt>
      <trkpt lat="49.14961" lon="1.61118">
        <ele>113.92380523682</ele>
        <time>2015-09-13T08:48:48.000Z</time>
      </trkpt>
      <trkpt lat="49.14968" lon="1.61108">
        <ele>114.26680755615</ele>
        <time>2015-09-13T08:48:51.000Z</time>
      </trkpt>
      <trkpt lat="49.1497" lon="1.61105">
        <ele>114.62956237793</ele>
        <time>2015-09-13T08:48:54.000Z</time>
      </trkpt>
      <trkpt lat="49.14974" lon="1.6109">
        <ele>115.11678314209</ele>
        <time>2015-09-13T08:48:57.000Z</time>
      </trkpt>
      <trkpt lat="49.14979" lon="1.61078">
        <ele>115.69815826416</ele>
        <time>2015-09-13T08:49:00.000Z</time>
      </trkpt>
      <trkpt lat="49.14981" lon="1.61075">
        <ele>116.17855072021</ele>
        <time>2015-09-13T08:49:02.000Z</time>
      </trkpt>
      <trkpt lat="49.14984" lon="1.61069">
        <ele>116.57942962646</ele>
        <time>2015-09-13T08:49:05.000Z</time>
      </trkpt>
      <trkpt lat="49.14997" lon="1.61043">
        <ele>117.23640441895</ele>
        <time>2015-09-13T08:49:10.000Z</time>
      </trkpt>
      <trkpt lat="49.15003" lon="1.61027">
        <ele>117.85705566406</ele>
        <time>2015-09-13T08:49:12.000Z</time>
      </trkpt>
      <trkpt lat="49.15007" lon="1.61013">
        <ele>118.42555999756</ele>
        <time>2015-09-13T08:49:17.000Z</time>
      </trkpt>
      <trkpt lat="49.15015" lon="1.61003">
        <ele>119.01021575928</ele>
        <time>2015-09-13T08:49:21.000Z</time>
      </trkpt>
      <trkpt lat="49.15025" lon="1.61007">
        <ele>119.50917816162</ele>
        <time>2015-09-13T08:49:24.000Z</time>
      </trkpt>
      <trkpt lat="49.15034" lon="1.61017">
        <ele>119.67700195312</ele>
        <time>2015-09-13T08:49:28.000Z</time>
      </trkpt>
      <trkpt lat="49.15039" lon="1.61023">
        <ele>119.69677734375</ele>
        <time>2015-09-13T08:49:33.000Z</time>
      </trkpt>
      <trkpt lat="49.15044" lon="1.61028">
        <ele>119.62518310547</ele>
        <time>2015-09-13T08:49:33.000Z</time>
      </trkpt>
      <trkpt lat="49.15051" lon="1.61037">
        <ele>119.45916748047</ele>
        <time>2015-09-13T08:49:36.000Z</time>
      </trkpt>
      <trkpt lat="49.15056" lon="1.61043">
        <ele>119.28601074219</ele>
        <time>2015-09-13T08:49:38.000Z</time>
      </trkpt>
      <trkpt lat="49.15066" lon="1.61048">
        <ele>119.13531494141</ele>
        <time>2015-09-13T08:49:41.000Z</time>
      </trkpt>
      <trkpt lat="49.1507" lon="1.6105">
        <ele>119.00518798828</ele>
        <time>2015-09-13T08:49:45.000Z</time>
      </trkpt>
      <trkpt lat="49.15081" lon="1.61052">
        <ele>118.88922119141</ele>
        <time>2015-09-13T08:49:47.000Z</time>
      </trkpt>
      <trkpt lat="49.15092" lon="1.61051">
        <ele>118.79508972168</ele>
        <time>2015-09-13T08:49:50.000Z</time>
      </trkpt>
      <trkpt lat="49.15103" lon="1.61046">
        <ele>118.7267074585</ele>
        <time>2015-09-13T08:49:53.000Z</time>
      </trkpt>
      <trkpt lat="49.15114" lon="1.61036">
        <ele>118.7283782959</ele>
        <time>2015-09-13T08:49:56.000Z</time>
      </trkpt>
      <trkpt lat="49.15121" lon="1.61029">
        <ele>118.79466247559</ele>
        <time>2015-09-13T08:49:58.000Z</time>
      </trkpt>
      <trkpt lat="49.15129" lon="1.61022">
        <ele>118.93481445312</ele>
        <time>2015-09-13T08:50:01.000Z</time>
      </trkpt>
      <trkpt lat="49.15148" lon="1.61012">
        <ele>119.22218322754</ele>
        <time>2015-09-13T08:50:04.000Z</time>
      </trkpt>
      <trkpt lat="49.15163" lon="1.61001">
        <ele>119.67684173584</ele>
        <time>2015-09-13T08:50:07.000Z</time>
      </trkpt>
      <trkpt lat="49.15168" lon="1.60998">
        <ele>120.07934570312</ele>
        <time>2015-09-13T08:50:09.000Z</time>
      </trkpt>
      <trkpt lat="49.15184" lon="1.60983">
        <ele>120.15682220459</ele>
        <time>2015-09-13T08:50:13.000Z</time>
      </trkpt>
      <trkpt lat="49.15194" lon="1.60966">
        <ele>120.03175354004</ele>
        <time>2015-09-13T08:50:17.000Z</time>
      </trkpt>
      <trkpt lat="49.15199" lon="1.60958">
        <ele>119.72646331787</ele>
        <time>2015-09-13T08:50:18.000Z</time>
      </trkpt>
      <trkpt lat="49.15205" lon="1.60943">
        <ele>119.21376800537</ele>
        <time>2015-09-13T08:50:22.000Z</time>
      </trkpt>
      <trkpt lat="49.15208" lon="1.60929">
        <ele>118.71588134766</ele>
        <time>2015-09-13T08:50:24.000Z</time>
      </trkpt>
      <trkpt lat="49.15206" lon="1.6091">
        <ele>118.49754333496</ele>
        <time>2015-09-13T08:50:28.000Z</time>
      </trkpt>
      <trkpt lat="49.15202" lon="1.60895">
        <ele>118.37760162354</ele>
        <time>2015-09-13T08:50:31.000Z</time>
      </trkpt>
      <trkpt lat="49.15191" lon="1.60875">
        <ele>118.29579925537</ele>
        <time>2015-09-13T08:50:34.000Z</time>
      </trkpt>
      <trkpt lat="49.15183" lon="1.60861">
        <ele>118.24277496338</ele>
        <time>2015-09-13T08:50:37.000Z</time>
      </trkpt>
      <trkpt lat="49.15178" lon="1.60851">
        <ele>118.1708984375</ele>
        <time>2015-09-13T08:50:40.000Z</time>
      </trkpt>
      <trkpt lat="49.15168" lon="1.60832">
        <ele>118.06585693359</ele>
        <time>2015-09-13T08:50:43.000Z</time>
      </trkpt>
      <trkpt lat="49.15162" lon="1.60819">
        <ele>117.84926605225</ele>
        <time>2015-09-13T08:50:46.000Z</time>
      </trkpt>
      <trkpt lat="49.1516" lon="1.60807">
        <ele>117.51579284668</ele>
        <time>2015-09-13T08:50:48.000Z</time>
      </trkpt>
      <trkpt lat="49.15164" lon="1.60789">
        <ele>116.98329925537</ele>
        <time>2015-09-13T08:50:51.000Z</time>
      </trkpt>
      <trkpt lat="49.15171" lon="1.60777">
        <ele>116.26198577881</ele>
        <time>2015-09-13T08:50:54.000Z</time>
      </trkpt>
      <trkpt lat="49.15178" lon="1.60761">
        <ele>115.31451416016</ele>
        <time>2015-09-13T08:50:58.000Z</time>
      </trkpt>
      <trkpt lat="49.15187" lon="1.60758">
        <ele>114.39167785645</ele>
        <time>2015-09-13T08:51:03.000Z</time>
      </trkpt>
      <trkpt lat="49.15201" lon="1.60753">
        <ele>113.40269470215</ele>
        <time>2015-09-13T08:51:04.000Z</time>
      </trkpt>
      <trkpt lat="49.15209" lon="1.60747">
        <ele>112.46810150146</ele>
        <time>2015-09-13T08:51:06.000Z</time>
      </trkpt>
      <trkpt lat="49.15225" lon="1.60739">
        <ele>111.45534515381</ele>
        <time>2015-09-13T08:51:09.000Z</time>
      </trkpt>
      <trkpt lat="49.15234" lon="1.60737">
        <ele>110.57765197754</ele>
        <time>2015-09-13T08:51:11.000Z</time>
      </trkpt>
      <trkpt lat="49.15246" lon="1.60737">
        <ele>109.71981048584</ele>
        <time>2015-09-13T08:51:16.000Z</time>
      </trkpt>
      <trkpt lat="49.15262" lon="1.60734">
        <ele>108.68856048584</ele>
        <time>2015-09-13T08:51:16.000Z</time>
      </trkpt>
      <trkpt lat="49.15269" lon="1.6073">
        <ele>107.58386230469</ele>
        <time>2015-09-13T08:51:19.000Z</time>
      </trkpt>
      <trkpt lat="49.15279" lon="1.60735">
        <ele>106.58763122559</ele>
        <time>2015-09-13T08:51:21.000Z</time>
      </trkpt>
      <trkpt lat="49.15287" lon="1.60741">
        <ele>105.59393310547</ele>
        <time>2015-09-13T08:51:23.000Z</time>
      </trkpt>
      <trkpt lat="49.15305" lon="1.60752">
        <ele>104.46562194824</ele>
        <time>2015-09-13T08:51:26.000Z</time>
      </trkpt>
      <trkpt lat="49.15317" lon="1.60763">
        <ele>103.56797027588</ele>
        <time>2015-09-13T08:51:28.000Z</time>
      </trkpt>
      <trkpt lat="49.15328" lon="1.60778">
        <ele>102.8588104248</ele>
        <time>2015-09-13T08:51:34.000Z</time>
      </trkpt>
      <trkpt lat="49.15343" lon="1.60802">
        <ele>102.08879089355</ele>
        <time>2015-09-13T08:51:35.000Z</time>
      </trkpt>
      <trkpt lat="49.15363" lon="1.60827">
        <ele>100.76829528809</ele>
        <time>2015-09-13T08:51:36.000Z</time>
      </trkpt>
      <trkpt lat="49.15382" lon="1.60851">
        <ele>99.033538818359</ele>
        <time>2015-09-13T08:51:39.000Z</time>
      </trkpt>
      <trkpt lat="49.15405" lon="1.60879">
        <ele>96.779983520508</ele>
        <time>2015-09-13T08:51:45.000Z</time>
      </trkpt>
      <trkpt lat="49.15422" lon="1.60899">
        <ele>94.271408081055</ele>
        <time>2015-09-13T08:51:45.000Z</time>
      </trkpt>
      <trkpt lat="49.15431" lon="1.609">
        <ele>91.861923217773</ele>
        <time>2015-09-13T08:51:48.000Z</time>
      </trkpt>
      <trkpt lat="49.15435" lon="1.60885">
        <ele>89.877944946289</ele>
        <time>2015-09-13T08:51:54.000Z</time>
      </trkpt>
      <trkpt lat="49.15426" lon="1.60867">
        <ele>88.387466430664</ele>
        <time>2015-09-13T08:51:56.000Z</time>
      </trkpt>
      <trkpt lat="49.1542" lon="1.60853">
        <ele>87.376571655273</ele>
        <time>2015-09-13T08:51:59.000Z</time>
      </trkpt>
      <trkpt lat="49.1541" lon="1.6083">
        <ele>86.671737670898</ele>
        <time>2015-09-13T08:52:01.000Z</time>
      </trkpt>
      <trkpt lat="49.15405" lon="1.60816">
        <ele>86.321823120117</ele>
        <time>2015-09-13T08:52:03.000Z</time>
      </trkpt>
      <trkpt lat="49.15397" lon="1.60799">
        <ele>86.487045288086</ele>
        <time>2015-09-13T08:52:06.000Z</time>
      </trkpt>
      <trkpt lat="49.15391" lon="1.60784">
        <ele>86.986366271973</ele>
        <time>2015-09-13T08:52:10.000Z</time>
      </trkpt>
      <trkpt lat="49.15393" lon="1.60772">
        <ele>87.490921020508</ele>
        <time>2015-09-13T08:52:14.000Z</time>
      </trkpt>
      <trkpt lat="49.15395" lon="1.60769">
        <ele>87.889854431152</ele>
        <time>2015-09-13T08:52:16.000Z</time>
      </trkpt>
      <trkpt lat="49.15406" lon="1.60758">
        <ele>87.601905822754</ele>
        <time>2015-09-13T08:52:19.000Z</time>
      </trkpt>
      <trkpt lat="49.15412" lon="1.60751">
        <ele>86.772315979004</ele>
        <time>2015-09-13T08:52:22.000Z</time>
      </trkpt>
      <trkpt lat="49.15421" lon="1.60743">
        <ele>85.566452026367</ele>
        <time>2015-09-13T08:52:24.000Z</time>
      </trkpt>
      <trkpt lat="49.15429" lon="1.60735">
        <ele>84.562477111816</ele>
        <time>2015-09-13T08:52:28.000Z</time>
      </trkpt>
      <trkpt lat="49.15435" lon="1.60731">
        <ele>83.685501098633</ele>
        <time>2015-09-13T08:52:29.000Z</time>
      </trkpt>
      <trkpt lat="49.15441" lon="1.60725">
        <ele>83.294509887695</ele>
        <time>2015-09-13T08:52:31.000Z</time>
      </trkpt>
      <trkpt lat="49.1545" lon="1.60718">
        <ele>83.235359191895</ele>
        <time>2015-09-13T08:52:34.000Z</time>
      </trkpt>
      <trkpt lat="49.15456" lon="1.60714">
        <ele>83.424453735352</ele>
        <time>2015-09-13T08:52:36.000Z</time>
      </trkpt>
      <trkpt lat="49.1546" lon="1.6071">
        <ele>83.62718963623</ele>
        <time>2015-09-13T08:52:38.000Z</time>
      </trkpt>
      <trkpt lat="49.15466" lon="1.60704">
        <ele>83.867744445801</ele>
        <time>2015-09-13T08:52:41.000Z</time>
      </trkpt>
      <trkpt lat="49.15473" lon="1.60698">
        <ele>84.159164428711</ele>
        <time>2015-09-13T08:52:44.000Z</time>
      </trkpt>
      <trkpt lat="49.15479" lon="1.60691">
        <ele>84.465141296387</ele>
        <time>2015-09-13T08:52:47.000Z</time>
      </trkpt>
      <trkpt lat="49.15485" lon="1.60685">
        <ele>84.812759399414</ele>
        <time>2015-09-13T08:52:50.000Z</time>
      </trkpt>
      <trkpt lat="49.1549" lon="1.60683">
        <ele>85.198669433594</ele>
        <time>2015-09-13T08:52:53.000Z</time>
      </trkpt>
      <trkpt lat="49.15493" lon="1.60684">
        <ele>85.551940917969</ele>
        <time>2015-09-13T08:52:55.000Z</time>
      </trkpt>
      <trkpt lat="49.15502" lon="1.60685">
        <ele>85.949783325195</ele>
        <time>2015-09-13T08:52:58.000Z</time>
      </trkpt>
      <trkpt lat="49.15509" lon="1.60685">
        <ele>86.400672912598</ele>
        <time>2015-09-13T08:53:01.000Z</time>
      </trkpt>
      <trkpt lat="49.15516" lon="1.60687">
        <ele>86.891052246094</ele>
        <time>2015-09-13T08:53:04.000Z</time>
      </trkpt>
      <trkpt lat="49.15522" lon="1.6069">
        <ele>87.417694091797</ele>
        <time>2015-09-13T08:53:08.000Z</time>
      </trkpt>
      <trkpt lat="49.15529" lon="1.6069">
        <ele>88.036659240723</ele>
        <time>2015-09-13T08:53:10.000Z</time>
      </trkpt>
      <trkpt lat="49.15535" lon="1.60688">
        <ele>88.663887023926</ele>
        <time>2015-09-13T08:53:14.000Z</time>
      </trkpt>
      <trkpt lat="49.15538" lon="1.60685">
        <ele>89.211074829102</ele>
        <time>2015-09-13T08:53:15.000Z</time>
      </trkpt>
      <trkpt lat="49.15543" lon="1.60677">
        <ele>89.71703338623</ele>
        <time>2015-09-13T08:53:18.000Z</time>
      </trkpt>
      <trkpt lat="49.15547" lon="1.60666">
        <ele>90.181732177734</ele>
        <time>2015-09-13T08:53:21.000Z</time>
      </trkpt>
      <trkpt lat="49.15549" lon="1.60655">
        <ele>90.611587524414</ele>
        <time>2015-09-13T08:53:25.000Z</time>
      </trkpt>
      <trkpt lat="49.1555" lon="1.6065">
        <ele>90.955070495605</ele>
        <time>2015-09-13T08:53:26.000Z</time>
      </trkpt>
      <trkpt lat="49.15552" lon="1.6064">
        <ele>91.323837280273</ele>
        <time>2015-09-13T08:53:29.000Z</time>
      </trkpt>
      <trkpt lat="49.15553" lon="1.60633">
        <ele>91.662170410156</ele>
        <time>2015-09-13T08:53:31.000Z</time>
      </trkpt>
      <trkpt lat="49.15554" lon="1.60622">
        <ele>91.994445800781</ele>
        <time>2015-09-13T08:53:34.000Z</time>
      </trkpt>
      <trkpt lat="49.15555" lon="1.60617">
        <ele>92.275268554688</ele>
        <time>2015-09-13T08:53:37.000Z</time>
      </trkpt>
      <trkpt lat="49.15557" lon="1.60612">
        <ele>92.566284179688</ele>
        <time>2015-09-13T08:53:38.000Z</time>
      </trkpt>
      <trkpt lat="49.15558" lon="1.60603">
        <ele>92.83642578125</ele>
        <time>2015-09-13T08:53:42.000Z</time>
      </trkpt>
      <trkpt lat="49.15559" lon="1.60595">
        <ele>93.115905761719</ele>
        <time>2015-09-13T08:53:44.000Z</time>
      </trkpt>
      <trkpt lat="49.1556" lon="1.60588">
        <ele>93.37548828125</ele>
        <time>2015-09-13T08:53:46.000Z</time>
      </trkpt>
      <trkpt lat="49.15562" lon="1.6058">
        <ele>93.675338745117</ele>
        <time>2015-09-13T08:53:49.000Z</time>
      </trkpt>
      <trkpt lat="49.15564" lon="1.60573">
        <ele>94.006103515625</ele>
        <time>2015-09-13T08:53:51.000Z</time>
      </trkpt>
      <trkpt lat="49.15565" lon="1.60567">
        <ele>94.338905334473</ele>
        <time>2015-09-13T08:53:54.000Z</time>
      </trkpt>
      <trkpt lat="49.15565" lon="1.6056">
        <ele>94.640556335449</ele>
        <time>2015-09-13T08:53:56.000Z</time>
      </trkpt>
      <trkpt lat="49.15562" lon="1.6055">
        <ele>94.924522399902</ele>
        <time>2015-09-13T08:53:59.000Z</time>
      </trkpt>
      <trkpt lat="49.15562" lon="1.60544">
        <ele>95.171936035156</ele>
        <time>2015-09-13T08:54:01.000Z</time>
      </trkpt>
      <trkpt lat="49.15562" lon="1.60536">
        <ele>95.383560180664</ele>
        <time>2015-09-13T08:54:03.000Z</time>
      </trkpt>
      <trkpt lat="49.1556" lon="1.60524">
        <ele>95.58659362793</ele>
        <time>2015-09-13T08:54:06.000Z</time>
      </trkpt>
      <trkpt lat="49.15557" lon="1.60513">
        <ele>95.802619934082</ele>
        <time>2015-09-13T08:54:10.000Z</time>
      </trkpt>
      <trkpt lat="49.15555" lon="1.60506">
        <ele>96.017379760742</ele>
        <time>2015-09-13T08:54:11.000Z</time>
      </trkpt>
      <trkpt lat="49.15554" lon="1.605">
        <ele>96.222862243652</ele>
        <time>2015-09-13T08:54:13.000Z</time>
      </trkpt>
      <trkpt lat="49.15552" lon="1.60489">
        <ele>96.410423278809</ele>
        <time>2015-09-13T08:54:16.000Z</time>
      </trkpt>
      <trkpt lat="49.15551" lon="1.6048">
        <ele>96.575057983398</ele>
        <time>2015-09-13T08:54:18.000Z</time>
      </trkpt>
      <trkpt lat="49.15551" lon="1.60466">
        <ele>96.749710083008</ele>
        <time>2015-09-13T08:54:21.000Z</time>
      </trkpt>
      <trkpt lat="49.1555" lon="1.60456">
        <ele>96.937118530273</ele>
        <time>2015-09-13T08:54:23.000Z</time>
      </trkpt>
      <trkpt lat="49.1555" lon="1.60447">
        <ele>97.127487182617</ele>
        <time>2015-09-13T08:54:25.000Z</time>
      </trkpt>
      <trkpt lat="49.1555" lon="1.60433">
        <ele>97.350326538086</ele>
        <time>2015-09-13T08:54:28.000Z</time>
      </trkpt>
      <trkpt lat="49.15551" lon="1.60419">
        <ele>97.610061645508</ele>
        <time>2015-09-13T08:54:31.000Z</time>
      </trkpt>
      <trkpt lat="49.15555" lon="1.60409">
        <ele>97.917335510254</ele>
        <time>2015-09-13T08:54:34.000Z</time>
      </trkpt>
      <trkpt lat="49.15558" lon="1.604">
        <ele>98.288330078125</ele>
        <time>2015-09-13T08:54:38.000Z</time>
      </trkpt>
      <trkpt lat="49.1556" lon="1.60388">
        <ele>98.742317199707</ele>
        <time>2015-09-13T08:54:40.000Z</time>
      </trkpt>
      <trkpt lat="49.15563" lon="1.60374">
        <ele>99.283126831055</ele>
        <time>2015-09-13T08:54:43.000Z</time>
      </trkpt>
      <trkpt lat="49.15566" lon="1.60361">
        <ele>99.900756835938</ele>
        <time>2015-09-13T08:54:46.000Z</time>
      </trkpt>
      <trkpt lat="49.1557" lon="1.60349">
        <ele>100.55126953125</ele>
        <time>2015-09-13T08:54:49.000Z</time>
      </trkpt>
      <trkpt lat="49.15574" lon="1.60341">
        <ele>101.19140625</ele>
        <time>2015-09-13T08:54:51.000Z</time>
      </trkpt>
      <trkpt lat="49.15577" lon="1.60333">
        <ele>101.79699707031</ele>
        <time>2015-09-13T08:54:54.000Z</time>
      </trkpt>
      <trkpt lat="49.1558" lon="1.60328">
        <ele>102.29719543457</ele>
        <time>2015-09-13T08:54:55.000Z</time>
      </trkpt>
      <trkpt lat="49.15586" lon="1.6032">
        <ele>102.72575378418</ele>
        <time>2015-09-13T08:54:58.000Z</time>
      </trkpt>
      <trkpt lat="49.1559" lon="1.60315">
        <ele>103.06887054443</ele>
        <time>2015-09-13T08:55:00.000Z</time>
      </trkpt>
      <trkpt lat="49.15593" lon="1.60309">
        <ele>103.36985778809</ele>
        <time>2015-09-13T08:55:03.000Z</time>
      </trkpt>
      <trkpt lat="49.15601" lon="1.60299">
        <ele>103.68028259277</ele>
        <time>2015-09-13T08:55:06.000Z</time>
      </trkpt>
      <trkpt lat="49.15604" lon="1.60291">
        <ele>103.99794769287</ele>
        <time>2015-09-13T08:55:08.000Z</time>
      </trkpt>
      <trkpt lat="49.1561" lon="1.60282">
        <ele>104.31301116943</ele>
        <time>2015-09-13T08:55:11.000Z</time>
      </trkpt>
      <trkpt lat="49.15611" lon="1.60273">
        <ele>104.62198638916</ele>
        <time>2015-09-13T08:55:13.000Z</time>
      </trkpt>
      <trkpt lat="49.15612" lon="1.60263">
        <ele>104.92468261719</ele>
        <time>2015-09-13T08:55:15.000Z</time>
      </trkpt>
      <trkpt lat="49.1561" lon="1.60256">
        <ele>105.15097808838</ele>
        <time>2015-09-13T08:55:18.000Z</time>
      </trkpt>
      <trkpt lat="49.15606" lon="1.60243">
        <ele>105.3466796875</ele>
        <time>2015-09-13T08:55:20.000Z</time>
      </trkpt>
      <trkpt lat="49.15602" lon="1.60235">
        <ele>105.47668457031</ele>
        <time>2015-09-13T08:55:22.000Z</time>
      </trkpt>
      <trkpt lat="49.15599" lon="1.60227">
        <ele>105.56662750244</ele>
        <time>2015-09-13T08:55:24.000Z</time>
      </trkpt>
      <trkpt lat="49.15595" lon="1.60217">
        <ele>105.61985015869</ele>
        <time>2015-09-13T08:55:27.000Z</time>
      </trkpt>
      <trkpt lat="49.15592" lon="1.6021">
        <ele>105.65405273438</ele>
        <time>2015-09-13T08:55:29.000Z</time>
      </trkpt>
      <trkpt lat="49.15586" lon="1.60197">
        <ele>105.67279052734</ele>
        <time>2015-09-13T08:55:33.000Z</time>
      </trkpt>
      <trkpt lat="49.1558" lon="1.60185">
        <ele>105.70589447021</ele>
        <time>2015-09-13T08:55:35.000Z</time>
      </trkpt>
      <trkpt lat="49.15575" lon="1.60173">
        <ele>105.77836608887</ele>
        <time>2015-09-13T08:55:39.000Z</time>
      </trkpt>
      <trkpt lat="49.15571" lon="1.60165">
        <ele>105.87197113037</ele>
        <time>2015-09-13T08:55:40.000Z</time>
      </trkpt>
      <trkpt lat="49.15566" lon="1.60153">
        <ele>105.98342132568</ele>
        <time>2015-09-13T08:55:44.000Z</time>
      </trkpt>
      <trkpt lat="49.15561" lon="1.60143">
        <ele>106.11082458496</ele>
        <time>2015-09-13T08:55:46.000Z</time>
      </trkpt>
      <trkpt lat="49.15558" lon="1.60136">
        <ele>106.23380279541</ele>
        <time>2015-09-13T08:55:48.000Z</time>
      </trkpt>
      <trkpt lat="49.15554" lon="1.6013">
        <ele>106.33027648926</ele>
        <time>2015-09-13T08:55:51.000Z</time>
      </trkpt>
      <trkpt lat="49.15551" lon="1.60122">
        <ele>106.42097473145</ele>
        <time>2015-09-13T08:55:52.000Z</time>
      </trkpt>
      <trkpt lat="49.15545" lon="1.60107">
        <ele>106.53061676025</ele>
        <time>2015-09-13T08:55:56.000Z</time>
      </trkpt>
      <trkpt lat="49.15541" lon="1.60099">
        <ele>106.64542388916</ele>
        <time>2015-09-13T08:55:57.000Z</time>
      </trkpt>
      <trkpt lat="49.15538" lon="1.60092">
        <ele>106.77038574219</ele>
        <time>2015-09-13T08:55:59.000Z</time>
      </trkpt>
      <trkpt lat="49.15533" lon="1.6008">
        <ele>106.92427062988</ele>
        <time>2015-09-13T08:56:02.000Z</time>
      </trkpt>
      <trkpt lat="49.15528" lon="1.60069">
        <ele>107.11624908447</ele>
        <time>2015-09-13T08:56:05.000Z</time>
      </trkpt>
      <trkpt lat="49.15524" lon="1.6006">
        <ele>107.31711578369</ele>
        <time>2015-09-13T08:56:08.000Z</time>
      </trkpt>
      <trkpt lat="49.1552" lon="1.60048">
        <ele>107.54444885254</ele>
        <time>2015-09-13T08:56:11.000Z</time>
      </trkpt>
      <trkpt lat="49.15525" lon="1.60041">
        <ele>107.75058746338</ele>
        <time>2015-09-13T08:56:14.000Z</time>
      </trkpt>
      <trkpt lat="49.15533" lon="1.60034">
        <ele>107.9041519165</ele>
        <time>2015-09-13T08:56:18.000Z</time>
      </trkpt>
      <trkpt lat="49.15538" lon="1.6003">
        <ele>107.99360656738</ele>
        <time>2015-09-13T08:56:19.000Z</time>
      </trkpt>
      <trkpt lat="49.15547" lon="1.60024">
        <ele>108.03128814697</ele>
        <time>2015-09-13T08:56:23.000Z</time>
      </trkpt>
      <trkpt lat="49.15553" lon="1.60019">
        <ele>108.01792907715</ele>
        <time>2015-09-13T08:56:24.000Z</time>
      </trkpt>
      <trkpt lat="49.1556" lon="1.60014">
        <ele>108.00231933594</ele>
        <time>2015-09-13T08:56:26.000Z</time>
      </trkpt>
      <trkpt lat="49.15569" lon="1.60007">
        <ele>107.99824523926</ele>
        <time>2015-09-13T08:56:29.000Z</time>
      </trkpt>
      <trkpt lat="49.15578" lon="1.60002">
        <ele>107.99836730957</ele>
        <time>2015-09-13T08:56:32.000Z</time>
      </trkpt>
      <trkpt lat="49.15589" lon="1.59997">
        <ele>108.03672790527</ele>
        <time>2015-09-13T08:56:35.000Z</time>
      </trkpt>
      <trkpt lat="49.15599" lon="1.59993">
        <ele>108.12132263184</ele>
        <time>2015-09-13T08:56:38.000Z</time>
      </trkpt>
      <trkpt lat="49.15609" lon="1.5999">
        <ele>108.24433898926</ele>
        <time>2015-09-13T08:56:41.000Z</time>
      </trkpt>
      <trkpt lat="49.15615" lon="1.59988">
        <ele>108.38421630859</ele>
        <time>2015-09-13T08:56:43.000Z</time>
      </trkpt>
      <trkpt lat="49.15623" lon="1.59987">
        <ele>108.54071044922</ele>
        <time>2015-09-13T08:56:46.000Z</time>
      </trkpt>
      <trkpt lat="49.15631" lon="1.59985">
        <ele>108.68450927734</ele>
        <time>2015-09-13T08:56:47.000Z</time>
      </trkpt>
      <trkpt lat="49.15641" lon="1.59983">
        <ele>108.80570220947</ele>
        <time>2015-09-13T08:56:50.000Z</time>
      </trkpt>
      <trkpt lat="49.15648" lon="1.59983">
        <ele>108.89758300781</ele>
        <time>2015-09-13T08:56:52.000Z</time>
      </trkpt>
      <trkpt lat="49.15656" lon="1.59982">
        <ele>108.98323822021</ele>
        <time>2015-09-13T08:56:55.000Z</time>
      </trkpt>
      <trkpt lat="49.15662" lon="1.59981">
        <ele>109.06307220459</ele>
        <time>2015-09-13T08:56:57.000Z</time>
      </trkpt>
      <trkpt lat="49.15668" lon="1.59979">
        <ele>109.14113616943</ele>
        <time>2015-09-13T08:56:59.000Z</time>
      </trkpt>
      <trkpt lat="49.15676" lon="1.59978">
        <ele>109.22176361084</ele>
        <time>2015-09-13T08:57:01.000Z</time>
      </trkpt>
      <trkpt lat="49.15686" lon="1.59976">
        <ele>109.32711029053</ele>
        <time>2015-09-13T08:57:04.000Z</time>
      </trkpt>
      <trkpt lat="49.15696" lon="1.59975">
        <ele>109.44752502441</ele>
        <time>2015-09-13T08:57:08.000Z</time>
      </trkpt>
      <trkpt lat="49.15701" lon="1.59973">
        <ele>109.58145904541</ele>
        <time>2015-09-13T08:57:09.000Z</time>
      </trkpt>
      <trkpt lat="49.15709" lon="1.59963">
        <ele>109.75667572021</ele>
        <time>2015-09-13T08:57:12.000Z</time>
      </trkpt>
      <trkpt lat="49.15717" lon="1.59954">
        <ele>109.96806335449</ele>
        <time>2015-09-13T08:57:15.000Z</time>
      </trkpt>
      <trkpt lat="49.15724" lon="1.59943">
        <ele>110.21750640869</ele>
        <time>2015-09-13T08:57:19.000Z</time>
      </trkpt>
      <trkpt lat="49.15728" lon="1.5993">
        <ele>110.50606536865</ele>
        <time>2015-09-13T08:57:21.000Z</time>
      </trkpt>
      <trkpt lat="49.1573" lon="1.59916">
        <ele>110.83554840088</ele>
        <time>2015-09-13T08:57:24.000Z</time>
      </trkpt>
      <trkpt lat="49.1573" lon="1.59902">
        <ele>111.15309143066</ele>
        <time>2015-09-13T08:57:27.000Z</time>
      </trkpt>
      <trkpt lat="49.15731" lon="1.59892">
        <ele>111.43776702881</ele>
        <time>2015-09-13T08:57:30.000Z</time>
      </trkpt>
      <trkpt lat="49.15733" lon="1.59876">
        <ele>111.70176696777</ele>
        <time>2015-09-13T08:57:32.000Z</time>
      </trkpt>
      <trkpt lat="49.15738" lon="1.59862">
        <ele>111.95664215088</ele>
        <time>2015-09-13T08:57:35.000Z</time>
      </trkpt>
      <trkpt lat="49.15741" lon="1.59854">
        <ele>112.17946624756</ele>
        <time>2015-09-13T08:57:37.000Z</time>
      </trkpt>
      <trkpt lat="49.15736" lon="1.59837">
        <ele>112.38775634766</ele>
        <time>2015-09-13T08:57:41.000Z</time>
      </trkpt>
      <trkpt lat="49.15734" lon="1.59834">
        <ele>112.56803894043</ele>
        <time>2015-09-13T08:57:42.000Z</time>
      </trkpt>
      <trkpt lat="49.15733" lon="1.59833">
        <ele>112.69718933105</ele>
        <time>2015-09-13T08:57:46.000Z</time>
      </trkpt>
      <trkpt lat="49.15733" lon="1.5983">
        <ele>112.77502441406</ele>
        <time>2015-09-13T08:57:48.000Z</time>
      </trkpt>
      <trkpt lat="49.15733" lon="1.59828">
        <ele>112.82421875</ele>
        <time>2015-09-13T08:57:51.000Z</time>
      </trkpt>
      <trkpt lat="49.15733" lon="1.59828">
        <ele>112.82421875</ele>
        <time>2015-09-13T08:58:01.000Z</time>
      </trkpt>
      <trkpt lat="49.15734" lon="1.59828">
        <ele>112.84450531006</ele>
        <time>2015-09-13T08:58:07.000Z</time>
      </trkpt>
      <trkpt lat="49.15735" lon="1.59827">
        <ele>112.86623382568</ele>
        <time>2015-09-13T08:58:10.000Z</time>
      </trkpt>
      <trkpt lat="49.15735" lon="1.59827">
        <ele>112.86623382568</ele>
        <time>2015-09-13T08:58:22.000Z</time>
      </trkpt>
      <trkpt lat="49.15735" lon="1.59827">
        <ele>112.86623382568</ele>
        <time>2015-09-13T08:58:33.000Z</time>
      </trkpt>
    </trkseg>
  </trk>
</gpx>